<?xml version='1.0' encoding='UTF-8'?><gpx version="1.1" creator="JPX - https://github.com/jenetics/jpx" xmlns="http://www.topografix.com/GPX/1/1"><trk><trkseg><trkpt lat="53.6443008" lon="-1.8461775"><ele>183.0</ele><time>2026-04-11T08:07:04.499Z</time></trkpt><trkpt lat="53.6442592" lon="-1.8462592"><ele>183.0</ele><time>2026-04-11T08:07:10.497Z</time></trkpt><trkpt lat="53.6439682" lon="-1.8473897"><ele>184.60000000000002</ele><time>2026-04-11T08:07:15.49Z</time></trkpt><trkpt lat="53.6439116" lon="-1.8476709"><ele>186.20000000000002</ele><time>2026-04-11T08:07:16.492Z</time></trkpt><trkpt lat="53.6438936" lon="-1.8477904"><ele>187.8</ele><time>2026-04-11T08:07:17.49Z</time></trkpt><trkpt lat="53.6439094" lon="-1.8478934"><ele>189.4</ele><time>2026-04-11T08:07:19.487Z</time></trkpt><trkpt lat="53.643994" lon="-1.8479721"><ele>191.0</ele><time>2026-04-11T08:07:21.493Z</time></trkpt><trkpt lat="53.6440699" lon="-1.8479961"><ele>191.0</ele><time>2026-04-11T08:07:22.493Z</time></trkpt><trkpt lat="53.6441599" lon="-1.8480197"><ele>191.0</ele><time>2026-04-11T08:07:23.496Z</time></trkpt><trkpt lat="53.6442501" lon="-1.8480473"><ele>191.0</ele><time>2026-04-11T08:07:24.497Z</time></trkpt><trkpt lat="53.6443335" lon="-1.8480812"><ele>191.0</ele><time>2026-04-11T08:07:25.494Z</time></trkpt><trkpt lat="53.6444023" lon="-1.848117"><ele>191.0</ele><time>2026-04-11T08:07:26.496Z</time></trkpt><trkpt lat="53.6444847" lon="-1.8481814"><ele>191.0</ele><time>2026-04-11T08:07:28.496Z</time></trkpt><trkpt lat="53.6445448" lon="-1.8482429"><ele>190.4</ele><time>2026-04-11T08:07:32.494Z</time></trkpt><trkpt lat="53.6446021" lon="-1.8481355"><ele>189.8</ele><time>2026-04-11T08:07:36.495Z</time></trkpt><trkpt lat="53.6446269" lon="-1.8480048"><ele>189.20000000000002</ele><time>2026-04-11T08:07:37.49Z</time></trkpt><trkpt lat="53.6446583" lon="-1.8478457"><ele>188.60000000000002</ele><time>2026-04-11T08:07:38.491Z</time></trkpt><trkpt lat="53.6447012" lon="-1.8476694"><ele>188.0</ele><time>2026-04-11T08:07:39.493Z</time></trkpt><trkpt lat="53.6447404" lon="-1.8474808"><ele>187.25</ele><time>2026-04-11T08:07:40.496Z</time></trkpt><trkpt lat="53.6447816" lon="-1.8473033"><ele>186.5</ele><time>2026-04-11T08:07:41.489Z</time></trkpt><trkpt lat="53.6448318" lon="-1.8471169"><ele>185.75</ele><time>2026-04-11T08:07:42.494Z</time></trkpt><trkpt lat="53.6448812" lon="-1.8469225"><ele>185.0</ele><time>2026-04-11T08:07:43.494Z</time></trkpt><trkpt lat="53.6449287" lon="-1.8467262"><ele>184.5</ele><time>2026-04-11T08:07:44.497Z</time></trkpt><trkpt lat="53.6449744" lon="-1.8465255"><ele>184.0</ele><time>2026-04-11T08:07:45.495Z</time></trkpt><trkpt lat="53.6450186" lon="-1.8463167"><ele>183.5</ele><time>2026-04-11T08:07:46.49Z</time></trkpt><trkpt lat="53.6450603" lon="-1.8461056"><ele>183.0</ele><time>2026-04-11T08:07:47.495Z</time></trkpt><trkpt lat="53.6450995" lon="-1.8458951"><ele>182.25</ele><time>2026-04-11T08:07:48.496Z</time></trkpt><trkpt lat="53.6451341" lon="-1.8456964"><ele>181.5</ele><time>2026-04-11T08:07:49.495Z</time></trkpt><trkpt lat="53.6451643" lon="-1.8454955"><ele>180.75</ele><time>2026-04-11T08:07:50.495Z</time></trkpt><trkpt lat="53.645195" lon="-1.8452863"><ele>180.0</ele><time>2026-04-11T08:07:51.493Z</time></trkpt><trkpt lat="53.6452259" lon="-1.845085"><ele>179.25</ele><time>2026-04-11T08:07:52.495Z</time></trkpt><trkpt lat="53.6452544" lon="-1.844896"><ele>178.5</ele><time>2026-04-11T08:07:53.494Z</time></trkpt><trkpt lat="53.6452803" lon="-1.8447084"><ele>177.75</ele><time>2026-04-11T08:07:54.5Z</time></trkpt><trkpt lat="53.6453081" lon="-1.8445185"><ele>177.0</ele><time>2026-04-11T08:07:55.495Z</time></trkpt><trkpt lat="53.6453215" lon="-1.8443169"><ele>176.5</ele><time>2026-04-11T08:07:56.493Z</time></trkpt><trkpt lat="53.6453153" lon="-1.8441059"><ele>176.0</ele><time>2026-04-11T08:07:57.493Z</time></trkpt><trkpt lat="53.6452919" lon="-1.8438927"><ele>175.5</ele><time>2026-04-11T08:07:58.493Z</time></trkpt><trkpt lat="53.6452584" lon="-1.8436828"><ele>175.0</ele><time>2026-04-11T08:07:59.496Z</time></trkpt><trkpt lat="53.6452285" lon="-1.8434795"><ele>174.0</ele><time>2026-04-11T08:08:00.496Z</time></trkpt><trkpt lat="53.6452033" lon="-1.8432743"><ele>173.0</ele><time>2026-04-11T08:08:01.496Z</time></trkpt><trkpt lat="53.6451929" lon="-1.8430623"><ele>172.0</ele><time>2026-04-11T08:08:02.495Z</time></trkpt><trkpt lat="53.6452007" lon="-1.842845"><ele>171.0</ele><time>2026-04-11T08:08:03.496Z</time></trkpt><trkpt lat="53.6452254" lon="-1.8426373"><ele>170.4</ele><time>2026-04-11T08:08:04.494Z</time></trkpt><trkpt lat="53.6452666" lon="-1.8424553"><ele>169.8</ele><time>2026-04-11T08:08:05.497Z</time></trkpt><trkpt lat="53.6453094" lon="-1.8422999"><ele>169.20000000000002</ele><time>2026-04-11T08:08:06.498Z</time></trkpt><trkpt lat="53.6453532" lon="-1.8421585"><ele>168.60000000000002</ele><time>2026-04-11T08:08:07.497Z</time></trkpt><trkpt lat="53.6453979" lon="-1.8420214"><ele>168.0</ele><time>2026-04-11T08:08:08.49Z</time></trkpt><trkpt lat="53.6454408" lon="-1.8418734"><ele>167.2</ele><time>2026-04-11T08:08:09.484Z</time></trkpt><trkpt lat="53.6454918" lon="-1.8417031"><ele>166.4</ele><time>2026-04-11T08:08:10.49Z</time></trkpt><trkpt lat="53.645534" lon="-1.8415306"><ele>165.6</ele><time>2026-04-11T08:08:11.487Z</time></trkpt><trkpt lat="53.6455741" lon="-1.841354"><ele>164.79999999999998</ele><time>2026-04-11T08:08:12.493Z</time></trkpt><trkpt lat="53.6456114" lon="-1.8411736"><ele>164.0</ele><time>2026-04-11T08:08:13.497Z</time></trkpt><trkpt lat="53.6456432" lon="-1.8409927"><ele>163.79999999999998</ele><time>2026-04-11T08:08:14.492Z</time></trkpt><trkpt lat="53.6456706" lon="-1.8408146"><ele>163.6</ele><time>2026-04-11T08:08:15.49Z</time></trkpt><trkpt lat="53.6456974" lon="-1.8406354"><ele>163.4</ele><time>2026-04-11T08:08:16.491Z</time></trkpt><trkpt lat="53.6457229" lon="-1.840449"><ele>163.2</ele><time>2026-04-11T08:08:17.486Z</time></trkpt><trkpt lat="53.6457505" lon="-1.8402603"><ele>163.0</ele><time>2026-04-11T08:08:18.49Z</time></trkpt><trkpt lat="53.6457785" lon="-1.8400698"><ele>162.0</ele><time>2026-04-11T08:08:19.488Z</time></trkpt><trkpt lat="53.6458028" lon="-1.8398707"><ele>161.0</ele><time>2026-04-11T08:08:20.492Z</time></trkpt><trkpt lat="53.6458309" lon="-1.8396628"><ele>160.0</ele><time>2026-04-11T08:08:21.492Z</time></trkpt><trkpt lat="53.6458664" lon="-1.8394624"><ele>159.0</ele><time>2026-04-11T08:08:22.493Z</time></trkpt><trkpt lat="53.6459137" lon="-1.8392826"><ele>158.0</ele><time>2026-04-11T08:08:23.49Z</time></trkpt><trkpt lat="53.6459682" lon="-1.8391148"><ele>157.0</ele><time>2026-04-11T08:08:24.493Z</time></trkpt><trkpt lat="53.646024" lon="-1.8389533"><ele>156.0</ele><time>2026-04-11T08:08:25.491Z</time></trkpt><trkpt lat="53.6460804" lon="-1.8388"><ele>155.0</ele><time>2026-04-11T08:08:26.492Z</time></trkpt><trkpt lat="53.6461298" lon="-1.8386493"><ele>154.0</ele><time>2026-04-11T08:08:27.49Z</time></trkpt><trkpt lat="53.6461645" lon="-1.8384924"><ele>153.16666666666669</ele><time>2026-04-11T08:08:28.49Z</time></trkpt><trkpt lat="53.6461924" lon="-1.838326"><ele>152.33333333333334</ele><time>2026-04-11T08:08:29.49Z</time></trkpt><trkpt lat="53.6462144" lon="-1.8381622"><ele>151.5</ele><time>2026-04-11T08:08:30.491Z</time></trkpt><trkpt lat="53.6462274" lon="-1.8380156"><ele>150.66666666666666</ele><time>2026-04-11T08:08:31.49Z</time></trkpt><trkpt lat="53.6462236" lon="-1.8378842"><ele>149.83333333333331</ele><time>2026-04-11T08:08:32.487Z</time></trkpt><trkpt lat="53.6462071" lon="-1.8377582"><ele>149.0</ele><time>2026-04-11T08:08:33.491Z</time></trkpt><trkpt lat="53.6461905" lon="-1.8376316"><ele>148.83333333333331</ele><time>2026-04-11T08:08:34.49Z</time></trkpt><trkpt lat="53.6461687" lon="-1.837516"><ele>148.66666666666666</ele><time>2026-04-11T08:08:36.493Z</time></trkpt><trkpt lat="53.6461814" lon="-1.8373385"><ele>148.5</ele><time>2026-04-11T08:08:40.492Z</time></trkpt><trkpt lat="53.6461837" lon="-1.8372189"><ele>148.33333333333334</ele><time>2026-04-11T08:08:41.489Z</time></trkpt><trkpt lat="53.646178" lon="-1.8370631"><ele>148.16666666666669</ele><time>2026-04-11T08:08:42.491Z</time></trkpt><trkpt lat="53.6461568" lon="-1.836899"><ele>148.0</ele><time>2026-04-11T08:08:43.488Z</time></trkpt><trkpt lat="53.6461303" lon="-1.8367134"><ele>145.0</ele><time>2026-04-11T08:08:44.491Z</time></trkpt><trkpt lat="53.6461107" lon="-1.8365257"><ele>142.0</ele><time>2026-04-11T08:08:45.488Z</time></trkpt><trkpt lat="53.6460885" lon="-1.8363372"><ele>139.0</ele><time>2026-04-11T08:08:46.488Z</time></trkpt><trkpt lat="53.646048" lon="-1.8361246"><ele>136.0</ele><time>2026-04-11T08:08:47.488Z</time></trkpt><trkpt lat="53.6459977" lon="-1.835912"><ele>135.4</ele><time>2026-04-11T08:08:48.491Z</time></trkpt><trkpt lat="53.6459404" lon="-1.8357069"><ele>134.8</ele><time>2026-04-11T08:08:49.49Z</time></trkpt><trkpt lat="53.6458863" lon="-1.835534"><ele>134.20000000000002</ele><time>2026-04-11T08:08:50.487Z</time></trkpt><trkpt lat="53.6458371" lon="-1.8353879"><ele>133.6</ele><time>2026-04-11T08:08:51.487Z</time></trkpt><trkpt lat="53.6457894" lon="-1.8352633"><ele>133.0</ele><time>2026-04-11T08:08:52.487Z</time></trkpt><trkpt lat="53.6457473" lon="-1.8351453"><ele>133.20000000000002</ele><time>2026-04-11T08:08:53.491Z</time></trkpt><trkpt lat="53.6457089" lon="-1.835006"><ele>133.4</ele><time>2026-04-11T08:08:54.489Z</time></trkpt><trkpt lat="53.645673" lon="-1.8348501"><ele>133.60000000000002</ele><time>2026-04-11T08:08:55.486Z</time></trkpt><trkpt lat="53.6456334" lon="-1.8346828"><ele>133.8</ele><time>2026-04-11T08:08:56.487Z</time></trkpt><trkpt lat="53.6455923" lon="-1.8345142"><ele>134.0</ele><time>2026-04-11T08:08:57.487Z</time></trkpt><trkpt lat="53.6455577" lon="-1.8343466"><ele>134.6</ele><time>2026-04-11T08:08:58.489Z</time></trkpt><trkpt lat="53.6455376" lon="-1.8341834"><ele>135.2</ele><time>2026-04-11T08:08:59.487Z</time></trkpt><trkpt lat="53.6455352" lon="-1.8340122"><ele>135.79999999999998</ele><time>2026-04-11T08:09:00.488Z</time></trkpt><trkpt lat="53.645545" lon="-1.8338159"><ele>136.4</ele><time>2026-04-11T08:09:01.482Z</time></trkpt><trkpt lat="53.6455659" lon="-1.8336151"><ele>137.0</ele><time>2026-04-11T08:09:02.488Z</time></trkpt><trkpt lat="53.6455877" lon="-1.8334048"><ele>138.4</ele><time>2026-04-11T08:09:03.488Z</time></trkpt><trkpt lat="53.6456054" lon="-1.8331939"><ele>139.79999999999998</ele><time>2026-04-11T08:09:04.488Z</time></trkpt><trkpt lat="53.6456153" lon="-1.833014"><ele>141.2</ele><time>2026-04-11T08:09:05.491Z</time></trkpt><trkpt lat="53.645612" lon="-1.8328631"><ele>142.6</ele><time>2026-04-11T08:09:06.488Z</time></trkpt><trkpt lat="53.6456042" lon="-1.8327317"><ele>144.0</ele><time>2026-04-11T08:09:07.488Z</time></trkpt><trkpt lat="53.645602" lon="-1.8325509"><ele>145.5</ele><time>2026-04-11T08:09:09.488Z</time></trkpt><trkpt lat="53.6456459" lon="-1.8323278"><ele>147.0</ele><time>2026-04-11T08:09:11.488Z</time></trkpt><trkpt lat="53.6457184" lon="-1.8321914"><ele>148.5</ele><time>2026-04-11T08:09:12.488Z</time></trkpt><trkpt lat="53.6457975" lon="-1.8320516"><ele>150.0</ele><time>2026-04-11T08:09:13.49Z</time></trkpt><trkpt lat="53.6458582" lon="-1.8319221"><ele>150.5</ele><time>2026-04-11T08:09:14.485Z</time></trkpt><trkpt lat="53.6458974" lon="-1.8317862"><ele>151.0</ele><time>2026-04-11T08:09:15.489Z</time></trkpt><trkpt lat="53.6458874" lon="-1.8316601"><ele>151.5</ele><time>2026-04-11T08:09:16.486Z</time></trkpt><trkpt lat="53.6458192" lon="-1.831534"><ele>152.0</ele><time>2026-04-11T08:09:18.486Z</time></trkpt><trkpt lat="53.6459139" lon="-1.8315736"><ele>152.5</ele><time>2026-04-11T08:09:21.49Z</time></trkpt><trkpt lat="53.6459863" lon="-1.8316386"><ele>153.0</ele><time>2026-04-11T08:09:22.49Z</time></trkpt><trkpt lat="53.646051" lon="-1.8317286"><ele>152.25</ele><time>2026-04-11T08:09:23.49Z</time></trkpt><trkpt lat="53.6461239" lon="-1.8318245"><ele>151.5</ele><time>2026-04-11T08:09:24.49Z</time></trkpt><trkpt lat="53.6462058" lon="-1.8319574"><ele>150.75</ele><time>2026-04-11T08:09:25.488Z</time></trkpt><trkpt lat="53.6463185" lon="-1.8321356"><ele>150.0</ele><time>2026-04-11T08:09:26.487Z</time></trkpt><trkpt lat="53.6464543" lon="-1.8323266"><ele>153.66666666666666</ele><time>2026-04-11T08:09:27.489Z</time></trkpt><trkpt lat="53.6465824" lon="-1.8324619"><ele>157.33333333333331</ele><time>2026-04-11T08:09:28.488Z</time></trkpt><trkpt lat="53.6467171" lon="-1.8325711"><ele>161.0</ele><time>2026-04-11T08:09:29.487Z</time></trkpt><trkpt lat="53.6468559" lon="-1.8327062"><ele>169.33333333333331</ele><time>2026-04-11T08:09:30.487Z</time></trkpt><trkpt lat="53.6470066" lon="-1.8328647"><ele>177.66666666666666</ele><time>2026-04-11T08:09:31.487Z</time></trkpt><trkpt lat="53.6471565" lon="-1.8330804"><ele>186.0</ele><time>2026-04-11T08:09:32.487Z</time></trkpt><trkpt lat="53.6473072" lon="-1.8333317"><ele>183.33333333333334</ele><time>2026-04-11T08:09:33.486Z</time></trkpt><trkpt lat="53.64746" lon="-1.8335987"><ele>180.66666666666669</ele><time>2026-04-11T08:09:34.488Z</time></trkpt><trkpt lat="53.6476011" lon="-1.8338594"><ele>178.0</ele><time>2026-04-11T08:09:35.487Z</time></trkpt><trkpt lat="53.6477122" lon="-1.8341411"><ele>184.33333333333334</ele><time>2026-04-11T08:09:36.486Z</time></trkpt><trkpt lat="53.6478138" lon="-1.8344154"><ele>190.66666666666669</ele><time>2026-04-11T08:09:37.49Z</time></trkpt><trkpt lat="53.647904" lon="-1.8346994"><ele>197.0</ele><time>2026-04-11T08:09:38.489Z</time></trkpt><trkpt lat="53.6479937" lon="-1.8349754"><ele>195.33333333333334</ele><time>2026-04-11T08:09:39.486Z</time></trkpt><trkpt lat="53.6480852" lon="-1.8352388"><ele>193.66666666666669</ele><time>2026-04-11T08:09:40.489Z</time></trkpt><trkpt lat="53.6481811" lon="-1.8354806"><ele>192.0</ele><time>2026-04-11T08:09:41.49Z</time></trkpt><trkpt lat="53.6482864" lon="-1.8357046"><ele>192.0</ele><time>2026-04-11T08:09:42.49Z</time></trkpt><trkpt lat="53.6483962" lon="-1.8359342"><ele>192.0</ele><time>2026-04-11T08:09:43.487Z</time></trkpt><trkpt lat="53.6485082" lon="-1.8361705"><ele>192.0</ele><time>2026-04-11T08:09:44.487Z</time></trkpt><trkpt lat="53.6486227" lon="-1.8364053"><ele>196.0</ele><time>2026-04-11T08:09:45.487Z</time></trkpt><trkpt lat="53.6487344" lon="-1.836627"><ele>200.0</ele><time>2026-04-11T08:09:46.486Z</time></trkpt><trkpt lat="53.6488453" lon="-1.8368334"><ele>204.0</ele><time>2026-04-11T08:09:47.487Z</time></trkpt><trkpt lat="53.6489533" lon="-1.8370171"><ele>204.0</ele><time>2026-04-11T08:09:48.487Z</time></trkpt><trkpt lat="53.6490553" lon="-1.8371835"><ele>204.0</ele><time>2026-04-11T08:09:49.487Z</time></trkpt><trkpt lat="53.6491536" lon="-1.8373327"><ele>204.0</ele><time>2026-04-11T08:09:50.487Z</time></trkpt><trkpt lat="53.6492428" lon="-1.8374417"><ele>204.0</ele><time>2026-04-11T08:09:51.486Z</time></trkpt><trkpt lat="53.6493123" lon="-1.8375161"><ele>204.0</ele><time>2026-04-11T08:09:52.49Z</time></trkpt><trkpt lat="53.6493918" lon="-1.8375588"><ele>204.0</ele><time>2026-04-11T08:09:54.492Z</time></trkpt><trkpt lat="53.6493492" lon="-1.8374715"><ele>204.0</ele><time>2026-04-11T08:09:57.497Z</time></trkpt><trkpt lat="53.6494503" lon="-1.8375524"><ele>204.0</ele><time>2026-04-11T08:10:15.489Z</time></trkpt><trkpt lat="53.6495296" lon="-1.8376477"><ele>204.0</ele><time>2026-04-11T08:10:16.497Z</time></trkpt><trkpt lat="53.6496261" lon="-1.8377844"><ele>205.5</ele><time>2026-04-11T08:10:17.495Z</time></trkpt><trkpt lat="53.649722" lon="-1.8379563"><ele>207.0</ele><time>2026-04-11T08:10:18.494Z</time></trkpt><trkpt lat="53.6498133" lon="-1.8381487"><ele>208.5</ele><time>2026-04-11T08:10:19.494Z</time></trkpt><trkpt lat="53.649907" lon="-1.8383525"><ele>210.0</ele><time>2026-04-11T08:10:20.495Z</time></trkpt><trkpt lat="53.6500065" lon="-1.8385725"><ele>210.0</ele><time>2026-04-11T08:10:21.494Z</time></trkpt><trkpt lat="53.6501098" lon="-1.8388088"><ele>210.0</ele><time>2026-04-11T08:10:22.494Z</time></trkpt><trkpt lat="53.6502167" lon="-1.839065"><ele>210.0</ele><time>2026-04-11T08:10:23.497Z</time></trkpt><trkpt lat="53.6503198" lon="-1.8393241"><ele>213.0</ele><time>2026-04-11T08:10:24.497Z</time></trkpt><trkpt lat="53.6504235" lon="-1.839583"><ele>216.0</ele><time>2026-04-11T08:10:25.495Z</time></trkpt><trkpt lat="53.6505277" lon="-1.839849"><ele>219.0</ele><time>2026-04-11T08:10:26.496Z</time></trkpt><trkpt lat="53.6506335" lon="-1.8401167"><ele>218.33333333333331</ele><time>2026-04-11T08:10:27.496Z</time></trkpt><trkpt lat="53.650742" lon="-1.8403823"><ele>217.66666666666666</ele><time>2026-04-11T08:10:28.494Z</time></trkpt><trkpt lat="53.6508459" lon="-1.8406514"><ele>217.0</ele><time>2026-04-11T08:10:29.494Z</time></trkpt><trkpt lat="53.6509549" lon="-1.8409199"><ele>215.0</ele><time>2026-04-11T08:10:30.495Z</time></trkpt><trkpt lat="53.6510633" lon="-1.8411927"><ele>213.0</ele><time>2026-04-11T08:10:31.495Z</time></trkpt><trkpt lat="53.6511728" lon="-1.8414707"><ele>211.0</ele><time>2026-04-11T08:10:32.502Z</time></trkpt><trkpt lat="53.6512858" lon="-1.8417472"><ele>215.33333333333331</ele><time>2026-04-11T08:10:33.498Z</time></trkpt><trkpt lat="53.6514095" lon="-1.8420162"><ele>219.66666666666669</ele><time>2026-04-11T08:10:34.5Z</time></trkpt><trkpt lat="53.6515463" lon="-1.8422861"><ele>224.0</ele><time>2026-04-11T08:10:35.5Z</time></trkpt><trkpt lat="53.6516978" lon="-1.842558"><ele>227.5</ele><time>2026-04-11T08:10:36.502Z</time></trkpt><trkpt lat="53.6518626" lon="-1.8428192"><ele>231.0</ele><time>2026-04-11T08:10:37.499Z</time></trkpt><trkpt lat="53.6520375" lon="-1.8430747"><ele>231.0</ele><time>2026-04-11T08:10:38.501Z</time></trkpt><trkpt lat="53.6522094" lon="-1.8433369"><ele>231.0</ele><time>2026-04-11T08:10:39.502Z</time></trkpt><trkpt lat="53.6523844" lon="-1.8436055"><ele>227.5</ele><time>2026-04-11T08:10:40.506Z</time></trkpt><trkpt lat="53.6525618" lon="-1.8438975"><ele>224.0</ele><time>2026-04-11T08:10:41.503Z</time></trkpt><trkpt lat="53.6527307" lon="-1.8442147"><ele>231.0</ele><time>2026-04-11T08:10:42.501Z</time></trkpt><trkpt lat="53.6528925" lon="-1.8445553"><ele>238.0</ele><time>2026-04-11T08:10:43.498Z</time></trkpt><trkpt lat="53.6530479" lon="-1.8448943"><ele>235.0</ele><time>2026-04-11T08:10:44.497Z</time></trkpt><trkpt lat="53.6531938" lon="-1.8452141"><ele>232.0</ele><time>2026-04-11T08:10:45.497Z</time></trkpt><trkpt lat="53.6533362" lon="-1.8454985"><ele>232.0</ele><time>2026-04-11T08:10:46.498Z</time></trkpt><trkpt lat="53.653464" lon="-1.8457611"><ele>232.0</ele><time>2026-04-11T08:10:47.493Z</time></trkpt><trkpt lat="53.6535841" lon="-1.8460247"><ele>232.0</ele><time>2026-04-11T08:10:48.497Z</time></trkpt><trkpt lat="53.653697" lon="-1.8462511"><ele>233.75</ele><time>2026-04-11T08:10:49.49Z</time></trkpt><trkpt lat="53.6537992" lon="-1.8464548"><ele>235.5</ele><time>2026-04-11T08:10:50.49Z</time></trkpt><trkpt lat="53.6538964" lon="-1.8466417"><ele>237.25</ele><time>2026-04-11T08:10:51.493Z</time></trkpt><trkpt lat="53.6539866" lon="-1.8468116"><ele>239.0</ele><time>2026-04-11T08:10:52.494Z</time></trkpt><trkpt lat="53.6540745" lon="-1.8469614"><ele>239.00000000000003</ele><time>2026-04-11T08:10:53.493Z</time></trkpt><trkpt lat="53.6541587" lon="-1.8470611"><ele>239.0</ele><time>2026-04-11T08:10:54.501Z</time></trkpt><trkpt lat="53.6542356" lon="-1.8471561"><ele>239.0</ele><time>2026-04-11T08:10:55.497Z</time></trkpt><trkpt lat="53.6542968" lon="-1.8472309"><ele>239.0</ele><time>2026-04-11T08:10:56.499Z</time></trkpt><trkpt lat="53.6543548" lon="-1.8472858"><ele>239.00000000000003</ele><time>2026-04-11T08:10:57.496Z</time></trkpt><trkpt lat="53.6544395" lon="-1.8473427"><ele>239.0</ele><time>2026-04-11T08:10:59.495Z</time></trkpt><trkpt lat="53.6545214" lon="-1.8473587"><ele>241.75</ele><time>2026-04-11T08:11:01.5Z</time></trkpt><trkpt lat="53.654633" lon="-1.8471854"><ele>244.5</ele><time>2026-04-11T08:11:03.498Z</time></trkpt><trkpt lat="53.654702" lon="-1.8470361"><ele>247.25</ele><time>2026-04-11T08:11:04.499Z</time></trkpt><trkpt lat="53.6547843" lon="-1.8468698"><ele>250.0</ele><time>2026-04-11T08:11:05.497Z</time></trkpt><trkpt lat="53.6548727" lon="-1.8466997"><ele>250.0</ele><time>2026-04-11T08:11:06.497Z</time></trkpt><trkpt lat="53.6549645" lon="-1.8465358"><ele>250.0</ele><time>2026-04-11T08:11:07.5Z</time></trkpt><trkpt lat="53.6550468" lon="-1.846396"><ele>250.0</ele><time>2026-04-11T08:11:08.5Z</time></trkpt><trkpt lat="53.6551131" lon="-1.8462842"><ele>250.0</ele><time>2026-04-11T08:11:09.499Z</time></trkpt><trkpt lat="53.6551734" lon="-1.846186"><ele>250.0</ele><time>2026-04-11T08:11:10.499Z</time></trkpt><trkpt lat="53.6552301" lon="-1.8460905"><ele>250.0</ele><time>2026-04-11T08:11:11.491Z</time></trkpt><trkpt lat="53.6552923" lon="-1.8459938"><ele>250.0</ele><time>2026-04-11T08:11:12.494Z</time></trkpt><trkpt lat="53.6553578" lon="-1.8458913"><ele>250.0</ele><time>2026-04-11T08:11:13.496Z</time></trkpt><trkpt lat="53.655435" lon="-1.8457775"><ele>250.0</ele><time>2026-04-11T08:11:14.496Z</time></trkpt><trkpt lat="53.6555133" lon="-1.8456546"><ele>250.0</ele><time>2026-04-11T08:11:15.494Z</time></trkpt><trkpt lat="53.6555962" lon="-1.8455294"><ele>250.0</ele><time>2026-04-11T08:11:16.496Z</time></trkpt><trkpt lat="53.6556837" lon="-1.8453968"><ele>250.0</ele><time>2026-04-11T08:11:17.495Z</time></trkpt><trkpt lat="53.6557787" lon="-1.8452495"><ele>250.0</ele><time>2026-04-11T08:11:18.491Z</time></trkpt><trkpt lat="53.6558775" lon="-1.8450872"><ele>250.0</ele><time>2026-04-11T08:11:19.495Z</time></trkpt><trkpt lat="53.6559809" lon="-1.8449061"><ele>249.75</ele><time>2026-04-11T08:11:20.496Z</time></trkpt><trkpt lat="53.6560817" lon="-1.8447268"><ele>249.5</ele><time>2026-04-11T08:11:21.495Z</time></trkpt><trkpt lat="53.6561706" lon="-1.8445638"><ele>249.25</ele><time>2026-04-11T08:11:22.495Z</time></trkpt><trkpt lat="53.6562546" lon="-1.8444213"><ele>249.0</ele><time>2026-04-11T08:11:23.496Z</time></trkpt><trkpt lat="53.6563335" lon="-1.8443061"><ele>248.66666666666666</ele><time>2026-04-11T08:11:24.497Z</time></trkpt><trkpt lat="53.656393" lon="-1.8442083"><ele>248.33333333333331</ele><time>2026-04-11T08:11:25.496Z</time></trkpt><trkpt lat="53.656439" lon="-1.8441344"><ele>248.0</ele><time>2026-04-11T08:11:26.498Z</time></trkpt><trkpt lat="53.65653" lon="-1.8440395"><ele>247.66666666666666</ele><time>2026-04-11T08:11:28.496Z</time></trkpt><trkpt lat="53.6566031" lon="-1.8440185"><ele>247.33333333333331</ele><time>2026-04-11T08:11:30.499Z</time></trkpt><trkpt lat="53.6566667" lon="-1.8438459"><ele>247.0</ele><time>2026-04-11T08:11:32.5Z</time></trkpt><trkpt lat="53.6566637" lon="-1.8436702"><ele>247.0</ele><time>2026-04-11T08:11:33.502Z</time></trkpt><trkpt lat="53.6566389" lon="-1.8434826"><ele>247.0</ele><time>2026-04-11T08:11:34.503Z</time></trkpt><trkpt lat="53.6565909" lon="-1.8432523"><ele>247.0</ele><time>2026-04-11T08:11:35.498Z</time></trkpt><trkpt lat="53.6565421" lon="-1.8430061"><ele>247.0</ele><time>2026-04-11T08:11:36.501Z</time></trkpt><trkpt lat="53.6564917" lon="-1.842781"><ele>246.2</ele><time>2026-04-11T08:11:37.502Z</time></trkpt><trkpt lat="53.6564438" lon="-1.8425907"><ele>245.39999999999998</ele><time>2026-04-11T08:11:38.503Z</time></trkpt><trkpt lat="53.6564036" lon="-1.8424347"><ele>244.60000000000002</ele><time>2026-04-11T08:11:39.504Z</time></trkpt><trkpt lat="53.6563675" lon="-1.8423344"><ele>243.8</ele><time>2026-04-11T08:11:40.502Z</time></trkpt><trkpt lat="53.6562926" lon="-1.842275"><ele>243.0</ele><time>2026-04-11T08:11:42.499Z</time></trkpt><trkpt lat="53.6562215" lon="-1.8424094"><ele>243.0</ele><time>2026-04-11T08:11:44.499Z</time></trkpt><trkpt lat="53.6561908" lon="-1.8425146"><ele>243.0</ele><time>2026-04-11T08:11:45.497Z</time></trkpt><trkpt lat="53.6561856" lon="-1.8426255"><ele>243.0</ele><time>2026-04-11T08:11:46.495Z</time></trkpt><trkpt lat="53.6562295" lon="-1.8427493"><ele>243.0</ele><time>2026-04-11T08:11:48.494Z</time></trkpt><trkpt lat="53.6563475" lon="-1.8427672"><ele>243.0</ele><time>2026-04-11T08:15:29.497Z</time></trkpt><trkpt lat="53.6564236" lon="-1.8429216"><ele>243.5</ele><time>2026-04-11T08:15:31.496Z</time></trkpt><trkpt lat="53.6564608" lon="-1.8431093"><ele>244.0</ele><time>2026-04-11T08:15:32.492Z</time></trkpt><trkpt lat="53.6564984" lon="-1.8433179"><ele>244.5</ele><time>2026-04-11T08:15:33.495Z</time></trkpt><trkpt lat="53.6565475" lon="-1.8435952"><ele>245.0</ele><time>2026-04-11T08:15:34.502Z</time></trkpt><trkpt lat="53.6565985" lon="-1.8438616"><ele>245.66666666666669</ele><time>2026-04-11T08:15:35.502Z</time></trkpt><trkpt lat="53.6566449" lon="-1.8441256"><ele>246.33333333333331</ele><time>2026-04-11T08:15:36.5Z</time></trkpt><trkpt lat="53.6566983" lon="-1.8443925"><ele>247.0</ele><time>2026-04-11T08:15:37.5Z</time></trkpt><trkpt lat="53.6567425" lon="-1.8446585"><ele>247.66666666666666</ele><time>2026-04-11T08:15:38.5Z</time></trkpt><trkpt lat="53.6567872" lon="-1.8449323"><ele>248.33333333333331</ele><time>2026-04-11T08:15:39.5Z</time></trkpt><trkpt lat="53.6568345" lon="-1.8452193"><ele>249.0</ele><time>2026-04-11T08:15:40.499Z</time></trkpt><trkpt lat="53.6568813" lon="-1.8455146"><ele>249.33333333333331</ele><time>2026-04-11T08:15:41.489Z</time></trkpt><trkpt lat="53.6569274" lon="-1.8458057"><ele>249.66666666666666</ele><time>2026-04-11T08:15:42.495Z</time></trkpt><trkpt lat="53.6569717" lon="-1.8461013"><ele>250.0</ele><time>2026-04-11T08:15:43.497Z</time></trkpt><trkpt lat="53.6570152" lon="-1.8463973"><ele>251.0</ele><time>2026-04-11T08:15:44.496Z</time></trkpt><trkpt lat="53.657058" lon="-1.8466908"><ele>252.0</ele><time>2026-04-11T08:15:45.494Z</time></trkpt><trkpt lat="53.6571" lon="-1.8469814"><ele>253.0</ele><time>2026-04-11T08:15:46.496Z</time></trkpt><trkpt lat="53.6571447" lon="-1.8472664"><ele>254.0</ele><time>2026-04-11T08:15:47.491Z</time></trkpt><trkpt lat="53.657191" lon="-1.8475451"><ele>255.0</ele><time>2026-04-11T08:15:48.496Z</time></trkpt><trkpt lat="53.6572382" lon="-1.8478209"><ele>256.0</ele><time>2026-04-11T08:15:49.495Z</time></trkpt><trkpt lat="53.6572852" lon="-1.8481015"><ele>256.66666666666663</ele><time>2026-04-11T08:15:50.496Z</time></trkpt><trkpt lat="53.6573337" lon="-1.848387"><ele>257.3333333333333</ele><time>2026-04-11T08:15:51.495Z</time></trkpt><trkpt lat="53.6573813" lon="-1.8486845"><ele>258.0</ele><time>2026-04-11T08:15:52.496Z</time></trkpt><trkpt lat="53.657428" lon="-1.8489882"><ele>259.0</ele><time>2026-04-11T08:15:53.494Z</time></trkpt><trkpt lat="53.6574736" lon="-1.849297"><ele>260.0</ele><time>2026-04-11T08:15:54.496Z</time></trkpt><trkpt lat="53.6575232" lon="-1.8496091"><ele>261.0</ele><time>2026-04-11T08:15:55.493Z</time></trkpt><trkpt lat="53.6575746" lon="-1.8499101"><ele>261.0</ele><time>2026-04-11T08:15:56.495Z</time></trkpt><trkpt lat="53.6576256" lon="-1.8502018"><ele>261.0</ele><time>2026-04-11T08:15:57.495Z</time></trkpt><trkpt lat="53.657675" lon="-1.8504813"><ele>261.0</ele><time>2026-04-11T08:15:58.498Z</time></trkpt><trkpt lat="53.657724" lon="-1.8507454"><ele>262.5</ele><time>2026-04-11T08:15:59.497Z</time></trkpt><trkpt lat="53.6577714" lon="-1.8510055"><ele>264.0</ele><time>2026-04-11T08:16:00.496Z</time></trkpt><trkpt lat="53.657815" lon="-1.8512314"><ele>265.5</ele><time>2026-04-11T08:16:01.5Z</time></trkpt><trkpt lat="53.6578465" lon="-1.8514266"><ele>267.0</ele><time>2026-04-11T08:16:02.5Z</time></trkpt><trkpt lat="53.6578707" lon="-1.8515875"><ele>267.0</ele><time>2026-04-11T08:16:03.501Z</time></trkpt><trkpt lat="53.6578871" lon="-1.8517221"><ele>267.0</ele><time>2026-04-11T08:16:04.499Z</time></trkpt><trkpt lat="53.6579004" lon="-1.8518307"><ele>267.0</ele><time>2026-04-11T08:16:05.496Z</time></trkpt><trkpt lat="53.6578975" lon="-1.8519865"><ele>267.0</ele><time>2026-04-11T08:16:07.492Z</time></trkpt><trkpt lat="53.6578961" lon="-1.8521692"><ele>267.0</ele><time>2026-04-11T08:16:09.491Z</time></trkpt><trkpt lat="53.6579065" lon="-1.8523002"><ele>267.0</ele><time>2026-04-11T08:16:10.491Z</time></trkpt><trkpt lat="53.657936" lon="-1.8524476"><ele>266.8</ele><time>2026-04-11T08:16:11.489Z</time></trkpt><trkpt lat="53.6579868" lon="-1.8525872"><ele>266.6</ele><time>2026-04-11T08:16:12.496Z</time></trkpt><trkpt lat="53.6580451" lon="-1.8527562"><ele>266.40000000000003</ele><time>2026-04-11T08:16:13.491Z</time></trkpt><trkpt lat="53.6581116" lon="-1.8529053"><ele>266.2</ele><time>2026-04-11T08:16:14.496Z</time></trkpt><trkpt lat="53.6581758" lon="-1.853069"><ele>266.0</ele><time>2026-04-11T08:16:15.495Z</time></trkpt><trkpt lat="53.6582263" lon="-1.8532579"><ele>265.40000000000003</ele><time>2026-04-11T08:16:16.496Z</time></trkpt><trkpt lat="53.6582595" lon="-1.8534481"><ele>264.8</ele><time>2026-04-11T08:16:17.49Z</time></trkpt><trkpt lat="53.6582727" lon="-1.8536148"><ele>264.20000000000005</ele><time>2026-04-11T08:16:18.492Z</time></trkpt><trkpt lat="53.658276" lon="-1.8537631"><ele>263.6</ele><time>2026-04-11T08:16:19.49Z</time></trkpt><trkpt lat="53.658275" lon="-1.8539045"><ele>263.0</ele><time>2026-04-11T08:16:20.494Z</time></trkpt><trkpt lat="53.6582708" lon="-1.8540499"><ele>262.33333333333337</ele><time>2026-04-11T08:16:21.496Z</time></trkpt><trkpt lat="53.6582631" lon="-1.8542033"><ele>261.6666666666667</ele><time>2026-04-11T08:16:22.496Z</time></trkpt><trkpt lat="53.6582359" lon="-1.8543439"><ele>261.0</ele><time>2026-04-11T08:16:23.496Z</time></trkpt><trkpt lat="53.6582045" lon="-1.8544729"><ele>260.3333333333333</ele><time>2026-04-11T08:16:24.496Z</time></trkpt><trkpt lat="53.6581742" lon="-1.8546029"><ele>259.66666666666663</ele><time>2026-04-11T08:16:25.494Z</time></trkpt><trkpt lat="53.6581441" lon="-1.8547163"><ele>259.0</ele><time>2026-04-11T08:16:26.491Z</time></trkpt><trkpt lat="53.6581158" lon="-1.8548246"><ele>259.0</ele><time>2026-04-11T08:16:27.494Z</time></trkpt><trkpt lat="53.658107" lon="-1.8549321"><ele>259.0</ele><time>2026-04-11T08:16:28.494Z</time></trkpt><trkpt lat="53.6581066" lon="-1.8550554"><ele>259.0</ele><time>2026-04-11T08:16:29.496Z</time></trkpt><trkpt lat="53.658101" lon="-1.8551857"><ele>259.0</ele><time>2026-04-11T08:16:30.494Z</time></trkpt><trkpt lat="53.6580858" lon="-1.8553071"><ele>259.0</ele><time>2026-04-11T08:16:31.495Z</time></trkpt><trkpt lat="53.6580593" lon="-1.8554188"><ele>259.0</ele><time>2026-04-11T08:16:32.498Z</time></trkpt><trkpt lat="53.6580328" lon="-1.8555275"><ele>259.0</ele><time>2026-04-11T08:16:33.5Z</time></trkpt><trkpt lat="53.6579966" lon="-1.8556469"><ele>259.0</ele><time>2026-04-11T08:16:34.498Z</time></trkpt><trkpt lat="53.6579633" lon="-1.8557775"><ele>259.0</ele><time>2026-04-11T08:16:35.497Z</time></trkpt><trkpt lat="53.6579278" lon="-1.8559035"><ele>259.0</ele><time>2026-04-11T08:16:36.499Z</time></trkpt><trkpt lat="53.6578984" lon="-1.8560183"><ele>259.0</ele><time>2026-04-11T08:16:37.497Z</time></trkpt><trkpt lat="53.6578661" lon="-1.8561235"><ele>259.0</ele><time>2026-04-11T08:16:38.496Z</time></trkpt><trkpt lat="53.6578294" lon="-1.8562153"><ele>259.0</ele><time>2026-04-11T08:16:39.497Z</time></trkpt><trkpt lat="53.6577336" lon="-1.856293"><ele>257.57142857142856</ele><time>2026-04-11T08:16:41.494Z</time></trkpt><trkpt lat="53.6576664" lon="-1.8562761"><ele>256.1428571428571</ele><time>2026-04-11T08:16:42.495Z</time></trkpt><trkpt lat="53.6575967" lon="-1.856229"><ele>254.71428571428572</ele><time>2026-04-11T08:16:43.491Z</time></trkpt><trkpt lat="53.6575254" lon="-1.8561887"><ele>253.28571428571428</ele><time>2026-04-11T08:16:44.496Z</time></trkpt><trkpt lat="53.6574549" lon="-1.8561708"><ele>251.85714285714283</ele><time>2026-04-11T08:16:45.495Z</time></trkpt><trkpt lat="53.6573859" lon="-1.8561949"><ele>250.42857142857142</ele><time>2026-04-11T08:16:46.491Z</time></trkpt><trkpt lat="53.6573263" lon="-1.8562406"><ele>249.0</ele><time>2026-04-11T08:16:47.494Z</time></trkpt><trkpt lat="53.6572747" lon="-1.8563215"><ele>249.0</ele><time>2026-04-11T08:16:48.496Z</time></trkpt><trkpt lat="53.6572301" lon="-1.8564311"><ele>249.0</ele><time>2026-04-11T08:16:49.495Z</time></trkpt><trkpt lat="53.657189" lon="-1.8565491"><ele>249.0</ele><time>2026-04-11T08:16:50.492Z</time></trkpt><trkpt lat="53.6571463" lon="-1.8566716"><ele>249.0</ele><time>2026-04-11T08:16:51.494Z</time></trkpt><trkpt lat="53.6571095" lon="-1.8568046"><ele>249.0</ele><time>2026-04-11T08:16:52.496Z</time></trkpt><trkpt lat="53.657072" lon="-1.8569121"><ele>249.0</ele><time>2026-04-11T08:16:53.496Z</time></trkpt><trkpt lat="53.6570423" lon="-1.8570224"><ele>249.83333333333334</ele><time>2026-04-11T08:16:54.497Z</time></trkpt><trkpt lat="53.6570108" lon="-1.8571406"><ele>250.66666666666669</ele><time>2026-04-11T08:16:55.493Z</time></trkpt><trkpt lat="53.6569864" lon="-1.857262"><ele>251.5</ele><time>2026-04-11T08:16:56.496Z</time></trkpt><trkpt lat="53.6569614" lon="-1.8573906"><ele>252.33333333333334</ele><time>2026-04-11T08:16:57.495Z</time></trkpt><trkpt lat="53.6569374" lon="-1.8575271"><ele>253.16666666666669</ele><time>2026-04-11T08:16:58.494Z</time></trkpt><trkpt lat="53.656921" lon="-1.8576624"><ele>254.0</ele><time>2026-04-11T08:16:59.496Z</time></trkpt><trkpt lat="53.6569081" lon="-1.8577963"><ele>250.50000000000003</ele><time>2026-04-11T08:17:00.496Z</time></trkpt><trkpt lat="53.6568997" lon="-1.8579334"><ele>247.0</ele><time>2026-04-11T08:17:01.499Z</time></trkpt><trkpt lat="53.6568883" lon="-1.8580638"><ele>243.5</ele><time>2026-04-11T08:17:02.498Z</time></trkpt><trkpt lat="53.656875" lon="-1.8581937"><ele>240.0</ele><time>2026-04-11T08:17:03.503Z</time></trkpt><trkpt lat="53.6568661" lon="-1.8583074"><ele>236.50000000000003</ele><time>2026-04-11T08:17:04.495Z</time></trkpt><trkpt lat="53.6568373" lon="-1.8584885"><ele>233.0</ele><time>2026-04-11T08:17:06.502Z</time></trkpt><trkpt lat="53.6567655" lon="-1.8586056"><ele>232.8</ele><time>2026-04-11T08:17:08.499Z</time></trkpt><trkpt lat="53.6566627" lon="-1.8586352"><ele>232.60000000000002</ele><time>2026-04-11T08:17:10.5Z</time></trkpt><trkpt lat="53.656561" lon="-1.8585975"><ele>232.39999999999998</ele><time>2026-04-11T08:17:12.491Z</time></trkpt><trkpt lat="53.6564954" lon="-1.858553"><ele>232.2</ele><time>2026-04-11T08:17:14.492Z</time></trkpt><trkpt lat="53.6564117" lon="-1.8585483"><ele>232.0</ele><time>2026-04-11T08:17:16.496Z</time></trkpt><trkpt lat="53.6562988" lon="-1.8585817"><ele>231.99999999999997</ele><time>2026-04-11T08:17:18.492Z</time></trkpt><trkpt lat="53.656242" lon="-1.8586289"><ele>232.0</ele><time>2026-04-11T08:17:19.496Z</time></trkpt><trkpt lat="53.6561896" lon="-1.8587027"><ele>232.0</ele><time>2026-04-11T08:17:20.495Z</time></trkpt><trkpt lat="53.6561413" lon="-1.8587913"><ele>232.0</ele><time>2026-04-11T08:17:21.496Z</time></trkpt><trkpt lat="53.6560998" lon="-1.858883"><ele>231.99999999999997</ele><time>2026-04-11T08:17:22.496Z</time></trkpt><trkpt lat="53.6560292" lon="-1.8590569"><ele>232.0</ele><time>2026-04-11T08:17:24.491Z</time></trkpt><trkpt lat="53.6559857" lon="-1.8591448"><ele>229.49999999999997</ele><time>2026-04-11T08:17:25.491Z</time></trkpt><trkpt lat="53.6559422" lon="-1.8592258"><ele>227.0</ele><time>2026-04-11T08:17:26.496Z</time></trkpt><trkpt lat="53.6558631" lon="-1.8593639"><ele>224.5</ele><time>2026-04-11T08:17:28.499Z</time></trkpt><trkpt lat="53.6558095" lon="-1.8594267"><ele>222.0</ele><time>2026-04-11T08:17:29.494Z</time></trkpt><trkpt lat="53.6557404" lon="-1.8594851"><ele>219.49999999999997</ele><time>2026-04-11T08:17:30.495Z</time></trkpt><trkpt lat="53.6556854" lon="-1.8595393"><ele>217.0</ele><time>2026-04-11T08:17:31.498Z</time></trkpt><trkpt lat="53.6555945" lon="-1.8595872"><ele>216.99999999999997</ele><time>2026-04-11T08:17:33.496Z</time></trkpt><trkpt lat="53.6555257" lon="-1.8595244"><ele>217.0</ele><time>2026-04-11T08:17:36.498Z</time></trkpt><trkpt lat="53.6555294" lon="-1.8593538"><ele>217.0</ele><time>2026-04-11T08:17:38.498Z</time></trkpt><trkpt lat="53.6555359" lon="-1.85924"><ele>217.0</ele><time>2026-04-11T08:17:39.498Z</time></trkpt><trkpt lat="53.6555312" lon="-1.8591156"><ele>216.99999999999997</ele><time>2026-04-11T08:17:40.499Z</time></trkpt><trkpt lat="53.6555203" lon="-1.858928"><ele>217.0</ele><time>2026-04-11T08:17:42.493Z</time></trkpt><trkpt lat="53.6555077" lon="-1.8587435"><ele>216.39999999999998</ele><time>2026-04-11T08:17:44.497Z</time></trkpt><trkpt lat="53.6554677" lon="-1.8585798"><ele>215.79999999999998</ele><time>2026-04-11T08:17:46.497Z</time></trkpt><trkpt lat="53.6553463" lon="-1.8584632"><ele>215.2</ele><time>2026-04-11T08:17:48.496Z</time></trkpt><trkpt lat="53.6552808" lon="-1.8584135"><ele>214.6</ele><time>2026-04-11T08:17:49.496Z</time></trkpt><trkpt lat="53.6552171" lon="-1.8583764"><ele>214.0</ele><time>2026-04-11T08:17:50.496Z</time></trkpt><trkpt lat="53.6551411" lon="-1.8583316"><ele>213.49999999999997</ele><time>2026-04-11T08:17:51.494Z</time></trkpt><trkpt lat="53.6550812" lon="-1.8582854"><ele>213.0</ele><time>2026-04-11T08:17:52.495Z</time></trkpt><trkpt lat="53.6550216" lon="-1.8581919"><ele>212.5</ele><time>2026-04-11T08:17:53.495Z</time></trkpt><trkpt lat="53.6549686" lon="-1.8580691"><ele>212.0</ele><time>2026-04-11T08:17:54.494Z</time></trkpt><trkpt lat="53.6549299" lon="-1.8579372"><ele>211.49999999999997</ele><time>2026-04-11T08:17:55.498Z</time></trkpt><trkpt lat="53.6548965" lon="-1.8577506"><ele>211.0</ele><time>2026-04-11T08:17:57.497Z</time></trkpt><trkpt lat="53.6549169" lon="-1.8576185"><ele>210.28571428571428</ele><time>2026-04-11T08:17:59.496Z</time></trkpt><trkpt lat="53.6549537" lon="-1.8575114"><ele>209.57142857142858</ele><time>2026-04-11T08:18:01.503Z</time></trkpt><trkpt lat="53.6549864" lon="-1.8574187"><ele>208.85714285714283</ele><time>2026-04-11T08:18:03.502Z</time></trkpt><trkpt lat="53.655023" lon="-1.8573066"><ele>208.14285714285714</ele><time>2026-04-11T08:18:06.499Z</time></trkpt><trkpt lat="53.6550221" lon="-1.857175"><ele>207.42857142857142</ele><time>2026-04-11T08:18:09.498Z</time></trkpt><trkpt lat="53.6549787" lon="-1.8570859"><ele>206.7142857142857</ele><time>2026-04-11T08:18:12.497Z</time></trkpt><trkpt lat="53.6549874" lon="-1.8569421"><ele>206.0</ele><time>2026-04-11T08:18:15.495Z</time></trkpt><trkpt lat="53.6550136" lon="-1.8568319"><ele>205.00000000000003</ele><time>2026-04-11T08:18:17.496Z</time></trkpt><trkpt lat="53.6550411" lon="-1.8567056"><ele>204.0</ele><time>2026-04-11T08:18:20.502Z</time></trkpt><trkpt lat="53.6550721" lon="-1.856595"><ele>203.0</ele><time>2026-04-11T08:18:22.496Z</time></trkpt><trkpt lat="53.6550939" lon="-1.8564079"><ele>202.0</ele><time>2026-04-11T08:18:24.496Z</time></trkpt><trkpt lat="53.6550946" lon="-1.8562472"><ele>201.00000000000003</ele><time>2026-04-11T08:18:26.497Z</time></trkpt><trkpt lat="53.655064" lon="-1.8561286"><ele>200.0</ele><time>2026-04-11T08:18:29.497Z</time></trkpt><trkpt lat="53.6550046" lon="-1.8561729"><ele>200.00000000000003</ele><time>2026-04-11T08:18:32.499Z</time></trkpt><trkpt lat="53.6549476" lon="-1.8562223"><ele>200.0</ele><time>2026-04-11T08:18:34.499Z</time></trkpt><trkpt lat="53.6548759" lon="-1.8562613"><ele>200.0</ele><time>2026-04-11T08:18:36.498Z</time></trkpt><trkpt lat="53.6547994" lon="-1.8562688"><ele>200.0</ele><time>2026-04-11T08:18:38.496Z</time></trkpt><trkpt lat="53.6547196" lon="-1.8562407"><ele>200.0</ele><time>2026-04-11T08:18:41.493Z</time></trkpt><trkpt lat="53.6546563" lon="-1.856251"><ele>200.00000000000003</ele><time>2026-04-11T08:18:43.495Z</time></trkpt><trkpt lat="53.6545713" lon="-1.8562735"><ele>200.0</ele><time>2026-04-11T08:18:45.496Z</time></trkpt><trkpt lat="53.6544867" lon="-1.8563346"><ele>201.50000000000003</ele><time>2026-04-11T08:18:47.495Z</time></trkpt><trkpt lat="53.6544019" lon="-1.8563476"><ele>203.0</ele><time>2026-04-11T08:18:49.494Z</time></trkpt><trkpt lat="53.6543307" lon="-1.856368"><ele>204.5</ele><time>2026-04-11T08:18:51.496Z</time></trkpt><trkpt lat="53.6542428" lon="-1.8563979"><ele>206.0</ele><time>2026-04-11T08:18:54.499Z</time></trkpt><trkpt lat="53.6541664" lon="-1.8563269"><ele>207.50000000000003</ele><time>2026-04-11T08:18:58.497Z</time></trkpt><trkpt lat="53.6542218" lon="-1.8563777"><ele>209.0</ele><time>2026-04-11T08:19:02.489Z</time></trkpt><trkpt lat="53.6542913" lon="-1.8563653"><ele>209.00000000000003</ele><time>2026-04-11T08:19:08.502Z</time></trkpt><trkpt lat="53.6543653" lon="-1.8563174"><ele>209.0</ele><time>2026-04-11T08:19:12.499Z</time></trkpt><trkpt lat="53.6544308" lon="-1.8562919"><ele>209.0</ele><time>2026-04-11T08:19:15.496Z</time></trkpt><trkpt lat="53.6545075" lon="-1.8563094"><ele>209.0</ele><time>2026-04-11T08:19:18.495Z</time></trkpt><trkpt lat="53.6545952" lon="-1.856323"><ele>209.00000000000003</ele><time>2026-04-11T08:19:21.497Z</time></trkpt><trkpt lat="53.654671" lon="-1.8563142"><ele>209.0</ele><time>2026-04-11T08:19:23.497Z</time></trkpt><trkpt lat="53.654753" lon="-1.8562998"><ele>207.50000000000003</ele><time>2026-04-11T08:19:26.495Z</time></trkpt><trkpt lat="53.6548406" lon="-1.8562989"><ele>206.0</ele><time>2026-04-11T08:19:29.497Z</time></trkpt><trkpt lat="53.6549129" lon="-1.8562005"><ele>204.5</ele><time>2026-04-11T08:19:31.498Z</time></trkpt><trkpt lat="53.6549943" lon="-1.8561552"><ele>203.0</ele><time>2026-04-11T08:19:34.498Z</time></trkpt><trkpt lat="53.6550573" lon="-1.8562456"><ele>201.50000000000003</ele><time>2026-04-11T08:19:36.502Z</time></trkpt><trkpt lat="53.6551034" lon="-1.856394"><ele>200.0</ele><time>2026-04-11T08:19:38.499Z</time></trkpt><trkpt lat="53.6551458" lon="-1.8565362"><ele>200.00000000000003</ele><time>2026-04-11T08:19:40.498Z</time></trkpt><trkpt lat="53.6551556" lon="-1.8566456"><ele>200.0</ele><time>2026-04-11T08:19:43.495Z</time></trkpt><trkpt lat="53.6551158" lon="-1.8567324"><ele>200.0</ele><time>2026-04-11T08:19:50.495Z</time></trkpt><trkpt lat="53.6550384" lon="-1.8567874"><ele>200.0</ele><time>2026-04-11T08:19:53.496Z</time></trkpt><trkpt lat="53.6550097" lon="-1.8569299"><ele>200.00000000000003</ele><time>2026-04-11T08:19:56.494Z</time></trkpt><trkpt lat="53.6550278" lon="-1.8570725"><ele>200.0</ele><time>2026-04-11T08:19:59.495Z</time></trkpt><trkpt lat="53.6550827" lon="-1.8572019"><ele>201.2</ele><time>2026-04-11T08:20:02.497Z</time></trkpt><trkpt lat="53.6550689" lon="-1.8573074"><ele>202.4</ele><time>2026-04-11T08:20:04.502Z</time></trkpt><trkpt lat="53.6550031" lon="-1.8574297"><ele>203.60000000000002</ele><time>2026-04-11T08:20:06.498Z</time></trkpt><trkpt lat="53.6549573" lon="-1.8575879"><ele>204.8</ele><time>2026-04-11T08:20:08.492Z</time></trkpt><trkpt lat="53.654977" lon="-1.8577574"><ele>206.0</ele><time>2026-04-11T08:20:10.492Z</time></trkpt><trkpt lat="53.6550095" lon="-1.8579413"><ele>207.0</ele><time>2026-04-11T08:20:12.491Z</time></trkpt><trkpt lat="53.6550568" lon="-1.8581025"><ele>208.0</ele><time>2026-04-11T08:20:14.496Z</time></trkpt><trkpt lat="53.6551181" lon="-1.858187"><ele>209.0</ele><time>2026-04-11T08:20:16.495Z</time></trkpt><trkpt lat="53.6551983" lon="-1.858275"><ele>210.0</ele><time>2026-04-11T08:20:19.497Z</time></trkpt><trkpt lat="53.655299" lon="-1.8583948"><ele>211.0</ele><time>2026-04-11T08:20:21.497Z</time></trkpt><trkpt lat="53.6553775" lon="-1.8585492"><ele>211.49999999999997</ele><time>2026-04-11T08:20:23.496Z</time></trkpt><trkpt lat="53.6553992" lon="-1.8586602"><ele>212.0</ele><time>2026-04-11T08:20:24.498Z</time></trkpt><trkpt lat="53.6554097" lon="-1.8587682"><ele>212.5</ele><time>2026-04-11T08:20:25.5Z</time></trkpt><trkpt lat="53.6554363" lon="-1.8589512"><ele>213.0</ele><time>2026-04-11T08:20:27.494Z</time></trkpt><trkpt lat="53.6554415" lon="-1.8590605"><ele>213.49999999999997</ele><time>2026-04-11T08:20:28.497Z</time></trkpt><trkpt lat="53.6554146" lon="-1.8592073"><ele>214.0</ele><time>2026-04-11T08:20:29.498Z</time></trkpt><trkpt lat="53.6553715" lon="-1.859377"><ele>214.75</ele><time>2026-04-11T08:20:30.497Z</time></trkpt><trkpt lat="53.6553532" lon="-1.8595539"><ele>215.5</ele><time>2026-04-11T08:20:31.502Z</time></trkpt><trkpt lat="53.6553166" lon="-1.859747"><ele>216.25</ele><time>2026-04-11T08:20:32.499Z</time></trkpt><trkpt lat="53.6552885" lon="-1.8599439"><ele>217.0</ele><time>2026-04-11T08:20:33.499Z</time></trkpt><trkpt lat="53.6552724" lon="-1.8601971"><ele>217.75</ele><time>2026-04-11T08:20:34.501Z</time></trkpt><trkpt lat="53.6552677" lon="-1.8604461"><ele>218.5</ele><time>2026-04-11T08:20:35.502Z</time></trkpt><trkpt lat="53.6552822" lon="-1.8606735"><ele>219.25</ele><time>2026-04-11T08:20:36.494Z</time></trkpt><trkpt lat="53.6553067" lon="-1.8609374"><ele>220.0</ele><time>2026-04-11T08:20:37.502Z</time></trkpt><trkpt lat="53.6553251" lon="-1.8611574"><ele>220.0</ele><time>2026-04-11T08:20:38.497Z</time></trkpt><trkpt lat="53.655341" lon="-1.8613137"><ele>220.0</ele><time>2026-04-11T08:20:39.497Z</time></trkpt><trkpt lat="53.6553603" lon="-1.8614221"><ele>220.0</ele><time>2026-04-11T08:20:40.499Z</time></trkpt><trkpt lat="53.6554109" lon="-1.8615223"><ele>220.0</ele><time>2026-04-11T08:20:42.495Z</time></trkpt><trkpt lat="53.6553604" lon="-1.8616851"><ele>220.0</ele><time>2026-04-11T08:20:45.495Z</time></trkpt><trkpt lat="53.6552447" lon="-1.8617044"><ele>220.6</ele><time>2026-04-11T08:20:47.493Z</time></trkpt><trkpt lat="53.6551463" lon="-1.8616277"><ele>221.2</ele><time>2026-04-11T08:20:49.496Z</time></trkpt><trkpt lat="53.6550558" lon="-1.8615238"><ele>221.8</ele><time>2026-04-11T08:20:51.505Z</time></trkpt><trkpt lat="53.6549678" lon="-1.861443"><ele>222.4</ele><time>2026-04-11T08:20:53.5Z</time></trkpt><trkpt lat="53.6549032" lon="-1.8613459"><ele>223.0</ele><time>2026-04-11T08:20:55.496Z</time></trkpt><trkpt lat="53.6548293" lon="-1.8613683"><ele>223.0</ele><time>2026-04-11T08:21:21.497Z</time></trkpt><trkpt lat="53.6547531" lon="-1.8615355"><ele>223.0</ele><time>2026-04-11T08:21:23.493Z</time></trkpt><trkpt lat="53.6547392" lon="-1.8616874"><ele>223.0</ele><time>2026-04-11T08:21:25.495Z</time></trkpt><trkpt lat="53.6547209" lon="-1.8618699"><ele>223.0</ele><time>2026-04-11T08:21:27.494Z</time></trkpt><trkpt lat="53.6546944" lon="-1.861967"><ele>223.0</ele><time>2026-04-11T08:21:28.5Z</time></trkpt><trkpt lat="53.6546348" lon="-1.8621483"><ele>223.8</ele><time>2026-04-11T08:21:30.496Z</time></trkpt><trkpt lat="53.6545838" lon="-1.8623452"><ele>224.60000000000002</ele><time>2026-04-11T08:21:32.5Z</time></trkpt><trkpt lat="53.6545568" lon="-1.862457"><ele>225.39999999999998</ele><time>2026-04-11T08:21:33.502Z</time></trkpt><trkpt lat="53.6545186" lon="-1.8625874"><ele>226.2</ele><time>2026-04-11T08:21:34.503Z</time></trkpt><trkpt lat="53.6544723" lon="-1.8627391"><ele>227.0</ele><time>2026-04-11T08:21:35.502Z</time></trkpt><trkpt lat="53.6544254" lon="-1.8629078"><ele>229.6</ele><time>2026-04-11T08:21:36.494Z</time></trkpt><trkpt lat="53.654378" lon="-1.8630734"><ele>232.2</ele><time>2026-04-11T08:21:37.501Z</time></trkpt><trkpt lat="53.6543253" lon="-1.8632378"><ele>234.8</ele><time>2026-04-11T08:21:38.502Z</time></trkpt><trkpt lat="53.6542691" lon="-1.8634089"><ele>237.4</ele><time>2026-04-11T08:21:39.505Z</time></trkpt><trkpt lat="53.6542163" lon="-1.8635702"><ele>240.0</ele><time>2026-04-11T08:21:40.503Z</time></trkpt><trkpt lat="53.654164" lon="-1.8637352"><ele>240.2</ele><time>2026-04-11T08:21:41.492Z</time></trkpt><trkpt lat="53.6541146" lon="-1.8639047"><ele>240.4</ele><time>2026-04-11T08:21:42.497Z</time></trkpt><trkpt lat="53.6540662" lon="-1.8640666"><ele>240.60000000000002</ele><time>2026-04-11T08:21:43.492Z</time></trkpt><trkpt lat="53.6540221" lon="-1.8642231"><ele>240.8</ele><time>2026-04-11T08:21:44.497Z</time></trkpt><trkpt lat="53.6539789" lon="-1.8643823"><ele>241.0</ele><time>2026-04-11T08:21:45.497Z</time></trkpt><trkpt lat="53.6539362" lon="-1.86454"><ele>241.4</ele><time>2026-04-11T08:21:46.497Z</time></trkpt><trkpt lat="53.653893" lon="-1.8646971"><ele>241.8</ele><time>2026-04-11T08:21:47.497Z</time></trkpt><trkpt lat="53.6538441" lon="-1.8648531"><ele>242.20000000000002</ele><time>2026-04-11T08:21:48.497Z</time></trkpt><trkpt lat="53.6537855" lon="-1.8650062"><ele>242.60000000000002</ele><time>2026-04-11T08:21:49.497Z</time></trkpt><trkpt lat="53.6537214" lon="-1.8651521"><ele>243.0</ele><time>2026-04-11T08:21:50.502Z</time></trkpt><trkpt lat="53.6536584" lon="-1.8652934"><ele>244.5</ele><time>2026-04-11T08:21:51.499Z</time></trkpt><trkpt lat="53.6535937" lon="-1.86543"><ele>246.0</ele><time>2026-04-11T08:21:52.498Z</time></trkpt><trkpt lat="53.6535374" lon="-1.8655584"><ele>247.5</ele><time>2026-04-11T08:21:53.501Z</time></trkpt><trkpt lat="53.653493" lon="-1.8656807"><ele>249.0</ele><time>2026-04-11T08:21:54.498Z</time></trkpt><trkpt lat="53.6534683" lon="-1.8658072"><ele>250.5</ele><time>2026-04-11T08:21:55.499Z</time></trkpt><trkpt lat="53.6534612" lon="-1.8659406"><ele>252.0</ele><time>2026-04-11T08:21:56.498Z</time></trkpt><trkpt lat="53.6534659" lon="-1.8660846"><ele>252.0</ele><time>2026-04-11T08:21:57.496Z</time></trkpt><trkpt lat="53.6534636" lon="-1.8662402"><ele>252.0</ele><time>2026-04-11T08:21:58.496Z</time></trkpt><trkpt lat="53.6534428" lon="-1.8664067"><ele>252.0</ele><time>2026-04-11T08:21:59.497Z</time></trkpt><trkpt lat="53.6534025" lon="-1.8665769"><ele>252.0</ele><time>2026-04-11T08:22:00.497Z</time></trkpt><trkpt lat="53.6533487" lon="-1.8667486"><ele>252.0</ele><time>2026-04-11T08:22:01.499Z</time></trkpt><trkpt lat="53.6532909" lon="-1.8669203"><ele>252.0</ele><time>2026-04-11T08:22:02.496Z</time></trkpt><trkpt lat="53.6532366" lon="-1.867087"><ele>252.0</ele><time>2026-04-11T08:22:03.505Z</time></trkpt><trkpt lat="53.6531857" lon="-1.8672652"><ele>252.0</ele><time>2026-04-11T08:22:04.502Z</time></trkpt><trkpt lat="53.6531478" lon="-1.867418"><ele>252.0</ele><time>2026-04-11T08:22:05.498Z</time></trkpt><trkpt lat="53.6531137" lon="-1.8675337"><ele>252.0</ele><time>2026-04-11T08:22:06.502Z</time></trkpt><trkpt lat="53.6530523" lon="-1.86769"><ele>251.83333333333334</ele><time>2026-04-11T08:22:08.499Z</time></trkpt><trkpt lat="53.6530016" lon="-1.867792"><ele>251.66666666666669</ele><time>2026-04-11T08:22:10.503Z</time></trkpt><trkpt lat="53.6529293" lon="-1.8678822"><ele>251.5</ele><time>2026-04-11T08:22:12.494Z</time></trkpt><trkpt lat="53.6528676" lon="-1.8679186"><ele>251.33333333333334</ele><time>2026-04-11T08:22:13.496Z</time></trkpt><trkpt lat="53.6527999" lon="-1.8679711"><ele>251.16666666666669</ele><time>2026-04-11T08:22:14.496Z</time></trkpt><trkpt lat="53.6527295" lon="-1.8680275"><ele>251.0</ele><time>2026-04-11T08:22:15.497Z</time></trkpt><trkpt lat="53.6526653" lon="-1.8680679"><ele>252.8</ele><time>2026-04-11T08:22:16.492Z</time></trkpt><trkpt lat="53.6525538" lon="-1.8680525"><ele>254.60000000000002</ele><time>2026-04-11T08:22:18.498Z</time></trkpt><trkpt lat="53.6524941" lon="-1.8679922"><ele>256.4</ele><time>2026-04-11T08:22:19.497Z</time></trkpt><trkpt lat="53.6524336" lon="-1.867887"><ele>258.2</ele><time>2026-04-11T08:22:20.498Z</time></trkpt><trkpt lat="53.6523573" lon="-1.8677724"><ele>260.0</ele><time>2026-04-11T08:22:21.497Z</time></trkpt><trkpt lat="53.6522705" lon="-1.867666"><ele>260.4</ele><time>2026-04-11T08:22:22.502Z</time></trkpt><trkpt lat="53.6521726" lon="-1.8675756"><ele>260.8</ele><time>2026-04-11T08:22:23.502Z</time></trkpt><trkpt lat="53.6520835" lon="-1.8675178"><ele>261.2</ele><time>2026-04-11T08:22:24.501Z</time></trkpt><trkpt lat="53.6519935" lon="-1.8674999"><ele>261.6</ele><time>2026-04-11T08:22:25.499Z</time></trkpt><trkpt lat="53.6518996" lon="-1.8674969"><ele>262.0</ele><time>2026-04-11T08:22:26.498Z</time></trkpt><trkpt lat="53.651803" lon="-1.867491"><ele>264.3333333333333</ele><time>2026-04-11T08:22:27.497Z</time></trkpt><trkpt lat="53.6517033" lon="-1.8674768"><ele>266.66666666666663</ele><time>2026-04-11T08:22:28.497Z</time></trkpt><trkpt lat="53.651613" lon="-1.8674709"><ele>269.0</ele><time>2026-04-11T08:22:29.498Z</time></trkpt><trkpt lat="53.651535" lon="-1.8674729"><ele>271.3333333333333</ele><time>2026-04-11T08:22:30.497Z</time></trkpt><trkpt lat="53.6514667" lon="-1.8674921"><ele>273.6666666666667</ele><time>2026-04-11T08:22:31.502Z</time></trkpt><trkpt lat="53.6514034" lon="-1.8675318"><ele>276.0</ele><time>2026-04-11T08:22:32.501Z</time></trkpt><trkpt lat="53.6513439" lon="-1.867588"><ele>275.0</ele><time>2026-04-11T08:22:33.5Z</time></trkpt><trkpt lat="53.6512719" lon="-1.8676709"><ele>274.0</ele><time>2026-04-11T08:22:34.501Z</time></trkpt><trkpt lat="53.651183" lon="-1.8677813"><ele>273.0</ele><time>2026-04-11T08:22:35.502Z</time></trkpt><trkpt lat="53.6510688" lon="-1.8679097"><ele>272.0</ele><time>2026-04-11T08:22:36.502Z</time></trkpt><trkpt lat="53.6509552" lon="-1.8680544"><ele>275.0</ele><time>2026-04-11T08:22:37.496Z</time></trkpt><trkpt lat="53.6508489" lon="-1.8681983"><ele>278.0</ele><time>2026-04-11T08:22:38.505Z</time></trkpt><trkpt lat="53.6507509" lon="-1.8683462"><ele>281.0</ele><time>2026-04-11T08:22:39.503Z</time></trkpt><trkpt lat="53.650663" lon="-1.8685081"><ele>284.0</ele><time>2026-04-11T08:22:40.502Z</time></trkpt><trkpt lat="53.6505836" lon="-1.8686714"><ele>284.0</ele><time>2026-04-11T08:22:41.498Z</time></trkpt><trkpt lat="53.6505123" lon="-1.8688169"><ele>284.0</ele><time>2026-04-11T08:22:42.497Z</time></trkpt><trkpt lat="53.6504515" lon="-1.8689345"><ele>284.0</ele><time>2026-04-11T08:22:43.498Z</time></trkpt><trkpt lat="53.6504037" lon="-1.8690304"><ele>284.0</ele><time>2026-04-11T08:22:44.498Z</time></trkpt><trkpt lat="53.6503521" lon="-1.8691373"><ele>284.0</ele><time>2026-04-11T08:22:46.5Z</time></trkpt><trkpt lat="53.6503232" lon="-1.8690007"><ele>284.0</ele><time>2026-04-11T08:22:50.498Z</time></trkpt><trkpt lat="53.6503437" lon="-1.8688514"><ele>284.0</ele><time>2026-04-11T08:22:52.499Z</time></trkpt><trkpt lat="53.6503651" lon="-1.868708"><ele>284.0</ele><time>2026-04-11T08:22:54.502Z</time></trkpt><trkpt lat="53.6503741" lon="-1.8685822"><ele>284.0</ele><time>2026-04-11T08:22:56.497Z</time></trkpt><trkpt lat="53.6503841" lon="-1.8684192"><ele>284.0</ele><time>2026-04-11T08:22:58.497Z</time></trkpt><trkpt lat="53.6503946" lon="-1.8682446"><ele>284.0</ele><time>2026-04-11T08:23:00.498Z</time></trkpt><trkpt lat="53.6504134" lon="-1.8680638"><ele>285.2</ele><time>2026-04-11T08:23:02.503Z</time></trkpt><trkpt lat="53.6504427" lon="-1.8678892"><ele>286.4</ele><time>2026-04-11T08:23:04.502Z</time></trkpt><trkpt lat="53.6504704" lon="-1.8677208"><ele>287.6</ele><time>2026-04-11T08:23:06.502Z</time></trkpt><trkpt lat="53.6504966" lon="-1.8675186"><ele>288.8</ele><time>2026-04-11T08:23:08.502Z</time></trkpt><trkpt lat="53.6505098" lon="-1.8673933"><ele>290.0</ele><time>2026-04-11T08:23:09.503Z</time></trkpt><trkpt lat="53.6505172" lon="-1.8672613"><ele>291.33333333333337</ele><time>2026-04-11T08:23:10.503Z</time></trkpt><trkpt lat="53.650512" lon="-1.8671127"><ele>292.6666666666667</ele><time>2026-04-11T08:23:11.496Z</time></trkpt><trkpt lat="53.6505055" lon="-1.8669719"><ele>294.0</ele><time>2026-04-11T08:23:12.498Z</time></trkpt><trkpt lat="53.6504898" lon="-1.8668347"><ele>295.3333333333333</ele><time>2026-04-11T08:23:13.5Z</time></trkpt><trkpt lat="53.650462" lon="-1.866729"><ele>296.66666666666663</ele><time>2026-04-11T08:23:14.499Z</time></trkpt><trkpt lat="53.6503592" lon="-1.8666123"><ele>298.0</ele><time>2026-04-11T08:23:16.501Z</time></trkpt><trkpt lat="53.6502939" lon="-1.8665735"><ele>303.2</ele><time>2026-04-11T08:23:17.497Z</time></trkpt><trkpt lat="53.6502255" lon="-1.8665327"><ele>308.4</ele><time>2026-04-11T08:23:18.5Z</time></trkpt><trkpt lat="53.6501611" lon="-1.8664907"><ele>313.59999999999997</ele><time>2026-04-11T08:23:19.497Z</time></trkpt><trkpt lat="53.6500617" lon="-1.8664495"><ele>318.8</ele><time>2026-04-11T08:23:21.498Z</time></trkpt><trkpt lat="53.6499598" lon="-1.8664091"><ele>324.0</ele><time>2026-04-11T08:23:23.498Z</time></trkpt><trkpt lat="53.6498366" lon="-1.8663625"><ele>324.0</ele><time>2026-04-11T08:23:25.5Z</time></trkpt><trkpt lat="53.6497623" lon="-1.8663226"><ele>324.0</ele><time>2026-04-11T08:23:26.499Z</time></trkpt><trkpt lat="53.6496816" lon="-1.866271"><ele>324.0</ele><time>2026-04-11T08:23:27.501Z</time></trkpt><trkpt lat="53.6495994" lon="-1.8661986"><ele>324.0</ele><time>2026-04-11T08:23:28.5Z</time></trkpt><trkpt lat="53.6495155" lon="-1.8661494"><ele>324.0</ele><time>2026-04-11T08:23:29.5Z</time></trkpt><trkpt lat="53.6494316" lon="-1.8661071"><ele>324.0</ele><time>2026-04-11T08:23:30.499Z</time></trkpt><trkpt lat="53.6493514" lon="-1.8660664"><ele>324.5</ele><time>2026-04-11T08:23:31.503Z</time></trkpt><trkpt lat="53.6492747" lon="-1.8660266"><ele>325.0</ele><time>2026-04-11T08:23:32.506Z</time></trkpt><trkpt lat="53.6491943" lon="-1.8659896"><ele>325.5</ele><time>2026-04-11T08:23:33.505Z</time></trkpt><trkpt lat="53.6491094" lon="-1.8659604"><ele>326.0</ele><time>2026-04-11T08:23:34.504Z</time></trkpt><trkpt lat="53.6490211" lon="-1.865948"><ele>326.5</ele><time>2026-04-11T08:23:35.504Z</time></trkpt><trkpt lat="53.6489272" lon="-1.8659395"><ele>327.0</ele><time>2026-04-11T08:23:36.503Z</time></trkpt><trkpt lat="53.6488289" lon="-1.8659438"><ele>327.0</ele><time>2026-04-11T08:23:37.502Z</time></trkpt><trkpt lat="53.6487286" lon="-1.865952"><ele>327.0</ele><time>2026-04-11T08:23:38.503Z</time></trkpt><trkpt lat="53.6486429" lon="-1.8659573"><ele>327.0</ele><time>2026-04-11T08:23:39.497Z</time></trkpt><trkpt lat="53.6485787" lon="-1.8659559"><ele>327.0</ele><time>2026-04-11T08:23:40.497Z</time></trkpt><trkpt lat="53.6485041" lon="-1.8659414"><ele>327.0</ele><time>2026-04-11T08:23:42.501Z</time></trkpt><trkpt lat="53.6484379" lon="-1.8659249"><ele>327.0</ele><time>2026-04-11T08:23:45.502Z</time></trkpt><trkpt lat="53.6483388" lon="-1.8659699"><ele>327.40000000000003</ele><time>2026-04-11T08:24:51.502Z</time></trkpt><trkpt lat="53.6482894" lon="-1.8661532"><ele>327.8</ele><time>2026-04-11T08:24:53.496Z</time></trkpt><trkpt lat="53.6482776" lon="-1.8662911"><ele>328.2</ele><time>2026-04-11T08:24:54.503Z</time></trkpt><trkpt lat="53.6482664" lon="-1.8664409"><ele>328.6</ele><time>2026-04-11T08:24:55.503Z</time></trkpt><trkpt lat="53.6482521" lon="-1.8665952"><ele>329.0</ele><time>2026-04-11T08:24:56.503Z</time></trkpt><trkpt lat="53.6482297" lon="-1.8667629"><ele>329.6</ele><time>2026-04-11T08:24:57.502Z</time></trkpt><trkpt lat="53.6482082" lon="-1.8669249"><ele>330.2</ele><time>2026-04-11T08:24:58.503Z</time></trkpt><trkpt lat="53.648185" lon="-1.8670822"><ele>330.8</ele><time>2026-04-11T08:24:59.502Z</time></trkpt><trkpt lat="53.6481586" lon="-1.8672389"><ele>331.40000000000003</ele><time>2026-04-11T08:25:00.5Z</time></trkpt><trkpt lat="53.648133" lon="-1.86739"><ele>332.0</ele><time>2026-04-11T08:25:01.502Z</time></trkpt><trkpt lat="53.6481084" lon="-1.8675407"><ele>332.8</ele><time>2026-04-11T08:25:02.503Z</time></trkpt><trkpt lat="53.6480861" lon="-1.8676935"><ele>333.6</ele><time>2026-04-11T08:25:03.507Z</time></trkpt><trkpt lat="53.648066" lon="-1.8678437"><ele>334.40000000000003</ele><time>2026-04-11T08:25:04.505Z</time></trkpt><trkpt lat="53.6480471" lon="-1.8679936"><ele>335.20000000000005</ele><time>2026-04-11T08:25:05.503Z</time></trkpt><trkpt lat="53.6480292" lon="-1.8681441"><ele>336.0</ele><time>2026-04-11T08:25:06.504Z</time></trkpt><trkpt lat="53.6480114" lon="-1.8682913"><ele>336.0</ele><time>2026-04-11T08:25:07.503Z</time></trkpt><trkpt lat="53.6479958" lon="-1.8684335"><ele>336.0</ele><time>2026-04-11T08:25:08.505Z</time></trkpt><trkpt lat="53.6479789" lon="-1.8685795"><ele>336.0</ele><time>2026-04-11T08:25:09.504Z</time></trkpt><trkpt lat="53.6479602" lon="-1.8687269"><ele>336.0</ele><time>2026-04-11T08:25:10.503Z</time></trkpt><trkpt lat="53.6479408" lon="-1.8688732"><ele>336.0</ele><time>2026-04-11T08:25:11.499Z</time></trkpt><trkpt lat="53.6479214" lon="-1.8690218"><ele>336.0</ele><time>2026-04-11T08:25:12.499Z</time></trkpt><trkpt lat="53.647902" lon="-1.8691729"><ele>336.6</ele><time>2026-04-11T08:25:13.504Z</time></trkpt><trkpt lat="53.6478838" lon="-1.8693278"><ele>337.20000000000005</ele><time>2026-04-11T08:25:14.501Z</time></trkpt><trkpt lat="53.647865" lon="-1.8694851"><ele>337.79999999999995</ele><time>2026-04-11T08:25:15.498Z</time></trkpt><trkpt lat="53.6478458" lon="-1.8696445"><ele>338.4</ele><time>2026-04-11T08:25:16.496Z</time></trkpt><trkpt lat="53.6478242" lon="-1.869804"><ele>339.0</ele><time>2026-04-11T08:25:17.499Z</time></trkpt><trkpt lat="53.6478004" lon="-1.869964"><ele>340.2</ele><time>2026-04-11T08:25:18.5Z</time></trkpt><trkpt lat="53.647774" lon="-1.8701223"><ele>341.4</ele><time>2026-04-11T08:25:19.496Z</time></trkpt><trkpt lat="53.64774" lon="-1.870288"><ele>342.6</ele><time>2026-04-11T08:25:20.495Z</time></trkpt><trkpt lat="53.6477023" lon="-1.8704661"><ele>343.8</ele><time>2026-04-11T08:25:21.503Z</time></trkpt><trkpt lat="53.6476651" lon="-1.8706583"><ele>345.0</ele><time>2026-04-11T08:25:22.502Z</time></trkpt><trkpt lat="53.6476323" lon="-1.8708668"><ele>345.5</ele><time>2026-04-11T08:25:23.503Z</time></trkpt><trkpt lat="53.6476014" lon="-1.8710928"><ele>346.0</ele><time>2026-04-11T08:25:24.502Z</time></trkpt><trkpt lat="53.647571" lon="-1.8713266"><ele>346.5</ele><time>2026-04-11T08:25:25.494Z</time></trkpt><trkpt lat="53.647541" lon="-1.871543"><ele>347.0</ele><time>2026-04-11T08:25:26.499Z</time></trkpt><trkpt lat="53.6475144" lon="-1.8717245"><ele>347.1666666666667</ele><time>2026-04-11T08:25:27.497Z</time></trkpt><trkpt lat="53.6474944" lon="-1.871864"><ele>347.33333333333337</ele><time>2026-04-11T08:25:28.5Z</time></trkpt><trkpt lat="53.6474683" lon="-1.8720177"><ele>347.5</ele><time>2026-04-11T08:25:30.499Z</time></trkpt><trkpt lat="53.6473784" lon="-1.8719957"><ele>347.6666666666667</ele><time>2026-04-11T08:25:33.512Z</time></trkpt><trkpt lat="53.6473129" lon="-1.8719206"><ele>347.8333333333333</ele><time>2026-04-11T08:25:34.506Z</time></trkpt><trkpt lat="53.6472268" lon="-1.871843"><ele>348.0</ele><time>2026-04-11T08:25:35.506Z</time></trkpt><trkpt lat="53.6471147" lon="-1.8717761"><ele>347.6666666666667</ele><time>2026-04-11T08:25:36.507Z</time></trkpt><trkpt lat="53.6469776" lon="-1.8717513"><ele>347.33333333333337</ele><time>2026-04-11T08:25:37.505Z</time></trkpt><trkpt lat="53.6468132" lon="-1.8717793"><ele>347.0</ele><time>2026-04-11T08:25:38.506Z</time></trkpt><trkpt lat="53.6466318" lon="-1.8718328"><ele>348.0</ele><time>2026-04-11T08:25:39.508Z</time></trkpt><trkpt lat="53.6464389" lon="-1.8719005"><ele>349.0</ele><time>2026-04-11T08:25:40.506Z</time></trkpt><trkpt lat="53.6462467" lon="-1.8719695"><ele>350.0</ele><time>2026-04-11T08:25:41.503Z</time></trkpt><trkpt lat="53.6460568" lon="-1.872028"><ele>350.0</ele><time>2026-04-11T08:25:42.503Z</time></trkpt><trkpt lat="53.6458636" lon="-1.8720737"><ele>350.0</ele><time>2026-04-11T08:25:43.503Z</time></trkpt><trkpt lat="53.6456738" lon="-1.8720858"><ele>350.0</ele><time>2026-04-11T08:25:44.502Z</time></trkpt><trkpt lat="53.6454823" lon="-1.8720696"><ele>350.0</ele><time>2026-04-11T08:25:45.502Z</time></trkpt><trkpt lat="53.645279" lon="-1.8720409"><ele>350.0</ele><time>2026-04-11T08:25:46.503Z</time></trkpt><trkpt lat="53.6450815" lon="-1.8720069"><ele>350.0</ele><time>2026-04-11T08:25:47.503Z</time></trkpt><trkpt lat="53.6448983" lon="-1.8719766"><ele>350.0</ele><time>2026-04-11T08:25:48.503Z</time></trkpt><trkpt lat="53.6447316" lon="-1.8719518"><ele>350.0</ele><time>2026-04-11T08:25:49.502Z</time></trkpt><trkpt lat="53.6445707" lon="-1.8719266"><ele>350.0</ele><time>2026-04-11T08:25:50.503Z</time></trkpt><trkpt lat="53.6444155" lon="-1.8718991"><ele>350.33333333333337</ele><time>2026-04-11T08:25:51.503Z</time></trkpt><trkpt lat="53.6442602" lon="-1.8718731"><ele>350.6666666666667</ele><time>2026-04-11T08:25:52.502Z</time></trkpt><trkpt lat="53.644106" lon="-1.8718479"><ele>351.0</ele><time>2026-04-11T08:25:53.505Z</time></trkpt><trkpt lat="53.6439566" lon="-1.871827"><ele>351.0</ele><time>2026-04-11T08:25:54.503Z</time></trkpt><trkpt lat="53.643812" lon="-1.8718044"><ele>351.0</ele><time>2026-04-11T08:25:55.502Z</time></trkpt><trkpt lat="53.6436707" lon="-1.8717801"><ele>351.0</ele><time>2026-04-11T08:25:56.505Z</time></trkpt><trkpt lat="53.6435296" lon="-1.8717587"><ele>351.0</ele><time>2026-04-11T08:25:57.503Z</time></trkpt><trkpt lat="53.6433932" lon="-1.8717429"><ele>351.0</ele><time>2026-04-11T08:25:58.502Z</time></trkpt><trkpt lat="53.6432706" lon="-1.8717294"><ele>351.0</ele><time>2026-04-11T08:25:59.501Z</time></trkpt><trkpt lat="53.6431646" lon="-1.8717194"><ele>351.0</ele><time>2026-04-11T08:26:00.504Z</time></trkpt><trkpt lat="53.6430755" lon="-1.8717302"><ele>351.0</ele><time>2026-04-11T08:26:01.503Z</time></trkpt><trkpt lat="53.6429977" lon="-1.8717648"><ele>351.0</ele><time>2026-04-11T08:26:02.504Z</time></trkpt><trkpt lat="53.6429326" lon="-1.8718242"><ele>351.0</ele><time>2026-04-11T08:26:03.508Z</time></trkpt><trkpt lat="53.6428805" lon="-1.8718979"><ele>351.0</ele><time>2026-04-11T08:26:04.506Z</time></trkpt><trkpt lat="53.6428388" lon="-1.8719778"><ele>351.0</ele><time>2026-04-11T08:26:05.503Z</time></trkpt><trkpt lat="53.642763" lon="-1.8721121"><ele>351.0</ele><time>2026-04-11T08:26:07.506Z</time></trkpt><trkpt lat="53.6426891" lon="-1.8721893"><ele>351.0</ele><time>2026-04-11T08:26:09.506Z</time></trkpt><trkpt lat="53.64264" lon="-1.8722664"><ele>351.0</ele><time>2026-04-11T08:26:10.503Z</time></trkpt><trkpt lat="53.6425765" lon="-1.8723838"><ele>349.5</ele><time>2026-04-11T08:26:11.501Z</time></trkpt><trkpt lat="53.6424971" lon="-1.8725246"><ele>348.0</ele><time>2026-04-11T08:26:12.5Z</time></trkpt><trkpt lat="53.6424019" lon="-1.872683"><ele>346.5</ele><time>2026-04-11T08:26:13.505Z</time></trkpt><trkpt lat="53.6422992" lon="-1.8728463"><ele>345.0</ele><time>2026-04-11T08:26:14.503Z</time></trkpt><trkpt lat="53.6422025" lon="-1.873004"><ele>345.0</ele><time>2026-04-11T08:26:15.504Z</time></trkpt><trkpt lat="53.6421099" lon="-1.8731374"><ele>345.0</ele><time>2026-04-11T08:26:16.503Z</time></trkpt><trkpt lat="53.6420227" lon="-1.8732368"><ele>345.0</ele><time>2026-04-11T08:26:17.499Z</time></trkpt><trkpt lat="53.641943" lon="-1.8732983"><ele>345.0</ele><time>2026-04-11T08:26:18.498Z</time></trkpt><trkpt lat="53.6418693" lon="-1.8733394"><ele>345.0</ele><time>2026-04-11T08:26:19.5Z</time></trkpt><trkpt lat="53.6417948" lon="-1.8733702"><ele>343.8</ele><time>2026-04-11T08:26:20.502Z</time></trkpt><trkpt lat="53.6417067" lon="-1.8734069"><ele>342.6</ele><time>2026-04-11T08:26:21.496Z</time></trkpt><trkpt lat="53.6416049" lon="-1.87346"><ele>341.4</ele><time>2026-04-11T08:26:22.498Z</time></trkpt><trkpt lat="53.6414984" lon="-1.8735321"><ele>340.2</ele><time>2026-04-11T08:26:23.497Z</time></trkpt><trkpt lat="53.641397" lon="-1.8736295"><ele>339.0</ele><time>2026-04-11T08:26:24.503Z</time></trkpt><trkpt lat="53.6412969" lon="-1.8737526"><ele>339.0</ele><time>2026-04-11T08:26:25.502Z</time></trkpt><trkpt lat="53.6411972" lon="-1.8739012"><ele>339.0</ele><time>2026-04-11T08:26:26.504Z</time></trkpt><trkpt lat="53.6411013" lon="-1.8740872"><ele>339.0</ele><time>2026-04-11T08:26:27.495Z</time></trkpt><trkpt lat="53.6410081" lon="-1.8742696"><ele>339.0</ele><time>2026-04-11T08:26:28.503Z</time></trkpt><trkpt lat="53.640925" lon="-1.8744439"><ele>333.75</ele><time>2026-04-11T08:26:29.499Z</time></trkpt><trkpt lat="53.6408595" lon="-1.8746274"><ele>328.5</ele><time>2026-04-11T08:26:30.503Z</time></trkpt><trkpt lat="53.6408079" lon="-1.8748084"><ele>323.25</ele><time>2026-04-11T08:26:31.504Z</time></trkpt><trkpt lat="53.640763" lon="-1.8749929"><ele>318.0</ele><time>2026-04-11T08:26:32.504Z</time></trkpt><trkpt lat="53.6407267" lon="-1.8751819"><ele>317.75</ele><time>2026-04-11T08:26:33.502Z</time></trkpt><trkpt lat="53.6406842" lon="-1.8753643"><ele>317.5</ele><time>2026-04-11T08:26:34.505Z</time></trkpt><trkpt lat="53.6406298" lon="-1.8755415"><ele>317.25</ele><time>2026-04-11T08:26:35.504Z</time></trkpt><trkpt lat="53.6405671" lon="-1.87572"><ele>317.0</ele><time>2026-04-11T08:26:36.505Z</time></trkpt><trkpt lat="53.640501" lon="-1.8759004"><ele>316.0</ele><time>2026-04-11T08:26:37.508Z</time></trkpt><trkpt lat="53.6404403" lon="-1.8760805"><ele>315.0</ele><time>2026-04-11T08:26:38.509Z</time></trkpt><trkpt lat="53.6403922" lon="-1.8762718"><ele>314.0</ele><time>2026-04-11T08:26:39.505Z</time></trkpt><trkpt lat="53.6403616" lon="-1.8764805"><ele>313.0</ele><time>2026-04-11T08:26:40.505Z</time></trkpt><trkpt lat="53.6403454" lon="-1.8767081"><ele>312.0</ele><time>2026-04-11T08:26:41.501Z</time></trkpt><trkpt lat="53.6403379" lon="-1.8769506"><ele>311.0</ele><time>2026-04-11T08:26:42.499Z</time></trkpt><trkpt lat="53.6403294" lon="-1.877199"><ele>310.0</ele><time>2026-04-11T08:26:43.502Z</time></trkpt><trkpt lat="53.6403072" lon="-1.8774336"><ele>309.0</ele><time>2026-04-11T08:26:44.503Z</time></trkpt><trkpt lat="53.6402612" lon="-1.877641"><ele>307.0</ele><time>2026-04-11T08:26:45.5Z</time></trkpt><trkpt lat="53.6401776" lon="-1.8777991"><ele>305.0</ele><time>2026-04-11T08:26:46.496Z</time></trkpt><trkpt lat="53.6400727" lon="-1.8779308"><ele>303.0</ele><time>2026-04-11T08:26:47.5Z</time></trkpt><trkpt lat="53.6399553" lon="-1.8780632"><ele>301.0</ele><time>2026-04-11T08:26:48.502Z</time></trkpt><trkpt lat="53.6398316" lon="-1.8781734"><ele>301.0</ele><time>2026-04-11T08:26:49.502Z</time></trkpt><trkpt lat="53.6397189" lon="-1.8782794"><ele>301.0</ele><time>2026-04-11T08:26:50.508Z</time></trkpt><trkpt lat="53.6396168" lon="-1.8783799"><ele>301.0</ele><time>2026-04-11T08:26:51.498Z</time></trkpt><trkpt lat="53.6395283" lon="-1.8784649"><ele>301.0</ele><time>2026-04-11T08:26:52.502Z</time></trkpt><trkpt lat="53.6394537" lon="-1.878538"><ele>301.0</ele><time>2026-04-11T08:26:53.503Z</time></trkpt><trkpt lat="53.6393892" lon="-1.8786067"><ele>299.3333333333333</ele><time>2026-04-11T08:26:54.505Z</time></trkpt><trkpt lat="53.6393252" lon="-1.8786668"><ele>297.66666666666663</ele><time>2026-04-11T08:26:55.503Z</time></trkpt><trkpt lat="53.6392603" lon="-1.8787122"><ele>296.0</ele><time>2026-04-11T08:26:56.504Z</time></trkpt><trkpt lat="53.6391559" lon="-1.8787558"><ele>294.3333333333333</ele><time>2026-04-11T08:26:58.504Z</time></trkpt><trkpt lat="53.6390815" lon="-1.8787969"><ele>292.6666666666667</ele><time>2026-04-11T08:27:00.503Z</time></trkpt><trkpt lat="53.6390669" lon="-1.8789255"><ele>291.0</ele><time>2026-04-11T08:27:02.504Z</time></trkpt><trkpt lat="53.6391031" lon="-1.8790213"><ele>291.0</ele><time>2026-04-11T08:27:03.504Z</time></trkpt><trkpt lat="53.6391707" lon="-1.8791494"><ele>291.0</ele><time>2026-04-11T08:27:04.506Z</time></trkpt><trkpt lat="53.6392483" lon="-1.8792829"><ele>291.0</ele><time>2026-04-11T08:27:05.505Z</time></trkpt><trkpt lat="53.6393325" lon="-1.8794279"><ele>291.0</ele><time>2026-04-11T08:27:06.505Z</time></trkpt><trkpt lat="53.6394064" lon="-1.8795725"><ele>291.0</ele><time>2026-04-11T08:27:07.506Z</time></trkpt><trkpt lat="53.6394497" lon="-1.879726"><ele>291.2</ele><time>2026-04-11T08:27:08.504Z</time></trkpt><trkpt lat="53.6394408" lon="-1.8798826"><ele>291.40000000000003</ele><time>2026-04-11T08:27:09.504Z</time></trkpt><trkpt lat="53.6393907" lon="-1.8800305"><ele>291.6</ele><time>2026-04-11T08:27:10.503Z</time></trkpt><trkpt lat="53.6393028" lon="-1.8801557"><ele>291.8</ele><time>2026-04-11T08:27:11.499Z</time></trkpt><trkpt lat="53.6391901" lon="-1.8802795"><ele>292.0</ele><time>2026-04-11T08:27:12.498Z</time></trkpt><trkpt lat="53.6390832" lon="-1.8804147"><ele>293.25</ele><time>2026-04-11T08:27:13.499Z</time></trkpt><trkpt lat="53.6389846" lon="-1.8805762"><ele>294.5</ele><time>2026-04-11T08:27:14.498Z</time></trkpt><trkpt lat="53.6388917" lon="-1.8807556"><ele>295.75</ele><time>2026-04-11T08:27:15.502Z</time></trkpt><trkpt lat="53.6388022" lon="-1.8809142"><ele>297.0</ele><time>2026-04-11T08:27:16.502Z</time></trkpt><trkpt lat="53.6387093" lon="-1.8810256"><ele>296.75</ele><time>2026-04-11T08:27:17.499Z</time></trkpt><trkpt lat="53.6386032" lon="-1.8811044"><ele>296.5</ele><time>2026-04-11T08:27:18.498Z</time></trkpt><trkpt lat="53.6384884" lon="-1.8811743"><ele>296.25</ele><time>2026-04-11T08:27:19.499Z</time></trkpt><trkpt lat="53.6383739" lon="-1.8812354"><ele>296.0</ele><time>2026-04-11T08:27:20.501Z</time></trkpt><trkpt lat="53.6382635" lon="-1.8812942"><ele>296.0</ele><time>2026-04-11T08:27:21.507Z</time></trkpt><trkpt lat="53.6381711" lon="-1.8813594"><ele>296.0</ele><time>2026-04-11T08:27:22.503Z</time></trkpt><trkpt lat="53.6381042" lon="-1.8814471"><ele>296.0</ele><time>2026-04-11T08:27:23.506Z</time></trkpt><trkpt lat="53.6380563" lon="-1.8815526"><ele>296.0</ele><time>2026-04-11T08:27:24.503Z</time></trkpt><trkpt lat="53.6380142" lon="-1.8816665"><ele>296.0</ele><time>2026-04-11T08:27:25.502Z</time></trkpt><trkpt lat="53.6379737" lon="-1.8817953"><ele>296.0</ele><time>2026-04-11T08:27:26.502Z</time></trkpt><trkpt lat="53.6379312" lon="-1.8819036"><ele>297.1666666666667</ele><time>2026-04-11T08:27:27.502Z</time></trkpt><trkpt lat="53.6378667" lon="-1.8819781"><ele>298.33333333333337</ele><time>2026-04-11T08:27:28.502Z</time></trkpt><trkpt lat="53.6377892" lon="-1.8820231"><ele>299.5</ele><time>2026-04-11T08:27:29.503Z</time></trkpt><trkpt lat="53.6377095" lon="-1.8820119"><ele>300.6666666666667</ele><time>2026-04-11T08:27:30.499Z</time></trkpt><trkpt lat="53.6376265" lon="-1.8819681"><ele>301.8333333333333</ele><time>2026-04-11T08:27:31.503Z</time></trkpt><trkpt lat="53.637543" lon="-1.8818906"><ele>303.0</ele><time>2026-04-11T08:27:32.503Z</time></trkpt><trkpt lat="53.6374625" lon="-1.8818035"><ele>302.6</ele><time>2026-04-11T08:27:33.503Z</time></trkpt><trkpt lat="53.6373944" lon="-1.8817038"><ele>302.20000000000005</ele><time>2026-04-11T08:27:34.506Z</time></trkpt><trkpt lat="53.6373138" lon="-1.8815815"><ele>301.8</ele><time>2026-04-11T08:27:35.504Z</time></trkpt><trkpt lat="53.6372387" lon="-1.8814889"><ele>301.40000000000003</ele><time>2026-04-11T08:27:36.498Z</time></trkpt><trkpt lat="53.63715" lon="-1.8813978"><ele>301.0</ele><time>2026-04-11T08:27:37.508Z</time></trkpt><trkpt lat="53.637063" lon="-1.8813343"><ele>302.6</ele><time>2026-04-11T08:27:38.509Z</time></trkpt><trkpt lat="53.6369651" lon="-1.8812972"><ele>304.20000000000005</ele><time>2026-04-11T08:27:39.508Z</time></trkpt><trkpt lat="53.6368829" lon="-1.8813433"><ele>305.79999999999995</ele><time>2026-04-11T08:27:40.509Z</time></trkpt><trkpt lat="53.6368103" lon="-1.8814562"><ele>307.4</ele><time>2026-04-11T08:27:41.502Z</time></trkpt><trkpt lat="53.6367349" lon="-1.8815972"><ele>309.0</ele><time>2026-04-11T08:27:42.502Z</time></trkpt><trkpt lat="53.6366638" lon="-1.8817576"><ele>310.5</ele><time>2026-04-11T08:27:43.499Z</time></trkpt><trkpt lat="53.636598" lon="-1.8819304"><ele>312.0</ele><time>2026-04-11T08:27:44.498Z</time></trkpt><trkpt lat="53.6365384" lon="-1.8821138"><ele>313.5</ele><time>2026-04-11T08:27:45.502Z</time></trkpt><trkpt lat="53.6364758" lon="-1.8823061"><ele>315.0</ele><time>2026-04-11T08:27:46.503Z</time></trkpt><trkpt lat="53.6364119" lon="-1.8824989"><ele>315.75</ele><time>2026-04-11T08:27:47.502Z</time></trkpt><trkpt lat="53.6363531" lon="-1.8826944"><ele>316.5</ele><time>2026-04-11T08:27:48.498Z</time></trkpt><trkpt lat="53.6363086" lon="-1.8828986"><ele>317.25</ele><time>2026-04-11T08:27:49.502Z</time></trkpt><trkpt lat="53.6362739" lon="-1.8831114"><ele>318.0</ele><time>2026-04-11T08:27:50.503Z</time></trkpt><trkpt lat="53.6362443" lon="-1.8833411"><ele>318.75</ele><time>2026-04-11T08:27:51.502Z</time></trkpt><trkpt lat="53.6362245" lon="-1.8835793"><ele>319.5</ele><time>2026-04-11T08:27:52.504Z</time></trkpt><trkpt lat="53.636207" lon="-1.8838176"><ele>320.25</ele><time>2026-04-11T08:27:53.501Z</time></trkpt><trkpt lat="53.6361773" lon="-1.8840442"><ele>321.0</ele><time>2026-04-11T08:27:54.503Z</time></trkpt><trkpt lat="53.6361263" lon="-1.8842495"><ele>321.25</ele><time>2026-04-11T08:27:55.503Z</time></trkpt><trkpt lat="53.6360414" lon="-1.8843995"><ele>321.5</ele><time>2026-04-11T08:27:56.503Z</time></trkpt><trkpt lat="53.6359284" lon="-1.8845375"><ele>321.75</ele><time>2026-04-11T08:27:57.504Z</time></trkpt><trkpt lat="53.6357973" lon="-1.8846663"><ele>322.0</ele><time>2026-04-11T08:27:58.503Z</time></trkpt><trkpt lat="53.6356553" lon="-1.8847985"><ele>322.0</ele><time>2026-04-11T08:27:59.503Z</time></trkpt><trkpt lat="53.6355171" lon="-1.8849467"><ele>322.0</ele><time>2026-04-11T08:28:00.5Z</time></trkpt><trkpt lat="53.6353779" lon="-1.8851146"><ele>322.0</ele><time>2026-04-11T08:28:01.504Z</time></trkpt><trkpt lat="53.635253" lon="-1.8852921"><ele>321.66666666666663</ele><time>2026-04-11T08:28:02.502Z</time></trkpt><trkpt lat="53.6351431" lon="-1.8854841"><ele>321.3333333333333</ele><time>2026-04-11T08:28:03.505Z</time></trkpt><trkpt lat="53.635034" lon="-1.8856939"><ele>321.0</ele><time>2026-04-11T08:28:04.505Z</time></trkpt><trkpt lat="53.6349286" lon="-1.8859053"><ele>322.75</ele><time>2026-04-11T08:28:05.504Z</time></trkpt><trkpt lat="53.6348218" lon="-1.8860995"><ele>324.5</ele><time>2026-04-11T08:28:06.503Z</time></trkpt><trkpt lat="53.6347187" lon="-1.8862786"><ele>326.25</ele><time>2026-04-11T08:28:07.503Z</time></trkpt><trkpt lat="53.6346363" lon="-1.8864524"><ele>328.0</ele><time>2026-04-11T08:28:08.505Z</time></trkpt><trkpt lat="53.6345775" lon="-1.8866156"><ele>328.0</ele><time>2026-04-11T08:28:09.504Z</time></trkpt><trkpt lat="53.6345415" lon="-1.8867495"><ele>328.0</ele><time>2026-04-11T08:28:10.506Z</time></trkpt><trkpt lat="53.6345125" lon="-1.8868904"><ele>328.0</ele><time>2026-04-11T08:28:12.502Z</time></trkpt><trkpt lat="53.6344824" lon="-1.8870405"><ele>328.0</ele><time>2026-04-11T08:28:15.503Z</time></trkpt><trkpt lat="53.6344523" lon="-1.8871436"><ele>328.0</ele><time>2026-04-11T08:28:16.504Z</time></trkpt><trkpt lat="53.6344109" lon="-1.8872767"><ele>328.0</ele><time>2026-04-11T08:28:17.503Z</time></trkpt><trkpt lat="53.6343588" lon="-1.8874427"><ele>327.0</ele><time>2026-04-11T08:28:18.502Z</time></trkpt><trkpt lat="53.6343067" lon="-1.8876331"><ele>326.0</ele><time>2026-04-11T08:28:19.501Z</time></trkpt><trkpt lat="53.6342577" lon="-1.887834"><ele>325.0</ele><time>2026-04-11T08:28:20.497Z</time></trkpt><trkpt lat="53.63421" lon="-1.8880443"><ele>324.0</ele><time>2026-04-11T08:28:21.501Z</time></trkpt><trkpt lat="53.6341592" lon="-1.8882542"><ele>325.25</ele><time>2026-04-11T08:28:22.503Z</time></trkpt><trkpt lat="53.634107" lon="-1.8884717"><ele>326.5</ele><time>2026-04-11T08:28:23.505Z</time></trkpt><trkpt lat="53.6340474" lon="-1.88869"><ele>327.75</ele><time>2026-04-11T08:28:24.505Z</time></trkpt><trkpt lat="53.6339922" lon="-1.8888923"><ele>329.0</ele><time>2026-04-11T08:28:25.5Z</time></trkpt><trkpt lat="53.6339404" lon="-1.8890949"><ele>330.5</ele><time>2026-04-11T08:28:26.503Z</time></trkpt><trkpt lat="53.6338861" lon="-1.8892947"><ele>332.0</ele><time>2026-04-11T08:28:27.503Z</time></trkpt><trkpt lat="53.633823" lon="-1.889489"><ele>333.5</ele><time>2026-04-11T08:28:28.499Z</time></trkpt><trkpt lat="53.6337453" lon="-1.8896752"><ele>335.0</ele><time>2026-04-11T08:28:29.5Z</time></trkpt><trkpt lat="53.6336572" lon="-1.8898579"><ele>332.25</ele><time>2026-04-11T08:28:30.499Z</time></trkpt><trkpt lat="53.6335649" lon="-1.8900388"><ele>329.5</ele><time>2026-04-11T08:28:31.503Z</time></trkpt><trkpt lat="53.6334739" lon="-1.8902196"><ele>326.75</ele><time>2026-04-11T08:28:32.503Z</time></trkpt><trkpt lat="53.6333843" lon="-1.8904145"><ele>324.0</ele><time>2026-04-11T08:28:33.503Z</time></trkpt><trkpt lat="53.6332967" lon="-1.8906165"><ele>324.0</ele><time>2026-04-11T08:28:34.503Z</time></trkpt><trkpt lat="53.6332093" lon="-1.890811"><ele>324.0</ele><time>2026-04-11T08:28:35.502Z</time></trkpt><trkpt lat="53.6331239" lon="-1.8909927"><ele>324.0</ele><time>2026-04-11T08:28:36.508Z</time></trkpt><trkpt lat="53.6330417" lon="-1.891156"><ele>324.0</ele><time>2026-04-11T08:28:37.506Z</time></trkpt><trkpt lat="53.6329744" lon="-1.8912862"><ele>324.8333333333333</ele><time>2026-04-11T08:28:38.504Z</time></trkpt><trkpt lat="53.6329289" lon="-1.8913666"><ele>325.6666666666667</ele><time>2026-04-11T08:28:39.505Z</time></trkpt><trkpt lat="53.6330071" lon="-1.8914322"><ele>326.5</ele><time>2026-04-11T08:28:45.502Z</time></trkpt><trkpt lat="53.6331043" lon="-1.8915046"><ele>327.33333333333337</ele><time>2026-04-11T08:28:47.503Z</time></trkpt><trkpt lat="53.6331709" lon="-1.8915703"><ele>328.1666666666667</ele><time>2026-04-11T08:28:48.498Z</time></trkpt><trkpt lat="53.6332352" lon="-1.8916392"><ele>329.0</ele><time>2026-04-11T08:28:49.496Z</time></trkpt><trkpt lat="53.6333044" lon="-1.8916875"><ele>329.0</ele><time>2026-04-11T08:28:50.496Z</time></trkpt><trkpt lat="53.6333726" lon="-1.891687"><ele>329.0</ele><time>2026-04-11T08:28:51.502Z</time></trkpt><trkpt lat="53.6334417" lon="-1.8916396"><ele>329.0</ele><time>2026-04-11T08:28:52.503Z</time></trkpt><trkpt lat="53.6335155" lon="-1.8915759"><ele>329.0</ele><time>2026-04-11T08:28:53.505Z</time></trkpt><trkpt lat="53.6335951" lon="-1.8915307"><ele>329.0</ele><time>2026-04-11T08:28:54.5Z</time></trkpt><trkpt lat="53.6336797" lon="-1.8915097"><ele>329.0</ele><time>2026-04-11T08:28:55.503Z</time></trkpt><trkpt lat="53.6337683" lon="-1.8915167"><ele>332.0</ele><time>2026-04-11T08:28:56.507Z</time></trkpt><trkpt lat="53.6338652" lon="-1.8915599"><ele>335.0</ele><time>2026-04-11T08:28:57.507Z</time></trkpt><trkpt lat="53.6339647" lon="-1.8916387"><ele>338.0</ele><time>2026-04-11T08:28:58.506Z</time></trkpt><trkpt lat="53.6340755" lon="-1.8917388"><ele>341.0</ele><time>2026-04-11T08:28:59.506Z</time></trkpt><trkpt lat="53.6341959" lon="-1.8918426"><ele>341.6666666666667</ele><time>2026-04-11T08:29:00.508Z</time></trkpt><trkpt lat="53.6343273" lon="-1.8919481"><ele>342.3333333333333</ele><time>2026-04-11T08:29:01.508Z</time></trkpt><trkpt lat="53.6344682" lon="-1.8920603"><ele>343.0</ele><time>2026-04-11T08:29:02.509Z</time></trkpt><trkpt lat="53.6346198" lon="-1.8921886"><ele>343.0</ele><time>2026-04-11T08:29:03.504Z</time></trkpt><trkpt lat="53.6347783" lon="-1.8923178"><ele>343.0</ele><time>2026-04-11T08:29:04.511Z</time></trkpt><trkpt lat="53.6349468" lon="-1.8924521"><ele>343.0</ele><time>2026-04-11T08:29:05.508Z</time></trkpt><trkpt lat="53.6351258" lon="-1.8925908"><ele>342.66666666666663</ele><time>2026-04-11T08:29:06.509Z</time></trkpt><trkpt lat="53.6353115" lon="-1.8927392"><ele>342.3333333333333</ele><time>2026-04-11T08:29:07.511Z</time></trkpt><trkpt lat="53.6355032" lon="-1.8928929"><ele>342.0</ele><time>2026-04-11T08:29:08.514Z</time></trkpt><trkpt lat="53.6356952" lon="-1.8930483"><ele>342.0</ele><time>2026-04-11T08:29:09.509Z</time></trkpt><trkpt lat="53.6358757" lon="-1.8931993"><ele>342.0</ele><time>2026-04-11T08:29:10.506Z</time></trkpt><trkpt lat="53.6360438" lon="-1.8933426"><ele>342.0</ele><time>2026-04-11T08:29:11.505Z</time></trkpt><trkpt lat="53.6361952" lon="-1.8934755"><ele>341.5</ele><time>2026-04-11T08:29:12.505Z</time></trkpt><trkpt lat="53.6363327" lon="-1.8935982"><ele>341.0</ele><time>2026-04-11T08:29:13.507Z</time></trkpt><trkpt lat="53.6364624" lon="-1.8937098"><ele>340.5</ele><time>2026-04-11T08:29:14.499Z</time></trkpt><trkpt lat="53.6365745" lon="-1.8938115"><ele>340.0</ele><time>2026-04-11T08:29:15.505Z</time></trkpt><trkpt lat="53.636671" lon="-1.8939"><ele>340.0</ele><time>2026-04-11T08:29:16.505Z</time></trkpt><trkpt lat="53.6367458" lon="-1.8939674"><ele>340.0</ele><time>2026-04-11T08:29:17.507Z</time></trkpt><trkpt lat="53.636804" lon="-1.894011"><ele>340.0</ele><time>2026-04-11T08:29:18.504Z</time></trkpt><trkpt lat="53.6368854" lon="-1.8940705"><ele>340.0</ele><time>2026-04-11T08:29:20.506Z</time></trkpt><trkpt lat="53.6369183" lon="-1.8941953"><ele>340.0</ele><time>2026-04-11T08:29:22.507Z</time></trkpt><trkpt lat="53.6368964" lon="-1.8943091"><ele>340.0</ele><time>2026-04-11T08:29:23.503Z</time></trkpt><trkpt lat="53.6368509" lon="-1.8944525"><ele>339.75</ele><time>2026-04-11T08:29:24.506Z</time></trkpt><trkpt lat="53.6367956" lon="-1.8946141"><ele>339.5</ele><time>2026-04-11T08:29:25.506Z</time></trkpt><trkpt lat="53.6367416" lon="-1.8947956"><ele>339.25</ele><time>2026-04-11T08:29:26.506Z</time></trkpt><trkpt lat="53.6366863" lon="-1.8949955"><ele>339.0</ele><time>2026-04-11T08:29:27.506Z</time></trkpt><trkpt lat="53.6366362" lon="-1.8952165"><ele>339.0</ele><time>2026-04-11T08:29:28.503Z</time></trkpt><trkpt lat="53.6365875" lon="-1.8954513"><ele>339.0</ele><time>2026-04-11T08:29:29.504Z</time></trkpt><trkpt lat="53.6365348" lon="-1.8956999"><ele>339.0</ele><time>2026-04-11T08:29:30.502Z</time></trkpt><trkpt lat="53.6364705" lon="-1.8959555"><ele>339.0</ele><time>2026-04-11T08:29:31.51Z</time></trkpt><trkpt lat="53.6364025" lon="-1.8961959"><ele>339.0</ele><time>2026-04-11T08:29:32.509Z</time></trkpt><trkpt lat="53.6363377" lon="-1.8964274"><ele>339.0</ele><time>2026-04-11T08:29:33.508Z</time></trkpt><trkpt lat="53.6362798" lon="-1.896663"><ele>339.0</ele><time>2026-04-11T08:29:34.508Z</time></trkpt><trkpt lat="53.6362235" lon="-1.8968987"><ele>339.0</ele><time>2026-04-11T08:29:35.501Z</time></trkpt><trkpt lat="53.6361649" lon="-1.8971358"><ele>339.0</ele><time>2026-04-11T08:29:36.508Z</time></trkpt><trkpt lat="53.6361037" lon="-1.8973728"><ele>339.25</ele><time>2026-04-11T08:29:37.509Z</time></trkpt><trkpt lat="53.6360414" lon="-1.8976021"><ele>339.5</ele><time>2026-04-11T08:29:38.508Z</time></trkpt><trkpt lat="53.6359737" lon="-1.8978239"><ele>339.75</ele><time>2026-04-11T08:29:39.506Z</time></trkpt><trkpt lat="53.6358949" lon="-1.8980409"><ele>340.0</ele><time>2026-04-11T08:29:40.503Z</time></trkpt><trkpt lat="53.6358096" lon="-1.898246"><ele>339.75</ele><time>2026-04-11T08:29:41.507Z</time></trkpt><trkpt lat="53.6357244" lon="-1.8984391"><ele>339.5</ele><time>2026-04-11T08:29:42.505Z</time></trkpt><trkpt lat="53.6356514" lon="-1.8986201"><ele>339.25</ele><time>2026-04-11T08:29:43.506Z</time></trkpt><trkpt lat="53.6355889" lon="-1.8987975"><ele>339.0</ele><time>2026-04-11T08:29:44.506Z</time></trkpt><trkpt lat="53.6355344" lon="-1.8989828"><ele>339.0</ele><time>2026-04-11T08:29:45.505Z</time></trkpt><trkpt lat="53.6354854" lon="-1.8991811"><ele>339.0</ele><time>2026-04-11T08:29:46.505Z</time></trkpt><trkpt lat="53.6354327" lon="-1.8993858"><ele>339.0</ele><time>2026-04-11T08:29:47.508Z</time></trkpt><trkpt lat="53.6353686" lon="-1.8995937"><ele>339.0</ele><time>2026-04-11T08:29:48.507Z</time></trkpt><trkpt lat="53.635303" lon="-1.8998018"><ele>337.75</ele><time>2026-04-11T08:29:49.505Z</time></trkpt><trkpt lat="53.6352381" lon="-1.9000066"><ele>336.5</ele><time>2026-04-11T08:29:50.504Z</time></trkpt><trkpt lat="53.6351596" lon="-1.900198"><ele>335.25</ele><time>2026-04-11T08:29:51.505Z</time></trkpt><trkpt lat="53.6350719" lon="-1.9003766"><ele>334.0</ele><time>2026-04-11T08:29:52.506Z</time></trkpt><trkpt lat="53.6349889" lon="-1.9005457"><ele>334.0</ele><time>2026-04-11T08:29:53.51Z</time></trkpt><trkpt lat="53.634915" lon="-1.9006978"><ele>334.0</ele><time>2026-04-11T08:29:54.509Z</time></trkpt><trkpt lat="53.6348506" lon="-1.9008387"><ele>334.0</ele><time>2026-04-11T08:29:55.506Z</time></trkpt><trkpt lat="53.6347966" lon="-1.9009646"><ele>334.0</ele><time>2026-04-11T08:29:56.504Z</time></trkpt><trkpt lat="53.6347568" lon="-1.9010822"><ele>334.0</ele><time>2026-04-11T08:29:57.505Z</time></trkpt><trkpt lat="53.6347248" lon="-1.901177"><ele>334.16666666666663</ele><time>2026-04-11T08:29:58.505Z</time></trkpt><trkpt lat="53.6346887" lon="-1.9012658"><ele>334.3333333333333</ele><time>2026-04-11T08:30:00.503Z</time></trkpt><trkpt lat="53.634704" lon="-1.901391"><ele>334.5</ele><time>2026-04-11T08:30:05.503Z</time></trkpt><trkpt lat="53.6347209" lon="-1.9015989"><ele>334.6666666666667</ele><time>2026-04-11T08:30:07.504Z</time></trkpt><trkpt lat="53.6347233" lon="-1.901736"><ele>334.83333333333337</ele><time>2026-04-11T08:30:08.504Z</time></trkpt><trkpt lat="53.6347284" lon="-1.9018537"><ele>335.0</ele><time>2026-04-11T08:30:09.504Z</time></trkpt><trkpt lat="53.6347223" lon="-1.9019813"><ele>335.0</ele><time>2026-04-11T08:30:10.505Z</time></trkpt><trkpt lat="53.634703" lon="-1.902122"><ele>335.0</ele><time>2026-04-11T08:30:11.501Z</time></trkpt><trkpt lat="53.6346679" lon="-1.9022552"><ele>335.0</ele><time>2026-04-11T08:30:12.503Z</time></trkpt><trkpt lat="53.63462" lon="-1.9023855"><ele>335.0</ele><time>2026-04-11T08:30:13.504Z</time></trkpt><trkpt lat="53.6345592" lon="-1.9025205"><ele>335.0</ele><time>2026-04-11T08:30:14.505Z</time></trkpt><trkpt lat="53.6344903" lon="-1.9026452"><ele>333.75</ele><time>2026-04-11T08:30:15.504Z</time></trkpt><trkpt lat="53.6344121" lon="-1.9027788"><ele>332.5</ele><time>2026-04-11T08:30:16.505Z</time></trkpt><trkpt lat="53.6343381" lon="-1.902921"><ele>331.25</ele><time>2026-04-11T08:30:17.499Z</time></trkpt><trkpt lat="53.6342588" lon="-1.9030731"><ele>330.0</ele><time>2026-04-11T08:30:18.504Z</time></trkpt><trkpt lat="53.6341847" lon="-1.9032402"><ele>330.0</ele><time>2026-04-11T08:30:19.502Z</time></trkpt><trkpt lat="53.6341112" lon="-1.9034141"><ele>330.0</ele><time>2026-04-11T08:30:20.504Z</time></trkpt><trkpt lat="53.6340414" lon="-1.9035897"><ele>330.0</ele><time>2026-04-11T08:30:21.505Z</time></trkpt><trkpt lat="53.6339753" lon="-1.9037656"><ele>330.0</ele><time>2026-04-11T08:30:22.504Z</time></trkpt><trkpt lat="53.6339134" lon="-1.903942"><ele>330.0</ele><time>2026-04-11T08:30:23.505Z</time></trkpt><trkpt lat="53.6338556" lon="-1.904114"><ele>330.0</ele><time>2026-04-11T08:30:24.504Z</time></trkpt><trkpt lat="53.6337982" lon="-1.904281"><ele>330.0</ele><time>2026-04-11T08:30:25.504Z</time></trkpt><trkpt lat="53.6337399" lon="-1.9044482"><ele>330.0</ele><time>2026-04-11T08:30:26.497Z</time></trkpt><trkpt lat="53.6336799" lon="-1.9046165"><ele>328.6</ele><time>2026-04-11T08:30:27.5Z</time></trkpt><trkpt lat="53.6336233" lon="-1.9047767"><ele>327.2</ele><time>2026-04-11T08:30:28.499Z</time></trkpt><trkpt lat="53.6335688" lon="-1.9049231"><ele>325.79999999999995</ele><time>2026-04-11T08:30:29.502Z</time></trkpt><trkpt lat="53.6335188" lon="-1.9050519"><ele>324.4</ele><time>2026-04-11T08:30:30.503Z</time></trkpt><trkpt lat="53.6334733" lon="-1.9051665"><ele>323.0</ele><time>2026-04-11T08:30:31.499Z</time></trkpt><trkpt lat="53.6334248" lon="-1.9052755"><ele>323.0</ele><time>2026-04-11T08:30:32.497Z</time></trkpt><trkpt lat="53.6333681" lon="-1.9053855"><ele>323.0</ele><time>2026-04-11T08:30:33.503Z</time></trkpt><trkpt lat="53.6333018" lon="-1.9054992"><ele>323.0</ele><time>2026-04-11T08:30:34.495Z</time></trkpt><trkpt lat="53.6332257" lon="-1.9056249"><ele>323.0</ele><time>2026-04-11T08:30:35.503Z</time></trkpt><trkpt lat="53.633143" lon="-1.9057595"><ele>323.0</ele><time>2026-04-11T08:30:36.504Z</time></trkpt><trkpt lat="53.633061" lon="-1.9059099"><ele>323.0</ele><time>2026-04-11T08:30:37.502Z</time></trkpt><trkpt lat="53.6329864" lon="-1.9060569"><ele>323.0</ele><time>2026-04-11T08:30:38.502Z</time></trkpt><trkpt lat="53.6329226" lon="-1.9062053"><ele>323.0</ele><time>2026-04-11T08:30:39.502Z</time></trkpt><trkpt lat="53.6328655" lon="-1.9063528"><ele>323.0</ele><time>2026-04-11T08:30:40.502Z</time></trkpt><trkpt lat="53.6328114" lon="-1.9065016"><ele>323.0</ele><time>2026-04-11T08:30:41.503Z</time></trkpt><trkpt lat="53.632758" lon="-1.9066455"><ele>321.6666666666667</ele><time>2026-04-11T08:30:42.505Z</time></trkpt><trkpt lat="53.6327064" lon="-1.9067699"><ele>320.33333333333337</ele><time>2026-04-11T08:30:43.507Z</time></trkpt><trkpt lat="53.6326551" lon="-1.9068811"><ele>319.0</ele><time>2026-04-11T08:30:44.505Z</time></trkpt><trkpt lat="53.6326028" lon="-1.9069812"><ele>317.6666666666667</ele><time>2026-04-11T08:30:45.506Z</time></trkpt><trkpt lat="53.6325514" lon="-1.9070559"><ele>316.3333333333333</ele><time>2026-04-11T08:30:46.505Z</time></trkpt><trkpt lat="53.6324763" lon="-1.9071539"><ele>315.0</ele><time>2026-04-11T08:30:48.503Z</time></trkpt><trkpt lat="53.6324618" lon="-1.9073002"><ele>315.0</ele><time>2026-04-11T08:30:50.504Z</time></trkpt><trkpt lat="53.6324999" lon="-1.9074948"><ele>315.0</ele><time>2026-04-11T08:30:52.506Z</time></trkpt><trkpt lat="53.6325247" lon="-1.9076138"><ele>315.0</ele><time>2026-04-11T08:30:53.504Z</time></trkpt><trkpt lat="53.6325465" lon="-1.9077467"><ele>315.0</ele><time>2026-04-11T08:30:54.502Z</time></trkpt><trkpt lat="53.6325551" lon="-1.9078866"><ele>315.0</ele><time>2026-04-11T08:30:55.504Z</time></trkpt><trkpt lat="53.6325529" lon="-1.9080453"><ele>315.8</ele><time>2026-04-11T08:30:56.506Z</time></trkpt><trkpt lat="53.6325426" lon="-1.9082111"><ele>316.6</ele><time>2026-04-11T08:30:57.505Z</time></trkpt><trkpt lat="53.632528" lon="-1.9083699"><ele>317.4</ele><time>2026-04-11T08:30:58.503Z</time></trkpt><trkpt lat="53.6325221" lon="-1.9085352"><ele>318.2</ele><time>2026-04-11T08:30:59.503Z</time></trkpt><trkpt lat="53.6325255" lon="-1.9087037"><ele>319.0</ele><time>2026-04-11T08:31:00.504Z</time></trkpt><trkpt lat="53.6325493" lon="-1.9088603"><ele>319.79999999999995</ele><time>2026-04-11T08:31:01.503Z</time></trkpt><trkpt lat="53.6325932" lon="-1.9090055"><ele>320.59999999999997</ele><time>2026-04-11T08:31:02.502Z</time></trkpt><trkpt lat="53.6326424" lon="-1.9091579"><ele>321.4</ele><time>2026-04-11T08:31:03.502Z</time></trkpt><trkpt lat="53.632673" lon="-1.9093189"><ele>322.2</ele><time>2026-04-11T08:31:04.504Z</time></trkpt><trkpt lat="53.632685" lon="-1.9094881"><ele>323.0</ele><time>2026-04-11T08:31:05.501Z</time></trkpt><trkpt lat="53.6326867" lon="-1.9096714"><ele>323.25</ele><time>2026-04-11T08:31:06.504Z</time></trkpt><trkpt lat="53.6326786" lon="-1.9098782"><ele>323.5</ele><time>2026-04-11T08:31:07.504Z</time></trkpt><trkpt lat="53.6326631" lon="-1.9100979"><ele>323.75</ele><time>2026-04-11T08:31:08.501Z</time></trkpt><trkpt lat="53.6326449" lon="-1.910325"><ele>324.0</ele><time>2026-04-11T08:31:09.5Z</time></trkpt><trkpt lat="53.6326266" lon="-1.9105466"><ele>324.75</ele><time>2026-04-11T08:31:10.502Z</time></trkpt><trkpt lat="53.6326069" lon="-1.910767"><ele>325.5</ele><time>2026-04-11T08:31:11.502Z</time></trkpt><trkpt lat="53.6325857" lon="-1.9109764"><ele>326.25</ele><time>2026-04-11T08:31:12.503Z</time></trkpt><trkpt lat="53.6325643" lon="-1.9111817"><ele>327.0</ele><time>2026-04-11T08:31:13.507Z</time></trkpt><trkpt lat="53.6325465" lon="-1.9113911"><ele>328.0</ele><time>2026-04-11T08:31:14.506Z</time></trkpt><trkpt lat="53.6325323" lon="-1.9115991"><ele>329.0</ele><time>2026-04-11T08:31:15.503Z</time></trkpt><trkpt lat="53.6325113" lon="-1.9118083"><ele>330.0</ele><time>2026-04-11T08:31:16.502Z</time></trkpt><trkpt lat="53.6324785" lon="-1.9120145"><ele>331.0</ele><time>2026-04-11T08:31:17.502Z</time></trkpt><trkpt lat="53.6324375" lon="-1.9122227"><ele>331.75</ele><time>2026-04-11T08:31:18.505Z</time></trkpt><trkpt lat="53.6323945" lon="-1.9124321"><ele>332.5</ele><time>2026-04-11T08:31:19.504Z</time></trkpt><trkpt lat="53.6323512" lon="-1.9126393"><ele>333.25</ele><time>2026-04-11T08:31:20.503Z</time></trkpt><trkpt lat="53.6323102" lon="-1.912853"><ele>334.0</ele><time>2026-04-11T08:31:21.502Z</time></trkpt><trkpt lat="53.6322646" lon="-1.9130762"><ele>334.0</ele><time>2026-04-11T08:31:22.502Z</time></trkpt><trkpt lat="53.6322217" lon="-1.9132983"><ele>334.0</ele><time>2026-04-11T08:31:23.505Z</time></trkpt><trkpt lat="53.6321803" lon="-1.9135255"><ele>334.0</ele><time>2026-04-11T08:31:24.506Z</time></trkpt><trkpt lat="53.6321415" lon="-1.9137533"><ele>334.0</ele><time>2026-04-11T08:31:25.506Z</time></trkpt><trkpt lat="53.6321057" lon="-1.9139781"><ele>334.79999999999995</ele><time>2026-04-11T08:31:26.504Z</time></trkpt><trkpt lat="53.6320681" lon="-1.9141958"><ele>335.59999999999997</ele><time>2026-04-11T08:31:27.506Z</time></trkpt><trkpt lat="53.6320425" lon="-1.9143922"><ele>336.4</ele><time>2026-04-11T08:31:28.509Z</time></trkpt><trkpt lat="53.6320291" lon="-1.9145567"><ele>337.2</ele><time>2026-04-11T08:31:29.504Z</time></trkpt><trkpt lat="53.6320244" lon="-1.9146773"><ele>338.0</ele><time>2026-04-11T08:31:30.503Z</time></trkpt><trkpt lat="53.6320381" lon="-1.914859"><ele>338.6666666666667</ele><time>2026-04-11T08:31:32.502Z</time></trkpt><trkpt lat="53.632063" lon="-1.9150123"><ele>339.33333333333337</ele><time>2026-04-11T08:31:34.502Z</time></trkpt><trkpt lat="53.6321046" lon="-1.9151349"><ele>340.0</ele><time>2026-04-11T08:31:37.498Z</time></trkpt><trkpt lat="53.6321822" lon="-1.9151355"><ele>340.6666666666667</ele><time>2026-04-11T08:31:39.503Z</time></trkpt><trkpt lat="53.6322625" lon="-1.9150997"><ele>341.3333333333333</ele><time>2026-04-11T08:31:41.505Z</time></trkpt><trkpt lat="53.6323262" lon="-1.9150879"><ele>342.0</ele><time>2026-04-11T08:31:45.505Z</time></trkpt><trkpt lat="53.6323904" lon="-1.9151105"><ele>342.0</ele><time>2026-04-11T08:32:12.519Z</time></trkpt><trkpt lat="53.6324589" lon="-1.9150979"><ele>342.0</ele><time>2026-04-11T08:32:18.519Z</time></trkpt><trkpt lat="53.6325386" lon="-1.9150674"><ele>342.0</ele><time>2026-04-11T08:32:20.505Z</time></trkpt><trkpt lat="53.6326575" lon="-1.9150836"><ele>342.0</ele><time>2026-04-11T08:32:22.508Z</time></trkpt><trkpt lat="53.6327323" lon="-1.9151205"><ele>342.0</ele><time>2026-04-11T08:32:23.509Z</time></trkpt><trkpt lat="53.6328008" lon="-1.91516"><ele>342.0</ele><time>2026-04-11T08:32:24.507Z</time></trkpt><trkpt lat="53.6329035" lon="-1.9152231"><ele>342.3333333333333</ele><time>2026-04-11T08:32:26.508Z</time></trkpt><trkpt lat="53.632948" lon="-1.9153232"><ele>342.6666666666667</ele><time>2026-04-11T08:32:29.508Z</time></trkpt><trkpt lat="53.6328932" lon="-1.9154035"><ele>343.0</ele><time>2026-04-11T08:32:31.509Z</time></trkpt><trkpt lat="53.6328055" lon="-1.9154856"><ele>343.33333333333337</ele><time>2026-04-11T08:32:33.505Z</time></trkpt><trkpt lat="53.632721" lon="-1.9155475"><ele>343.6666666666667</ele><time>2026-04-11T08:32:35.505Z</time></trkpt><trkpt lat="53.6326233" lon="-1.9156188"><ele>344.0</ele><time>2026-04-11T08:32:37.509Z</time></trkpt><trkpt lat="53.6325202" lon="-1.9157006"><ele>344.0</ele><time>2026-04-11T08:32:39.506Z</time></trkpt><trkpt lat="53.6324404" lon="-1.9157822"><ele>344.0</ele><time>2026-04-11T08:32:41.506Z</time></trkpt><trkpt lat="53.6323508" lon="-1.9158974"><ele>344.0</ele><time>2026-04-11T08:32:43.507Z</time></trkpt><trkpt lat="53.6322711" lon="-1.9160213"><ele>344.0</ele><time>2026-04-11T08:32:45.508Z</time></trkpt><trkpt lat="53.6322059" lon="-1.9161601"><ele>344.0</ele><time>2026-04-11T08:32:47.505Z</time></trkpt><trkpt lat="53.6321632" lon="-1.9163616"><ele>344.0</ele><time>2026-04-11T08:32:49.505Z</time></trkpt><trkpt lat="53.6321557" lon="-1.9164893"><ele>344.0</ele><time>2026-04-11T08:32:50.508Z</time></trkpt><trkpt lat="53.6321512" lon="-1.9166425"><ele>344.0</ele><time>2026-04-11T08:32:51.507Z</time></trkpt><trkpt lat="53.6321468" lon="-1.9168034"><ele>344.0</ele><time>2026-04-11T08:32:52.505Z</time></trkpt><trkpt lat="53.6321403" lon="-1.9169607"><ele>344.0</ele><time>2026-04-11T08:32:53.506Z</time></trkpt><trkpt lat="53.632131" lon="-1.9170919"><ele>344.0</ele><time>2026-04-11T08:32:54.507Z</time></trkpt><trkpt lat="53.6321224" lon="-1.9172389"><ele>344.2</ele><time>2026-04-11T08:32:56.507Z</time></trkpt><trkpt lat="53.6321403" lon="-1.9174057"><ele>344.4</ele><time>2026-04-11T08:33:24.5Z</time></trkpt><trkpt lat="53.6321423" lon="-1.917521"><ele>344.6</ele><time>2026-04-11T08:33:25.506Z</time></trkpt><trkpt lat="53.6321372" lon="-1.9176785"><ele>344.8</ele><time>2026-04-11T08:33:26.506Z</time></trkpt><trkpt lat="53.6321167" lon="-1.9178545"><ele>345.0</ele><time>2026-04-11T08:33:27.506Z</time></trkpt><trkpt lat="53.6320863" lon="-1.9180376"><ele>345.25</ele><time>2026-04-11T08:33:28.506Z</time></trkpt><trkpt lat="53.6320412" lon="-1.9182244"><ele>345.5</ele><time>2026-04-11T08:33:29.504Z</time></trkpt><trkpt lat="53.6319872" lon="-1.9184016"><ele>345.75</ele><time>2026-04-11T08:33:30.504Z</time></trkpt><trkpt lat="53.6319333" lon="-1.9185874"><ele>346.0</ele><time>2026-04-11T08:33:31.503Z</time></trkpt><trkpt lat="53.6318833" lon="-1.9187699"><ele>345.6</ele><time>2026-04-11T08:33:32.507Z</time></trkpt><trkpt lat="53.6318349" lon="-1.9189464"><ele>345.20000000000005</ele><time>2026-04-11T08:33:33.507Z</time></trkpt><trkpt lat="53.6317882" lon="-1.9191109"><ele>344.79999999999995</ele><time>2026-04-11T08:33:34.506Z</time></trkpt><trkpt lat="53.6317439" lon="-1.9192683"><ele>344.4</ele><time>2026-04-11T08:33:35.506Z</time></trkpt><trkpt lat="53.6316946" lon="-1.9194263"><ele>344.0</ele><time>2026-04-11T08:33:36.504Z</time></trkpt><trkpt lat="53.631649" lon="-1.919587"><ele>344.0</ele><time>2026-04-11T08:33:37.507Z</time></trkpt><trkpt lat="53.631602" lon="-1.9197558"><ele>344.0</ele><time>2026-04-11T08:33:38.499Z</time></trkpt><trkpt lat="53.6315563" lon="-1.9199291"><ele>344.0</ele><time>2026-04-11T08:33:39.506Z</time></trkpt><trkpt lat="53.6315125" lon="-1.9201032"><ele>344.0</ele><time>2026-04-11T08:33:40.501Z</time></trkpt><trkpt lat="53.6314704" lon="-1.9202721"><ele>344.0</ele><time>2026-04-11T08:33:41.499Z</time></trkpt><trkpt lat="53.6314289" lon="-1.9204365"><ele>344.6</ele><time>2026-04-11T08:33:42.502Z</time></trkpt><trkpt lat="53.6313895" lon="-1.9205944"><ele>345.2</ele><time>2026-04-11T08:33:43.512Z</time></trkpt><trkpt lat="53.6313489" lon="-1.9207543"><ele>345.8</ele><time>2026-04-11T08:33:44.507Z</time></trkpt><trkpt lat="53.6313097" lon="-1.9209197"><ele>346.40000000000003</ele><time>2026-04-11T08:33:45.506Z</time></trkpt><trkpt lat="53.6312675" lon="-1.9210918"><ele>347.0</ele><time>2026-04-11T08:33:46.502Z</time></trkpt><trkpt lat="53.631222" lon="-1.9212771"><ele>346.8</ele><time>2026-04-11T08:33:47.506Z</time></trkpt><trkpt lat="53.631173" lon="-1.9214757"><ele>346.6</ele><time>2026-04-11T08:33:48.51Z</time></trkpt><trkpt lat="53.6311243" lon="-1.9216688"><ele>346.40000000000003</ele><time>2026-04-11T08:33:49.507Z</time></trkpt><trkpt lat="53.6310817" lon="-1.9218319"><ele>346.20000000000005</ele><time>2026-04-11T08:33:50.505Z</time></trkpt><trkpt lat="53.631051" lon="-1.9219588"><ele>346.0</ele><time>2026-04-11T08:33:51.508Z</time></trkpt><trkpt lat="53.6310258" lon="-1.922076"><ele>346.0</ele><time>2026-04-11T08:33:52.508Z</time></trkpt><trkpt lat="53.6310044" lon="-1.9222017"><ele>346.0</ele><time>2026-04-11T08:33:53.507Z</time></trkpt><trkpt lat="53.6309901" lon="-1.9223218"><ele>346.0</ele><time>2026-04-11T08:33:54.508Z</time></trkpt><trkpt lat="53.6309533" lon="-1.9225193"><ele>346.0</ele><time>2026-04-11T08:33:56.508Z</time></trkpt><trkpt lat="53.6309194" lon="-1.9226254"><ele>346.0</ele><time>2026-04-11T08:33:57.506Z</time></trkpt><trkpt lat="53.6308828" lon="-1.9227576"><ele>346.0</ele><time>2026-04-11T08:33:58.507Z</time></trkpt><trkpt lat="53.6308434" lon="-1.9229076"><ele>346.4</ele><time>2026-04-11T08:33:59.508Z</time></trkpt><trkpt lat="53.6307986" lon="-1.9230656"><ele>346.8</ele><time>2026-04-11T08:34:00.507Z</time></trkpt><trkpt lat="53.630751" lon="-1.9232364"><ele>347.2</ele><time>2026-04-11T08:34:01.507Z</time></trkpt><trkpt lat="53.6307051" lon="-1.9234129"><ele>347.59999999999997</ele><time>2026-04-11T08:34:02.507Z</time></trkpt><trkpt lat="53.6306586" lon="-1.9235976"><ele>348.0</ele><time>2026-04-11T08:34:03.511Z</time></trkpt><trkpt lat="53.6306101" lon="-1.923795"><ele>348.5</ele><time>2026-04-11T08:34:04.51Z</time></trkpt><trkpt lat="53.6305577" lon="-1.9240043"><ele>349.0</ele><time>2026-04-11T08:34:05.506Z</time></trkpt><trkpt lat="53.6305044" lon="-1.9242162"><ele>349.5</ele><time>2026-04-11T08:34:06.507Z</time></trkpt><trkpt lat="53.6304521" lon="-1.9244249"><ele>350.0</ele><time>2026-04-11T08:34:07.507Z</time></trkpt><trkpt lat="53.6304008" lon="-1.924632"><ele>349.75</ele><time>2026-04-11T08:34:08.507Z</time></trkpt><trkpt lat="53.6303501" lon="-1.9248436"><ele>349.5</ele><time>2026-04-11T08:34:09.511Z</time></trkpt><trkpt lat="53.6302972" lon="-1.9250437"><ele>349.25</ele><time>2026-04-11T08:34:10.517Z</time></trkpt><trkpt lat="53.6302381" lon="-1.925227"><ele>349.0</ele><time>2026-04-11T08:34:11.506Z</time></trkpt><trkpt lat="53.6301788" lon="-1.9254113"><ele>349.0</ele><time>2026-04-11T08:34:12.507Z</time></trkpt><trkpt lat="53.6301325" lon="-1.9256104"><ele>349.0</ele><time>2026-04-11T08:34:13.511Z</time></trkpt><trkpt lat="53.6301012" lon="-1.9258238"><ele>349.0</ele><time>2026-04-11T08:34:14.506Z</time></trkpt><trkpt lat="53.6300834" lon="-1.9260465"><ele>349.0</ele><time>2026-04-11T08:34:15.508Z</time></trkpt><trkpt lat="53.6300738" lon="-1.9262661"><ele>349.5</ele><time>2026-04-11T08:34:16.509Z</time></trkpt><trkpt lat="53.6300703" lon="-1.926469"><ele>350.0</ele><time>2026-04-11T08:34:17.508Z</time></trkpt><trkpt lat="53.6300662" lon="-1.9266651"><ele>350.5</ele><time>2026-04-11T08:34:18.506Z</time></trkpt><trkpt lat="53.6300634" lon="-1.9268632"><ele>351.0</ele><time>2026-04-11T08:34:19.505Z</time></trkpt><trkpt lat="53.6300659" lon="-1.9270732"><ele>351.25</ele><time>2026-04-11T08:34:20.507Z</time></trkpt><trkpt lat="53.6300662" lon="-1.9272958"><ele>351.5</ele><time>2026-04-11T08:34:21.508Z</time></trkpt><trkpt lat="53.6300549" lon="-1.9275197"><ele>351.75</ele><time>2026-04-11T08:34:22.512Z</time></trkpt><trkpt lat="53.6300361" lon="-1.9277447"><ele>352.0</ele><time>2026-04-11T08:34:23.506Z</time></trkpt><trkpt lat="53.6300141" lon="-1.9279679"><ele>352.0</ele><time>2026-04-11T08:34:24.505Z</time></trkpt><trkpt lat="53.6299931" lon="-1.9281896"><ele>352.0</ele><time>2026-04-11T08:34:25.505Z</time></trkpt><trkpt lat="53.6299721" lon="-1.9284064"><ele>352.0</ele><time>2026-04-11T08:34:26.507Z</time></trkpt><trkpt lat="53.6299536" lon="-1.9286238"><ele>352.0</ele><time>2026-04-11T08:34:27.511Z</time></trkpt><trkpt lat="53.6299447" lon="-1.9288358"><ele>351.5</ele><time>2026-04-11T08:34:28.506Z</time></trkpt><trkpt lat="53.6299517" lon="-1.9290397"><ele>351.0</ele><time>2026-04-11T08:34:29.505Z</time></trkpt><trkpt lat="53.6299731" lon="-1.9292339"><ele>350.5</ele><time>2026-04-11T08:34:30.506Z</time></trkpt><trkpt lat="53.6299911" lon="-1.9294211"><ele>350.0</ele><time>2026-04-11T08:34:31.507Z</time></trkpt><trkpt lat="53.6300067" lon="-1.9295963"><ele>350.0</ele><time>2026-04-11T08:34:32.508Z</time></trkpt><trkpt lat="53.6300266" lon="-1.9297487"><ele>350.0</ele><time>2026-04-11T08:34:33.512Z</time></trkpt><trkpt lat="53.6300694" lon="-1.9298962"><ele>350.0</ele><time>2026-04-11T08:34:34.509Z</time></trkpt><trkpt lat="53.6301332" lon="-1.9300333"><ele>350.0</ele><time>2026-04-11T08:34:35.507Z</time></trkpt><trkpt lat="53.6302162" lon="-1.9301483"><ele>350.0</ele><time>2026-04-11T08:34:36.508Z</time></trkpt><trkpt lat="53.6303152" lon="-1.9302344"><ele>351.0</ele><time>2026-04-11T08:34:37.509Z</time></trkpt><trkpt lat="53.6304224" lon="-1.9302943"><ele>352.0</ele><time>2026-04-11T08:34:38.512Z</time></trkpt><trkpt lat="53.6305366" lon="-1.9303115"><ele>353.0</ele><time>2026-04-11T08:34:39.51Z</time></trkpt><trkpt lat="53.6306602" lon="-1.9302886"><ele>354.0</ele><time>2026-04-11T08:34:40.508Z</time></trkpt><trkpt lat="53.6307916" lon="-1.9302417"><ele>354.0</ele><time>2026-04-11T08:34:41.508Z</time></trkpt><trkpt lat="53.6309325" lon="-1.9301795"><ele>354.0</ele><time>2026-04-11T08:34:42.501Z</time></trkpt><trkpt lat="53.6310788" lon="-1.9301183"><ele>354.0</ele><time>2026-04-11T08:34:43.501Z</time></trkpt><trkpt lat="53.631233" lon="-1.9300664"><ele>354.75</ele><time>2026-04-11T08:34:44.501Z</time></trkpt><trkpt lat="53.6313885" lon="-1.9300291"><ele>355.5</ele><time>2026-04-11T08:34:45.503Z</time></trkpt><trkpt lat="53.6315347" lon="-1.929997"><ele>356.25</ele><time>2026-04-11T08:34:46.505Z</time></trkpt><trkpt lat="53.6316618" lon="-1.9299705"><ele>357.0</ele><time>2026-04-11T08:34:47.508Z</time></trkpt><trkpt lat="53.6317647" lon="-1.929956"><ele>357.0</ele><time>2026-04-11T08:34:48.506Z</time></trkpt><trkpt lat="53.6318444" lon="-1.9299491"><ele>357.0</ele><time>2026-04-11T08:34:49.503Z</time></trkpt><trkpt lat="53.6319139" lon="-1.9299391"><ele>357.0</ele><time>2026-04-11T08:34:50.504Z</time></trkpt><trkpt lat="53.6320178" lon="-1.9299284"><ele>357.0</ele><time>2026-04-11T08:34:52.506Z</time></trkpt><trkpt lat="53.6320878" lon="-1.9299492"><ele>357.0</ele><time>2026-04-11T08:34:55.508Z</time></trkpt><trkpt lat="53.6320686" lon="-1.9300555"><ele>357.0</ele><time>2026-04-11T08:34:58.499Z</time></trkpt><trkpt lat="53.6320146" lon="-1.9302226"><ele>356.8</ele><time>2026-04-11T08:35:00.506Z</time></trkpt><trkpt lat="53.6319667" lon="-1.9303368"><ele>356.6</ele><time>2026-04-11T08:35:01.507Z</time></trkpt><trkpt lat="53.6319221" lon="-1.9304684"><ele>356.40000000000003</ele><time>2026-04-11T08:35:02.506Z</time></trkpt><trkpt lat="53.6318733" lon="-1.9306193"><ele>356.20000000000005</ele><time>2026-04-11T08:35:03.511Z</time></trkpt><trkpt lat="53.6318198" lon="-1.9307808"><ele>356.0</ele><time>2026-04-11T08:35:04.509Z</time></trkpt><trkpt lat="53.6317624" lon="-1.9309484"><ele>356.0</ele><time>2026-04-11T08:35:05.507Z</time></trkpt><trkpt lat="53.631698" lon="-1.9311179"><ele>356.0</ele><time>2026-04-11T08:35:06.51Z</time></trkpt><trkpt lat="53.6316334" lon="-1.931296"><ele>356.0</ele><time>2026-04-11T08:35:07.509Z</time></trkpt><trkpt lat="53.6315703" lon="-1.9314732"><ele>356.0</ele><time>2026-04-11T08:35:08.507Z</time></trkpt><trkpt lat="53.6315085" lon="-1.9316489"><ele>356.0</ele><time>2026-04-11T08:35:09.507Z</time></trkpt><trkpt lat="53.6314459" lon="-1.9318303"><ele>356.0</ele><time>2026-04-11T08:35:10.507Z</time></trkpt><trkpt lat="53.6313804" lon="-1.9320287"><ele>356.0</ele><time>2026-04-11T08:35:11.506Z</time></trkpt><trkpt lat="53.6313123" lon="-1.9322302"><ele>356.0</ele><time>2026-04-11T08:35:12.507Z</time></trkpt><trkpt lat="53.6312448" lon="-1.932429"><ele>355.75</ele><time>2026-04-11T08:35:13.513Z</time></trkpt><trkpt lat="53.6311784" lon="-1.9326296"><ele>355.5</ele><time>2026-04-11T08:35:14.506Z</time></trkpt><trkpt lat="53.6311117" lon="-1.9328291"><ele>355.25</ele><time>2026-04-11T08:35:15.506Z</time></trkpt><trkpt lat="53.6310456" lon="-1.9330255"><ele>355.0</ele><time>2026-04-11T08:35:16.508Z</time></trkpt><trkpt lat="53.630976" lon="-1.9332255"><ele>356.25</ele><time>2026-04-11T08:35:17.506Z</time></trkpt><trkpt lat="53.6309053" lon="-1.9334305"><ele>357.5</ele><time>2026-04-11T08:35:18.507Z</time></trkpt><trkpt lat="53.6308351" lon="-1.9336347"><ele>358.75</ele><time>2026-04-11T08:35:19.506Z</time></trkpt><trkpt lat="53.6307627" lon="-1.9338456"><ele>360.0</ele><time>2026-04-11T08:35:20.504Z</time></trkpt><trkpt lat="53.6306882" lon="-1.9340585"><ele>360.0</ele><time>2026-04-11T08:35:21.499Z</time></trkpt><trkpt lat="53.6306149" lon="-1.9342738"><ele>360.0</ele><time>2026-04-11T08:35:22.505Z</time></trkpt><trkpt lat="53.630539" lon="-1.93449"><ele>360.0</ele><time>2026-04-11T08:35:23.512Z</time></trkpt><trkpt lat="53.630465" lon="-1.9347042"><ele>360.0</ele><time>2026-04-11T08:35:24.51Z</time></trkpt><trkpt lat="53.6303887" lon="-1.9349192"><ele>359.0</ele><time>2026-04-11T08:35:25.507Z</time></trkpt><trkpt lat="53.6303116" lon="-1.9351418"><ele>358.0</ele><time>2026-04-11T08:35:26.507Z</time></trkpt><trkpt lat="53.6302319" lon="-1.9353696"><ele>357.0</ele><time>2026-04-11T08:35:27.505Z</time></trkpt><trkpt lat="53.6301513" lon="-1.9355971"><ele>359.6666666666667</ele><time>2026-04-11T08:35:28.508Z</time></trkpt><trkpt lat="53.6300712" lon="-1.9358321"><ele>362.33333333333337</ele><time>2026-04-11T08:35:29.505Z</time></trkpt><trkpt lat="53.6299899" lon="-1.9360747"><ele>365.0</ele><time>2026-04-11T08:35:30.506Z</time></trkpt><trkpt lat="53.6299052" lon="-1.936316"><ele>365.0</ele><time>2026-04-11T08:35:31.51Z</time></trkpt><trkpt lat="53.629817" lon="-1.9365578"><ele>365.0</ele><time>2026-04-11T08:35:32.509Z</time></trkpt><trkpt lat="53.6297308" lon="-1.9368074"><ele>365.0</ele><time>2026-04-11T08:35:33.514Z</time></trkpt><trkpt lat="53.6296446" lon="-1.9370588"><ele>365.0</ele><time>2026-04-11T08:35:34.508Z</time></trkpt><trkpt lat="53.6295582" lon="-1.9373139"><ele>365.0</ele><time>2026-04-11T08:35:35.509Z</time></trkpt><trkpt lat="53.6294719" lon="-1.9375701"><ele>365.0</ele><time>2026-04-11T08:35:36.516Z</time></trkpt><trkpt lat="53.6293837" lon="-1.9378272"><ele>367.33333333333337</ele><time>2026-04-11T08:35:37.511Z</time></trkpt><trkpt lat="53.6292921" lon="-1.9380814"><ele>369.6666666666667</ele><time>2026-04-11T08:35:38.509Z</time></trkpt><trkpt lat="53.6292025" lon="-1.9383437"><ele>372.0</ele><time>2026-04-11T08:35:39.508Z</time></trkpt><trkpt lat="53.6291139" lon="-1.9386062"><ele>372.6666666666667</ele><time>2026-04-11T08:35:40.51Z</time></trkpt><trkpt lat="53.6290256" lon="-1.9388683"><ele>373.33333333333337</ele><time>2026-04-11T08:35:41.509Z</time></trkpt><trkpt lat="53.6289367" lon="-1.9391287"><ele>374.0</ele><time>2026-04-11T08:35:42.501Z</time></trkpt><trkpt lat="53.6288471" lon="-1.9393913"><ele>374.0</ele><time>2026-04-11T08:35:43.511Z</time></trkpt><trkpt lat="53.628758" lon="-1.9396544"><ele>374.0</ele><time>2026-04-11T08:35:44.507Z</time></trkpt><trkpt lat="53.6286692" lon="-1.9399158"><ele>374.0</ele><time>2026-04-11T08:35:45.505Z</time></trkpt><trkpt lat="53.6285796" lon="-1.9401795"><ele>376.0</ele><time>2026-04-11T08:35:46.505Z</time></trkpt><trkpt lat="53.6284916" lon="-1.9404445"><ele>378.0</ele><time>2026-04-11T08:35:47.507Z</time></trkpt><trkpt lat="53.6284014" lon="-1.9407043"><ele>380.0</ele><time>2026-04-11T08:35:48.502Z</time></trkpt><trkpt lat="53.6283119" lon="-1.9409699"><ele>380.33333333333337</ele><time>2026-04-11T08:35:49.509Z</time></trkpt><trkpt lat="53.6282232" lon="-1.941234"><ele>380.6666666666667</ele><time>2026-04-11T08:35:50.508Z</time></trkpt><trkpt lat="53.628136" lon="-1.9414979"><ele>381.0</ele><time>2026-04-11T08:35:51.508Z</time></trkpt><trkpt lat="53.6280467" lon="-1.941765"><ele>381.0</ele><time>2026-04-11T08:35:52.506Z</time></trkpt><trkpt lat="53.627956" lon="-1.9420375"><ele>381.0</ele><time>2026-04-11T08:35:53.513Z</time></trkpt><trkpt lat="53.6278648" lon="-1.942308"><ele>381.0</ele><time>2026-04-11T08:35:54.51Z</time></trkpt><trkpt lat="53.6277734" lon="-1.9425809"><ele>382.33333333333337</ele><time>2026-04-11T08:35:55.508Z</time></trkpt><trkpt lat="53.6276838" lon="-1.9428529"><ele>383.6666666666667</ele><time>2026-04-11T08:35:56.508Z</time></trkpt><trkpt lat="53.6275937" lon="-1.943131"><ele>385.0</ele><time>2026-04-11T08:35:57.508Z</time></trkpt><trkpt lat="53.6275033" lon="-1.9434037"><ele>385.33333333333337</ele><time>2026-04-11T08:35:58.507Z</time></trkpt><trkpt lat="53.6274151" lon="-1.9436732"><ele>385.66666666666663</ele><time>2026-04-11T08:35:59.506Z</time></trkpt><trkpt lat="53.6273271" lon="-1.943945"><ele>386.0</ele><time>2026-04-11T08:36:00.506Z</time></trkpt><trkpt lat="53.6272374" lon="-1.9442159"><ele>386.3333333333333</ele><time>2026-04-11T08:36:01.509Z</time></trkpt><trkpt lat="53.6271464" lon="-1.9444845"><ele>386.66666666666663</ele><time>2026-04-11T08:36:02.51Z</time></trkpt><trkpt lat="53.627057" lon="-1.9447517"><ele>387.0</ele><time>2026-04-11T08:36:03.516Z</time></trkpt><trkpt lat="53.6269691" lon="-1.9450223"><ele>388.66666666666663</ele><time>2026-04-11T08:36:04.511Z</time></trkpt><trkpt lat="53.6268815" lon="-1.9452958"><ele>390.3333333333333</ele><time>2026-04-11T08:36:05.509Z</time></trkpt><trkpt lat="53.626796" lon="-1.9455733"><ele>392.0</ele><time>2026-04-11T08:36:06.511Z</time></trkpt><trkpt lat="53.6267106" lon="-1.9458509"><ele>391.66666666666663</ele><time>2026-04-11T08:36:07.511Z</time></trkpt><trkpt lat="53.6266258" lon="-1.9461259"><ele>391.33333333333337</ele><time>2026-04-11T08:36:08.511Z</time></trkpt><trkpt lat="53.6265387" lon="-1.9464021"><ele>391.0</ele><time>2026-04-11T08:36:09.51Z</time></trkpt><trkpt lat="53.6264512" lon="-1.9466726"><ele>391.33333333333337</ele><time>2026-04-11T08:36:10.512Z</time></trkpt><trkpt lat="53.626364" lon="-1.9469482"><ele>391.66666666666663</ele><time>2026-04-11T08:36:11.507Z</time></trkpt><trkpt lat="53.6262756" lon="-1.9472298"><ele>392.0</ele><time>2026-04-11T08:36:12.506Z</time></trkpt><trkpt lat="53.6261898" lon="-1.9475049"><ele>394.0</ele><time>2026-04-11T08:36:13.515Z</time></trkpt><trkpt lat="53.6261042" lon="-1.9477846"><ele>396.0</ele><time>2026-04-11T08:36:14.508Z</time></trkpt><trkpt lat="53.6260204" lon="-1.9480673"><ele>398.0</ele><time>2026-04-11T08:36:15.508Z</time></trkpt><trkpt lat="53.6259387" lon="-1.9483496"><ele>398.66666666666663</ele><time>2026-04-11T08:36:16.506Z</time></trkpt><trkpt lat="53.6258579" lon="-1.9486371"><ele>399.33333333333337</ele><time>2026-04-11T08:36:17.507Z</time></trkpt><trkpt lat="53.6257753" lon="-1.9489283"><ele>400.0</ele><time>2026-04-11T08:36:18.507Z</time></trkpt><trkpt lat="53.6256969" lon="-1.9492241"><ele>400.33333333333337</ele><time>2026-04-11T08:36:19.508Z</time></trkpt><trkpt lat="53.6256201" lon="-1.9495215"><ele>400.66666666666663</ele><time>2026-04-11T08:36:20.507Z</time></trkpt><trkpt lat="53.6255473" lon="-1.9498213"><ele>401.0</ele><time>2026-04-11T08:36:21.505Z</time></trkpt><trkpt lat="53.625479" lon="-1.9501201"><ele>401.0</ele><time>2026-04-11T08:36:22.499Z</time></trkpt><trkpt lat="53.6254145" lon="-1.950412"><ele>401.0</ele><time>2026-04-11T08:36:23.512Z</time></trkpt><trkpt lat="53.6253516" lon="-1.9507069"><ele>401.0</ele><time>2026-04-11T08:36:24.507Z</time></trkpt><trkpt lat="53.6252895" lon="-1.951007"><ele>403.66666666666663</ele><time>2026-04-11T08:36:25.507Z</time></trkpt><trkpt lat="53.6252256" lon="-1.9513095"><ele>406.33333333333337</ele><time>2026-04-11T08:36:26.507Z</time></trkpt><trkpt lat="53.6251629" lon="-1.9516125"><ele>409.0</ele><time>2026-04-11T08:36:27.502Z</time></trkpt><trkpt lat="53.6251004" lon="-1.9519095"><ele>410.0</ele><time>2026-04-11T08:36:28.505Z</time></trkpt><trkpt lat="53.6250394" lon="-1.9522056"><ele>411.0</ele><time>2026-04-11T08:36:29.509Z</time></trkpt><trkpt lat="53.6249784" lon="-1.9525007"><ele>412.0</ele><time>2026-04-11T08:36:30.499Z</time></trkpt><trkpt lat="53.6249142" lon="-1.9527987"><ele>412.6666666666667</ele><time>2026-04-11T08:36:31.51Z</time></trkpt><trkpt lat="53.6248499" lon="-1.9530923"><ele>413.33333333333337</ele><time>2026-04-11T08:36:32.51Z</time></trkpt><trkpt lat="53.6247875" lon="-1.9533932"><ele>414.0</ele><time>2026-04-11T08:36:33.512Z</time></trkpt><trkpt lat="53.6247255" lon="-1.9536962"><ele>414.33333333333337</ele><time>2026-04-11T08:36:34.512Z</time></trkpt><trkpt lat="53.624663" lon="-1.9539959"><ele>414.6666666666667</ele><time>2026-04-11T08:36:35.51Z</time></trkpt><trkpt lat="53.624596" lon="-1.9542956"><ele>415.0</ele><time>2026-04-11T08:36:36.511Z</time></trkpt><trkpt lat="53.6245228" lon="-1.9545919"><ele>417.0</ele><time>2026-04-11T08:36:37.505Z</time></trkpt><trkpt lat="53.6244421" lon="-1.9548889"><ele>419.0</ele><time>2026-04-11T08:36:38.51Z</time></trkpt><trkpt lat="53.6243567" lon="-1.9551852"><ele>421.0</ele><time>2026-04-11T08:36:39.511Z</time></trkpt><trkpt lat="53.6242654" lon="-1.9554839"><ele>421.0</ele><time>2026-04-11T08:36:40.511Z</time></trkpt><trkpt lat="53.6241753" lon="-1.9557841"><ele>421.0</ele><time>2026-04-11T08:36:41.506Z</time></trkpt><trkpt lat="53.6240843" lon="-1.9560823"><ele>421.0</ele><time>2026-04-11T08:36:42.506Z</time></trkpt><trkpt lat="53.6239934" lon="-1.9563703"><ele>421.33333333333337</ele><time>2026-04-11T08:36:43.509Z</time></trkpt><trkpt lat="53.6238988" lon="-1.956665"><ele>421.66666666666663</ele><time>2026-04-11T08:36:44.507Z</time></trkpt><trkpt lat="53.6238048" lon="-1.9569579"><ele>422.0</ele><time>2026-04-11T08:36:45.507Z</time></trkpt><trkpt lat="53.6237163" lon="-1.9572484"><ele>423.66666666666663</ele><time>2026-04-11T08:36:46.509Z</time></trkpt><trkpt lat="53.6236284" lon="-1.9575369"><ele>425.33333333333337</ele><time>2026-04-11T08:36:47.507Z</time></trkpt><trkpt lat="53.6235415" lon="-1.9578261"><ele>427.0</ele><time>2026-04-11T08:36:48.507Z</time></trkpt><trkpt lat="53.6234546" lon="-1.958123"><ele>427.33333333333337</ele><time>2026-04-11T08:36:49.506Z</time></trkpt><trkpt lat="53.6233685" lon="-1.9584249"><ele>427.66666666666663</ele><time>2026-04-11T08:36:50.508Z</time></trkpt><trkpt lat="53.6232835" lon="-1.9587297"><ele>428.0</ele><time>2026-04-11T08:36:51.508Z</time></trkpt><trkpt lat="53.6231979" lon="-1.9590376"><ele>428.66666666666663</ele><time>2026-04-11T08:36:52.508Z</time></trkpt><trkpt lat="53.6231128" lon="-1.959348"><ele>429.33333333333337</ele><time>2026-04-11T08:36:53.509Z</time></trkpt><trkpt lat="53.6230283" lon="-1.959661"><ele>430.0</ele><time>2026-04-11T08:36:54.509Z</time></trkpt><trkpt lat="53.6229461" lon="-1.9599795"><ele>430.0</ele><time>2026-04-11T08:36:55.507Z</time></trkpt><trkpt lat="53.6228665" lon="-1.9603003"><ele>430.0</ele><time>2026-04-11T08:36:56.508Z</time></trkpt><trkpt lat="53.6227866" lon="-1.9606166"><ele>430.0</ele><time>2026-04-11T08:36:57.501Z</time></trkpt><trkpt lat="53.6227072" lon="-1.9609319"><ele>430.33333333333337</ele><time>2026-04-11T08:36:58.505Z</time></trkpt><trkpt lat="53.6226262" lon="-1.9612462"><ele>430.66666666666663</ele><time>2026-04-11T08:36:59.503Z</time></trkpt><trkpt lat="53.6225429" lon="-1.9615618"><ele>431.0</ele><time>2026-04-11T08:37:00.503Z</time></trkpt><trkpt lat="53.6224606" lon="-1.9618785"><ele>431.3333333333333</ele><time>2026-04-11T08:37:01.506Z</time></trkpt><trkpt lat="53.6223819" lon="-1.9621981"><ele>431.66666666666663</ele><time>2026-04-11T08:37:02.51Z</time></trkpt><trkpt lat="53.622305" lon="-1.9625195"><ele>432.0</ele><time>2026-04-11T08:37:03.515Z</time></trkpt><trkpt lat="53.6222285" lon="-1.9628414"><ele>432.66666666666663</ele><time>2026-04-11T08:37:04.511Z</time></trkpt><trkpt lat="53.6221511" lon="-1.9631601"><ele>433.3333333333333</ele><time>2026-04-11T08:37:05.51Z</time></trkpt><trkpt lat="53.622073" lon="-1.9634798"><ele>434.0</ele><time>2026-04-11T08:37:06.511Z</time></trkpt><trkpt lat="53.6219931" lon="-1.9638011"><ele>434.0</ele><time>2026-04-11T08:37:07.51Z</time></trkpt><trkpt lat="53.6219131" lon="-1.9641218"><ele>434.0</ele><time>2026-04-11T08:37:08.513Z</time></trkpt><trkpt lat="53.6218318" lon="-1.9644442"><ele>434.0</ele><time>2026-04-11T08:37:09.511Z</time></trkpt><trkpt lat="53.6217518" lon="-1.9647625"><ele>434.66666666666663</ele><time>2026-04-11T08:37:10.509Z</time></trkpt><trkpt lat="53.6216715" lon="-1.9650816"><ele>435.33333333333337</ele><time>2026-04-11T08:37:11.507Z</time></trkpt><trkpt lat="53.6215901" lon="-1.9654007"><ele>436.0</ele><time>2026-04-11T08:37:12.506Z</time></trkpt><trkpt lat="53.6215082" lon="-1.9657181"><ele>436.6666666666667</ele><time>2026-04-11T08:37:13.513Z</time></trkpt><trkpt lat="53.6214267" lon="-1.9660356"><ele>437.33333333333337</ele><time>2026-04-11T08:37:14.509Z</time></trkpt><trkpt lat="53.6213461" lon="-1.9663536"><ele>438.0</ele><time>2026-04-11T08:37:15.508Z</time></trkpt><trkpt lat="53.6212665" lon="-1.9666716"><ele>437.66666666666663</ele><time>2026-04-11T08:37:16.508Z</time></trkpt><trkpt lat="53.6211849" lon="-1.9669894"><ele>437.3333333333333</ele><time>2026-04-11T08:37:17.508Z</time></trkpt><trkpt lat="53.6211016" lon="-1.9673105"><ele>437.0</ele><time>2026-04-11T08:37:18.507Z</time></trkpt><trkpt lat="53.6210177" lon="-1.9676376"><ele>437.0</ele><time>2026-04-11T08:37:19.506Z</time></trkpt><trkpt lat="53.620934" lon="-1.9679688"><ele>437.0</ele><time>2026-04-11T08:37:20.507Z</time></trkpt><trkpt lat="53.6208504" lon="-1.9682997"><ele>437.0</ele><time>2026-04-11T08:37:21.507Z</time></trkpt><trkpt lat="53.6207666" lon="-1.9686287"><ele>437.66666666666663</ele><time>2026-04-11T08:37:22.505Z</time></trkpt><trkpt lat="53.6206824" lon="-1.9689565"><ele>438.33333333333337</ele><time>2026-04-11T08:37:23.507Z</time></trkpt><trkpt lat="53.6205983" lon="-1.9692841"><ele>439.0</ele><time>2026-04-11T08:37:24.508Z</time></trkpt><trkpt lat="53.6205136" lon="-1.9696101"><ele>440.6666666666667</ele><time>2026-04-11T08:37:25.507Z</time></trkpt><trkpt lat="53.6204307" lon="-1.9699303"><ele>442.33333333333337</ele><time>2026-04-11T08:37:26.506Z</time></trkpt><trkpt lat="53.62035" lon="-1.9702416"><ele>444.0</ele><time>2026-04-11T08:37:27.506Z</time></trkpt><trkpt lat="53.6202742" lon="-1.9705418"><ele>445.0</ele><time>2026-04-11T08:37:28.507Z</time></trkpt><trkpt lat="53.620202" lon="-1.9708245"><ele>446.0</ele><time>2026-04-11T08:37:29.506Z</time></trkpt><trkpt lat="53.6201315" lon="-1.9710762"><ele>447.0</ele><time>2026-04-11T08:37:30.506Z</time></trkpt><trkpt lat="53.6200769" lon="-1.9712946"><ele>447.75</ele><time>2026-04-11T08:37:31.508Z</time></trkpt><trkpt lat="53.6200264" lon="-1.9714981"><ele>448.5</ele><time>2026-04-11T08:37:32.509Z</time></trkpt><trkpt lat="53.6199692" lon="-1.9717015"><ele>449.25</ele><time>2026-04-11T08:37:33.512Z</time></trkpt><trkpt lat="53.6199055" lon="-1.9719227"><ele>450.0</ele><time>2026-04-11T08:37:34.503Z</time></trkpt><trkpt lat="53.6198391" lon="-1.9721606"><ele>450.66666666666663</ele><time>2026-04-11T08:37:35.509Z</time></trkpt><trkpt lat="53.6197698" lon="-1.9724133"><ele>451.3333333333333</ele><time>2026-04-11T08:37:36.511Z</time></trkpt><trkpt lat="53.6196983" lon="-1.9726815"><ele>452.0</ele><time>2026-04-11T08:37:37.509Z</time></trkpt><trkpt lat="53.6196341" lon="-1.9729538"><ele>452.25</ele><time>2026-04-11T08:37:38.511Z</time></trkpt><trkpt lat="53.619572" lon="-1.9732111"><ele>452.5</ele><time>2026-04-11T08:37:39.51Z</time></trkpt><trkpt lat="53.6195155" lon="-1.9734447"><ele>452.75</ele><time>2026-04-11T08:37:40.509Z</time></trkpt><trkpt lat="53.6194749" lon="-1.9736348"><ele>453.0</ele><time>2026-04-11T08:37:41.506Z</time></trkpt><trkpt lat="53.6194378" lon="-1.9737897"><ele>451.8333333333333</ele><time>2026-04-11T08:37:42.504Z</time></trkpt><trkpt lat="53.6194107" lon="-1.9738881"><ele>450.66666666666663</ele><time>2026-04-11T08:37:43.511Z</time></trkpt><trkpt lat="53.6193192" lon="-1.9738791"><ele>449.5</ele><time>2026-04-11T08:37:46.508Z</time></trkpt><trkpt lat="53.6192368" lon="-1.9738376"><ele>448.3333333333333</ele><time>2026-04-11T08:37:49.507Z</time></trkpt><trkpt lat="53.6191534" lon="-1.9738851"><ele>447.16666666666663</ele><time>2026-04-11T08:37:52.507Z</time></trkpt><trkpt lat="53.6191032" lon="-1.9739685"><ele>446.0</ele><time>2026-04-11T08:37:55.505Z</time></trkpt><trkpt lat="53.6191024" lon="-1.9740994"><ele>445.99999999999994</ele><time>2026-04-11T08:37:59.509Z</time></trkpt><trkpt lat="53.6191669" lon="-1.974188"><ele>446.0</ele><time>2026-04-11T08:38:02.502Z</time></trkpt><trkpt lat="53.6192508" lon="-1.9742318"><ele>446.0</ele><time>2026-04-11T08:38:04.506Z</time></trkpt><trkpt lat="53.6192806" lon="-1.974354"><ele>446.0</ele><time>2026-04-11T08:38:07.508Z</time></trkpt><trkpt lat="53.6192382" lon="-1.9744478"><ele>445.99999999999994</ele><time>2026-04-11T08:38:09.511Z</time></trkpt><trkpt lat="53.6192403" lon="-1.9746005"><ele>446.0</ele><time>2026-04-11T08:38:12.506Z</time></trkpt><trkpt lat="53.6192794" lon="-1.9747389"><ele>445.4</ele><time>2026-04-11T08:38:14.509Z</time></trkpt><trkpt lat="53.6193143" lon="-1.9749142"><ele>444.8</ele><time>2026-04-11T08:38:16.506Z</time></trkpt><trkpt lat="53.6193186" lon="-1.9750388"><ele>444.19999999999993</ele><time>2026-04-11T08:38:17.506Z</time></trkpt><trkpt lat="53.6193121" lon="-1.97519"><ele>443.59999999999997</ele><time>2026-04-11T08:38:18.508Z</time></trkpt><trkpt lat="53.6193042" lon="-1.9753677"><ele>443.0</ele><time>2026-04-11T08:38:19.506Z</time></trkpt><trkpt lat="53.6192971" lon="-1.9755627"><ele>441.75</ele><time>2026-04-11T08:38:20.506Z</time></trkpt><trkpt lat="53.6192902" lon="-1.975768"><ele>440.5</ele><time>2026-04-11T08:38:21.507Z</time></trkpt><trkpt lat="53.6192834" lon="-1.9759805"><ele>439.25</ele><time>2026-04-11T08:38:22.507Z</time></trkpt><trkpt lat="53.6192773" lon="-1.9762093"><ele>438.0</ele><time>2026-04-11T08:38:23.51Z</time></trkpt><trkpt lat="53.6192716" lon="-1.9764402"><ele>437.5</ele><time>2026-04-11T08:38:24.508Z</time></trkpt><trkpt lat="53.6192671" lon="-1.9766744"><ele>437.0</ele><time>2026-04-11T08:38:25.506Z</time></trkpt><trkpt lat="53.6192625" lon="-1.9769137"><ele>436.5</ele><time>2026-04-11T08:38:26.509Z</time></trkpt><trkpt lat="53.6192595" lon="-1.9771582"><ele>436.0</ele><time>2026-04-11T08:38:27.509Z</time></trkpt><trkpt lat="53.619257" lon="-1.9774107"><ele>435.33333333333337</ele><time>2026-04-11T08:38:28.51Z</time></trkpt><trkpt lat="53.6192545" lon="-1.9776668"><ele>434.66666666666663</ele><time>2026-04-11T08:38:29.508Z</time></trkpt><trkpt lat="53.6192556" lon="-1.9779291"><ele>434.0</ele><time>2026-04-11T08:38:30.509Z</time></trkpt><trkpt lat="53.6192629" lon="-1.9782003"><ele>432.3333333333333</ele><time>2026-04-11T08:38:31.506Z</time></trkpt><trkpt lat="53.6192765" lon="-1.9784775"><ele>430.66666666666663</ele><time>2026-04-11T08:38:32.51Z</time></trkpt><trkpt lat="53.6192996" lon="-1.9787568"><ele>429.0</ele><time>2026-04-11T08:38:33.509Z</time></trkpt><trkpt lat="53.6193274" lon="-1.9790422"><ele>428.33333333333337</ele><time>2026-04-11T08:38:34.511Z</time></trkpt><trkpt lat="53.6193572" lon="-1.9793316"><ele>427.6666666666667</ele><time>2026-04-11T08:38:35.509Z</time></trkpt><trkpt lat="53.6193872" lon="-1.9796211"><ele>427.0</ele><time>2026-04-11T08:38:36.508Z</time></trkpt><trkpt lat="53.6194169" lon="-1.9799132"><ele>426.0</ele><time>2026-04-11T08:38:37.511Z</time></trkpt><trkpt lat="53.6194467" lon="-1.9802064"><ele>425.0</ele><time>2026-04-11T08:38:38.507Z</time></trkpt><trkpt lat="53.6194757" lon="-1.9805008"><ele>424.0</ele><time>2026-04-11T08:38:39.509Z</time></trkpt><trkpt lat="53.6195064" lon="-1.9807978"><ele>431.0</ele><time>2026-04-11T08:38:40.508Z</time></trkpt><trkpt lat="53.6195374" lon="-1.9810929"><ele>438.0</ele><time>2026-04-11T08:38:41.504Z</time></trkpt><trkpt lat="53.619572" lon="-1.9813861"><ele>445.0</ele><time>2026-04-11T08:38:42.505Z</time></trkpt><trkpt lat="53.6196132" lon="-1.9816737"><ele>443.0</ele><time>2026-04-11T08:38:43.509Z</time></trkpt><trkpt lat="53.6196626" lon="-1.9819572"><ele>441.0</ele><time>2026-04-11T08:38:44.505Z</time></trkpt><trkpt lat="53.6197203" lon="-1.9822365"><ele>439.0</ele><time>2026-04-11T08:38:45.506Z</time></trkpt><trkpt lat="53.6197814" lon="-1.9825166"><ele>437.6666666666667</ele><time>2026-04-11T08:38:46.506Z</time></trkpt><trkpt lat="53.6198413" lon="-1.9828052"><ele>436.33333333333337</ele><time>2026-04-11T08:38:47.508Z</time></trkpt><trkpt lat="53.6198916" lon="-1.9830952"><ele>435.0</ele><time>2026-04-11T08:38:48.502Z</time></trkpt><trkpt lat="53.6199249" lon="-1.9833915"><ele>434.66666666666663</ele><time>2026-04-11T08:38:49.508Z</time></trkpt><trkpt lat="53.6199377" lon="-1.9836893"><ele>434.3333333333333</ele><time>2026-04-11T08:38:50.506Z</time></trkpt><trkpt lat="53.6199276" lon="-1.9839931"><ele>434.0</ele><time>2026-04-11T08:38:51.506Z</time></trkpt><trkpt lat="53.6198952" lon="-1.9843037"><ele>434.66666666666663</ele><time>2026-04-11T08:38:52.506Z</time></trkpt><trkpt lat="53.6198432" lon="-1.9846066"><ele>435.33333333333337</ele><time>2026-04-11T08:38:53.51Z</time></trkpt><trkpt lat="53.6197817" lon="-1.9849077"><ele>436.0</ele><time>2026-04-11T08:38:54.507Z</time></trkpt><trkpt lat="53.6197151" lon="-1.9852046"><ele>437.0</ele><time>2026-04-11T08:38:55.506Z</time></trkpt><trkpt lat="53.6196424" lon="-1.985488"><ele>438.0</ele><time>2026-04-11T08:38:56.502Z</time></trkpt><trkpt lat="53.6195617" lon="-1.9857547"><ele>439.0</ele><time>2026-04-11T08:38:57.504Z</time></trkpt><trkpt lat="53.6194771" lon="-1.9860248"><ele>436.0</ele><time>2026-04-11T08:38:58.506Z</time></trkpt><trkpt lat="53.6193977" lon="-1.9862973"><ele>433.0</ele><time>2026-04-11T08:38:59.507Z</time></trkpt><trkpt lat="53.6193272" lon="-1.9865717"><ele>430.0</ele><time>2026-04-11T08:39:00.506Z</time></trkpt><trkpt lat="53.6192666" lon="-1.9868473"><ele>430.0</ele><time>2026-04-11T08:39:01.508Z</time></trkpt><trkpt lat="53.6192167" lon="-1.9871252"><ele>430.0</ele><time>2026-04-11T08:39:02.51Z</time></trkpt><trkpt lat="53.6191713" lon="-1.9874127"><ele>430.0</ele><time>2026-04-11T08:39:03.511Z</time></trkpt><trkpt lat="53.6191278" lon="-1.9877042"><ele>431.33333333333337</ele><time>2026-04-11T08:39:04.511Z</time></trkpt><trkpt lat="53.6190858" lon="-1.9879963"><ele>432.66666666666663</ele><time>2026-04-11T08:39:05.511Z</time></trkpt><trkpt lat="53.619046" lon="-1.9882918"><ele>434.0</ele><time>2026-04-11T08:39:06.51Z</time></trkpt><trkpt lat="53.6190052" lon="-1.9885873"><ele>435.3333333333333</ele><time>2026-04-11T08:39:07.509Z</time></trkpt><trkpt lat="53.6189626" lon="-1.9888864"><ele>436.66666666666663</ele><time>2026-04-11T08:39:08.508Z</time></trkpt><trkpt lat="53.6189152" lon="-1.9891822"><ele>438.0</ele><time>2026-04-11T08:39:09.511Z</time></trkpt><trkpt lat="53.6188557" lon="-1.9894706"><ele>439.33333333333337</ele><time>2026-04-11T08:39:10.51Z</time></trkpt><trkpt lat="53.6187898" lon="-1.9897501"><ele>440.6666666666667</ele><time>2026-04-11T08:39:11.504Z</time></trkpt><trkpt lat="53.6187197" lon="-1.9900244"><ele>442.0</ele><time>2026-04-11T08:39:12.506Z</time></trkpt><trkpt lat="53.6186467" lon="-1.9903004"><ele>440.33333333333337</ele><time>2026-04-11T08:39:13.51Z</time></trkpt><trkpt lat="53.6185722" lon="-1.9905743"><ele>438.66666666666663</ele><time>2026-04-11T08:39:14.508Z</time></trkpt><trkpt lat="53.6184911" lon="-1.9908444"><ele>437.0</ele><time>2026-04-11T08:39:15.508Z</time></trkpt><trkpt lat="53.6184062" lon="-1.9911087"><ele>437.0</ele><time>2026-04-11T08:39:16.506Z</time></trkpt><trkpt lat="53.6183066" lon="-1.9913688"><ele>437.0</ele><time>2026-04-11T08:39:17.504Z</time></trkpt><trkpt lat="53.6181993" lon="-1.9916217"><ele>437.0</ele><time>2026-04-11T08:39:18.507Z</time></trkpt><trkpt lat="53.618087" lon="-1.9918725"><ele>437.66666666666663</ele><time>2026-04-11T08:39:19.507Z</time></trkpt><trkpt lat="53.6179676" lon="-1.9921188"><ele>438.33333333333337</ele><time>2026-04-11T08:39:20.506Z</time></trkpt><trkpt lat="53.6178394" lon="-1.992356"><ele>439.0</ele><time>2026-04-11T08:39:21.507Z</time></trkpt><trkpt lat="53.6176994" lon="-1.9925798"><ele>439.0</ele><time>2026-04-11T08:39:22.507Z</time></trkpt><trkpt lat="53.6175527" lon="-1.9927942"><ele>439.0</ele><time>2026-04-11T08:39:23.514Z</time></trkpt><trkpt lat="53.6174065" lon="-1.9929991"><ele>439.0</ele><time>2026-04-11T08:39:24.508Z</time></trkpt><trkpt lat="53.617264" lon="-1.9932016"><ele>438.6666666666667</ele><time>2026-04-11T08:39:25.508Z</time></trkpt><trkpt lat="53.6171222" lon="-1.9934056"><ele>438.33333333333337</ele><time>2026-04-11T08:39:26.507Z</time></trkpt><trkpt lat="53.6169813" lon="-1.9936078"><ele>438.0</ele><time>2026-04-11T08:39:27.508Z</time></trkpt><trkpt lat="53.6168438" lon="-1.9938089"><ele>438.0</ele><time>2026-04-11T08:39:28.51Z</time></trkpt><trkpt lat="53.6167074" lon="-1.9940139"><ele>438.0</ele><time>2026-04-11T08:39:29.506Z</time></trkpt><trkpt lat="53.6165702" lon="-1.9942218"><ele>438.0</ele><time>2026-04-11T08:39:30.508Z</time></trkpt><trkpt lat="53.6164336" lon="-1.9944348"><ele>439.0</ele><time>2026-04-11T08:39:31.513Z</time></trkpt><trkpt lat="53.6163018" lon="-1.9946505"><ele>440.0</ele><time>2026-04-11T08:39:32.511Z</time></trkpt><trkpt lat="53.6161722" lon="-1.99487"><ele>441.0</ele><time>2026-04-11T08:39:33.515Z</time></trkpt><trkpt lat="53.6160438" lon="-1.9950898"><ele>441.0</ele><time>2026-04-11T08:39:34.51Z</time></trkpt><trkpt lat="53.6159171" lon="-1.9953084"><ele>441.0</ele><time>2026-04-11T08:39:35.511Z</time></trkpt><trkpt lat="53.6157902" lon="-1.9955336"><ele>441.0</ele><time>2026-04-11T08:39:36.514Z</time></trkpt><trkpt lat="53.6156661" lon="-1.9957613"><ele>442.0</ele><time>2026-04-11T08:39:37.514Z</time></trkpt><trkpt lat="53.61554" lon="-1.9959924"><ele>443.0</ele><time>2026-04-11T08:39:38.509Z</time></trkpt><trkpt lat="53.6154149" lon="-1.9962278"><ele>444.0</ele><time>2026-04-11T08:39:39.511Z</time></trkpt><trkpt lat="53.6152918" lon="-1.9964599"><ele>443.66666666666663</ele><time>2026-04-11T08:39:40.511Z</time></trkpt><trkpt lat="53.6151736" lon="-1.996677"><ele>443.3333333333333</ele><time>2026-04-11T08:39:41.508Z</time></trkpt><trkpt lat="53.6150606" lon="-1.9968762"><ele>443.0</ele><time>2026-04-11T08:39:42.507Z</time></trkpt><trkpt lat="53.6149468" lon="-1.997043"><ele>443.0</ele><time>2026-04-11T08:39:43.512Z</time></trkpt><trkpt lat="53.6148201" lon="-1.997165"><ele>443.0</ele><time>2026-04-11T08:39:44.509Z</time></trkpt><trkpt lat="53.6146766" lon="-1.9972219"><ele>443.0</ele><time>2026-04-11T08:39:45.507Z</time></trkpt><trkpt lat="53.614522" lon="-1.9972241"><ele>443.0</ele><time>2026-04-11T08:39:46.508Z</time></trkpt><trkpt lat="53.6143582" lon="-1.9972082"><ele>442.0</ele><time>2026-04-11T08:39:47.507Z</time></trkpt><trkpt lat="53.6141875" lon="-1.997218"><ele>441.0</ele><time>2026-04-11T08:39:48.508Z</time></trkpt><trkpt lat="53.614012" lon="-1.9972574"><ele>440.0</ele><time>2026-04-11T08:39:49.508Z</time></trkpt><trkpt lat="53.6138328" lon="-1.9973131"><ele>439.66666666666663</ele><time>2026-04-11T08:39:50.505Z</time></trkpt><trkpt lat="53.6136501" lon="-1.997379"><ele>439.33333333333337</ele><time>2026-04-11T08:39:51.508Z</time></trkpt><trkpt lat="53.6134683" lon="-1.9974526"><ele>439.0</ele><time>2026-04-11T08:39:52.511Z</time></trkpt><trkpt lat="53.6132964" lon="-1.9975378"><ele>439.0</ele><time>2026-04-11T08:39:53.511Z</time></trkpt><trkpt lat="53.6131389" lon="-1.9976208"><ele>439.0</ele><time>2026-04-11T08:39:54.51Z</time></trkpt><trkpt lat="53.6130075" lon="-1.9976891"><ele>439.0</ele><time>2026-04-11T08:39:55.508Z</time></trkpt><trkpt lat="53.61289" lon="-1.9977469"><ele>439.0</ele><time>2026-04-11T08:39:56.507Z</time></trkpt><trkpt lat="53.6127724" lon="-1.9977785"><ele>438.0</ele><time>2026-04-11T08:39:57.51Z</time></trkpt><trkpt lat="53.6126488" lon="-1.9977645"><ele>437.0</ele><time>2026-04-11T08:39:58.508Z</time></trkpt><trkpt lat="53.6125354" lon="-1.9976676"><ele>436.0</ele><time>2026-04-11T08:39:59.509Z</time></trkpt><trkpt lat="53.6124367" lon="-1.9975015"><ele>435.0</ele><time>2026-04-11T08:40:00.513Z</time></trkpt><trkpt lat="53.6123454" lon="-1.9973033"><ele>434.66666666666663</ele><time>2026-04-11T08:40:01.517Z</time></trkpt><trkpt lat="53.6122588" lon="-1.9971076"><ele>434.3333333333333</ele><time>2026-04-11T08:40:02.509Z</time></trkpt><trkpt lat="53.612158" lon="-1.9969064"><ele>434.0</ele><time>2026-04-11T08:40:03.503Z</time></trkpt><trkpt lat="53.6120454" lon="-1.9967168"><ele>435.3333333333333</ele><time>2026-04-11T08:40:04.514Z</time></trkpt><trkpt lat="53.6119198" lon="-1.9965442"><ele>436.66666666666663</ele><time>2026-04-11T08:40:05.512Z</time></trkpt><trkpt lat="53.6117819" lon="-1.9963975"><ele>438.0</ele><time>2026-04-11T08:40:06.512Z</time></trkpt><trkpt lat="53.6116302" lon="-1.9962726"><ele>438.0</ele><time>2026-04-11T08:40:07.512Z</time></trkpt><trkpt lat="53.6114696" lon="-1.9961749"><ele>438.0</ele><time>2026-04-11T08:40:08.51Z</time></trkpt><trkpt lat="53.6113026" lon="-1.9961134"><ele>438.0</ele><time>2026-04-11T08:40:09.513Z</time></trkpt><trkpt lat="53.6111268" lon="-1.9960799"><ele>438.33333333333337</ele><time>2026-04-11T08:40:10.512Z</time></trkpt><trkpt lat="53.6109569" lon="-1.9960606"><ele>438.6666666666667</ele><time>2026-04-11T08:40:11.507Z</time></trkpt><trkpt lat="53.6107886" lon="-1.9960507"><ele>439.0</ele><time>2026-04-11T08:40:12.508Z</time></trkpt><trkpt lat="53.6106227" lon="-1.9960573"><ele>439.0</ele><time>2026-04-11T08:40:13.513Z</time></trkpt><trkpt lat="53.6104593" lon="-1.9960793"><ele>439.0</ele><time>2026-04-11T08:40:14.511Z</time></trkpt><trkpt lat="53.6102923" lon="-1.9961139"><ele>439.0</ele><time>2026-04-11T08:40:15.509Z</time></trkpt><trkpt lat="53.6101272" lon="-1.9961564"><ele>438.0</ele><time>2026-04-11T08:40:16.506Z</time></trkpt><trkpt lat="53.6099661" lon="-1.9962179"><ele>437.0</ele><time>2026-04-11T08:40:17.511Z</time></trkpt><trkpt lat="53.6098051" lon="-1.9962878"><ele>436.0</ele><time>2026-04-11T08:40:18.508Z</time></trkpt><trkpt lat="53.6096451" lon="-1.9963631"><ele>435.0</ele><time>2026-04-11T08:40:19.508Z</time></trkpt><trkpt lat="53.6094863" lon="-1.9964408"><ele>434.0</ele><time>2026-04-11T08:40:20.508Z</time></trkpt><trkpt lat="53.609338" lon="-1.9965146"><ele>433.0</ele><time>2026-04-11T08:40:21.51Z</time></trkpt><trkpt lat="53.6092053" lon="-1.9965774"><ele>433.0</ele><time>2026-04-11T08:40:22.509Z</time></trkpt><trkpt lat="53.6090854" lon="-1.9966336"><ele>433.0</ele><time>2026-04-11T08:40:23.511Z</time></trkpt><trkpt lat="53.6089666" lon="-1.9966748"><ele>433.0</ele><time>2026-04-11T08:40:24.51Z</time></trkpt><trkpt lat="53.6088466" lon="-1.9967241"><ele>433.0</ele><time>2026-04-11T08:40:25.509Z</time></trkpt><trkpt lat="53.6087219" lon="-1.9967768"><ele>432.25</ele><time>2026-04-11T08:40:26.509Z</time></trkpt><trkpt lat="53.6085921" lon="-1.9968343"><ele>431.5</ele><time>2026-04-11T08:40:27.508Z</time></trkpt><trkpt lat="53.6084621" lon="-1.9968994"><ele>430.75</ele><time>2026-04-11T08:40:28.509Z</time></trkpt><trkpt lat="53.6083342" lon="-1.9969783"><ele>430.0</ele><time>2026-04-11T08:40:29.506Z</time></trkpt><trkpt lat="53.6082078" lon="-1.9970703"><ele>430.0</ele><time>2026-04-11T08:40:30.509Z</time></trkpt><trkpt lat="53.6080812" lon="-1.9971696"><ele>430.0</ele><time>2026-04-11T08:40:31.512Z</time></trkpt><trkpt lat="53.6079503" lon="-1.9972793"><ele>430.0</ele><time>2026-04-11T08:40:32.514Z</time></trkpt><trkpt lat="53.6078183" lon="-1.9973905"><ele>430.0</ele><time>2026-04-11T08:40:33.514Z</time></trkpt><trkpt lat="53.6076826" lon="-1.9975107"><ele>429.0</ele><time>2026-04-11T08:40:34.512Z</time></trkpt><trkpt lat="53.6075494" lon="-1.9976282"><ele>428.0</ele><time>2026-04-11T08:40:35.513Z</time></trkpt><trkpt lat="53.6074261" lon="-1.9977422"><ele>427.0</ele><time>2026-04-11T08:40:36.512Z</time></trkpt><trkpt lat="53.6073095" lon="-1.9978548"><ele>426.0</ele><time>2026-04-11T08:40:37.512Z</time></trkpt><trkpt lat="53.6072033" lon="-1.997979"><ele>426.0</ele><time>2026-04-11T08:40:38.515Z</time></trkpt><trkpt lat="53.6071054" lon="-1.9981096"><ele>426.0</ele><time>2026-04-11T08:40:39.521Z</time></trkpt><trkpt lat="53.6070166" lon="-1.9982549"><ele>426.0</ele><time>2026-04-11T08:40:40.513Z</time></trkpt><trkpt lat="53.6069376" lon="-1.9984264"><ele>426.0</ele><time>2026-04-11T08:40:41.506Z</time></trkpt><trkpt lat="53.6068646" lon="-1.9986127"><ele>424.0</ele><time>2026-04-11T08:40:42.507Z</time></trkpt><trkpt lat="53.6067929" lon="-1.9988165"><ele>422.0</ele><time>2026-04-11T08:40:43.512Z</time></trkpt><trkpt lat="53.6067176" lon="-1.9990281"><ele>420.0</ele><time>2026-04-11T08:40:44.511Z</time></trkpt><trkpt lat="53.6066404" lon="-1.9992495"><ele>418.0</ele><time>2026-04-11T08:40:45.509Z</time></trkpt><trkpt lat="53.6065713" lon="-1.9994785"><ele>417.75</ele><time>2026-04-11T08:40:46.51Z</time></trkpt><trkpt lat="53.6065066" lon="-1.9996977"><ele>417.5</ele><time>2026-04-11T08:40:47.509Z</time></trkpt><trkpt lat="53.6064476" lon="-1.9999028"><ele>417.25</ele><time>2026-04-11T08:40:48.505Z</time></trkpt><trkpt lat="53.6063948" lon="-2.0001029"><ele>417.0</ele><time>2026-04-11T08:40:49.508Z</time></trkpt><trkpt lat="53.6063477" lon="-2.0003232"><ele>417.0</ele><time>2026-04-11T08:40:50.504Z</time></trkpt><trkpt lat="53.6063063" lon="-2.0005633"><ele>417.0</ele><time>2026-04-11T08:40:51.505Z</time></trkpt><trkpt lat="53.6062706" lon="-2.0008274"><ele>417.0</ele><time>2026-04-11T08:40:52.507Z</time></trkpt><trkpt lat="53.6062385" lon="-2.001115"><ele>416.66666666666663</ele><time>2026-04-11T08:40:53.516Z</time></trkpt><trkpt lat="53.6062101" lon="-2.0014222"><ele>416.3333333333333</ele><time>2026-04-11T08:40:54.511Z</time></trkpt><trkpt lat="53.6061892" lon="-2.0017353"><ele>416.0</ele><time>2026-04-11T08:40:55.508Z</time></trkpt><trkpt lat="53.606169" lon="-2.0020259"><ele>411.0</ele><time>2026-04-11T08:40:56.508Z</time></trkpt><trkpt lat="53.6061425" lon="-2.0022994"><ele>406.0</ele><time>2026-04-11T08:40:57.506Z</time></trkpt><trkpt lat="53.606103" lon="-2.002565"><ele>401.0</ele><time>2026-04-11T08:40:58.506Z</time></trkpt><trkpt lat="53.6060531" lon="-2.0028117"><ele>400.5</ele><time>2026-04-11T08:40:59.505Z</time></trkpt><trkpt lat="53.6059953" lon="-2.0030608"><ele>400.0</ele><time>2026-04-11T08:41:00.508Z</time></trkpt><trkpt lat="53.6059413" lon="-2.0032931"><ele>399.5</ele><time>2026-04-11T08:41:01.51Z</time></trkpt><trkpt lat="53.6058922" lon="-2.0035083"><ele>399.0</ele><time>2026-04-11T08:41:02.512Z</time></trkpt><trkpt lat="53.6058468" lon="-2.0037014"><ele>399.0</ele><time>2026-04-11T08:41:03.515Z</time></trkpt><trkpt lat="53.6058006" lon="-2.0038734"><ele>399.0</ele><time>2026-04-11T08:41:04.511Z</time></trkpt><trkpt lat="53.6057637" lon="-2.0040149"><ele>399.0</ele><time>2026-04-11T08:41:05.509Z</time></trkpt><trkpt lat="53.6057354" lon="-2.004139"><ele>399.0</ele><time>2026-04-11T08:41:06.51Z</time></trkpt><trkpt lat="53.6057108" lon="-2.0042499"><ele>399.0</ele><time>2026-04-11T08:41:07.51Z</time></trkpt><trkpt lat="53.6056894" lon="-2.0043498"><ele>399.0</ele><time>2026-04-11T08:41:08.509Z</time></trkpt><trkpt lat="53.605669" lon="-2.0044532"><ele>399.0</ele><time>2026-04-11T08:41:09.51Z</time></trkpt><trkpt lat="53.6056477" lon="-2.0045666"><ele>399.0</ele><time>2026-04-11T08:41:10.511Z</time></trkpt><trkpt lat="53.6056138" lon="-2.0047132"><ele>399.0</ele><time>2026-04-11T08:41:11.505Z</time></trkpt><trkpt lat="53.6055662" lon="-2.0049029"><ele>399.0</ele><time>2026-04-11T08:41:12.505Z</time></trkpt><trkpt lat="53.6055074" lon="-2.0051125"><ele>399.0</ele><time>2026-04-11T08:41:13.508Z</time></trkpt><trkpt lat="53.6054336" lon="-2.0053433"><ele>399.0</ele><time>2026-04-11T08:41:14.508Z</time></trkpt><trkpt lat="53.6053383" lon="-2.0055845"><ele>399.0</ele><time>2026-04-11T08:41:15.509Z</time></trkpt><trkpt lat="53.6052245" lon="-2.0058152"><ele>399.0</ele><time>2026-04-11T08:41:16.506Z</time></trkpt><trkpt lat="53.6050994" lon="-2.0060375"><ele>396.33333333333337</ele><time>2026-04-11T08:41:17.506Z</time></trkpt><trkpt lat="53.6049779" lon="-2.0062533"><ele>393.6666666666667</ele><time>2026-04-11T08:41:18.51Z</time></trkpt><trkpt lat="53.6048717" lon="-2.0064792"><ele>391.0</ele><time>2026-04-11T08:41:19.506Z</time></trkpt><trkpt lat="53.6047806" lon="-2.0066983"><ele>391.0</ele><time>2026-04-11T08:41:20.507Z</time></trkpt><trkpt lat="53.6047095" lon="-2.0069244"><ele>391.0</ele><time>2026-04-11T08:41:21.506Z</time></trkpt><trkpt lat="53.6046546" lon="-2.0071615"><ele>391.0</ele><time>2026-04-11T08:41:22.505Z</time></trkpt><trkpt lat="53.6046077" lon="-2.0073905"><ele>391.0</ele><time>2026-04-11T08:41:23.507Z</time></trkpt><trkpt lat="53.6045707" lon="-2.0076016"><ele>391.1666666666667</ele><time>2026-04-11T08:41:24.507Z</time></trkpt><trkpt lat="53.6045398" lon="-2.0077878"><ele>391.33333333333337</ele><time>2026-04-11T08:41:25.508Z</time></trkpt><trkpt lat="53.6045145" lon="-2.0079381"><ele>391.5</ele><time>2026-04-11T08:41:26.507Z</time></trkpt><trkpt lat="53.6044927" lon="-2.0080457"><ele>391.66666666666663</ele><time>2026-04-11T08:41:27.502Z</time></trkpt><trkpt lat="53.6044538" lon="-2.0081428"><ele>391.8333333333333</ele><time>2026-04-11T08:41:29.506Z</time></trkpt><trkpt lat="53.6044361" lon="-2.0082876"><ele>392.0</ele><time>2026-04-11T08:42:36.507Z</time></trkpt><trkpt lat="53.6044063" lon="-2.0084221"><ele>390.0</ele><time>2026-04-11T08:42:37.507Z</time></trkpt><trkpt lat="53.6043497" lon="-2.0085788"><ele>388.0</ele><time>2026-04-11T08:42:38.503Z</time></trkpt><trkpt lat="53.6042726" lon="-2.0087213"><ele>386.0</ele><time>2026-04-11T08:42:39.504Z</time></trkpt><trkpt lat="53.6041753" lon="-2.0088569"><ele>384.0</ele><time>2026-04-11T08:42:40.503Z</time></trkpt><trkpt lat="53.6040683" lon="-2.0089796"><ele>384.0</ele><time>2026-04-11T08:42:41.501Z</time></trkpt><trkpt lat="53.6039552" lon="-2.0090976"><ele>384.0</ele><time>2026-04-11T08:42:42.504Z</time></trkpt><trkpt lat="53.6038407" lon="-2.0092185"><ele>384.0</ele><time>2026-04-11T08:42:43.511Z</time></trkpt><trkpt lat="53.6037299" lon="-2.0093399"><ele>384.0</ele><time>2026-04-11T08:42:44.509Z</time></trkpt><trkpt lat="53.6036226" lon="-2.0094547"><ele>383.0</ele><time>2026-04-11T08:42:45.507Z</time></trkpt><trkpt lat="53.6035133" lon="-2.0095661"><ele>382.0</ele><time>2026-04-11T08:42:46.507Z</time></trkpt><trkpt lat="53.6034014" lon="-2.0096801"><ele>381.0</ele><time>2026-04-11T08:42:47.508Z</time></trkpt><trkpt lat="53.6032918" lon="-2.0098051"><ele>380.0</ele><time>2026-04-11T08:42:48.508Z</time></trkpt><trkpt lat="53.6031894" lon="-2.0099463"><ele>378.0</ele><time>2026-04-11T08:42:49.507Z</time></trkpt><trkpt lat="53.6030978" lon="-2.0101062"><ele>376.0</ele><time>2026-04-11T08:42:50.508Z</time></trkpt><trkpt lat="53.6030183" lon="-2.0102893"><ele>374.0</ele><time>2026-04-11T08:42:51.506Z</time></trkpt><trkpt lat="53.6029471" lon="-2.0104916"><ele>372.0</ele><time>2026-04-11T08:42:52.507Z</time></trkpt><trkpt lat="53.6028873" lon="-2.0107089"><ele>371.25</ele><time>2026-04-11T08:42:53.506Z</time></trkpt><trkpt lat="53.602841" lon="-2.0109426"><ele>370.5</ele><time>2026-04-11T08:42:54.508Z</time></trkpt><trkpt lat="53.6028055" lon="-2.0111675"><ele>369.75</ele><time>2026-04-11T08:42:55.509Z</time></trkpt><trkpt lat="53.6027661" lon="-2.0113952"><ele>369.0</ele><time>2026-04-11T08:42:56.506Z</time></trkpt><trkpt lat="53.602712" lon="-2.0116155"><ele>366.5</ele><time>2026-04-11T08:42:57.508Z</time></trkpt><trkpt lat="53.602635" lon="-2.0118116"><ele>364.0</ele><time>2026-04-11T08:42:58.505Z</time></trkpt><trkpt lat="53.6025297" lon="-2.0119722"><ele>361.5</ele><time>2026-04-11T08:42:59.502Z</time></trkpt><trkpt lat="53.6023995" lon="-2.0120956"><ele>359.0</ele><time>2026-04-11T08:43:00.508Z</time></trkpt><trkpt lat="53.6022542" lon="-2.0122021"><ele>359.0</ele><time>2026-04-11T08:43:01.511Z</time></trkpt><trkpt lat="53.6020896" lon="-2.012282"><ele>359.0</ele><time>2026-04-11T08:43:02.511Z</time></trkpt><trkpt lat="53.601946" lon="-2.0123798"><ele>359.0</ele><time>2026-04-11T08:43:03.509Z</time></trkpt><trkpt lat="53.6018047" lon="-2.0124808"><ele>357.25</ele><time>2026-04-11T08:43:04.507Z</time></trkpt><trkpt lat="53.6016669" lon="-2.0125817"><ele>355.5</ele><time>2026-04-11T08:43:05.509Z</time></trkpt><trkpt lat="53.6015356" lon="-2.0126867"><ele>353.75</ele><time>2026-04-11T08:43:06.511Z</time></trkpt><trkpt lat="53.6014059" lon="-2.0128043"><ele>352.0</ele><time>2026-04-11T08:43:07.508Z</time></trkpt><trkpt lat="53.6012799" lon="-2.0129387"><ele>353.3333333333333</ele><time>2026-04-11T08:43:08.508Z</time></trkpt><trkpt lat="53.6011604" lon="-2.0131003"><ele>354.6666666666667</ele><time>2026-04-11T08:43:09.51Z</time></trkpt><trkpt lat="53.6010389" lon="-2.0132843"><ele>356.0</ele><time>2026-04-11T08:43:10.516Z</time></trkpt><trkpt lat="53.6009042" lon="-2.0134881"><ele>353.0</ele><time>2026-04-11T08:43:11.511Z</time></trkpt><trkpt lat="53.6007567" lon="-2.0137112"><ele>350.0</ele><time>2026-04-11T08:43:12.511Z</time></trkpt><trkpt lat="53.6006007" lon="-2.0139388"><ele>347.0</ele><time>2026-04-11T08:43:13.513Z</time></trkpt><trkpt lat="53.6004475" lon="-2.0141548"><ele>345.6666666666667</ele><time>2026-04-11T08:43:14.508Z</time></trkpt><trkpt lat="53.6003028" lon="-2.0143567"><ele>344.3333333333333</ele><time>2026-04-11T08:43:15.509Z</time></trkpt><trkpt lat="53.600169" lon="-2.0145621"><ele>343.0</ele><time>2026-04-11T08:43:16.511Z</time></trkpt><trkpt lat="53.6000409" lon="-2.0147732"><ele>340.3333333333333</ele><time>2026-04-11T08:43:17.509Z</time></trkpt><trkpt lat="53.5999216" lon="-2.0149934"><ele>337.6666666666667</ele><time>2026-04-11T08:43:18.507Z</time></trkpt><trkpt lat="53.5998127" lon="-2.0152373"><ele>335.0</ele><time>2026-04-11T08:43:19.509Z</time></trkpt><trkpt lat="53.5997118" lon="-2.0154778"><ele>335.0</ele><time>2026-04-11T08:43:20.506Z</time></trkpt><trkpt lat="53.5996193" lon="-2.0157031"><ele>335.0</ele><time>2026-04-11T08:43:21.507Z</time></trkpt><trkpt lat="53.5995176" lon="-2.0159039"><ele>335.0</ele><time>2026-04-11T08:43:22.511Z</time></trkpt><trkpt lat="53.5994144" lon="-2.0160734"><ele>334.33333333333337</ele><time>2026-04-11T08:43:23.514Z</time></trkpt><trkpt lat="53.5992942" lon="-2.0162028"><ele>333.6666666666667</ele><time>2026-04-11T08:43:24.511Z</time></trkpt><trkpt lat="53.5991537" lon="-2.0163015"><ele>333.0</ele><time>2026-04-11T08:43:25.506Z</time></trkpt><trkpt lat="53.5990028" lon="-2.0163865"><ele>333.0</ele><time>2026-04-11T08:43:26.505Z</time></trkpt><trkpt lat="53.5988409" lon="-2.0164571"><ele>333.0</ele><time>2026-04-11T08:43:27.507Z</time></trkpt><trkpt lat="53.5986762" lon="-2.0165394"><ele>333.0</ele><time>2026-04-11T08:43:28.509Z</time></trkpt><trkpt lat="53.5985157" lon="-2.016628"><ele>331.6666666666667</ele><time>2026-04-11T08:43:29.506Z</time></trkpt><trkpt lat="53.5983639" lon="-2.0167276"><ele>330.33333333333337</ele><time>2026-04-11T08:43:30.508Z</time></trkpt><trkpt lat="53.5982244" lon="-2.0168344"><ele>329.0</ele><time>2026-04-11T08:43:31.51Z</time></trkpt><trkpt lat="53.5980917" lon="-2.0169523"><ele>329.0</ele><time>2026-04-11T08:43:32.513Z</time></trkpt><trkpt lat="53.5979664" lon="-2.0170869"><ele>329.0</ele><time>2026-04-11T08:43:33.51Z</time></trkpt><trkpt lat="53.597857" lon="-2.0172485"><ele>329.0</ele><time>2026-04-11T08:43:34.509Z</time></trkpt><trkpt lat="53.5977615" lon="-2.0174441"><ele>329.0</ele><time>2026-04-11T08:43:35.509Z</time></trkpt><trkpt lat="53.5976764" lon="-2.017676"><ele>328.33333333333337</ele><time>2026-04-11T08:43:36.511Z</time></trkpt><trkpt lat="53.5976227" lon="-2.0179383"><ele>327.6666666666667</ele><time>2026-04-11T08:43:37.511Z</time></trkpt><trkpt lat="53.5975892" lon="-2.0182215"><ele>327.0</ele><time>2026-04-11T08:43:38.511Z</time></trkpt><trkpt lat="53.5975623" lon="-2.0185146"><ele>326.3333333333333</ele><time>2026-04-11T08:43:39.513Z</time></trkpt><trkpt lat="53.5975363" lon="-2.0187978"><ele>325.66666666666663</ele><time>2026-04-11T08:43:40.513Z</time></trkpt><trkpt lat="53.5975079" lon="-2.0190614"><ele>325.0</ele><time>2026-04-11T08:43:41.501Z</time></trkpt><trkpt lat="53.5974738" lon="-2.0192983"><ele>324.0</ele><time>2026-04-11T08:43:42.503Z</time></trkpt><trkpt lat="53.5974315" lon="-2.0195165"><ele>323.0</ele><time>2026-04-11T08:43:43.511Z</time></trkpt><trkpt lat="53.5973826" lon="-2.0197286"><ele>322.0</ele><time>2026-04-11T08:43:44.51Z</time></trkpt><trkpt lat="53.5973262" lon="-2.0199427"><ele>321.0</ele><time>2026-04-11T08:43:45.509Z</time></trkpt><trkpt lat="53.5972682" lon="-2.020167"><ele>320.0</ele><time>2026-04-11T08:43:46.508Z</time></trkpt><trkpt lat="53.5972064" lon="-2.0203994"><ele>319.0</ele><time>2026-04-11T08:43:47.511Z</time></trkpt><trkpt lat="53.5971442" lon="-2.020637"><ele>318.0</ele><time>2026-04-11T08:43:48.515Z</time></trkpt><trkpt lat="53.5970725" lon="-2.0208732"><ele>317.0</ele><time>2026-04-11T08:43:49.509Z</time></trkpt><trkpt lat="53.5970068" lon="-2.0211191"><ele>316.0</ele><time>2026-04-11T08:43:50.509Z</time></trkpt><trkpt lat="53.5969394" lon="-2.0213682"><ele>315.0</ele><time>2026-04-11T08:43:51.508Z</time></trkpt><trkpt lat="53.5968639" lon="-2.0216119"><ele>315.6666666666667</ele><time>2026-04-11T08:43:52.508Z</time></trkpt><trkpt lat="53.5967755" lon="-2.0218316"><ele>316.33333333333337</ele><time>2026-04-11T08:43:53.509Z</time></trkpt><trkpt lat="53.5966693" lon="-2.0220218"><ele>317.0</ele><time>2026-04-11T08:43:54.508Z</time></trkpt><trkpt lat="53.5965511" lon="-2.0221968"><ele>317.0</ele><time>2026-04-11T08:43:55.507Z</time></trkpt><trkpt lat="53.5964284" lon="-2.0223634"><ele>317.0</ele><time>2026-04-11T08:43:56.511Z</time></trkpt><trkpt lat="53.5963125" lon="-2.0225272"><ele>317.0</ele><time>2026-04-11T08:43:57.51Z</time></trkpt><trkpt lat="53.5961999" lon="-2.0226887"><ele>316.25</ele><time>2026-04-11T08:43:58.509Z</time></trkpt><trkpt lat="53.5960867" lon="-2.0228404"><ele>315.5</ele><time>2026-04-11T08:43:59.507Z</time></trkpt><trkpt lat="53.595971" lon="-2.0229797"><ele>314.75</ele><time>2026-04-11T08:44:00.509Z</time></trkpt><trkpt lat="53.595847" lon="-2.0231015"><ele>314.0</ele><time>2026-04-11T08:44:01.509Z</time></trkpt><trkpt lat="53.5957206" lon="-2.0231945"><ele>314.0</ele><time>2026-04-11T08:44:02.513Z</time></trkpt><trkpt lat="53.5956033" lon="-2.0232549"><ele>314.0</ele><time>2026-04-11T08:44:03.51Z</time></trkpt><trkpt lat="53.5955014" lon="-2.0232856"><ele>314.0</ele><time>2026-04-11T08:44:04.516Z</time></trkpt><trkpt lat="53.595421" lon="-2.0233153"><ele>314.0</ele><time>2026-04-11T08:44:05.511Z</time></trkpt><trkpt lat="53.5953586" lon="-2.0233633"><ele>314.0</ele><time>2026-04-11T08:44:06.511Z</time></trkpt><trkpt lat="53.5953048" lon="-2.023434"><ele>314.0</ele><time>2026-04-11T08:44:07.507Z</time></trkpt><trkpt lat="53.5952706" lon="-2.0235673"><ele>313.0</ele><time>2026-04-11T08:44:08.51Z</time></trkpt><trkpt lat="53.595276" lon="-2.0237488"><ele>312.0</ele><time>2026-04-11T08:44:09.511Z</time></trkpt><trkpt lat="53.5953174" lon="-2.0239478"><ele>311.0</ele><time>2026-04-11T08:44:10.513Z</time></trkpt><trkpt lat="53.5953812" lon="-2.0241535"><ele>310.0</ele><time>2026-04-11T08:44:11.511Z</time></trkpt><trkpt lat="53.5954537" lon="-2.0243538"><ele>308.5</ele><time>2026-04-11T08:44:12.513Z</time></trkpt><trkpt lat="53.5955251" lon="-2.024558"><ele>307.0</ele><time>2026-04-11T08:44:13.513Z</time></trkpt><trkpt lat="53.5955987" lon="-2.0247668"><ele>305.5</ele><time>2026-04-11T08:44:14.511Z</time></trkpt><trkpt lat="53.5956668" lon="-2.024979"><ele>304.0</ele><time>2026-04-11T08:44:15.509Z</time></trkpt><trkpt lat="53.5957367" lon="-2.0251925"><ele>303.59999999999997</ele><time>2026-04-11T08:44:16.511Z</time></trkpt><trkpt lat="53.5958029" lon="-2.0253967"><ele>303.2</ele><time>2026-04-11T08:44:17.506Z</time></trkpt><trkpt lat="53.5958594" lon="-2.0255809"><ele>302.79999999999995</ele><time>2026-04-11T08:44:18.512Z</time></trkpt><trkpt lat="53.5958995" lon="-2.0257409"><ele>302.4</ele><time>2026-04-11T08:44:19.51Z</time></trkpt><trkpt lat="53.5959199" lon="-2.025878"><ele>302.0</ele><time>2026-04-11T08:44:20.51Z</time></trkpt><trkpt lat="53.5959145" lon="-2.0259957"><ele>302.0</ele><time>2026-04-11T08:44:21.509Z</time></trkpt><trkpt lat="53.5958708" lon="-2.0260871"><ele>302.0</ele><time>2026-04-11T08:44:22.508Z</time></trkpt><trkpt lat="53.5957911" lon="-2.0261497"><ele>302.0</ele><time>2026-04-11T08:44:23.512Z</time></trkpt><trkpt lat="53.5956894" lon="-2.0262018"><ele>302.0</ele><time>2026-04-11T08:44:24.512Z</time></trkpt><trkpt lat="53.5955841" lon="-2.0262544"><ele>302.0</ele><time>2026-04-11T08:44:25.51Z</time></trkpt><trkpt lat="53.5954712" lon="-2.0263303"><ele>302.0</ele><time>2026-04-11T08:44:26.511Z</time></trkpt><trkpt lat="53.5953542" lon="-2.0264224"><ele>302.0</ele><time>2026-04-11T08:44:27.51Z</time></trkpt><trkpt lat="53.595231" lon="-2.0265131"><ele>302.0</ele><time>2026-04-11T08:44:28.509Z</time></trkpt><trkpt lat="53.5951008" lon="-2.026599"><ele>302.0</ele><time>2026-04-11T08:44:29.511Z</time></trkpt><trkpt lat="53.5949643" lon="-2.0266704"><ele>302.25</ele><time>2026-04-11T08:44:30.511Z</time></trkpt><trkpt lat="53.5948256" lon="-2.0267251"><ele>302.5</ele><time>2026-04-11T08:44:31.509Z</time></trkpt><trkpt lat="53.5946854" lon="-2.0267584"><ele>302.75</ele><time>2026-04-11T08:44:32.509Z</time></trkpt><trkpt lat="53.5945461" lon="-2.0267748"><ele>303.0</ele><time>2026-04-11T08:44:33.51Z</time></trkpt><trkpt lat="53.5944015" lon="-2.0267881"><ele>303.0</ele><time>2026-04-11T08:44:34.513Z</time></trkpt><trkpt lat="53.5942538" lon="-2.0267993"><ele>303.0</ele><time>2026-04-11T08:44:35.513Z</time></trkpt><trkpt lat="53.5940984" lon="-2.0267976"><ele>303.0</ele><time>2026-04-11T08:44:36.51Z</time></trkpt><trkpt lat="53.5939329" lon="-2.0267765"><ele>303.0</ele><time>2026-04-11T08:44:37.51Z</time></trkpt><trkpt lat="53.5937593" lon="-2.0267411"><ele>303.0</ele><time>2026-04-11T08:44:38.508Z</time></trkpt><trkpt lat="53.5935834" lon="-2.0267022"><ele>303.0</ele><time>2026-04-11T08:44:39.508Z</time></trkpt><trkpt lat="53.5934116" lon="-2.0266576"><ele>299.3333333333333</ele><time>2026-04-11T08:44:40.512Z</time></trkpt><trkpt lat="53.5932464" lon="-2.0266123"><ele>295.66666666666663</ele><time>2026-04-11T08:44:41.509Z</time></trkpt><trkpt lat="53.5930901" lon="-2.0265711"><ele>292.0</ele><time>2026-04-11T08:44:42.507Z</time></trkpt><trkpt lat="53.5929434" lon="-2.0265388"><ele>291.75</ele><time>2026-04-11T08:44:43.508Z</time></trkpt><trkpt lat="53.5928033" lon="-2.0265166"><ele>291.5</ele><time>2026-04-11T08:44:44.508Z</time></trkpt><trkpt lat="53.5926672" lon="-2.0265011"><ele>291.25</ele><time>2026-04-11T08:44:45.508Z</time></trkpt><trkpt lat="53.5925313" lon="-2.0264855"><ele>291.0</ele><time>2026-04-11T08:44:46.504Z</time></trkpt><trkpt lat="53.5923938" lon="-2.0264713"><ele>291.0</ele><time>2026-04-11T08:44:47.507Z</time></trkpt><trkpt lat="53.592256" lon="-2.0264597"><ele>291.0</ele><time>2026-04-11T08:44:48.511Z</time></trkpt><trkpt lat="53.5921151" lon="-2.0264495"><ele>291.0</ele><time>2026-04-11T08:44:49.51Z</time></trkpt><trkpt lat="53.5919807" lon="-2.0264456"><ele>291.0</ele><time>2026-04-11T08:44:50.508Z</time></trkpt><trkpt lat="53.5918573" lon="-2.0264529"><ele>290.5</ele><time>2026-04-11T08:44:51.508Z</time></trkpt><trkpt lat="53.5917345" lon="-2.02649"><ele>290.0</ele><time>2026-04-11T08:44:52.505Z</time></trkpt><trkpt lat="53.5916185" lon="-2.0265634"><ele>289.5</ele><time>2026-04-11T08:44:53.505Z</time></trkpt><trkpt lat="53.5915073" lon="-2.0266823"><ele>289.0</ele><time>2026-04-11T08:44:54.521Z</time></trkpt><trkpt lat="53.5914012" lon="-2.0268337"><ele>290.25</ele><time>2026-04-11T08:44:55.507Z</time></trkpt><trkpt lat="53.5912972" lon="-2.027001"><ele>291.5</ele><time>2026-04-11T08:44:56.509Z</time></trkpt><trkpt lat="53.5912013" lon="-2.0271733"><ele>292.75</ele><time>2026-04-11T08:44:57.505Z</time></trkpt><trkpt lat="53.5911223" lon="-2.0273472"><ele>294.0</ele><time>2026-04-11T08:44:58.512Z</time></trkpt><trkpt lat="53.5910606" lon="-2.0275258"><ele>291.25</ele><time>2026-04-11T08:44:59.51Z</time></trkpt><trkpt lat="53.5910113" lon="-2.027705"><ele>288.5</ele><time>2026-04-11T08:45:00.512Z</time></trkpt><trkpt lat="53.5909669" lon="-2.0278897"><ele>285.75</ele><time>2026-04-11T08:45:01.511Z</time></trkpt><trkpt lat="53.5909284" lon="-2.0280912"><ele>283.0</ele><time>2026-04-11T08:45:02.506Z</time></trkpt><trkpt lat="53.5909" lon="-2.028307"><ele>283.0</ele><time>2026-04-11T08:45:03.509Z</time></trkpt><trkpt lat="53.5908803" lon="-2.0285319"><ele>283.0</ele><time>2026-04-11T08:45:04.51Z</time></trkpt><trkpt lat="53.5908635" lon="-2.0287664"><ele>283.0</ele><time>2026-04-11T08:45:05.508Z</time></trkpt><trkpt lat="53.5908432" lon="-2.0290113"><ele>283.0</ele><time>2026-04-11T08:45:06.506Z</time></trkpt><trkpt lat="53.5908198" lon="-2.0292625"><ele>283.5</ele><time>2026-04-11T08:45:07.51Z</time></trkpt><trkpt lat="53.5907933" lon="-2.0295067"><ele>284.0</ele><time>2026-04-11T08:45:08.509Z</time></trkpt><trkpt lat="53.5907654" lon="-2.0297334"><ele>284.5</ele><time>2026-04-11T08:45:09.509Z</time></trkpt><trkpt lat="53.5907405" lon="-2.0299352"><ele>285.0</ele><time>2026-04-11T08:45:10.508Z</time></trkpt><trkpt lat="53.5907207" lon="-2.0301205"><ele>285.25</ele><time>2026-04-11T08:45:11.511Z</time></trkpt><trkpt lat="53.5907013" lon="-2.0303056"><ele>285.5</ele><time>2026-04-11T08:45:12.51Z</time></trkpt><trkpt lat="53.5906806" lon="-2.0304955"><ele>285.75</ele><time>2026-04-11T08:45:13.51Z</time></trkpt><trkpt lat="53.5906556" lon="-2.0307"><ele>286.0</ele><time>2026-04-11T08:45:14.506Z</time></trkpt><trkpt lat="53.5906321" lon="-2.0309116"><ele>286.0</ele><time>2026-04-11T08:45:15.509Z</time></trkpt><trkpt lat="53.5906101" lon="-2.031134"><ele>286.0</ele><time>2026-04-11T08:45:16.508Z</time></trkpt><trkpt lat="53.5905841" lon="-2.0313646"><ele>286.0</ele><time>2026-04-11T08:45:17.506Z</time></trkpt><trkpt lat="53.5905607" lon="-2.0315993"><ele>286.0</ele><time>2026-04-11T08:45:18.508Z</time></trkpt><trkpt lat="53.5905396" lon="-2.0318297"><ele>286.0</ele><time>2026-04-11T08:45:19.508Z</time></trkpt><trkpt lat="53.5905165" lon="-2.0320645"><ele>286.0</ele><time>2026-04-11T08:45:20.508Z</time></trkpt><trkpt lat="53.5904914" lon="-2.0322977"><ele>286.0</ele><time>2026-04-11T08:45:21.508Z</time></trkpt><trkpt lat="53.5904647" lon="-2.032529"><ele>286.0</ele><time>2026-04-11T08:45:22.51Z</time></trkpt><trkpt lat="53.5904368" lon="-2.0327632"><ele>286.25</ele><time>2026-04-11T08:45:23.51Z</time></trkpt><trkpt lat="53.5904095" lon="-2.0330009"><ele>286.5</ele><time>2026-04-11T08:45:24.509Z</time></trkpt><trkpt lat="53.5903806" lon="-2.033238"><ele>286.75</ele><time>2026-04-11T08:45:25.509Z</time></trkpt><trkpt lat="53.5903537" lon="-2.0334652"><ele>287.0</ele><time>2026-04-11T08:45:26.507Z</time></trkpt><trkpt lat="53.5903269" lon="-2.0336765"><ele>283.0</ele><time>2026-04-11T08:45:27.507Z</time></trkpt><trkpt lat="53.5903069" lon="-2.0338698"><ele>279.0</ele><time>2026-04-11T08:45:28.508Z</time></trkpt><trkpt lat="53.5902977" lon="-2.0340505"><ele>275.0</ele><time>2026-04-11T08:45:29.507Z</time></trkpt><trkpt lat="53.5903026" lon="-2.0342292"><ele>271.0</ele><time>2026-04-11T08:45:30.507Z</time></trkpt><trkpt lat="53.5903173" lon="-2.034412"><ele>267.0</ele><time>2026-04-11T08:45:31.51Z</time></trkpt><trkpt lat="53.5903408" lon="-2.0346083"><ele>269.5</ele><time>2026-04-11T08:45:32.505Z</time></trkpt><trkpt lat="53.5903708" lon="-2.0348052"><ele>272.0</ele><time>2026-04-11T08:45:33.508Z</time></trkpt><trkpt lat="53.5904075" lon="-2.0349932"><ele>274.5</ele><time>2026-04-11T08:45:34.507Z</time></trkpt><trkpt lat="53.5904459" lon="-2.0351701"><ele>277.0</ele><time>2026-04-11T08:45:35.506Z</time></trkpt><trkpt lat="53.5904789" lon="-2.0353445"><ele>277.0</ele><time>2026-04-11T08:45:36.511Z</time></trkpt><trkpt lat="53.5905063" lon="-2.0355198"><ele>277.0</ele><time>2026-04-11T08:45:37.507Z</time></trkpt><trkpt lat="53.5905339" lon="-2.0356968"><ele>277.0</ele><time>2026-04-11T08:45:38.507Z</time></trkpt><trkpt lat="53.590565" lon="-2.0358732"><ele>277.0</ele><time>2026-04-11T08:45:39.508Z</time></trkpt><trkpt lat="53.5905946" lon="-2.0360465"><ele>277.0</ele><time>2026-04-11T08:45:40.51Z</time></trkpt><trkpt lat="53.5906217" lon="-2.0362075"><ele>275.8</ele><time>2026-04-11T08:45:41.507Z</time></trkpt><trkpt lat="53.5906465" lon="-2.0363559"><ele>274.6</ele><time>2026-04-11T08:45:42.507Z</time></trkpt><trkpt lat="53.5906683" lon="-2.0364813"><ele>273.40000000000003</ele><time>2026-04-11T08:45:43.511Z</time></trkpt><trkpt lat="53.5906843" lon="-2.0365908"><ele>272.2</ele><time>2026-04-11T08:45:44.511Z</time></trkpt><trkpt lat="53.590682" lon="-2.0367761"><ele>271.0</ele><time>2026-04-11T08:45:46.514Z</time></trkpt><trkpt lat="53.5906073" lon="-2.0369576"><ele>270.8333333333333</ele><time>2026-04-11T08:45:48.513Z</time></trkpt><trkpt lat="53.590565" lon="-2.0370653"><ele>270.66666666666663</ele><time>2026-04-11T08:45:49.511Z</time></trkpt><trkpt lat="53.5905331" lon="-2.0371896"><ele>270.5</ele><time>2026-04-11T08:45:50.503Z</time></trkpt><trkpt lat="53.5905121" lon="-2.0373247"><ele>270.3333333333333</ele><time>2026-04-11T08:45:51.513Z</time></trkpt><trkpt lat="53.5904954" lon="-2.0374478"><ele>270.1666666666667</ele><time>2026-04-11T08:45:52.512Z</time></trkpt><trkpt lat="53.5904833" lon="-2.0375677"><ele>270.0</ele><time>2026-04-11T08:45:53.508Z</time></trkpt><trkpt lat="53.5904478" lon="-2.0377379"><ele>270.0</ele><time>2026-04-11T08:45:55.513Z</time></trkpt><trkpt lat="53.5903781" lon="-2.037708"><ele>270.0</ele><time>2026-04-11T08:46:00.502Z</time></trkpt><trkpt lat="53.5904205" lon="-2.0376103"><ele>270.0</ele><time>2026-04-11T08:46:02.508Z</time></trkpt><trkpt lat="53.5904856" lon="-2.0375318"><ele>270.0</ele><time>2026-04-11T08:46:04.509Z</time></trkpt><trkpt lat="53.5905387" lon="-2.0374566"><ele>270.0</ele><time>2026-04-11T08:46:06.515Z</time></trkpt><trkpt lat="53.5905496" lon="-2.037346"><ele>270.0</ele><time>2026-04-11T08:46:08.511Z</time></trkpt><trkpt lat="53.5905519" lon="-2.037179"><ele>270.0</ele><time>2026-04-11T08:46:10.511Z</time></trkpt><trkpt lat="53.5905812" lon="-2.0369953"><ele>270.0</ele><time>2026-04-11T08:46:12.513Z</time></trkpt><trkpt lat="53.5906335" lon="-2.0368396"><ele>270.0</ele><time>2026-04-11T08:46:14.511Z</time></trkpt><trkpt lat="53.590726" lon="-2.0368223"><ele>270.0</ele><time>2026-04-11T08:46:16.506Z</time></trkpt><trkpt lat="53.5908035" lon="-2.0369661"><ele>270.0</ele><time>2026-04-11T08:46:18.514Z</time></trkpt><trkpt lat="53.5908205" lon="-2.0370853"><ele>270.0</ele><time>2026-04-11T08:46:19.514Z</time></trkpt><trkpt lat="53.5908346" lon="-2.0372294"><ele>270.0</ele><time>2026-04-11T08:46:20.513Z</time></trkpt><trkpt lat="53.5908494" lon="-2.0373751"><ele>270.0</ele><time>2026-04-11T08:46:21.508Z</time></trkpt><trkpt lat="53.5908672" lon="-2.0375218"><ele>270.0</ele><time>2026-04-11T08:46:22.508Z</time></trkpt><trkpt lat="53.5908944" lon="-2.0376751"><ele>270.0</ele><time>2026-04-11T08:46:23.509Z</time></trkpt><trkpt lat="53.5909297" lon="-2.0378358"><ele>270.0</ele><time>2026-04-11T08:46:24.511Z</time></trkpt><trkpt lat="53.590972" lon="-2.0379878"><ele>270.0</ele><time>2026-04-11T08:46:25.508Z</time></trkpt><trkpt lat="53.5910132" lon="-2.0381314"><ele>270.0</ele><time>2026-04-11T08:46:26.506Z</time></trkpt><trkpt lat="53.5910491" lon="-2.0382707"><ele>270.0</ele><time>2026-04-11T08:46:27.508Z</time></trkpt><trkpt lat="53.5910885" lon="-2.0384067"><ele>270.0</ele><time>2026-04-11T08:46:28.506Z</time></trkpt><trkpt lat="53.5911404" lon="-2.0385382"><ele>270.4</ele><time>2026-04-11T08:46:29.511Z</time></trkpt><trkpt lat="53.5911993" lon="-2.0386785"><ele>270.8</ele><time>2026-04-11T08:46:30.508Z</time></trkpt><trkpt lat="53.5912646" lon="-2.0388227"><ele>271.2</ele><time>2026-04-11T08:46:31.511Z</time></trkpt><trkpt lat="53.5913355" lon="-2.03897"><ele>271.6</ele><time>2026-04-11T08:46:32.512Z</time></trkpt><trkpt lat="53.5914115" lon="-2.0391248"><ele>272.0</ele><time>2026-04-11T08:46:33.51Z</time></trkpt><trkpt lat="53.5914845" lon="-2.0392761"><ele>272.0</ele><time>2026-04-11T08:46:34.509Z</time></trkpt><trkpt lat="53.591552" lon="-2.0394119"><ele>272.0</ele><time>2026-04-11T08:46:35.509Z</time></trkpt><trkpt lat="53.5916127" lon="-2.0395305"><ele>272.0</ele><time>2026-04-11T08:46:36.507Z</time></trkpt><trkpt lat="53.5916625" lon="-2.0396324"><ele>272.0</ele><time>2026-04-11T08:46:37.508Z</time></trkpt><trkpt lat="53.5917061" lon="-2.0397141"><ele>272.0</ele><time>2026-04-11T08:46:38.508Z</time></trkpt><trkpt lat="53.5917811" lon="-2.0398057"><ele>272.0</ele><time>2026-04-11T08:46:40.51Z</time></trkpt><trkpt lat="53.5918042" lon="-2.0399302"><ele>272.0</ele><time>2026-04-11T08:46:43.509Z</time></trkpt><trkpt lat="53.5917201" lon="-2.0399293"><ele>272.0</ele><time>2026-04-11T08:46:45.507Z</time></trkpt><trkpt lat="53.5916522" lon="-2.0398688"><ele>272.0</ele><time>2026-04-11T08:46:46.508Z</time></trkpt><trkpt lat="53.5915786" lon="-2.0398004"><ele>272.0</ele><time>2026-04-11T08:46:47.507Z</time></trkpt><trkpt lat="53.5915112" lon="-2.0397383"><ele>272.0</ele><time>2026-04-11T08:46:48.508Z</time></trkpt><trkpt lat="53.5914159" lon="-2.0396434"><ele>272.0</ele><time>2026-04-11T08:46:50.505Z</time></trkpt><trkpt lat="53.5913431" lon="-2.0396036"><ele>272.0</ele><time>2026-04-11T08:47:30.511Z</time></trkpt><trkpt lat="53.5912608" lon="-2.0395352"><ele>272.0</ele><time>2026-04-11T08:47:32.502Z</time></trkpt><trkpt lat="53.5912005" lon="-2.0394765"><ele>272.0</ele><time>2026-04-11T08:47:33.512Z</time></trkpt><trkpt lat="53.5911208" lon="-2.039408"><ele>272.0</ele><time>2026-04-11T08:47:34.512Z</time></trkpt><trkpt lat="53.5910308" lon="-2.0393336"><ele>272.0</ele><time>2026-04-11T08:47:35.511Z</time></trkpt><trkpt lat="53.5909289" lon="-2.0392506"><ele>271.2</ele><time>2026-04-11T08:47:36.511Z</time></trkpt><trkpt lat="53.590825" lon="-2.0391713"><ele>270.4</ele><time>2026-04-11T08:47:37.509Z</time></trkpt><trkpt lat="53.5907296" lon="-2.0390969"><ele>269.6</ele><time>2026-04-11T08:47:38.512Z</time></trkpt><trkpt lat="53.590642" lon="-2.0390276"><ele>268.8</ele><time>2026-04-11T08:47:39.512Z</time></trkpt><trkpt lat="53.5905683" lon="-2.0389682"><ele>268.0</ele><time>2026-04-11T08:47:40.509Z</time></trkpt><trkpt lat="53.5905008" lon="-2.0389172"><ele>268.0</ele><time>2026-04-11T08:47:41.506Z</time></trkpt><trkpt lat="53.5904289" lon="-2.0388656"><ele>268.0</ele><time>2026-04-11T08:47:42.507Z</time></trkpt><trkpt lat="53.5903482" lon="-2.0388138"><ele>268.0</ele><time>2026-04-11T08:47:43.507Z</time></trkpt><trkpt lat="53.5902526" lon="-2.0387499"><ele>268.0</ele><time>2026-04-11T08:47:44.508Z</time></trkpt><trkpt lat="53.5901455" lon="-2.0386892"><ele>268.0</ele><time>2026-04-11T08:47:45.509Z</time></trkpt><trkpt lat="53.5900329" lon="-2.0386165"><ele>265.0</ele><time>2026-04-11T08:47:46.509Z</time></trkpt><trkpt lat="53.5899165" lon="-2.0385358"><ele>262.0</ele><time>2026-04-11T08:47:47.511Z</time></trkpt><trkpt lat="53.5897975" lon="-2.0384584"><ele>259.0</ele><time>2026-04-11T08:47:48.516Z</time></trkpt><trkpt lat="53.5896745" lon="-2.0383853"><ele>256.0</ele><time>2026-04-11T08:47:49.503Z</time></trkpt><trkpt lat="53.5895545" lon="-2.0383071"><ele>255.75</ele><time>2026-04-11T08:47:50.511Z</time></trkpt><trkpt lat="53.5894313" lon="-2.0382373"><ele>255.5</ele><time>2026-04-11T08:47:51.511Z</time></trkpt><trkpt lat="53.5893007" lon="-2.038166"><ele>255.25</ele><time>2026-04-11T08:47:52.51Z</time></trkpt><trkpt lat="53.5891687" lon="-2.0381086"><ele>255.0</ele><time>2026-04-11T08:47:53.509Z</time></trkpt><trkpt lat="53.5890403" lon="-2.0380563"><ele>255.0</ele><time>2026-04-11T08:47:54.514Z</time></trkpt><trkpt lat="53.5889115" lon="-2.0380208"><ele>255.0</ele><time>2026-04-11T08:47:55.508Z</time></trkpt><trkpt lat="53.5887844" lon="-2.0380148"><ele>255.0</ele><time>2026-04-11T08:47:56.508Z</time></trkpt><trkpt lat="53.5886689" lon="-2.0380447"><ele>255.0</ele><time>2026-04-11T08:47:57.507Z</time></trkpt><trkpt lat="53.5885686" lon="-2.038089"><ele>255.8</ele><time>2026-04-11T08:47:58.508Z</time></trkpt><trkpt lat="53.5884824" lon="-2.0381403"><ele>256.6</ele><time>2026-04-11T08:47:59.508Z</time></trkpt><trkpt lat="53.5884085" lon="-2.0381781"><ele>257.4</ele><time>2026-04-11T08:48:00.509Z</time></trkpt><trkpt lat="53.5883277" lon="-2.0381743"><ele>258.2</ele><time>2026-04-11T08:48:02.513Z</time></trkpt><trkpt lat="53.5883364" lon="-2.0379535"><ele>259.0</ele><time>2026-04-11T08:48:04.511Z</time></trkpt><trkpt lat="53.5883491" lon="-2.0377869"><ele>259.0</ele><time>2026-04-11T08:48:05.512Z</time></trkpt><trkpt lat="53.5883535" lon="-2.0376184"><ele>259.0</ele><time>2026-04-11T08:48:06.513Z</time></trkpt><trkpt lat="53.5883545" lon="-2.0374517"><ele>259.0</ele><time>2026-04-11T08:48:07.515Z</time></trkpt><trkpt lat="53.5883515" lon="-2.0372739"><ele>259.0</ele><time>2026-04-11T08:48:08.512Z</time></trkpt><trkpt lat="53.5883539" lon="-2.0371025"><ele>259.0</ele><time>2026-04-11T08:48:09.51Z</time></trkpt><trkpt lat="53.5883562" lon="-2.0369235"><ele>259.59999999999997</ele><time>2026-04-11T08:48:10.514Z</time></trkpt><trkpt lat="53.5883489" lon="-2.0367436"><ele>260.2</ele><time>2026-04-11T08:48:11.509Z</time></trkpt><trkpt lat="53.588341" lon="-2.036579"><ele>260.79999999999995</ele><time>2026-04-11T08:48:12.511Z</time></trkpt><trkpt lat="53.5883339" lon="-2.0364263"><ele>261.4</ele><time>2026-04-11T08:48:13.51Z</time></trkpt><trkpt lat="53.5883259" lon="-2.0362764"><ele>262.0</ele><time>2026-04-11T08:48:14.508Z</time></trkpt><trkpt lat="53.5883172" lon="-2.0361373"><ele>262.66666666666663</ele><time>2026-04-11T08:48:15.509Z</time></trkpt><trkpt lat="53.5883123" lon="-2.0360026"><ele>263.3333333333333</ele><time>2026-04-11T08:48:16.513Z</time></trkpt><trkpt lat="53.5883093" lon="-2.0358656"><ele>264.0</ele><time>2026-04-11T08:48:17.51Z</time></trkpt><trkpt lat="53.5883043" lon="-2.0357337"><ele>264.6666666666667</ele><time>2026-04-11T08:48:18.511Z</time></trkpt><trkpt lat="53.5882986" lon="-2.0356075"><ele>265.33333333333337</ele><time>2026-04-11T08:48:19.512Z</time></trkpt><trkpt lat="53.5882925" lon="-2.0354736"><ele>266.0</ele><time>2026-04-11T08:48:20.507Z</time></trkpt><trkpt lat="53.5882897" lon="-2.0353416"><ele>267.0</ele><time>2026-04-11T08:48:21.511Z</time></trkpt><trkpt lat="53.58829" lon="-2.0352041"><ele>268.0</ele><time>2026-04-11T08:48:22.508Z</time></trkpt><trkpt lat="53.5882921" lon="-2.0350732"><ele>269.0</ele><time>2026-04-11T08:48:23.512Z</time></trkpt><trkpt lat="53.5882907" lon="-2.0349571"><ele>270.0</ele><time>2026-04-11T08:48:24.513Z</time></trkpt><trkpt lat="53.5882858" lon="-2.0348417"><ele>271.0</ele><time>2026-04-11T08:48:25.506Z</time></trkpt><trkpt lat="53.5882536" lon="-2.034668"><ele>272.0</ele><time>2026-04-11T08:48:27.511Z</time></trkpt><trkpt lat="53.5881464" lon="-2.034606"><ele>273.2</ele><time>2026-04-11T08:48:29.51Z</time></trkpt><trkpt lat="53.5880703" lon="-2.0346144"><ele>274.4</ele><time>2026-04-11T08:48:30.509Z</time></trkpt><trkpt lat="53.5879827" lon="-2.0346132"><ele>275.6</ele><time>2026-04-11T08:48:31.509Z</time></trkpt><trkpt lat="53.5878821" lon="-2.0346058"><ele>276.8</ele><time>2026-04-11T08:48:32.509Z</time></trkpt><trkpt lat="53.5877883" lon="-2.034586"><ele>278.0</ele><time>2026-04-11T08:48:33.51Z</time></trkpt><trkpt lat="53.5876939" lon="-2.0345654"><ele>278.2</ele><time>2026-04-11T08:48:34.512Z</time></trkpt><trkpt lat="53.5876003" lon="-2.0345453"><ele>278.4</ele><time>2026-04-11T08:48:35.509Z</time></trkpt><trkpt lat="53.587511" lon="-2.0345261"><ele>278.59999999999997</ele><time>2026-04-11T08:48:36.51Z</time></trkpt><trkpt lat="53.5874221" lon="-2.0345102"><ele>278.8</ele><time>2026-04-11T08:48:37.507Z</time></trkpt><trkpt lat="53.587335" lon="-2.0345017"><ele>279.0</ele><time>2026-04-11T08:48:38.509Z</time></trkpt><trkpt lat="53.5872381" lon="-2.0344851"><ele>279.0</ele><time>2026-04-11T08:48:39.508Z</time></trkpt><trkpt lat="53.5871437" lon="-2.0344885"><ele>279.0</ele><time>2026-04-11T08:48:40.509Z</time></trkpt><trkpt lat="53.5870478" lon="-2.0345028"><ele>279.0</ele><time>2026-04-11T08:48:41.508Z</time></trkpt><trkpt lat="53.5869469" lon="-2.0344962"><ele>279.0</ele><time>2026-04-11T08:48:42.511Z</time></trkpt><trkpt lat="53.5868494" lon="-2.0344939"><ele>279.0</ele><time>2026-04-11T08:48:43.511Z</time></trkpt><trkpt lat="53.5867522" lon="-2.0344941"><ele>278.8</ele><time>2026-04-11T08:48:44.51Z</time></trkpt><trkpt lat="53.5866588" lon="-2.0344979"><ele>278.59999999999997</ele><time>2026-04-11T08:48:45.509Z</time></trkpt><trkpt lat="53.5865618" lon="-2.034501"><ele>278.4</ele><time>2026-04-11T08:48:46.51Z</time></trkpt><trkpt lat="53.5864572" lon="-2.0345055"><ele>278.2</ele><time>2026-04-11T08:48:47.508Z</time></trkpt><trkpt lat="53.5863499" lon="-2.0345151"><ele>278.0</ele><time>2026-04-11T08:48:48.509Z</time></trkpt><trkpt lat="53.586248" lon="-2.0345305"><ele>278.2</ele><time>2026-04-11T08:48:49.508Z</time></trkpt><trkpt lat="53.5861495" lon="-2.0345438"><ele>278.4</ele><time>2026-04-11T08:48:50.509Z</time></trkpt><trkpt lat="53.5860514" lon="-2.0345573"><ele>278.59999999999997</ele><time>2026-04-11T08:48:51.507Z</time></trkpt><trkpt lat="53.5859539" lon="-2.0345689"><ele>278.8</ele><time>2026-04-11T08:48:52.507Z</time></trkpt><trkpt lat="53.5858574" lon="-2.0345826"><ele>279.0</ele><time>2026-04-11T08:48:53.508Z</time></trkpt><trkpt lat="53.5857591" lon="-2.0346041"><ele>279.0</ele><time>2026-04-11T08:48:54.508Z</time></trkpt><trkpt lat="53.5856583" lon="-2.0346242"><ele>279.0</ele><time>2026-04-11T08:48:55.508Z</time></trkpt><trkpt lat="53.5855603" lon="-2.0346209"><ele>279.0</ele><time>2026-04-11T08:48:56.507Z</time></trkpt><trkpt lat="53.5854673" lon="-2.0346066"><ele>279.0</ele><time>2026-04-11T08:48:57.509Z</time></trkpt><trkpt lat="53.5853699" lon="-2.034588"><ele>279.0</ele><time>2026-04-11T08:48:58.51Z</time></trkpt><trkpt lat="53.5852651" lon="-2.0345774"><ele>278.8</ele><time>2026-04-11T08:48:59.511Z</time></trkpt><trkpt lat="53.5851518" lon="-2.0345707"><ele>278.59999999999997</ele><time>2026-04-11T08:49:00.51Z</time></trkpt><trkpt lat="53.5850404" lon="-2.0345645"><ele>278.4</ele><time>2026-04-11T08:49:01.511Z</time></trkpt><trkpt lat="53.5849383" lon="-2.0345688"><ele>278.2</ele><time>2026-04-11T08:49:02.509Z</time></trkpt><trkpt lat="53.5848417" lon="-2.0345979"><ele>278.0</ele><time>2026-04-11T08:49:03.509Z</time></trkpt><trkpt lat="53.5847563" lon="-2.0346557"><ele>278.0</ele><time>2026-04-11T08:49:04.511Z</time></trkpt><trkpt lat="53.5846765" lon="-2.0347261"><ele>278.0</ele><time>2026-04-11T08:49:05.512Z</time></trkpt><trkpt lat="53.5846023" lon="-2.0347786"><ele>278.0</ele><time>2026-04-11T08:49:06.511Z</time></trkpt><trkpt lat="53.5845162" lon="-2.0347831"><ele>278.0</ele><time>2026-04-11T08:49:07.51Z</time></trkpt><trkpt lat="53.5844255" lon="-2.0347467"><ele>278.0</ele><time>2026-04-11T08:49:08.511Z</time></trkpt><trkpt lat="53.5843305" lon="-2.0347099"><ele>278.0</ele><time>2026-04-11T08:49:09.512Z</time></trkpt><trkpt lat="53.5842432" lon="-2.0346789"><ele>278.5</ele><time>2026-04-11T08:49:10.512Z</time></trkpt><trkpt lat="53.5841563" lon="-2.0346515"><ele>279.0</ele><time>2026-04-11T08:49:11.506Z</time></trkpt><trkpt lat="53.5840686" lon="-2.0346208"><ele>279.5</ele><time>2026-04-11T08:49:12.51Z</time></trkpt><trkpt lat="53.5839814" lon="-2.0345857"><ele>280.0</ele><time>2026-04-11T08:49:13.509Z</time></trkpt><trkpt lat="53.5838962" lon="-2.0345445"><ele>280.5</ele><time>2026-04-11T08:49:14.511Z</time></trkpt><trkpt lat="53.5838123" lon="-2.0344953"><ele>281.0</ele><time>2026-04-11T08:49:15.512Z</time></trkpt><trkpt lat="53.5837259" lon="-2.0344429"><ele>282.2</ele><time>2026-04-11T08:49:16.51Z</time></trkpt><trkpt lat="53.5836409" lon="-2.0343943"><ele>283.40000000000003</ele><time>2026-04-11T08:49:17.509Z</time></trkpt><trkpt lat="53.5835601" lon="-2.0343529"><ele>284.6</ele><time>2026-04-11T08:49:18.507Z</time></trkpt><trkpt lat="53.5834734" lon="-2.0343141"><ele>285.8</ele><time>2026-04-11T08:49:19.508Z</time></trkpt><trkpt lat="53.5833812" lon="-2.0342767"><ele>287.0</ele><time>2026-04-11T08:49:20.507Z</time></trkpt><trkpt lat="53.5832934" lon="-2.0342343"><ele>287.0</ele><time>2026-04-11T08:49:21.509Z</time></trkpt><trkpt lat="53.5832098" lon="-2.0341977"><ele>287.0</ele><time>2026-04-11T08:49:22.511Z</time></trkpt><trkpt lat="53.5831286" lon="-2.034154"><ele>287.0</ele><time>2026-04-11T08:49:23.512Z</time></trkpt><trkpt lat="53.5830451" lon="-2.0341101"><ele>287.0</ele><time>2026-04-11T08:49:24.508Z</time></trkpt><trkpt lat="53.5829572" lon="-2.0340696"><ele>287.0</ele><time>2026-04-11T08:49:25.504Z</time></trkpt><trkpt lat="53.5828677" lon="-2.0340276"><ele>287.0</ele><time>2026-04-11T08:49:26.509Z</time></trkpt><trkpt lat="53.5827707" lon="-2.0339781"><ele>289.0</ele><time>2026-04-11T08:49:27.509Z</time></trkpt><trkpt lat="53.582672" lon="-2.0339324"><ele>291.0</ele><time>2026-04-11T08:49:28.507Z</time></trkpt><trkpt lat="53.5825702" lon="-2.0338865"><ele>293.0</ele><time>2026-04-11T08:49:29.511Z</time></trkpt><trkpt lat="53.5824727" lon="-2.0338384"><ele>295.0</ele><time>2026-04-11T08:49:30.51Z</time></trkpt><trkpt lat="53.5823798" lon="-2.0337938"><ele>297.0</ele><time>2026-04-11T08:49:31.513Z</time></trkpt><trkpt lat="53.5822905" lon="-2.0337553"><ele>297.0</ele><time>2026-04-11T08:49:32.512Z</time></trkpt><trkpt lat="53.5822082" lon="-2.0337236"><ele>297.0</ele><time>2026-04-11T08:49:33.512Z</time></trkpt><trkpt lat="53.5821326" lon="-2.0336992"><ele>297.0</ele><time>2026-04-11T08:49:34.512Z</time></trkpt><trkpt lat="53.5820534" lon="-2.033684"><ele>297.0</ele><time>2026-04-11T08:49:35.511Z</time></trkpt><trkpt lat="53.5819543" lon="-2.0336722"><ele>297.0</ele><time>2026-04-11T08:49:36.511Z</time></trkpt><trkpt lat="53.5818551" lon="-2.033679"><ele>297.0</ele><time>2026-04-11T08:49:37.511Z</time></trkpt><trkpt lat="53.5817508" lon="-2.0336985"><ele>296.6</ele><time>2026-04-11T08:49:38.509Z</time></trkpt><trkpt lat="53.5816519" lon="-2.0337417"><ele>296.2</ele><time>2026-04-11T08:49:39.511Z</time></trkpt><trkpt lat="53.5815606" lon="-2.0337907"><ele>295.8</ele><time>2026-04-11T08:49:40.515Z</time></trkpt><trkpt lat="53.5814767" lon="-2.0338303"><ele>295.4</ele><time>2026-04-11T08:49:41.511Z</time></trkpt><trkpt lat="53.5814051" lon="-2.0338602"><ele>295.0</ele><time>2026-04-11T08:49:42.51Z</time></trkpt><trkpt lat="53.5813066" lon="-2.0338923"><ele>295.0</ele><time>2026-04-11T08:49:44.51Z</time></trkpt><trkpt lat="53.581239" lon="-2.0338711"><ele>295.0</ele><time>2026-04-11T08:49:47.51Z</time></trkpt><trkpt lat="53.5812428" lon="-2.0337486"><ele>295.0</ele><time>2026-04-11T08:50:31.519Z</time></trkpt><trkpt lat="53.5812476" lon="-2.0336016"><ele>295.0</ele><time>2026-04-11T08:50:33.52Z</time></trkpt><trkpt lat="53.5812482" lon="-2.0334846"><ele>295.0</ele><time>2026-04-11T08:50:34.518Z</time></trkpt><trkpt lat="53.5812565" lon="-2.0333591"><ele>295.0</ele><time>2026-04-11T08:50:35.519Z</time></trkpt><trkpt lat="53.5812644" lon="-2.0332171"><ele>296.16666666666663</ele><time>2026-04-11T08:50:36.517Z</time></trkpt><trkpt lat="53.5812675" lon="-2.0330658"><ele>297.3333333333333</ele><time>2026-04-11T08:50:37.515Z</time></trkpt><trkpt lat="53.5812707" lon="-2.0329249"><ele>298.5</ele><time>2026-04-11T08:50:38.517Z</time></trkpt><trkpt lat="53.5812759" lon="-2.0327831"><ele>299.6666666666667</ele><time>2026-04-11T08:50:39.517Z</time></trkpt><trkpt lat="53.5812829" lon="-2.0326484"><ele>300.83333333333337</ele><time>2026-04-11T08:50:40.516Z</time></trkpt><trkpt lat="53.5812905" lon="-2.0325155"><ele>302.0</ele><time>2026-04-11T08:50:41.513Z</time></trkpt><trkpt lat="53.5812982" lon="-2.0323836"><ele>303.42857142857144</ele><time>2026-04-11T08:50:42.512Z</time></trkpt><trkpt lat="53.5813057" lon="-2.0322582"><ele>304.8571428571429</ele><time>2026-04-11T08:50:43.511Z</time></trkpt><trkpt lat="53.5813132" lon="-2.0321398"><ele>306.28571428571433</ele><time>2026-04-11T08:50:44.512Z</time></trkpt><trkpt lat="53.5813271" lon="-2.0320183"><ele>307.7142857142857</ele><time>2026-04-11T08:50:45.511Z</time></trkpt><trkpt lat="53.5813399" lon="-2.0319018"><ele>309.1428571428571</ele><time>2026-04-11T08:50:46.513Z</time></trkpt><trkpt lat="53.5813516" lon="-2.0317806"><ele>310.5714285714286</ele><time>2026-04-11T08:50:47.511Z</time></trkpt><trkpt lat="53.5813609" lon="-2.0316599"><ele>312.0</ele><time>2026-04-11T08:50:48.511Z</time></trkpt><trkpt lat="53.5813692" lon="-2.0315474"><ele>313.5</ele><time>2026-04-11T08:50:49.512Z</time></trkpt><trkpt lat="53.5813828" lon="-2.0313549"><ele>315.0</ele><time>2026-04-11T08:50:51.512Z</time></trkpt><trkpt lat="53.5814003" lon="-2.0311778"><ele>316.5</ele><time>2026-04-11T08:50:53.512Z</time></trkpt><trkpt lat="53.581408" lon="-2.0310678"><ele>318.0</ele><time>2026-04-11T08:50:54.514Z</time></trkpt><trkpt lat="53.5814174" lon="-2.0309532"><ele>319.5</ele><time>2026-04-11T08:50:55.514Z</time></trkpt><trkpt lat="53.5814264" lon="-2.0308438"><ele>321.0</ele><time>2026-04-11T08:50:56.515Z</time></trkpt><trkpt lat="53.5814332" lon="-2.0307374"><ele>322.4</ele><time>2026-04-11T08:50:57.516Z</time></trkpt><trkpt lat="53.5814287" lon="-2.0305276"><ele>323.8</ele><time>2026-04-11T08:50:59.51Z</time></trkpt><trkpt lat="53.5814183" lon="-2.0304184"><ele>325.2</ele><time>2026-04-11T08:51:00.506Z</time></trkpt><trkpt lat="53.5814035" lon="-2.0303094"><ele>326.59999999999997</ele><time>2026-04-11T08:51:01.509Z</time></trkpt><trkpt lat="53.5813739" lon="-2.0301042"><ele>328.0</ele><time>2026-04-11T08:51:03.513Z</time></trkpt><trkpt lat="53.5813401" lon="-2.0299135"><ele>329.0</ele><time>2026-04-11T08:51:05.517Z</time></trkpt><trkpt lat="53.5813389" lon="-2.0297501"><ele>330.0</ele><time>2026-04-11T08:51:07.51Z</time></trkpt><trkpt lat="53.581383" lon="-2.0295953"><ele>331.0</ele><time>2026-04-11T08:51:09.518Z</time></trkpt><trkpt lat="53.581413" lon="-2.0295005"><ele>332.0</ele><time>2026-04-11T08:51:10.521Z</time></trkpt><trkpt lat="53.581454" lon="-2.0293098"><ele>333.0</ele><time>2026-04-11T08:51:12.515Z</time></trkpt><trkpt lat="53.5814906" lon="-2.0291072"><ele>334.0</ele><time>2026-04-11T08:51:14.516Z</time></trkpt><trkpt lat="53.5815369" lon="-2.0289346"><ele>335.0</ele><time>2026-04-11T08:51:16.514Z</time></trkpt><trkpt lat="53.581573" lon="-2.0287569"><ele>336.0</ele><time>2026-04-11T08:51:18.516Z</time></trkpt><trkpt lat="53.5816029" lon="-2.0286096"><ele>337.0</ele><time>2026-04-11T08:51:20.516Z</time></trkpt><trkpt lat="53.5816333" lon="-2.0284763"><ele>338.0</ele><time>2026-04-11T08:51:22.507Z</time></trkpt><trkpt lat="53.58164" lon="-2.028347"><ele>338.5</ele><time>2026-04-11T08:51:24.513Z</time></trkpt><trkpt lat="53.5816061" lon="-2.028246"><ele>339.0</ele><time>2026-04-11T08:51:26.509Z</time></trkpt><trkpt lat="53.581525" lon="-2.0281211"><ele>339.5</ele><time>2026-04-11T08:51:28.516Z</time></trkpt><trkpt lat="53.5814598" lon="-2.0280124"><ele>340.0</ele><time>2026-04-11T08:51:30.517Z</time></trkpt><trkpt lat="53.5814036" lon="-2.0279047"><ele>340.5</ele><time>2026-04-11T08:51:32.52Z</time></trkpt><trkpt lat="53.581461" lon="-2.0279505"><ele>341.0</ele><time>2026-04-11T08:51:39.517Z</time></trkpt><trkpt lat="53.5815384" lon="-2.0280871"><ele>341.0</ele><time>2026-04-11T08:51:41.51Z</time></trkpt><trkpt lat="53.5815818" lon="-2.0281746"><ele>341.0</ele><time>2026-04-11T08:51:42.514Z</time></trkpt><trkpt lat="53.5816473" lon="-2.0283189"><ele>341.0</ele><time>2026-04-11T08:51:44.515Z</time></trkpt><trkpt lat="53.5816742" lon="-2.0284489"><ele>341.0</ele><time>2026-04-11T08:51:47.518Z</time></trkpt><trkpt lat="53.5816365" lon="-2.0285853"><ele>341.0</ele><time>2026-04-11T08:51:49.516Z</time></trkpt><trkpt lat="53.581588" lon="-2.0287581"><ele>340.25</ele><time>2026-04-11T08:51:51.516Z</time></trkpt><trkpt lat="53.5815402" lon="-2.0289411"><ele>339.5</ele><time>2026-04-11T08:51:53.514Z</time></trkpt><trkpt lat="53.5814948" lon="-2.0291224"><ele>338.75</ele><time>2026-04-11T08:51:55.515Z</time></trkpt><trkpt lat="53.5814508" lon="-2.0293106"><ele>338.0</ele><time>2026-04-11T08:51:57.513Z</time></trkpt><trkpt lat="53.5814095" lon="-2.0294773"><ele>337.0</ele><time>2026-04-11T08:51:59.515Z</time></trkpt><trkpt lat="53.5813707" lon="-2.0296253"><ele>336.0</ele><time>2026-04-11T08:52:01.521Z</time></trkpt><trkpt lat="53.5813465" lon="-2.0297547"><ele>335.0</ele><time>2026-04-11T08:52:03.515Z</time></trkpt><trkpt lat="53.5813431" lon="-2.0299134"><ele>334.0</ele><time>2026-04-11T08:52:06.519Z</time></trkpt><trkpt lat="53.5813709" lon="-2.0300447"><ele>333.0</ele><time>2026-04-11T08:52:08.519Z</time></trkpt><trkpt lat="53.5814062" lon="-2.0301977"><ele>332.1666666666667</ele><time>2026-04-11T08:52:10.517Z</time></trkpt><trkpt lat="53.5814277" lon="-2.0303505"><ele>331.3333333333333</ele><time>2026-04-11T08:52:12.514Z</time></trkpt><trkpt lat="53.5814379" lon="-2.0304814"><ele>330.5</ele><time>2026-04-11T08:52:14.514Z</time></trkpt><trkpt lat="53.5814478" lon="-2.0306017"><ele>329.66666666666663</ele><time>2026-04-11T08:52:16.513Z</time></trkpt><trkpt lat="53.5814536" lon="-2.0307469"><ele>328.8333333333333</ele><time>2026-04-11T08:52:18.515Z</time></trkpt><trkpt lat="53.5814438" lon="-2.0308976"><ele>328.0</ele><time>2026-04-11T08:52:20.514Z</time></trkpt><trkpt lat="53.5814329" lon="-2.0310326"><ele>326.8333333333333</ele><time>2026-04-11T08:52:22.516Z</time></trkpt><trkpt lat="53.5814173" lon="-2.0311387"><ele>325.66666666666663</ele><time>2026-04-11T08:52:24.515Z</time></trkpt><trkpt lat="53.5814016" lon="-2.0312671"><ele>324.5</ele><time>2026-04-11T08:53:44.518Z</time></trkpt><trkpt lat="53.5814288" lon="-2.0314541"><ele>323.3333333333333</ele><time>2026-04-11T08:53:49.519Z</time></trkpt><trkpt lat="53.5814064" lon="-2.0313168"><ele>322.1666666666667</ele><time>2026-04-11T08:53:56.519Z</time></trkpt><trkpt lat="53.581423" lon="-2.0311504"><ele>321.0</ele><time>2026-04-11T08:53:59.52Z</time></trkpt><trkpt lat="53.5814309" lon="-2.0309902"><ele>321.0</ele><time>2026-04-11T08:54:01.518Z</time></trkpt><trkpt lat="53.5814325" lon="-2.0308286"><ele>321.0</ele><time>2026-04-11T08:54:03.512Z</time></trkpt><trkpt lat="53.5814283" lon="-2.0306214"><ele>321.0</ele><time>2026-04-11T08:54:05.524Z</time></trkpt><trkpt lat="53.5814199" lon="-2.0304965"><ele>321.0</ele><time>2026-04-11T08:54:06.516Z</time></trkpt><trkpt lat="53.581399" lon="-2.030288"><ele>321.0</ele><time>2026-04-11T08:54:08.521Z</time></trkpt><trkpt lat="53.5813749" lon="-2.0301389"><ele>323.4</ele><time>2026-04-11T08:54:10.522Z</time></trkpt><trkpt lat="53.5813402" lon="-2.0299668"><ele>325.8</ele><time>2026-04-11T08:54:12.516Z</time></trkpt><trkpt lat="53.5813252" lon="-2.0297985"><ele>328.2</ele><time>2026-04-11T08:54:14.51Z</time></trkpt><trkpt lat="53.5813583" lon="-2.0296165"><ele>330.59999999999997</ele><time>2026-04-11T08:54:16.515Z</time></trkpt><trkpt lat="53.581414" lon="-2.0294386"><ele>333.0</ele><time>2026-04-11T08:54:18.516Z</time></trkpt><trkpt lat="53.5814602" lon="-2.0292507"><ele>333.0</ele><time>2026-04-11T08:54:20.517Z</time></trkpt><trkpt lat="53.581483" lon="-2.0291506"><ele>333.0</ele><time>2026-04-11T08:54:21.515Z</time></trkpt><trkpt lat="53.5815388" lon="-2.0289554"><ele>333.0</ele><time>2026-04-11T08:54:23.517Z</time></trkpt><trkpt lat="53.5815803" lon="-2.0287864"><ele>333.0</ele><time>2026-04-11T08:54:25.517Z</time></trkpt><trkpt lat="53.5816222" lon="-2.0286094"><ele>333.0</ele><time>2026-04-11T08:54:27.514Z</time></trkpt><trkpt lat="53.5816368" lon="-2.0285005"><ele>333.8333333333333</ele><time>2026-04-11T08:54:28.517Z</time></trkpt><trkpt lat="53.5816452" lon="-2.0283275"><ele>334.6666666666667</ele><time>2026-04-11T08:54:30.515Z</time></trkpt><trkpt lat="53.5815994" lon="-2.0282063"><ele>335.5</ele><time>2026-04-11T08:54:32.516Z</time></trkpt><trkpt lat="53.5815343" lon="-2.0281731"><ele>336.33333333333337</ele><time>2026-04-11T08:54:35.521Z</time></trkpt><trkpt lat="53.5816102" lon="-2.0282243"><ele>337.1666666666667</ele><time>2026-04-11T08:54:45.516Z</time></trkpt><trkpt lat="53.5816595" lon="-2.0283739"><ele>338.0</ele><time>2026-04-11T08:54:47.517Z</time></trkpt><trkpt lat="53.5816463" lon="-2.0285403"><ele>338.0</ele><time>2026-04-11T08:54:49.517Z</time></trkpt><trkpt lat="53.5815905" lon="-2.0287432"><ele>338.0</ele><time>2026-04-11T08:54:51.514Z</time></trkpt><trkpt lat="53.5815583" lon="-2.0288613"><ele>338.0</ele><time>2026-04-11T08:54:52.509Z</time></trkpt><trkpt lat="53.5815249" lon="-2.0289908"><ele>338.0</ele><time>2026-04-11T08:54:53.511Z</time></trkpt><trkpt lat="53.5814881" lon="-2.0291333"><ele>338.0</ele><time>2026-04-11T08:54:54.518Z</time></trkpt><trkpt lat="53.5814518" lon="-2.0292772"><ele>337.0</ele><time>2026-04-11T08:54:55.515Z</time></trkpt><trkpt lat="53.58142" lon="-2.0294124"><ele>336.0</ele><time>2026-04-11T08:54:56.516Z</time></trkpt><trkpt lat="53.5813892" lon="-2.0295409"><ele>335.0</ele><time>2026-04-11T08:54:57.516Z</time></trkpt><trkpt lat="53.5813644" lon="-2.0296572"><ele>334.0</ele><time>2026-04-11T08:54:58.516Z</time></trkpt><trkpt lat="53.5813321" lon="-2.0298398"><ele>333.0</ele><time>2026-04-11T08:55:00.52Z</time></trkpt><trkpt lat="53.5813422" lon="-2.0300177"><ele>332.0</ele><time>2026-04-11T08:55:02.52Z</time></trkpt><trkpt lat="53.5813869" lon="-2.0301809"><ele>331.0</ele><time>2026-04-11T08:55:04.514Z</time></trkpt><trkpt lat="53.5814239" lon="-2.0303531"><ele>330.0</ele><time>2026-04-11T08:55:06.519Z</time></trkpt><trkpt lat="53.5814414" lon="-2.0305265"><ele>329.0</ele><time>2026-04-11T08:55:08.518Z</time></trkpt><trkpt lat="53.5814497" lon="-2.0307014"><ele>328.0</ele><time>2026-04-11T08:55:10.519Z</time></trkpt><trkpt lat="53.5814484" lon="-2.0308671"><ele>326.99999999999994</ele><time>2026-04-11T08:55:12.515Z</time></trkpt><trkpt lat="53.5814342" lon="-2.0310039"><ele>326.0</ele><time>2026-04-11T08:55:14.517Z</time></trkpt><trkpt lat="53.5814141" lon="-2.0311203"><ele>325.0</ele><time>2026-04-11T08:55:16.517Z</time></trkpt><trkpt lat="53.581403" lon="-2.0312532"><ele>324.0</ele><time>2026-04-11T08:56:18.519Z</time></trkpt><trkpt lat="53.5814081" lon="-2.0313722"><ele>323.0</ele><time>2026-04-11T08:56:20.518Z</time></trkpt><trkpt lat="53.581409" lon="-2.0314835"><ele>321.99999999999994</ele><time>2026-04-11T08:56:21.516Z</time></trkpt><trkpt lat="53.5814071" lon="-2.0316005"><ele>321.0</ele><time>2026-04-11T08:56:22.514Z</time></trkpt><trkpt lat="53.581401" lon="-2.0317116"><ele>319.5</ele><time>2026-04-11T08:56:23.511Z</time></trkpt><trkpt lat="53.5813866" lon="-2.0318961"><ele>318.0</ele><time>2026-04-11T08:56:25.513Z</time></trkpt><trkpt lat="53.5813721" lon="-2.0320333"><ele>316.5</ele><time>2026-04-11T08:56:27.517Z</time></trkpt><trkpt lat="53.5812915" lon="-2.0320963"><ele>315.0</ele><time>2026-04-11T08:56:30.518Z</time></trkpt><trkpt lat="53.5812254" lon="-2.0320296"><ele>313.5</ele><time>2026-04-11T08:56:31.52Z</time></trkpt><trkpt lat="53.5811559" lon="-2.0319785"><ele>312.0</ele><time>2026-04-11T08:56:32.52Z</time></trkpt><trkpt lat="53.581079" lon="-2.0319331"><ele>311.6</ele><time>2026-04-11T08:56:33.52Z</time></trkpt><trkpt lat="53.5809935" lon="-2.0318874"><ele>311.2</ele><time>2026-04-11T08:56:34.523Z</time></trkpt><trkpt lat="53.5808923" lon="-2.0318436"><ele>310.8</ele><time>2026-04-11T08:56:35.522Z</time></trkpt><trkpt lat="53.5807876" lon="-2.0318024"><ele>310.4</ele><time>2026-04-11T08:56:36.518Z</time></trkpt><trkpt lat="53.5806832" lon="-2.0317635"><ele>310.0</ele><time>2026-04-11T08:56:37.52Z</time></trkpt><trkpt lat="53.580578" lon="-2.0317252"><ele>310.0</ele><time>2026-04-11T08:56:38.515Z</time></trkpt><trkpt lat="53.5804708" lon="-2.031684"><ele>310.0</ele><time>2026-04-11T08:56:39.523Z</time></trkpt><trkpt lat="53.5803634" lon="-2.0316429"><ele>310.0</ele><time>2026-04-11T08:56:40.521Z</time></trkpt><trkpt lat="53.5802528" lon="-2.0316035"><ele>310.0</ele><time>2026-04-11T08:56:41.516Z</time></trkpt><trkpt lat="53.5801428" lon="-2.0315671"><ele>310.0</ele><time>2026-04-11T08:56:42.515Z</time></trkpt><trkpt lat="53.5800332" lon="-2.0315298"><ele>311.2</ele><time>2026-04-11T08:56:43.516Z</time></trkpt><trkpt lat="53.5799248" lon="-2.0314888"><ele>312.4</ele><time>2026-04-11T08:56:44.518Z</time></trkpt><trkpt lat="53.5798197" lon="-2.0314482"><ele>313.6</ele><time>2026-04-11T08:56:45.519Z</time></trkpt><trkpt lat="53.5797177" lon="-2.0314043"><ele>314.8</ele><time>2026-04-11T08:56:46.516Z</time></trkpt><trkpt lat="53.5796178" lon="-2.0313517"><ele>316.0</ele><time>2026-04-11T08:56:47.516Z</time></trkpt><trkpt lat="53.5795214" lon="-2.0312927"><ele>315.8</ele><time>2026-04-11T08:56:48.516Z</time></trkpt><trkpt lat="53.5794268" lon="-2.0312311"><ele>315.6</ele><time>2026-04-11T08:56:49.517Z</time></trkpt><trkpt lat="53.5793316" lon="-2.0311693"><ele>315.4</ele><time>2026-04-11T08:56:50.511Z</time></trkpt><trkpt lat="53.5792378" lon="-2.0311108"><ele>315.2</ele><time>2026-04-11T08:56:51.516Z</time></trkpt><trkpt lat="53.5791412" lon="-2.0310622"><ele>315.0</ele><time>2026-04-11T08:56:52.508Z</time></trkpt><trkpt lat="53.5790426" lon="-2.0310217"><ele>315.0</ele><time>2026-04-11T08:56:53.511Z</time></trkpt><trkpt lat="53.5789402" lon="-2.0309849"><ele>315.0</ele><time>2026-04-11T08:56:54.512Z</time></trkpt><trkpt lat="53.578831" lon="-2.030935"><ele>315.0</ele><time>2026-04-11T08:56:55.515Z</time></trkpt><trkpt lat="53.5787201" lon="-2.0308774"><ele>315.0</ele><time>2026-04-11T08:56:56.516Z</time></trkpt><trkpt lat="53.5786127" lon="-2.0308122"><ele>315.0</ele><time>2026-04-11T08:56:57.514Z</time></trkpt><trkpt lat="53.578519" lon="-2.0307341"><ele>315.3333333333333</ele><time>2026-04-11T08:56:58.517Z</time></trkpt><trkpt lat="53.5784413" lon="-2.0306527"><ele>315.6666666666667</ele><time>2026-04-11T08:56:59.518Z</time></trkpt><trkpt lat="53.5783744" lon="-2.0305716"><ele>316.0</ele><time>2026-04-11T08:57:00.51Z</time></trkpt><trkpt lat="53.5783089" lon="-2.0305111"><ele>316.33333333333337</ele><time>2026-04-11T08:57:01.514Z</time></trkpt><trkpt lat="53.5782491" lon="-2.030466"><ele>316.6666666666667</ele><time>2026-04-11T08:57:02.514Z</time></trkpt><trkpt lat="53.5781443" lon="-2.030372"><ele>317.0</ele><time>2026-04-11T08:57:04.516Z</time></trkpt><trkpt lat="53.5780391" lon="-2.0302671"><ele>317.0</ele><time>2026-04-11T08:57:06.52Z</time></trkpt><trkpt lat="53.5779291" lon="-2.0301763"><ele>317.0</ele><time>2026-04-11T08:57:08.518Z</time></trkpt><trkpt lat="53.5778718" lon="-2.0301208"><ele>317.0</ele><time>2026-04-11T08:57:09.518Z</time></trkpt><trkpt lat="53.5778123" lon="-2.0300612"><ele>317.0</ele><time>2026-04-11T08:57:10.51Z</time></trkpt><trkpt lat="53.5777525" lon="-2.030001"><ele>317.0</ele><time>2026-04-11T08:57:11.515Z</time></trkpt><trkpt lat="53.5776956" lon="-2.0299496"><ele>317.0</ele><time>2026-04-11T08:57:12.516Z</time></trkpt><trkpt lat="53.577578" lon="-2.0298682"><ele>316.83333333333337</ele><time>2026-04-11T08:57:14.513Z</time></trkpt><trkpt lat="53.5775112" lon="-2.0298318"><ele>316.6666666666667</ele><time>2026-04-11T08:57:15.509Z</time></trkpt><trkpt lat="53.5774362" lon="-2.0297942"><ele>316.5</ele><time>2026-04-11T08:57:16.514Z</time></trkpt><trkpt lat="53.5773529" lon="-2.0297584"><ele>316.3333333333333</ele><time>2026-04-11T08:57:17.514Z</time></trkpt><trkpt lat="53.5772679" lon="-2.0297203"><ele>316.16666666666663</ele><time>2026-04-11T08:57:18.513Z</time></trkpt><trkpt lat="53.5771881" lon="-2.0296783"><ele>316.0</ele><time>2026-04-11T08:57:19.509Z</time></trkpt><trkpt lat="53.5771195" lon="-2.0296336"><ele>316.0</ele><time>2026-04-11T08:57:20.516Z</time></trkpt><trkpt lat="53.5770417" lon="-2.0295185"><ele>316.0</ele><time>2026-04-11T08:57:22.513Z</time></trkpt><trkpt lat="53.5770601" lon="-2.0294055"><ele>316.0</ele><time>2026-04-11T08:57:24.515Z</time></trkpt><trkpt lat="53.577163" lon="-2.0292955"><ele>316.0</ele><time>2026-04-11T08:57:26.513Z</time></trkpt><trkpt lat="53.5772835" lon="-2.029195"><ele>316.0</ele><time>2026-04-11T08:57:28.518Z</time></trkpt><trkpt lat="53.5773523" lon="-2.0291401"><ele>316.2</ele><time>2026-04-11T08:57:29.516Z</time></trkpt><trkpt lat="53.5774349" lon="-2.0290838"><ele>316.40000000000003</ele><time>2026-04-11T08:57:30.517Z</time></trkpt><trkpt lat="53.5775286" lon="-2.0290151"><ele>316.6</ele><time>2026-04-11T08:57:31.518Z</time></trkpt><trkpt lat="53.5776273" lon="-2.0289201"><ele>316.8</ele><time>2026-04-11T08:57:32.52Z</time></trkpt><trkpt lat="53.5777163" lon="-2.0288205"><ele>317.0</ele><time>2026-04-11T08:57:33.524Z</time></trkpt><trkpt lat="53.5777807" lon="-2.0287389"><ele>317.0</ele><time>2026-04-11T08:57:34.522Z</time></trkpt><trkpt lat="53.5778292" lon="-2.0286626"><ele>317.0</ele><time>2026-04-11T08:57:35.514Z</time></trkpt><trkpt lat="53.5778751" lon="-2.0285073"><ele>317.0</ele><time>2026-04-11T08:57:37.521Z</time></trkpt><trkpt lat="53.5779435" lon="-2.0283963"><ele>317.0</ele><time>2026-04-11T08:57:39.516Z</time></trkpt><trkpt lat="53.5780491" lon="-2.0282945"><ele>317.0</ele><time>2026-04-11T08:57:41.514Z</time></trkpt><trkpt lat="53.5781174" lon="-2.0282289"><ele>318.4</ele><time>2026-04-11T08:57:42.514Z</time></trkpt><trkpt lat="53.578203" lon="-2.0281594"><ele>319.79999999999995</ele><time>2026-04-11T08:57:43.515Z</time></trkpt><trkpt lat="53.5782881" lon="-2.0280853"><ele>321.2</ele><time>2026-04-11T08:57:44.51Z</time></trkpt><trkpt lat="53.5783801" lon="-2.0280143"><ele>322.59999999999997</ele><time>2026-04-11T08:57:45.508Z</time></trkpt><trkpt lat="53.5784743" lon="-2.0279356"><ele>324.0</ele><time>2026-04-11T08:57:46.517Z</time></trkpt><trkpt lat="53.5785699" lon="-2.0278545"><ele>324.0</ele><time>2026-04-11T08:57:47.518Z</time></trkpt><trkpt lat="53.5786648" lon="-2.0277742"><ele>324.0</ele><time>2026-04-11T08:57:48.516Z</time></trkpt><trkpt lat="53.5787563" lon="-2.0276975"><ele>324.0</ele><time>2026-04-11T08:57:49.509Z</time></trkpt><trkpt lat="53.5788493" lon="-2.0276228"><ele>324.0</ele><time>2026-04-11T08:57:50.518Z</time></trkpt><trkpt lat="53.5789407" lon="-2.0275328"><ele>324.0</ele><time>2026-04-11T08:57:51.517Z</time></trkpt><trkpt lat="53.5790268" lon="-2.0274335"><ele>325.79999999999995</ele><time>2026-04-11T08:57:52.516Z</time></trkpt><trkpt lat="53.5791107" lon="-2.0273249"><ele>327.59999999999997</ele><time>2026-04-11T08:57:53.516Z</time></trkpt><trkpt lat="53.5791953" lon="-2.0272168"><ele>329.4</ele><time>2026-04-11T08:57:54.519Z</time></trkpt><trkpt lat="53.579283" lon="-2.0271088"><ele>331.2</ele><time>2026-04-11T08:57:55.516Z</time></trkpt><trkpt lat="53.5793733" lon="-2.0269987"><ele>333.0</ele><time>2026-04-11T08:57:56.516Z</time></trkpt><trkpt lat="53.5794661" lon="-2.0268948"><ele>334.5</ele><time>2026-04-11T08:57:57.515Z</time></trkpt><trkpt lat="53.5795641" lon="-2.0267899"><ele>336.0</ele><time>2026-04-11T08:57:58.516Z</time></trkpt><trkpt lat="53.5796639" lon="-2.026688"><ele>337.5</ele><time>2026-04-11T08:57:59.519Z</time></trkpt><trkpt lat="53.579764" lon="-2.0265894"><ele>339.0</ele><time>2026-04-11T08:58:00.532Z</time></trkpt><trkpt lat="53.5798628" lon="-2.0264854"><ele>339.0</ele><time>2026-04-11T08:58:01.53Z</time></trkpt><trkpt lat="53.5799598" lon="-2.0263706"><ele>339.0</ele><time>2026-04-11T08:58:02.539Z</time></trkpt><trkpt lat="53.580051" lon="-2.0262675"><ele>339.0</ele><time>2026-04-11T08:58:03.541Z</time></trkpt><trkpt lat="53.5801374" lon="-2.0261794"><ele>339.0</ele><time>2026-04-11T08:58:04.539Z</time></trkpt><trkpt lat="53.5802124" lon="-2.0261072"><ele>339.0</ele><time>2026-04-11T08:58:05.534Z</time></trkpt><trkpt lat="53.580269" lon="-2.0260451"><ele>339.0</ele><time>2026-04-11T08:58:06.536Z</time></trkpt><trkpt lat="53.5803247" lon="-2.0259803"><ele>339.0</ele><time>2026-04-11T08:58:07.526Z</time></trkpt><trkpt lat="53.5803782" lon="-2.0259187"><ele>339.0</ele><time>2026-04-11T08:58:08.522Z</time></trkpt><trkpt lat="53.5804363" lon="-2.0258223"><ele>339.0</ele><time>2026-04-11T08:58:10.523Z</time></trkpt><trkpt lat="53.5803999" lon="-2.0259177"><ele>339.0</ele><time>2026-04-11T08:58:20.511Z</time></trkpt><trkpt lat="53.5803386" lon="-2.0259456"><ele>339.0</ele><time>2026-04-11T08:58:22.514Z</time></trkpt><trkpt lat="53.5802521" lon="-2.0258748"><ele>339.0</ele><time>2026-04-11T08:58:24.511Z</time></trkpt><trkpt lat="53.5801985" lon="-2.0258096"><ele>338.6</ele><time>2026-04-11T08:58:25.517Z</time></trkpt><trkpt lat="53.5801348" lon="-2.0257179"><ele>338.2</ele><time>2026-04-11T08:58:26.516Z</time></trkpt><trkpt lat="53.5800775" lon="-2.0256518"><ele>337.8</ele><time>2026-04-11T08:58:27.512Z</time></trkpt><trkpt lat="53.5800225" lon="-2.0255797"><ele>337.40000000000003</ele><time>2026-04-11T08:58:28.515Z</time></trkpt><trkpt lat="53.5799234" lon="-2.0254676"><ele>337.0</ele><time>2026-04-11T08:58:30.521Z</time></trkpt><trkpt lat="53.5798283" lon="-2.0253628"><ele>337.0</ele><time>2026-04-11T08:58:32.521Z</time></trkpt><trkpt lat="53.5797704" lon="-2.0253033"><ele>337.0</ele><time>2026-04-11T08:58:34.523Z</time></trkpt><trkpt lat="53.5796889" lon="-2.0252377"><ele>337.0</ele><time>2026-04-11T08:58:37.523Z</time></trkpt><trkpt lat="53.5796316" lon="-2.0251733"><ele>337.0</ele><time>2026-04-11T08:58:44.517Z</time></trkpt><trkpt lat="53.5795603" lon="-2.0251124"><ele>337.0</ele><time>2026-04-11T08:58:48.51Z</time></trkpt><trkpt lat="53.5794918" lon="-2.0250408"><ele>337.0</ele><time>2026-04-11T08:58:50.52Z</time></trkpt><trkpt lat="53.5794258" lon="-2.0249714"><ele>334.5</ele><time>2026-04-11T08:58:52.51Z</time></trkpt><trkpt lat="53.579364" lon="-2.0249162"><ele>332.0</ele><time>2026-04-11T08:58:54.518Z</time></trkpt><trkpt lat="53.5793002" lon="-2.0248706"><ele>329.5</ele><time>2026-04-11T08:58:56.511Z</time></trkpt><trkpt lat="53.5792223" lon="-2.0248031"><ele>327.0</ele><time>2026-04-11T08:58:58.512Z</time></trkpt><trkpt lat="53.5791444" lon="-2.0247247"><ele>324.5</ele><time>2026-04-11T08:59:00.516Z</time></trkpt><trkpt lat="53.5790772" lon="-2.0246579"><ele>322.0</ele><time>2026-04-11T08:59:02.518Z</time></trkpt><trkpt lat="53.5790178" lon="-2.024597"><ele>322.0</ele><time>2026-04-11T08:59:04.518Z</time></trkpt><trkpt lat="53.5789577" lon="-2.0245405"><ele>322.0</ele><time>2026-04-11T08:59:06.514Z</time></trkpt><trkpt lat="53.578892" lon="-2.0244871"><ele>322.0</ele><time>2026-04-11T08:59:08.516Z</time></trkpt><trkpt lat="53.5788277" lon="-2.0244448"><ele>322.0</ele><time>2026-04-11T08:59:10.518Z</time></trkpt><trkpt lat="53.5787682" lon="-2.0243983"><ele>322.0</ele><time>2026-04-11T08:59:12.51Z</time></trkpt><trkpt lat="53.5786768" lon="-2.0243283"><ele>322.0</ele><time>2026-04-11T08:59:15.512Z</time></trkpt><trkpt lat="53.5786112" lon="-2.024274"><ele>320.14285714285717</ele><time>2026-04-11T08:59:17.51Z</time></trkpt><trkpt lat="53.578552" lon="-2.0242153"><ele>318.2857142857143</ele><time>2026-04-11T08:59:19.508Z</time></trkpt><trkpt lat="53.5784837" lon="-2.0241257"><ele>316.42857142857144</ele><time>2026-04-11T08:59:22.508Z</time></trkpt><trkpt lat="53.5784465" lon="-2.0240298"><ele>314.57142857142856</ele><time>2026-04-11T08:59:25.514Z</time></trkpt><trkpt lat="53.5784129" lon="-2.0239236"><ele>312.7142857142857</ele><time>2026-04-11T08:59:28.512Z</time></trkpt><trkpt lat="53.5783828" lon="-2.0238081"><ele>310.8571428571429</ele><time>2026-04-11T08:59:31.516Z</time></trkpt><trkpt lat="53.5783508" lon="-2.0237075"><ele>309.0</ele><time>2026-04-11T08:59:34.513Z</time></trkpt><trkpt lat="53.5783005" lon="-2.023592"><ele>307.5</ele><time>2026-04-11T08:59:37.516Z</time></trkpt><trkpt lat="53.578238" lon="-2.0234599"><ele>306.0</ele><time>2026-04-11T08:59:40.517Z</time></trkpt><trkpt lat="53.5781996" lon="-2.0233281"><ele>304.5</ele><time>2026-04-11T08:59:43.512Z</time></trkpt><trkpt lat="53.5781594" lon="-2.0232211"><ele>303.0</ele><time>2026-04-11T08:59:45.515Z</time></trkpt><trkpt lat="53.5781264" lon="-2.0231249"><ele>301.5</ele><time>2026-04-11T08:59:47.509Z</time></trkpt><trkpt lat="53.5781035" lon="-2.0230207"><ele>300.0</ele><time>2026-04-11T08:59:49.509Z</time></trkpt><trkpt lat="53.5780904" lon="-2.0229166"><ele>298.3333333333333</ele><time>2026-04-11T08:59:51.506Z</time></trkpt><trkpt lat="53.5780768" lon="-2.0227777"><ele>296.6666666666667</ele><time>2026-04-11T08:59:54.506Z</time></trkpt><trkpt lat="53.578065" lon="-2.0226535"><ele>295.0</ele><time>2026-04-11T08:59:57.511Z</time></trkpt><trkpt lat="53.5780527" lon="-2.0225299"><ele>293.33333333333337</ele><time>2026-04-11T09:00:00.516Z</time></trkpt><trkpt lat="53.5780273" lon="-2.0223829"><ele>291.6666666666667</ele><time>2026-04-11T09:00:03.507Z</time></trkpt><trkpt lat="53.5780105" lon="-2.022264"><ele>290.0</ele><time>2026-04-11T09:00:05.507Z</time></trkpt><trkpt lat="53.5779871" lon="-2.0221513"><ele>290.0</ele><time>2026-04-11T09:00:07.511Z</time></trkpt><trkpt lat="53.577956" lon="-2.0220437"><ele>290.0</ele><time>2026-04-11T09:00:09.511Z</time></trkpt><trkpt lat="53.5779201" lon="-2.0219557"><ele>290.0</ele><time>2026-04-11T09:00:12.513Z</time></trkpt><trkpt lat="53.5779946" lon="-2.0222955"><ele>290.0</ele><time>2026-04-11T09:00:20.517Z</time></trkpt><trkpt lat="53.5780121" lon="-2.0224244"><ele>290.0</ele><time>2026-04-11T09:00:22.514Z</time></trkpt><trkpt lat="53.5780356" lon="-2.0227364"><ele>290.0</ele><time>2026-04-11T09:00:24.517Z</time></trkpt><trkpt lat="53.5780598" lon="-2.0228957"><ele>290.0</ele><time>2026-04-11T09:00:25.514Z</time></trkpt><trkpt lat="53.5780763" lon="-2.0230104"><ele>290.0</ele><time>2026-04-11T09:00:26.517Z</time></trkpt><trkpt lat="53.578126" lon="-2.0231881"><ele>290.0</ele><time>2026-04-11T09:00:28.509Z</time></trkpt><trkpt lat="53.5781491" lon="-2.0232924"><ele>290.0</ele><time>2026-04-11T09:00:29.513Z</time></trkpt><trkpt lat="53.5781879" lon="-2.0233814"><ele>290.0</ele><time>2026-04-11T09:00:30.513Z</time></trkpt><trkpt lat="53.5782224" lon="-2.0234721"><ele>291.6666666666667</ele><time>2026-04-11T09:00:31.51Z</time></trkpt><trkpt lat="53.5782849" lon="-2.0235783"><ele>293.33333333333337</ele><time>2026-04-11T09:00:33.513Z</time></trkpt><trkpt lat="53.5783244" lon="-2.023694"><ele>295.0</ele><time>2026-04-11T09:00:36.507Z</time></trkpt><trkpt lat="53.5783722" lon="-2.0238329"><ele>296.6666666666667</ele><time>2026-04-11T09:00:38.511Z</time></trkpt><trkpt lat="53.5784082" lon="-2.0239554"><ele>298.3333333333333</ele><time>2026-04-11T09:00:40.512Z</time></trkpt><trkpt lat="53.5784536" lon="-2.0240839"><ele>300.0</ele><time>2026-04-11T09:00:43.517Z</time></trkpt><trkpt lat="53.5785116" lon="-2.0241755"><ele>301.8</ele><time>2026-04-11T09:00:45.511Z</time></trkpt><trkpt lat="53.5785948" lon="-2.0242743"><ele>303.6</ele><time>2026-04-11T09:00:47.51Z</time></trkpt><trkpt lat="53.5787046" lon="-2.0243625"><ele>305.4</ele><time>2026-04-11T09:00:49.515Z</time></trkpt><trkpt lat="53.5787648" lon="-2.0244022"><ele>307.2</ele><time>2026-04-11T09:00:50.514Z</time></trkpt><trkpt lat="53.5788656" lon="-2.0244714"><ele>309.0</ele><time>2026-04-11T09:00:52.517Z</time></trkpt><trkpt lat="53.5789452" lon="-2.0245363"><ele>311.6</ele><time>2026-04-11T09:00:54.517Z</time></trkpt><trkpt lat="53.579028" lon="-2.0246174"><ele>314.2</ele><time>2026-04-11T09:00:56.51Z</time></trkpt><trkpt lat="53.579111" lon="-2.0247059"><ele>316.8</ele><time>2026-04-11T09:00:58.508Z</time></trkpt><trkpt lat="53.5791959" lon="-2.0247916"><ele>319.40000000000003</ele><time>2026-04-11T09:01:00.517Z</time></trkpt><trkpt lat="53.5792828" lon="-2.0248825"><ele>322.0</ele><time>2026-04-11T09:01:02.515Z</time></trkpt><trkpt lat="53.5793428" lon="-2.0249384"><ele>323.0</ele><time>2026-04-11T09:01:04.513Z</time></trkpt><trkpt lat="53.5794325" lon="-2.0250176"><ele>324.0</ele><time>2026-04-11T09:01:07.515Z</time></trkpt><trkpt lat="53.5795333" lon="-2.0251181"><ele>325.0</ele><time>2026-04-11T09:01:09.514Z</time></trkpt><trkpt lat="53.5795919" lon="-2.0251681"><ele>326.0</ele><time>2026-04-11T09:01:10.515Z</time></trkpt><trkpt lat="53.5796544" lon="-2.0252229"><ele>327.0</ele><time>2026-04-11T09:01:11.517Z</time></trkpt><trkpt lat="53.5797165" lon="-2.0252829"><ele>328.0</ele><time>2026-04-11T09:01:12.516Z</time></trkpt><trkpt lat="53.5797814" lon="-2.0253442"><ele>329.79999999999995</ele><time>2026-04-11T09:01:13.519Z</time></trkpt><trkpt lat="53.5798398" lon="-2.0254014"><ele>331.6</ele><time>2026-04-11T09:01:14.519Z</time></trkpt><trkpt lat="53.5799395" lon="-2.0255117"><ele>333.4</ele><time>2026-04-11T09:01:16.51Z</time></trkpt><trkpt lat="53.5800274" lon="-2.0256179"><ele>335.20000000000005</ele><time>2026-04-11T09:01:18.519Z</time></trkpt><trkpt lat="53.5801301" lon="-2.0257402"><ele>337.0</ele><time>2026-04-11T09:01:20.521Z</time></trkpt><trkpt lat="53.5802241" lon="-2.0258487"><ele>337.3333333333333</ele><time>2026-04-11T09:01:22.52Z</time></trkpt><trkpt lat="53.58029" lon="-2.0259147"><ele>337.66666666666663</ele><time>2026-04-11T09:01:24.523Z</time></trkpt><trkpt lat="53.5803557" lon="-2.025914"><ele>338.0</ele><time>2026-04-11T09:02:06.522Z</time></trkpt><trkpt lat="53.5804416" lon="-2.0258585"><ele>338.3333333333333</ele><time>2026-04-11T09:02:25.518Z</time></trkpt><trkpt lat="53.5805009" lon="-2.0258014"><ele>338.6666666666667</ele><time>2026-04-11T09:02:26.519Z</time></trkpt><trkpt lat="53.5805705" lon="-2.0257108"><ele>339.0</ele><time>2026-04-11T09:02:27.519Z</time></trkpt><trkpt lat="53.5806389" lon="-2.0256142"><ele>339.4</ele><time>2026-04-11T09:02:28.52Z</time></trkpt><trkpt lat="53.5807071" lon="-2.0255121"><ele>339.79999999999995</ele><time>2026-04-11T09:02:29.522Z</time></trkpt><trkpt lat="53.5807755" lon="-2.0254011"><ele>340.20000000000005</ele><time>2026-04-11T09:02:30.519Z</time></trkpt><trkpt lat="53.5808383" lon="-2.0252834"><ele>340.6</ele><time>2026-04-11T09:02:31.518Z</time></trkpt><trkpt lat="53.5808936" lon="-2.0251556"><ele>341.0</ele><time>2026-04-11T09:02:32.52Z</time></trkpt><trkpt lat="53.5809436" lon="-2.0250173"><ele>340.8</ele><time>2026-04-11T09:02:33.526Z</time></trkpt><trkpt lat="53.5809876" lon="-2.0248725"><ele>340.6</ele><time>2026-04-11T09:02:34.522Z</time></trkpt><trkpt lat="53.5810285" lon="-2.0247238"><ele>340.4</ele><time>2026-04-11T09:02:35.52Z</time></trkpt><trkpt lat="53.58107" lon="-2.0245779"><ele>340.2</ele><time>2026-04-11T09:02:36.52Z</time></trkpt><trkpt lat="53.5811128" lon="-2.0244216"><ele>340.0</ele><time>2026-04-11T09:02:37.52Z</time></trkpt><trkpt lat="53.5811619" lon="-2.0242712"><ele>341.2</ele><time>2026-04-11T09:02:38.523Z</time></trkpt><trkpt lat="53.5812128" lon="-2.0241214"><ele>342.4</ele><time>2026-04-11T09:02:39.52Z</time></trkpt><trkpt lat="53.5812596" lon="-2.0239782"><ele>343.6</ele><time>2026-04-11T09:02:40.52Z</time></trkpt><trkpt lat="53.5813038" lon="-2.0238413"><ele>344.8</ele><time>2026-04-11T09:02:41.518Z</time></trkpt><trkpt lat="53.5813449" lon="-2.0237051"><ele>346.0</ele><time>2026-04-11T09:02:42.518Z</time></trkpt><trkpt lat="53.5813819" lon="-2.023578"><ele>346.0</ele><time>2026-04-11T09:02:43.522Z</time></trkpt><trkpt lat="53.5814178" lon="-2.0234635"><ele>346.0</ele><time>2026-04-11T09:02:44.519Z</time></trkpt><trkpt lat="53.5814768" lon="-2.0233103"><ele>346.0</ele><time>2026-04-11T09:02:46.522Z</time></trkpt><trkpt lat="53.5815479" lon="-2.0232048"><ele>346.0</ele><time>2026-04-11T09:02:48.518Z</time></trkpt><trkpt lat="53.5816398" lon="-2.0231174"><ele>346.0</ele><time>2026-04-11T09:02:50.523Z</time></trkpt><trkpt lat="53.5817054" lon="-2.0231048"><ele>345.8333333333333</ele><time>2026-04-11T09:02:51.519Z</time></trkpt><trkpt lat="53.5817792" lon="-2.0231112"><ele>345.66666666666663</ele><time>2026-04-11T09:02:52.522Z</time></trkpt><trkpt lat="53.5818557" lon="-2.0231269"><ele>345.5</ele><time>2026-04-11T09:02:53.523Z</time></trkpt><trkpt lat="53.5819321" lon="-2.0231427"><ele>345.3333333333333</ele><time>2026-04-11T09:02:54.522Z</time></trkpt><trkpt lat="53.5820101" lon="-2.0231497"><ele>345.1666666666667</ele><time>2026-04-11T09:02:55.522Z</time></trkpt><trkpt lat="53.5820914" lon="-2.0231504"><ele>345.0</ele><time>2026-04-11T09:02:56.519Z</time></trkpt><trkpt lat="53.5821789" lon="-2.0231505"><ele>345.0</ele><time>2026-04-11T09:02:57.523Z</time></trkpt><trkpt lat="53.5822677" lon="-2.0231514"><ele>345.0</ele><time>2026-04-11T09:02:58.523Z</time></trkpt><trkpt lat="53.5823576" lon="-2.0231483"><ele>345.0</ele><time>2026-04-11T09:02:59.52Z</time></trkpt><trkpt lat="53.5824431" lon="-2.0231452"><ele>345.0</ele><time>2026-04-11T09:03:00.519Z</time></trkpt><trkpt lat="53.5825232" lon="-2.0231427"><ele>345.0</ele><time>2026-04-11T09:03:01.522Z</time></trkpt><trkpt lat="53.5826011" lon="-2.0231385"><ele>345.0</ele><time>2026-04-11T09:03:02.524Z</time></trkpt><trkpt lat="53.5826805" lon="-2.0231292"><ele>345.0</ele><time>2026-04-11T09:03:03.523Z</time></trkpt><trkpt lat="53.5827635" lon="-2.0231144"><ele>345.0</ele><time>2026-04-11T09:03:04.522Z</time></trkpt><trkpt lat="53.5828481" lon="-2.0230901"><ele>345.0</ele><time>2026-04-11T09:03:05.522Z</time></trkpt><trkpt lat="53.5829337" lon="-2.0230523"><ele>345.0</ele><time>2026-04-11T09:03:06.519Z</time></trkpt><trkpt lat="53.5830215" lon="-2.023008"><ele>345.0</ele><time>2026-04-11T09:03:07.519Z</time></trkpt><trkpt lat="53.5831097" lon="-2.022958"><ele>345.0</ele><time>2026-04-11T09:03:08.521Z</time></trkpt><trkpt lat="53.5831942" lon="-2.0228989"><ele>346.1666666666667</ele><time>2026-04-11T09:03:09.521Z</time></trkpt><trkpt lat="53.5832749" lon="-2.0228339"><ele>347.3333333333333</ele><time>2026-04-11T09:03:10.522Z</time></trkpt><trkpt lat="53.5833521" lon="-2.0227697"><ele>348.5</ele><time>2026-04-11T09:03:11.522Z</time></trkpt><trkpt lat="53.5834269" lon="-2.0227111"><ele>349.66666666666663</ele><time>2026-04-11T09:03:12.522Z</time></trkpt><trkpt lat="53.5835019" lon="-2.0226575"><ele>350.8333333333333</ele><time>2026-04-11T09:03:13.525Z</time></trkpt><trkpt lat="53.5835705" lon="-2.0226142"><ele>352.0</ele><time>2026-04-11T09:03:14.523Z</time></trkpt><trkpt lat="53.5836502" lon="-2.0225592"><ele>352.16666666666663</ele><time>2026-04-11T09:03:16.52Z</time></trkpt><trkpt lat="53.5837142" lon="-2.022525"><ele>352.3333333333333</ele><time>2026-04-11T09:03:20.523Z</time></trkpt><trkpt lat="53.5837295" lon="-2.0223991"><ele>352.5</ele><time>2026-04-11T09:03:56.522Z</time></trkpt><trkpt lat="53.5837665" lon="-2.0222768"><ele>352.6666666666667</ele><time>2026-04-11T09:04:00.524Z</time></trkpt><trkpt lat="53.5837306" lon="-2.0220986"><ele>352.83333333333337</ele><time>2026-04-11T09:04:02.519Z</time></trkpt><trkpt lat="53.5836722" lon="-2.0220445"><ele>353.0</ele><time>2026-04-11T09:04:10.52Z</time></trkpt><trkpt lat="53.5835708" lon="-2.0219762"><ele>351.83333333333337</ele><time>2026-04-11T09:04:12.519Z</time></trkpt><trkpt lat="53.5835153" lon="-2.0219009"><ele>350.6666666666667</ele><time>2026-04-11T09:04:14.518Z</time></trkpt><trkpt lat="53.5834532" lon="-2.0217812"><ele>349.5</ele><time>2026-04-11T09:04:16.519Z</time></trkpt><trkpt lat="53.5834214" lon="-2.0216359"><ele>348.3333333333333</ele><time>2026-04-11T09:04:18.521Z</time></trkpt><trkpt lat="53.5835041" lon="-2.0215237"><ele>347.16666666666663</ele><time>2026-04-11T09:04:20.521Z</time></trkpt><trkpt lat="53.5835775" lon="-2.0215216"><ele>346.0</ele><time>2026-04-11T09:04:21.521Z</time></trkpt><trkpt lat="53.5836503" lon="-2.0215273"><ele>345.66666666666663</ele><time>2026-04-11T09:04:22.522Z</time></trkpt><trkpt lat="53.5837253" lon="-2.0214509"><ele>345.3333333333333</ele><time>2026-04-11T09:04:24.513Z</time></trkpt><trkpt lat="53.5836936" lon="-2.0213131"><ele>345.0</ele><time>2026-04-11T09:04:26.517Z</time></trkpt><trkpt lat="53.5836448" lon="-2.0212237"><ele>344.6666666666667</ele><time>2026-04-11T09:04:28.516Z</time></trkpt><trkpt lat="53.5836024" lon="-2.021126"><ele>344.33333333333337</ele><time>2026-04-11T09:04:31.516Z</time></trkpt><trkpt lat="53.5835477" lon="-2.0209826"><ele>344.0</ele><time>2026-04-11T09:04:33.519Z</time></trkpt><trkpt lat="53.5835089" lon="-2.0208978"><ele>340.0</ele><time>2026-04-11T09:04:34.522Z</time></trkpt><trkpt lat="53.5834197" lon="-2.0207613"><ele>336.0</ele><time>2026-04-11T09:04:36.521Z</time></trkpt><trkpt lat="53.5833424" lon="-2.0206884"><ele>332.0</ele><time>2026-04-11T09:04:38.523Z</time></trkpt><trkpt lat="53.5832534" lon="-2.0206147"><ele>328.0</ele><time>2026-04-11T09:04:40.524Z</time></trkpt><trkpt lat="53.5831666" lon="-2.020633"><ele>324.0</ele><time>2026-04-11T09:04:42.518Z</time></trkpt><trkpt lat="53.5830672" lon="-2.02073"><ele>324.0</ele><time>2026-04-11T09:04:44.511Z</time></trkpt><trkpt lat="53.5830144" lon="-2.0208075"><ele>324.0</ele><time>2026-04-11T09:04:45.51Z</time></trkpt><trkpt lat="53.582961" lon="-2.0208967"><ele>324.0</ele><time>2026-04-11T09:04:46.519Z</time></trkpt><trkpt lat="53.5829082" lon="-2.0209882"><ele>324.0</ele><time>2026-04-11T09:04:47.517Z</time></trkpt><trkpt lat="53.5828571" lon="-2.0210872"><ele>324.0</ele><time>2026-04-11T09:04:48.516Z</time></trkpt><trkpt lat="53.5828182" lon="-2.0211842"><ele>324.0</ele><time>2026-04-11T09:04:49.517Z</time></trkpt><trkpt lat="53.5827871" lon="-2.0212861"><ele>324.0</ele><time>2026-04-11T09:04:50.519Z</time></trkpt><trkpt lat="53.5827591" lon="-2.021402"><ele>324.5</ele><time>2026-04-11T09:04:51.519Z</time></trkpt><trkpt lat="53.5827418" lon="-2.0215231"><ele>325.0</ele><time>2026-04-11T09:04:52.523Z</time></trkpt><trkpt lat="53.5827518" lon="-2.0216343"><ele>325.5</ele><time>2026-04-11T09:04:53.526Z</time></trkpt><trkpt lat="53.5828608" lon="-2.0217235"><ele>326.0</ele><time>2026-04-11T09:04:55.521Z</time></trkpt><trkpt lat="53.5829518" lon="-2.0217051"><ele>326.5</ele><time>2026-04-11T09:04:56.519Z</time></trkpt><trkpt lat="53.5830451" lon="-2.021686"><ele>327.0</ele><time>2026-04-11T09:04:57.515Z</time></trkpt><trkpt lat="53.5831378" lon="-2.021669"><ele>330.8</ele><time>2026-04-11T09:04:58.522Z</time></trkpt><trkpt lat="53.5832196" lon="-2.0216651"><ele>334.6</ele><time>2026-04-11T09:04:59.521Z</time></trkpt><trkpt lat="53.5833166" lon="-2.021692"><ele>338.40000000000003</ele><time>2026-04-11T09:05:01.523Z</time></trkpt><trkpt lat="53.5832977" lon="-2.0218382"><ele>342.20000000000005</ele><time>2026-04-11T09:05:05.522Z</time></trkpt><trkpt lat="53.5833332" lon="-2.0220446"><ele>346.0</ele><time>2026-04-11T09:05:07.523Z</time></trkpt><trkpt lat="53.5833584" lon="-2.0221553"><ele>346.0</ele><time>2026-04-11T09:05:08.523Z</time></trkpt><trkpt lat="53.5833843" lon="-2.0222686"><ele>346.0</ele><time>2026-04-11T09:05:09.522Z</time></trkpt><trkpt lat="53.5834035" lon="-2.0223823"><ele>346.0</ele><time>2026-04-11T09:05:10.523Z</time></trkpt><trkpt lat="53.5834254" lon="-2.0225645"><ele>346.0</ele><time>2026-04-11T09:05:12.522Z</time></trkpt><trkpt lat="53.5833816" lon="-2.0226452"><ele>346.0</ele><time>2026-04-11T09:05:15.523Z</time></trkpt><trkpt lat="53.5832679" lon="-2.0226373"><ele>346.0</ele><time>2026-04-11T09:05:17.522Z</time></trkpt><trkpt lat="53.5832022" lon="-2.0226451"><ele>345.8333333333333</ele><time>2026-04-11T09:05:18.522Z</time></trkpt><trkpt lat="53.583134" lon="-2.0226626"><ele>345.66666666666663</ele><time>2026-04-11T09:05:19.523Z</time></trkpt><trkpt lat="53.5830251" lon="-2.0227166"><ele>345.5</ele><time>2026-04-11T09:05:21.522Z</time></trkpt><trkpt lat="53.5829281" lon="-2.0227973"><ele>345.3333333333333</ele><time>2026-04-11T09:05:23.523Z</time></trkpt><trkpt lat="53.5828722" lon="-2.0228468"><ele>345.1666666666667</ele><time>2026-04-11T09:05:24.522Z</time></trkpt><trkpt lat="53.5828148" lon="-2.0228921"><ele>345.0</ele><time>2026-04-11T09:05:25.523Z</time></trkpt><trkpt lat="53.5827159" lon="-2.0229224"><ele>345.0</ele><time>2026-04-11T09:05:27.514Z</time></trkpt><trkpt lat="53.5826838" lon="-2.022761"><ele>345.0</ele><time>2026-04-11T09:05:29.515Z</time></trkpt><trkpt lat="53.5827169" lon="-2.0226419"><ele>345.0</ele><time>2026-04-11T09:05:30.514Z</time></trkpt><trkpt lat="53.5827702" lon="-2.0225182"><ele>345.0</ele><time>2026-04-11T09:05:31.515Z</time></trkpt><trkpt lat="53.5828256" lon="-2.0224551"><ele>345.0</ele><time>2026-04-11T09:05:32.52Z</time></trkpt><trkpt lat="53.5828999" lon="-2.0223941"><ele>345.0</ele><time>2026-04-11T09:05:34.523Z</time></trkpt><trkpt lat="53.5829819" lon="-2.0223051"><ele>345.2</ele><time>2026-04-11T09:05:37.523Z</time></trkpt><trkpt lat="53.5830719" lon="-2.0221953"><ele>345.4</ele><time>2026-04-11T09:05:39.516Z</time></trkpt><trkpt lat="53.5831678" lon="-2.0220774"><ele>345.6</ele><time>2026-04-11T09:05:41.518Z</time></trkpt><trkpt lat="53.5832329" lon="-2.0219855"><ele>345.8</ele><time>2026-04-11T09:05:43.519Z</time></trkpt><trkpt lat="53.5833358" lon="-2.0219256"><ele>346.0</ele><time>2026-04-11T09:05:45.518Z</time></trkpt><trkpt lat="53.5834028" lon="-2.0219108"><ele>346.0</ele><time>2026-04-11T09:05:46.521Z</time></trkpt><trkpt lat="53.5834895" lon="-2.0218777"><ele>346.0</ele><time>2026-04-11T09:05:48.52Z</time></trkpt><trkpt lat="53.5834668" lon="-2.0217526"><ele>346.0</ele><time>2026-04-11T09:05:51.52Z</time></trkpt><trkpt lat="53.5834254" lon="-2.0216344"><ele>346.0</ele><time>2026-04-11T09:05:53.522Z</time></trkpt><trkpt lat="53.5835035" lon="-2.0215224"><ele>346.0</ele><time>2026-04-11T09:05:55.515Z</time></trkpt><trkpt lat="53.5835841" lon="-2.0215239"><ele>346.0</ele><time>2026-04-11T09:05:56.519Z</time></trkpt><trkpt lat="53.583659" lon="-2.0215206"><ele>345.6</ele><time>2026-04-11T09:05:57.522Z</time></trkpt><trkpt lat="53.5837215" lon="-2.0213995"><ele>345.20000000000005</ele><time>2026-04-11T09:05:59.521Z</time></trkpt><trkpt lat="53.5836657" lon="-2.0212269"><ele>344.79999999999995</ele><time>2026-04-11T09:06:01.521Z</time></trkpt><trkpt lat="53.5836071" lon="-2.0211145"><ele>344.4</ele><time>2026-04-11T09:06:03.523Z</time></trkpt><trkpt lat="53.5835627" lon="-2.0210174"><ele>344.0</ele><time>2026-04-11T09:06:05.524Z</time></trkpt><trkpt lat="53.5835114" lon="-2.0208876"><ele>340.6666666666667</ele><time>2026-04-11T09:06:07.52Z</time></trkpt><trkpt lat="53.5834641" lon="-2.0208117"><ele>337.33333333333337</ele><time>2026-04-11T09:06:08.519Z</time></trkpt><trkpt lat="53.5834018" lon="-2.020733"><ele>334.0</ele><time>2026-04-11T09:06:09.52Z</time></trkpt><trkpt lat="53.5833388" lon="-2.0206625"><ele>330.6666666666667</ele><time>2026-04-11T09:06:10.525Z</time></trkpt><trkpt lat="53.583282" lon="-2.0206131"><ele>327.3333333333333</ele><time>2026-04-11T09:06:11.516Z</time></trkpt><trkpt lat="53.5831892" lon="-2.0206073"><ele>324.0</ele><time>2026-04-11T09:06:13.521Z</time></trkpt><trkpt lat="53.5831138" lon="-2.0206837"><ele>324.6</ele><time>2026-04-11T09:06:15.519Z</time></trkpt><trkpt lat="53.5830134" lon="-2.0208168"><ele>325.2</ele><time>2026-04-11T09:06:17.508Z</time></trkpt><trkpt lat="53.5829448" lon="-2.0209286"><ele>325.8</ele><time>2026-04-11T09:06:18.52Z</time></trkpt><trkpt lat="53.582872" lon="-2.0210664"><ele>326.40000000000003</ele><time>2026-04-11T09:06:19.519Z</time></trkpt><trkpt lat="53.5828049" lon="-2.0212003"><ele>327.0</ele><time>2026-04-11T09:06:20.518Z</time></trkpt><trkpt lat="53.5827565" lon="-2.0213274"><ele>327.0</ele><time>2026-04-11T09:06:21.522Z</time></trkpt><trkpt lat="53.5827198" lon="-2.0214703"><ele>327.0</ele><time>2026-04-11T09:06:22.521Z</time></trkpt><trkpt lat="53.5827104" lon="-2.0216115"><ele>327.0</ele><time>2026-04-11T09:06:23.527Z</time></trkpt><trkpt lat="53.5827434" lon="-2.0217194"><ele>327.0</ele><time>2026-04-11T09:06:24.523Z</time></trkpt><trkpt lat="53.5828154" lon="-2.0217631"><ele>327.0</ele><time>2026-04-11T09:06:25.523Z</time></trkpt><trkpt lat="53.5829078" lon="-2.0217533"><ele>327.0</ele><time>2026-04-11T09:06:26.523Z</time></trkpt><trkpt lat="53.5830119" lon="-2.0217264"><ele>330.8</ele><time>2026-04-11T09:06:27.523Z</time></trkpt><trkpt lat="53.58312" lon="-2.0217085"><ele>334.6</ele><time>2026-04-11T09:06:28.523Z</time></trkpt><trkpt lat="53.5832154" lon="-2.0216985"><ele>338.40000000000003</ele><time>2026-04-11T09:06:29.522Z</time></trkpt><trkpt lat="53.5832861" lon="-2.0216871"><ele>342.20000000000005</ele><time>2026-04-11T09:06:30.524Z</time></trkpt><trkpt lat="53.5833675" lon="-2.0216737"><ele>346.0</ele><time>2026-04-11T09:06:32.519Z</time></trkpt><trkpt lat="53.5833824" lon="-2.0218293"><ele>346.0</ele><time>2026-04-11T09:06:35.523Z</time></trkpt><trkpt lat="53.58333" lon="-2.021984"><ele>346.0</ele><time>2026-04-11T09:06:37.523Z</time></trkpt><trkpt lat="53.5832561" lon="-2.0220697"><ele>346.0</ele><time>2026-04-11T09:06:39.52Z</time></trkpt><trkpt lat="53.5833154" lon="-2.0219559"><ele>346.0</ele><time>2026-04-11T09:06:46.52Z</time></trkpt><trkpt lat="53.5833778" lon="-2.0219404"><ele>346.0</ele><time>2026-04-11T09:06:47.518Z</time></trkpt><trkpt lat="53.583488" lon="-2.0218945"><ele>346.0</ele><time>2026-04-11T09:06:49.519Z</time></trkpt><trkpt lat="53.5835619" lon="-2.0219063"><ele>346.0</ele><time>2026-04-11T09:06:51.522Z</time></trkpt><trkpt lat="53.5836328" lon="-2.0220086"><ele>346.0</ele><time>2026-04-11T09:06:53.522Z</time></trkpt><trkpt lat="53.5836951" lon="-2.0220812"><ele>346.0</ele><time>2026-04-11T09:06:55.52Z</time></trkpt><trkpt lat="53.5837478" lon="-2.0221831"><ele>346.0</ele><time>2026-04-11T09:06:58.519Z</time></trkpt><trkpt lat="53.5837361" lon="-2.0223052"><ele>346.0</ele><time>2026-04-11T09:07:08.513Z</time></trkpt><trkpt lat="53.5837268" lon="-2.022415"><ele>346.0</ele><time>2026-04-11T09:07:12.522Z</time></trkpt><trkpt lat="53.5836441" lon="-2.0224711"><ele>346.0</ele><time>2026-04-11T09:07:38.537Z</time></trkpt><trkpt lat="53.583463" lon="-2.0225757"><ele>346.0</ele><time>2026-04-11T09:07:41.519Z</time></trkpt><trkpt lat="53.583346" lon="-2.0226328"><ele>346.0</ele><time>2026-04-11T09:07:43.525Z</time></trkpt><trkpt lat="53.5832747" lon="-2.0226548"><ele>345.85714285714283</ele><time>2026-04-11T09:07:44.525Z</time></trkpt><trkpt lat="53.5831985" lon="-2.0226752"><ele>345.7142857142857</ele><time>2026-04-11T09:07:45.522Z</time></trkpt><trkpt lat="53.5831224" lon="-2.0226994"><ele>345.57142857142856</ele><time>2026-04-11T09:07:46.523Z</time></trkpt><trkpt lat="53.5830504" lon="-2.0227275"><ele>345.42857142857144</ele><time>2026-04-11T09:07:47.518Z</time></trkpt><trkpt lat="53.5829845" lon="-2.0227619"><ele>345.2857142857143</ele><time>2026-04-11T09:07:48.524Z</time></trkpt><trkpt lat="53.5829219" lon="-2.0228052"><ele>345.14285714285717</ele><time>2026-04-11T09:07:49.525Z</time></trkpt><trkpt lat="53.5828598" lon="-2.0228536"><ele>345.0</ele><time>2026-04-11T09:07:50.522Z</time></trkpt><trkpt lat="53.5827996" lon="-2.0228996"><ele>345.0</ele><time>2026-04-11T09:07:51.522Z</time></trkpt><trkpt lat="53.5827054" lon="-2.02291"><ele>345.0</ele><time>2026-04-11T09:07:53.524Z</time></trkpt><trkpt lat="53.5826957" lon="-2.0227246"><ele>345.0</ele><time>2026-04-11T09:07:55.522Z</time></trkpt><trkpt lat="53.582745" lon="-2.0226023"><ele>345.0</ele><time>2026-04-11T09:07:56.523Z</time></trkpt><trkpt lat="53.5828092" lon="-2.0225019"><ele>345.0</ele><time>2026-04-11T09:07:57.523Z</time></trkpt><trkpt lat="53.5828679" lon="-2.0224292"><ele>345.2</ele><time>2026-04-11T09:07:58.524Z</time></trkpt><trkpt lat="53.5829579" lon="-2.0223478"><ele>345.4</ele><time>2026-04-11T09:08:00.522Z</time></trkpt><trkpt lat="53.5830347" lon="-2.0222545"><ele>345.6</ele><time>2026-04-11T09:08:02.52Z</time></trkpt><trkpt lat="53.5831231" lon="-2.0221491"><ele>345.8</ele><time>2026-04-11T09:08:04.522Z</time></trkpt><trkpt lat="53.5831978" lon="-2.022051"><ele>346.0</ele><time>2026-04-11T09:08:06.52Z</time></trkpt><trkpt lat="53.5832595" lon="-2.021962"><ele>346.0</ele><time>2026-04-11T09:08:08.523Z</time></trkpt><trkpt lat="53.5833399" lon="-2.0219287"><ele>346.0</ele><time>2026-04-11T09:08:10.519Z</time></trkpt><trkpt lat="53.5834125" lon="-2.0219214"><ele>346.0</ele><time>2026-04-11T09:08:12.517Z</time></trkpt><trkpt lat="53.5834848" lon="-2.0219068"><ele>346.0</ele><time>2026-04-11T09:08:14.521Z</time></trkpt><trkpt lat="53.583566" lon="-2.0219432"><ele>346.0</ele><time>2026-04-11T09:08:17.519Z</time></trkpt><trkpt lat="53.5836255" lon="-2.0220284"><ele>346.0</ele><time>2026-04-11T09:08:19.519Z</time></trkpt><trkpt lat="53.5836939" lon="-2.0220915"><ele>347.0</ele><time>2026-04-11T09:08:21.519Z</time></trkpt><trkpt lat="53.5837421" lon="-2.0221773"><ele>348.0</ele><time>2026-04-11T09:08:23.519Z</time></trkpt><trkpt lat="53.5837303" lon="-2.0223294"><ele>349.0</ele><time>2026-04-11T09:08:26.519Z</time></trkpt><trkpt lat="53.5837194" lon="-2.022447"><ele>350.0</ele><time>2026-04-11T09:08:29.523Z</time></trkpt><trkpt lat="53.5836767" lon="-2.0225253"><ele>351.0</ele><time>2026-04-11T09:08:31.526Z</time></trkpt><trkpt lat="53.5837749" lon="-2.0224996"><ele>352.0</ele><time>2026-04-11T09:09:40.532Z</time></trkpt><trkpt lat="53.583914" lon="-2.0224186"><ele>352.16666666666663</ele><time>2026-04-11T09:09:42.518Z</time></trkpt><trkpt lat="53.5839908" lon="-2.0223708"><ele>352.3333333333333</ele><time>2026-04-11T09:09:43.528Z</time></trkpt><trkpt lat="53.5840633" lon="-2.0223243"><ele>352.5</ele><time>2026-04-11T09:09:44.523Z</time></trkpt><trkpt lat="53.5841344" lon="-2.0222752"><ele>352.6666666666667</ele><time>2026-04-11T09:09:45.524Z</time></trkpt><trkpt lat="53.5842048" lon="-2.0222181"><ele>352.83333333333337</ele><time>2026-04-11T09:09:46.519Z</time></trkpt><trkpt lat="53.5842793" lon="-2.0221516"><ele>353.0</ele><time>2026-04-11T09:09:47.526Z</time></trkpt><trkpt lat="53.5843565" lon="-2.0220834"><ele>353.0</ele><time>2026-04-11T09:09:48.527Z</time></trkpt><trkpt lat="53.5844347" lon="-2.0220149"><ele>353.0</ele><time>2026-04-11T09:09:49.525Z</time></trkpt><trkpt lat="53.584519" lon="-2.0219486"><ele>353.0</ele><time>2026-04-11T09:09:50.525Z</time></trkpt><trkpt lat="53.5846036" lon="-2.0218783"><ele>353.0</ele><time>2026-04-11T09:09:51.522Z</time></trkpt><trkpt lat="53.5846865" lon="-2.0218071"><ele>353.0</ele><time>2026-04-11T09:09:52.524Z</time></trkpt><trkpt lat="53.5847612" lon="-2.0217428"><ele>353.79999999999995</ele><time>2026-04-11T09:09:53.526Z</time></trkpt><trkpt lat="53.5848244" lon="-2.021684"><ele>354.6</ele><time>2026-04-11T09:09:54.522Z</time></trkpt><trkpt lat="53.5848839" lon="-2.0216291"><ele>355.4</ele><time>2026-04-11T09:09:55.523Z</time></trkpt><trkpt lat="53.5849392" lon="-2.0215669"><ele>356.20000000000005</ele><time>2026-04-11T09:09:56.522Z</time></trkpt><trkpt lat="53.5850294" lon="-2.0214349"><ele>357.0</ele><time>2026-04-11T09:09:58.526Z</time></trkpt><trkpt lat="53.5851209" lon="-2.0212896"><ele>357.0</ele><time>2026-04-11T09:10:00.523Z</time></trkpt><trkpt lat="53.5851713" lon="-2.0212015"><ele>357.0</ele><time>2026-04-11T09:10:01.526Z</time></trkpt><trkpt lat="53.5852248" lon="-2.0211055"><ele>357.0</ele><time>2026-04-11T09:10:02.526Z</time></trkpt><trkpt lat="53.5852791" lon="-2.0210159"><ele>357.0</ele><time>2026-04-11T09:10:03.529Z</time></trkpt><trkpt lat="53.5853346" lon="-2.020934"><ele>357.0</ele><time>2026-04-11T09:10:04.528Z</time></trkpt><trkpt lat="53.5853939" lon="-2.0208587"><ele>357.0</ele><time>2026-04-11T09:10:05.523Z</time></trkpt><trkpt lat="53.5854544" lon="-2.0207871"><ele>357.0</ele><time>2026-04-11T09:10:06.526Z</time></trkpt><trkpt lat="53.5855115" lon="-2.0207158"><ele>357.20000000000005</ele><time>2026-04-11T09:10:07.526Z</time></trkpt><trkpt lat="53.5855621" lon="-2.0206477"><ele>357.4</ele><time>2026-04-11T09:10:08.518Z</time></trkpt><trkpt lat="53.5856371" lon="-2.0205511"><ele>357.6</ele><time>2026-04-11T09:10:10.529Z</time></trkpt><trkpt lat="53.5857555" lon="-2.0204191"><ele>357.79999999999995</ele><time>2026-04-11T09:11:26.524Z</time></trkpt><trkpt lat="53.5858166" lon="-2.0203138"><ele>358.0</ele><time>2026-04-11T09:11:52.529Z</time></trkpt><trkpt lat="53.5858683" lon="-2.0202506"><ele>358.0</ele><time>2026-04-11T09:11:53.529Z</time></trkpt><trkpt lat="53.585921" lon="-2.0201745"><ele>358.0</ele><time>2026-04-11T09:11:54.529Z</time></trkpt><trkpt lat="53.5859742" lon="-2.0201153"><ele>358.0</ele><time>2026-04-11T09:11:55.529Z</time></trkpt><trkpt lat="53.5860332" lon="-2.0200583"><ele>358.0</ele><time>2026-04-11T09:11:56.527Z</time></trkpt><trkpt lat="53.5861291" lon="-2.0199945"><ele>358.0</ele><time>2026-04-11T09:11:58.526Z</time></trkpt><trkpt lat="53.5862133" lon="-2.0199208"><ele>358.0</ele><time>2026-04-11T09:12:00.525Z</time></trkpt><trkpt lat="53.5863074" lon="-2.0198305"><ele>357.0</ele><time>2026-04-11T09:12:02.53Z</time></trkpt><trkpt lat="53.5863631" lon="-2.0197748"><ele>356.0</ele><time>2026-04-11T09:12:03.533Z</time></trkpt><trkpt lat="53.5864777" lon="-2.0196564"><ele>355.0</ele><time>2026-04-11T09:12:05.523Z</time></trkpt><trkpt lat="53.5865837" lon="-2.0195701"><ele>354.0</ele><time>2026-04-11T09:12:07.519Z</time></trkpt><trkpt lat="53.5866958" lon="-2.0194779"><ele>353.0</ele><time>2026-04-11T09:12:09.524Z</time></trkpt><trkpt lat="53.5868005" lon="-2.019374"><ele>353.0</ele><time>2026-04-11T09:12:11.523Z</time></trkpt><trkpt lat="53.5868904" lon="-2.0192735"><ele>353.0</ele><time>2026-04-11T09:12:13.525Z</time></trkpt><trkpt lat="53.5869805" lon="-2.019156"><ele>353.0</ele><time>2026-04-11T09:12:15.524Z</time></trkpt><trkpt lat="53.587086" lon="-2.0190445"><ele>353.0</ele><time>2026-04-11T09:12:17.525Z</time></trkpt><trkpt lat="53.587188" lon="-2.018939"><ele>351.2</ele><time>2026-04-11T09:12:19.524Z</time></trkpt><trkpt lat="53.5872983" lon="-2.018839"><ele>349.4</ele><time>2026-04-11T09:12:21.523Z</time></trkpt><trkpt lat="53.5873572" lon="-2.0187876"><ele>347.59999999999997</ele><time>2026-04-11T09:12:22.524Z</time></trkpt><trkpt lat="53.5874155" lon="-2.0187423"><ele>345.79999999999995</ele><time>2026-04-11T09:12:23.528Z</time></trkpt><trkpt lat="53.5875212" lon="-2.018659"><ele>344.0</ele><time>2026-04-11T09:12:25.523Z</time></trkpt><trkpt lat="53.5876245" lon="-2.0185784"><ele>344.0</ele><time>2026-04-11T09:12:27.523Z</time></trkpt><trkpt lat="53.5877311" lon="-2.018492"><ele>344.0</ele><time>2026-04-11T09:12:29.524Z</time></trkpt><trkpt lat="53.587833" lon="-2.0184054"><ele>344.0</ele><time>2026-04-11T09:12:31.526Z</time></trkpt><trkpt lat="53.5879332" lon="-2.018317"><ele>344.0</ele><time>2026-04-11T09:12:33.528Z</time></trkpt><trkpt lat="53.5880354" lon="-2.0182362"><ele>343.33333333333337</ele><time>2026-04-11T09:12:35.525Z</time></trkpt><trkpt lat="53.5881429" lon="-2.0181405"><ele>342.6666666666667</ele><time>2026-04-11T09:12:37.523Z</time></trkpt><trkpt lat="53.5882017" lon="-2.0180809"><ele>342.0</ele><time>2026-04-11T09:12:38.528Z</time></trkpt><trkpt lat="53.5882609" lon="-2.0180234"><ele>341.3333333333333</ele><time>2026-04-11T09:12:39.526Z</time></trkpt><trkpt lat="53.5883164" lon="-2.0179695"><ele>340.66666666666663</ele><time>2026-04-11T09:12:40.527Z</time></trkpt><trkpt lat="53.5884189" lon="-2.0178783"><ele>340.0</ele><time>2026-04-11T09:12:42.524Z</time></trkpt><trkpt lat="53.5885068" lon="-2.0177702"><ele>340.0</ele><time>2026-04-11T09:12:44.526Z</time></trkpt><trkpt lat="53.5885673" lon="-2.0178136"><ele>340.0</ele><time>2026-04-11T09:13:35.525Z</time></trkpt><trkpt lat="53.58857" lon="-2.0180398"><ele>340.0</ele><time>2026-04-11T09:13:37.523Z</time></trkpt><trkpt lat="53.5885653" lon="-2.0181865"><ele>340.0</ele><time>2026-04-11T09:13:38.528Z</time></trkpt><trkpt lat="53.5885602" lon="-2.0183412"><ele>340.0</ele><time>2026-04-11T09:13:39.53Z</time></trkpt><trkpt lat="53.5885586" lon="-2.0184944"><ele>340.0</ele><time>2026-04-11T09:13:40.526Z</time></trkpt><trkpt lat="53.5885519" lon="-2.0186511"><ele>340.0</ele><time>2026-04-11T09:13:41.523Z</time></trkpt><trkpt lat="53.588544" lon="-2.0188157"><ele>340.0</ele><time>2026-04-11T09:13:42.523Z</time></trkpt><trkpt lat="53.5885379" lon="-2.0189862"><ele>340.0</ele><time>2026-04-11T09:13:43.527Z</time></trkpt><trkpt lat="53.5885301" lon="-2.0191599"><ele>340.0</ele><time>2026-04-11T09:13:44.526Z</time></trkpt><trkpt lat="53.5885235" lon="-2.0193371"><ele>340.0</ele><time>2026-04-11T09:13:45.523Z</time></trkpt><trkpt lat="53.588518" lon="-2.0195173"><ele>340.0</ele><time>2026-04-11T09:13:46.525Z</time></trkpt><trkpt lat="53.5885117" lon="-2.0196902"><ele>340.0</ele><time>2026-04-11T09:13:47.522Z</time></trkpt><trkpt lat="53.5885024" lon="-2.0198594"><ele>340.0</ele><time>2026-04-11T09:13:48.524Z</time></trkpt><trkpt lat="53.5884942" lon="-2.0200261"><ele>340.0</ele><time>2026-04-11T09:13:49.524Z</time></trkpt><trkpt lat="53.5884872" lon="-2.0201941"><ele>340.0</ele><time>2026-04-11T09:13:50.525Z</time></trkpt><trkpt lat="53.5884805" lon="-2.0203684"><ele>340.0</ele><time>2026-04-11T09:13:51.525Z</time></trkpt><trkpt lat="53.5884774" lon="-2.0205546"><ele>340.0</ele><time>2026-04-11T09:13:52.525Z</time></trkpt><trkpt lat="53.5884805" lon="-2.0207505"><ele>340.0</ele><time>2026-04-11T09:13:53.53Z</time></trkpt><trkpt lat="53.5884904" lon="-2.0209395"><ele>340.0</ele><time>2026-04-11T09:13:54.523Z</time></trkpt><trkpt lat="53.5885064" lon="-2.0211062"><ele>340.16666666666663</ele><time>2026-04-11T09:13:55.523Z</time></trkpt><trkpt lat="53.5885301" lon="-2.0212518"><ele>340.3333333333333</ele><time>2026-04-11T09:13:56.522Z</time></trkpt><trkpt lat="53.5885603" lon="-2.0213882"><ele>340.5</ele><time>2026-04-11T09:13:57.522Z</time></trkpt><trkpt lat="53.5885893" lon="-2.0215281"><ele>340.6666666666667</ele><time>2026-04-11T09:13:58.521Z</time></trkpt><trkpt lat="53.5886144" lon="-2.0216728"><ele>340.83333333333337</ele><time>2026-04-11T09:13:59.522Z</time></trkpt><trkpt lat="53.5886382" lon="-2.0218278"><ele>341.0</ele><time>2026-04-11T09:14:00.522Z</time></trkpt><trkpt lat="53.588661" lon="-2.0219924"><ele>338.4</ele><time>2026-04-11T09:14:01.525Z</time></trkpt><trkpt lat="53.5886837" lon="-2.0221707"><ele>335.8</ele><time>2026-04-11T09:14:02.522Z</time></trkpt><trkpt lat="53.588708" lon="-2.0223554"><ele>333.2</ele><time>2026-04-11T09:14:03.526Z</time></trkpt><trkpt lat="53.5887307" lon="-2.0225436"><ele>330.59999999999997</ele><time>2026-04-11T09:14:04.527Z</time></trkpt><trkpt lat="53.5887474" lon="-2.0227244"><ele>328.0</ele><time>2026-04-11T09:14:05.526Z</time></trkpt><trkpt lat="53.5887574" lon="-2.0228976"><ele>328.0</ele><time>2026-04-11T09:14:06.525Z</time></trkpt><trkpt lat="53.588761" lon="-2.0230668"><ele>328.0</ele><time>2026-04-11T09:14:07.523Z</time></trkpt><trkpt lat="53.5887626" lon="-2.0232437"><ele>328.0</ele><time>2026-04-11T09:14:08.525Z</time></trkpt><trkpt lat="53.5887626" lon="-2.0234286"><ele>328.0</ele><time>2026-04-11T09:14:09.528Z</time></trkpt><trkpt lat="53.5887627" lon="-2.023622"><ele>328.0</ele><time>2026-04-11T09:14:10.525Z</time></trkpt><trkpt lat="53.5887591" lon="-2.0238256"><ele>327.5</ele><time>2026-04-11T09:14:11.522Z</time></trkpt><trkpt lat="53.5887535" lon="-2.0240397"><ele>327.0</ele><time>2026-04-11T09:14:12.521Z</time></trkpt><trkpt lat="53.5887491" lon="-2.024262"><ele>326.5</ele><time>2026-04-11T09:14:13.515Z</time></trkpt><trkpt lat="53.588743" lon="-2.0244841"><ele>326.0</ele><time>2026-04-11T09:14:14.521Z</time></trkpt><trkpt lat="53.5887356" lon="-2.0246969"><ele>324.75</ele><time>2026-04-11T09:14:15.523Z</time></trkpt><trkpt lat="53.5887201" lon="-2.0249028"><ele>323.5</ele><time>2026-04-11T09:14:16.523Z</time></trkpt><trkpt lat="53.5886934" lon="-2.0250997"><ele>322.25</ele><time>2026-04-11T09:14:17.521Z</time></trkpt><trkpt lat="53.5886596" lon="-2.0252875"><ele>321.0</ele><time>2026-04-11T09:14:18.519Z</time></trkpt><trkpt lat="53.5886302" lon="-2.0254673"><ele>322.8333333333333</ele><time>2026-04-11T09:14:19.52Z</time></trkpt><trkpt lat="53.5886176" lon="-2.0256391"><ele>324.6666666666667</ele><time>2026-04-11T09:14:20.522Z</time></trkpt><trkpt lat="53.5886195" lon="-2.0257916"><ele>326.5</ele><time>2026-04-11T09:14:21.52Z</time></trkpt><trkpt lat="53.5886268" lon="-2.0259145"><ele>328.33333333333337</ele><time>2026-04-11T09:14:22.523Z</time></trkpt><trkpt lat="53.5886297" lon="-2.0260769"><ele>330.1666666666667</ele><time>2026-04-11T09:14:24.523Z</time></trkpt><trkpt lat="53.5886125" lon="-2.0259402"><ele>332.0</ele><time>2026-04-11T09:14:41.521Z</time></trkpt><trkpt lat="53.5886196" lon="-2.0257318"><ele>332.8</ele><time>2026-04-11T09:14:43.522Z</time></trkpt><trkpt lat="53.588624" lon="-2.0255855"><ele>333.6</ele><time>2026-04-11T09:14:44.524Z</time></trkpt><trkpt lat="53.5886313" lon="-2.0254152"><ele>334.40000000000003</ele><time>2026-04-11T09:14:45.52Z</time></trkpt><trkpt lat="53.5886545" lon="-2.0252258"><ele>335.20000000000005</ele><time>2026-04-11T09:14:46.522Z</time></trkpt><trkpt lat="53.5886881" lon="-2.0250366"><ele>336.0</ele><time>2026-04-11T09:14:47.523Z</time></trkpt><trkpt lat="53.5887181" lon="-2.0248398"><ele>334.0</ele><time>2026-04-11T09:14:48.524Z</time></trkpt><trkpt lat="53.5887398" lon="-2.0246542"><ele>332.0</ele><time>2026-04-11T09:14:49.522Z</time></trkpt><trkpt lat="53.5887507" lon="-2.0244818"><ele>330.0</ele><time>2026-04-11T09:14:50.522Z</time></trkpt><trkpt lat="53.588751" lon="-2.0243061"><ele>328.0</ele><time>2026-04-11T09:14:51.523Z</time></trkpt><trkpt lat="53.5887514" lon="-2.0241292"><ele>326.0</ele><time>2026-04-11T09:14:52.524Z</time></trkpt><trkpt lat="53.5887504" lon="-2.0239452"><ele>326.0</ele><time>2026-04-11T09:14:53.522Z</time></trkpt><trkpt lat="53.5887505" lon="-2.0237545"><ele>326.0</ele><time>2026-04-11T09:14:54.523Z</time></trkpt><trkpt lat="53.5887504" lon="-2.0235568"><ele>326.0</ele><time>2026-04-11T09:14:55.524Z</time></trkpt><trkpt lat="53.5887507" lon="-2.0233543"><ele>326.0</ele><time>2026-04-11T09:14:56.515Z</time></trkpt><trkpt lat="53.5887501" lon="-2.0231473"><ele>326.25</ele><time>2026-04-11T09:14:57.523Z</time></trkpt><trkpt lat="53.5887478" lon="-2.0229354"><ele>326.5</ele><time>2026-04-11T09:14:58.525Z</time></trkpt><trkpt lat="53.5887431" lon="-2.0227166"><ele>326.75</ele><time>2026-04-11T09:14:59.523Z</time></trkpt><trkpt lat="53.5887302" lon="-2.0224788"><ele>327.0</ele><time>2026-04-11T09:15:00.523Z</time></trkpt><trkpt lat="53.5887015" lon="-2.0222179"><ele>331.6666666666667</ele><time>2026-04-11T09:15:01.524Z</time></trkpt><trkpt lat="53.5886648" lon="-2.0219284"><ele>336.33333333333337</ele><time>2026-04-11T09:15:02.525Z</time></trkpt><trkpt lat="53.58863" lon="-2.0216444"><ele>341.0</ele><time>2026-04-11T09:15:03.525Z</time></trkpt><trkpt lat="53.5885978" lon="-2.0213953"><ele>341.0</ele><time>2026-04-11T09:15:04.525Z</time></trkpt><trkpt lat="53.5885659" lon="-2.0211826"><ele>341.0</ele><time>2026-04-11T09:15:05.525Z</time></trkpt><trkpt lat="53.5885346" lon="-2.0209875"><ele>341.0</ele><time>2026-04-11T09:15:06.524Z</time></trkpt><trkpt lat="53.5885086" lon="-2.0207942"><ele>341.0</ele><time>2026-04-11T09:15:07.522Z</time></trkpt><trkpt lat="53.5884924" lon="-2.0205926"><ele>340.75</ele><time>2026-04-11T09:15:08.525Z</time></trkpt><trkpt lat="53.5884868" lon="-2.0203735"><ele>340.5</ele><time>2026-04-11T09:15:09.525Z</time></trkpt><trkpt lat="53.5884926" lon="-2.020143"><ele>340.25</ele><time>2026-04-11T09:15:10.524Z</time></trkpt><trkpt lat="53.5885047" lon="-2.0199049"><ele>340.0</ele><time>2026-04-11T09:15:11.524Z</time></trkpt><trkpt lat="53.5885192" lon="-2.0196699"><ele>340.0</ele><time>2026-04-11T09:15:12.525Z</time></trkpt><trkpt lat="53.588529" lon="-2.0194388"><ele>340.0</ele><time>2026-04-11T09:15:13.527Z</time></trkpt><trkpt lat="53.5885356" lon="-2.0192136"><ele>340.0</ele><time>2026-04-11T09:15:14.524Z</time></trkpt><trkpt lat="53.5885407" lon="-2.0189916"><ele>340.0</ele><time>2026-04-11T09:15:15.523Z</time></trkpt><trkpt lat="53.5885442" lon="-2.0187711"><ele>340.0</ele><time>2026-04-11T09:15:16.525Z</time></trkpt><trkpt lat="53.5885458" lon="-2.0185668"><ele>340.0</ele><time>2026-04-11T09:15:17.526Z</time></trkpt><trkpt lat="53.5885456" lon="-2.0183782"><ele>340.0</ele><time>2026-04-11T09:15:18.526Z</time></trkpt><trkpt lat="53.5885484" lon="-2.0181936"><ele>340.0</ele><time>2026-04-11T09:15:19.535Z</time></trkpt><trkpt lat="53.5885509" lon="-2.0180276"><ele>340.0</ele><time>2026-04-11T09:15:20.527Z</time></trkpt><trkpt lat="53.5885492" lon="-2.0178924"><ele>340.0</ele><time>2026-04-11T09:15:21.527Z</time></trkpt><trkpt lat="53.5885424" lon="-2.017717"><ele>340.0</ele><time>2026-04-11T09:15:23.528Z</time></trkpt><trkpt lat="53.5885028" lon="-2.0175995"><ele>340.0</ele><time>2026-04-11T09:15:26.527Z</time></trkpt><trkpt lat="53.588426" lon="-2.0174884"><ele>340.0</ele><time>2026-04-11T09:16:04.523Z</time></trkpt><trkpt lat="53.5883563" lon="-2.0173001"><ele>340.0</ele><time>2026-04-11T09:16:06.527Z</time></trkpt><trkpt lat="53.5883147" lon="-2.0171919"><ele>340.0</ele><time>2026-04-11T09:16:07.525Z</time></trkpt><trkpt lat="53.5882714" lon="-2.0170859"><ele>340.0</ele><time>2026-04-11T09:16:08.525Z</time></trkpt><trkpt lat="53.5882298" lon="-2.0169803"><ele>340.0</ele><time>2026-04-11T09:16:09.529Z</time></trkpt><trkpt lat="53.588191" lon="-2.0168807"><ele>340.0</ele><time>2026-04-11T09:16:10.526Z</time></trkpt><trkpt lat="53.5881455" lon="-2.0167796"><ele>340.0</ele><time>2026-04-11T09:16:11.523Z</time></trkpt><trkpt lat="53.5880948" lon="-2.0166748"><ele>340.0</ele><time>2026-04-11T09:16:12.525Z</time></trkpt><trkpt lat="53.5880482" lon="-2.0165691"><ele>340.14285714285717</ele><time>2026-04-11T09:16:13.522Z</time></trkpt><trkpt lat="53.5880093" lon="-2.0164591"><ele>340.2857142857143</ele><time>2026-04-11T09:16:14.527Z</time></trkpt><trkpt lat="53.5879733" lon="-2.016347"><ele>340.42857142857144</ele><time>2026-04-11T09:16:15.525Z</time></trkpt><trkpt lat="53.5879399" lon="-2.0162371"><ele>340.57142857142856</ele><time>2026-04-11T09:16:16.526Z</time></trkpt><trkpt lat="53.5879055" lon="-2.0161288"><ele>340.7142857142857</ele><time>2026-04-11T09:16:17.519Z</time></trkpt><trkpt lat="53.5878713" lon="-2.0160203"><ele>340.85714285714283</ele><time>2026-04-11T09:16:18.524Z</time></trkpt><trkpt lat="53.5878385" lon="-2.0159134"><ele>341.0</ele><time>2026-04-11T09:16:19.524Z</time></trkpt><trkpt lat="53.5878042" lon="-2.015805"><ele>337.1428571428571</ele><time>2026-04-11T09:16:20.518Z</time></trkpt><trkpt lat="53.5877704" lon="-2.0156932"><ele>333.2857142857143</ele><time>2026-04-11T09:16:21.523Z</time></trkpt><trkpt lat="53.5877431" lon="-2.0155818"><ele>329.42857142857144</ele><time>2026-04-11T09:16:22.52Z</time></trkpt><trkpt lat="53.5877183" lon="-2.0154732"><ele>325.57142857142856</ele><time>2026-04-11T09:16:23.524Z</time></trkpt><trkpt lat="53.5876898" lon="-2.0153629"><ele>321.7142857142857</ele><time>2026-04-11T09:16:24.524Z</time></trkpt><trkpt lat="53.5876565" lon="-2.0152496"><ele>317.85714285714283</ele><time>2026-04-11T09:16:25.521Z</time></trkpt><trkpt lat="53.5876236" lon="-2.015141"><ele>314.0</ele><time>2026-04-11T09:16:26.522Z</time></trkpt><trkpt lat="53.5875971" lon="-2.0150385"><ele>313.33333333333337</ele><time>2026-04-11T09:16:27.519Z</time></trkpt><trkpt lat="53.5875787" lon="-2.0149329"><ele>312.6666666666667</ele><time>2026-04-11T09:16:28.516Z</time></trkpt><trkpt lat="53.5875529" lon="-2.0147351"><ele>312.0</ele><time>2026-04-11T09:16:30.523Z</time></trkpt><trkpt lat="53.5875453" lon="-2.0146295"><ele>311.3333333333333</ele><time>2026-04-11T09:16:31.521Z</time></trkpt><trkpt lat="53.5875384" lon="-2.0145227"><ele>310.66666666666663</ele><time>2026-04-11T09:16:32.522Z</time></trkpt><trkpt lat="53.5875273" lon="-2.0144107"><ele>310.0</ele><time>2026-04-11T09:16:33.526Z</time></trkpt><trkpt lat="53.5875113" lon="-2.0142947"><ele>310.0</ele><time>2026-04-11T09:16:34.524Z</time></trkpt><trkpt lat="53.5874951" lon="-2.0141708"><ele>310.0</ele><time>2026-04-11T09:16:35.524Z</time></trkpt><trkpt lat="53.5874712" lon="-2.0140473"><ele>310.0</ele><time>2026-04-11T09:16:36.523Z</time></trkpt><trkpt lat="53.5874463" lon="-2.0139325"><ele>310.0</ele><time>2026-04-11T09:16:37.522Z</time></trkpt><trkpt lat="53.5874207" lon="-2.013827"><ele>310.0</ele><time>2026-04-11T09:16:38.521Z</time></trkpt><trkpt lat="53.5873661" lon="-2.0136619"><ele>310.0</ele><time>2026-04-11T09:16:40.524Z</time></trkpt><trkpt lat="53.5873033" lon="-2.0135069"><ele>307.16666666666663</ele><time>2026-04-11T09:16:42.513Z</time></trkpt><trkpt lat="53.5872581" lon="-2.0133171"><ele>304.3333333333333</ele><time>2026-04-11T09:16:44.516Z</time></trkpt><trkpt lat="53.5872529" lon="-2.0132111"><ele>301.5</ele><time>2026-04-11T09:16:45.514Z</time></trkpt><trkpt lat="53.5872584" lon="-2.013097"><ele>298.6666666666667</ele><time>2026-04-11T09:16:46.515Z</time></trkpt><trkpt lat="53.5872675" lon="-2.0129841"><ele>295.83333333333337</ele><time>2026-04-11T09:16:47.519Z</time></trkpt><trkpt lat="53.5872766" lon="-2.0128734"><ele>293.0</ele><time>2026-04-11T09:16:48.517Z</time></trkpt><trkpt lat="53.5872959" lon="-2.0127054"><ele>293.0</ele><time>2026-04-11T09:16:50.516Z</time></trkpt><trkpt lat="53.5873095" lon="-2.0125698"><ele>293.0</ele><time>2026-04-11T09:16:52.519Z</time></trkpt><trkpt lat="53.5873023" lon="-2.0124459"><ele>293.0</ele><time>2026-04-11T09:16:54.518Z</time></trkpt><trkpt lat="53.5872517" lon="-2.0123252"><ele>293.0</ele><time>2026-04-11T09:16:56.515Z</time></trkpt><trkpt lat="53.5871765" lon="-2.01224"><ele>293.0</ele><time>2026-04-11T09:16:58.513Z</time></trkpt><trkpt lat="53.5870825" lon="-2.0121819"><ele>293.0</ele><time>2026-04-11T09:17:00.52Z</time></trkpt><trkpt lat="53.5869976" lon="-2.0121268"><ele>288.5</ele><time>2026-04-11T09:17:02.522Z</time></trkpt><trkpt lat="53.5869337" lon="-2.0120593"><ele>284.0</ele><time>2026-04-11T09:17:04.523Z</time></trkpt><trkpt lat="53.5868683" lon="-2.0119728"><ele>279.5</ele><time>2026-04-11T09:17:07.526Z</time></trkpt><trkpt lat="53.5867893" lon="-2.0119358"><ele>275.0</ele><time>2026-04-11T09:17:47.516Z</time></trkpt><trkpt lat="53.5867359" lon="-2.011874"><ele>270.5</ele><time>2026-04-11T09:17:49.522Z</time></trkpt><trkpt lat="53.5867524" lon="-2.0117526"><ele>266.0</ele><time>2026-04-11T09:17:51.521Z</time></trkpt><trkpt lat="53.586837" lon="-2.0115867"><ele>265.0</ele><time>2026-04-11T09:17:53.522Z</time></trkpt><trkpt lat="53.5868864" lon="-2.0114915"><ele>264.0</ele><time>2026-04-11T09:17:54.518Z</time></trkpt><trkpt lat="53.5869379" lon="-2.0113908"><ele>263.0</ele><time>2026-04-11T09:17:55.523Z</time></trkpt><trkpt lat="53.5869874" lon="-2.0112795"><ele>262.0</ele><time>2026-04-11T09:17:56.522Z</time></trkpt><trkpt lat="53.5870364" lon="-2.011159"><ele>261.0</ele><time>2026-04-11T09:17:57.52Z</time></trkpt><trkpt lat="53.5870836" lon="-2.0110367"><ele>260.0</ele><time>2026-04-11T09:17:58.52Z</time></trkpt><trkpt lat="53.5871342" lon="-2.0109203"><ele>261.0</ele><time>2026-04-11T09:17:59.517Z</time></trkpt><trkpt lat="53.587189" lon="-2.0108028"><ele>262.0</ele><time>2026-04-11T09:18:00.522Z</time></trkpt><trkpt lat="53.5872414" lon="-2.0106759"><ele>263.0</ele><time>2026-04-11T09:18:01.523Z</time></trkpt><trkpt lat="53.5872874" lon="-2.0105445"><ele>264.0</ele><time>2026-04-11T09:18:02.522Z</time></trkpt><trkpt lat="53.587327" lon="-2.0104161"><ele>265.0</ele><time>2026-04-11T09:18:03.519Z</time></trkpt><trkpt lat="53.5873672" lon="-2.0102859"><ele>266.0</ele><time>2026-04-11T09:18:04.522Z</time></trkpt><trkpt lat="53.5874159" lon="-2.0101571"><ele>266.0</ele><time>2026-04-11T09:18:05.523Z</time></trkpt><trkpt lat="53.5874779" lon="-2.0100269"><ele>266.0</ele><time>2026-04-11T09:18:06.523Z</time></trkpt><trkpt lat="53.5875515" lon="-2.0098948"><ele>266.0</ele><time>2026-04-11T09:18:07.52Z</time></trkpt><trkpt lat="53.587627" lon="-2.0097664"><ele>266.0</ele><time>2026-04-11T09:18:08.522Z</time></trkpt><trkpt lat="53.5876938" lon="-2.0096518"><ele>266.0</ele><time>2026-04-11T09:18:09.518Z</time></trkpt><trkpt lat="53.587746" lon="-2.0095448"><ele>264.6</ele><time>2026-04-11T09:18:10.523Z</time></trkpt><trkpt lat="53.58778" lon="-2.009443"><ele>263.20000000000005</ele><time>2026-04-11T09:18:11.516Z</time></trkpt><trkpt lat="53.5877797" lon="-2.0092434"><ele>261.79999999999995</ele><time>2026-04-11T09:18:13.523Z</time></trkpt><trkpt lat="53.5877339" lon="-2.0091394"><ele>260.4</ele><time>2026-04-11T09:18:14.521Z</time></trkpt><trkpt lat="53.5876596" lon="-2.0090265"><ele>259.0</ele><time>2026-04-11T09:18:15.519Z</time></trkpt><trkpt lat="53.5875599" lon="-2.0089203"><ele>258.5</ele><time>2026-04-11T09:18:16.516Z</time></trkpt><trkpt lat="53.5874444" lon="-2.0088118"><ele>258.0</ele><time>2026-04-11T09:18:17.522Z</time></trkpt><trkpt lat="53.5873304" lon="-2.0086982"><ele>257.5</ele><time>2026-04-11T09:18:18.519Z</time></trkpt><trkpt lat="53.587218" lon="-2.0085818"><ele>257.0</ele><time>2026-04-11T09:18:19.521Z</time></trkpt><trkpt lat="53.5871082" lon="-2.0084562"><ele>256.0</ele><time>2026-04-11T09:18:20.513Z</time></trkpt><trkpt lat="53.5869988" lon="-2.0083221"><ele>255.0</ele><time>2026-04-11T09:18:21.521Z</time></trkpt><trkpt lat="53.5868889" lon="-2.0081765"><ele>254.0</ele><time>2026-04-11T09:18:22.522Z</time></trkpt><trkpt lat="53.5867756" lon="-2.0080289"><ele>253.0</ele><time>2026-04-11T09:18:23.522Z</time></trkpt><trkpt lat="53.5866699" lon="-2.0078853"><ele>253.0</ele><time>2026-04-11T09:18:24.523Z</time></trkpt><trkpt lat="53.5865706" lon="-2.0077468"><ele>253.0</ele><time>2026-04-11T09:18:25.526Z</time></trkpt><trkpt lat="53.5864696" lon="-2.0076122"><ele>253.0</ele><time>2026-04-11T09:18:26.523Z</time></trkpt><trkpt lat="53.586363" lon="-2.0074774"><ele>253.0</ele><time>2026-04-11T09:18:27.523Z</time></trkpt><trkpt lat="53.5862551" lon="-2.0073375"><ele>252.5</ele><time>2026-04-11T09:18:28.524Z</time></trkpt><trkpt lat="53.5861463" lon="-2.0071968"><ele>252.0</ele><time>2026-04-11T09:18:29.523Z</time></trkpt><trkpt lat="53.5860378" lon="-2.0070581"><ele>251.5</ele><time>2026-04-11T09:18:30.524Z</time></trkpt><trkpt lat="53.5859328" lon="-2.0069202"><ele>251.0</ele><time>2026-04-11T09:18:31.524Z</time></trkpt><trkpt lat="53.5858283" lon="-2.0067797"><ele>252.5</ele><time>2026-04-11T09:18:32.525Z</time></trkpt><trkpt lat="53.5857174" lon="-2.0066398"><ele>254.0</ele><time>2026-04-11T09:18:33.53Z</time></trkpt><trkpt lat="53.5856064" lon="-2.0064951"><ele>255.5</ele><time>2026-04-11T09:18:34.53Z</time></trkpt><trkpt lat="53.5854898" lon="-2.0063459"><ele>257.0</ele><time>2026-04-11T09:18:35.527Z</time></trkpt><trkpt lat="53.5853708" lon="-2.006194"><ele>256.75</ele><time>2026-04-11T09:18:36.529Z</time></trkpt><trkpt lat="53.5852551" lon="-2.0060448"><ele>256.5</ele><time>2026-04-11T09:18:37.533Z</time></trkpt><trkpt lat="53.5851412" lon="-2.0059033"><ele>256.25</ele><time>2026-04-11T09:18:38.536Z</time></trkpt><trkpt lat="53.5850283" lon="-2.0057667"><ele>256.0</ele><time>2026-04-11T09:18:39.534Z</time></trkpt><trkpt lat="53.584923" lon="-2.005635"><ele>256.8</ele><time>2026-04-11T09:18:40.523Z</time></trkpt><trkpt lat="53.5848295" lon="-2.0055149"><ele>257.6</ele><time>2026-04-11T09:18:41.527Z</time></trkpt><trkpt lat="53.5847467" lon="-2.0054141"><ele>258.4</ele><time>2026-04-11T09:18:42.528Z</time></trkpt><trkpt lat="53.5846757" lon="-2.005327"><ele>259.2</ele><time>2026-04-11T09:18:43.531Z</time></trkpt><trkpt lat="53.5846183" lon="-2.0052598"><ele>260.0</ele><time>2026-04-11T09:18:44.527Z</time></trkpt><trkpt lat="53.5845174" lon="-2.005227"><ele>259.6</ele><time>2026-04-11T09:18:46.529Z</time></trkpt><trkpt lat="53.5844423" lon="-2.0053044"><ele>259.2</ele><time>2026-04-11T09:18:48.529Z</time></trkpt><trkpt lat="53.5844016" lon="-2.0054926"><ele>258.8</ele><time>2026-04-11T09:18:50.528Z</time></trkpt><trkpt lat="53.5843808" lon="-2.0056332"><ele>258.4</ele><time>2026-04-11T09:18:51.527Z</time></trkpt><trkpt lat="53.5843577" lon="-2.0058028"><ele>258.0</ele><time>2026-04-11T09:18:52.529Z</time></trkpt><trkpt lat="53.5843325" lon="-2.005981"><ele>258.0</ele><time>2026-04-11T09:18:53.53Z</time></trkpt><trkpt lat="53.5843025" lon="-2.0061462"><ele>258.0</ele><time>2026-04-11T09:18:54.532Z</time></trkpt><trkpt lat="53.5842765" lon="-2.0063017"><ele>258.0</ele><time>2026-04-11T09:18:55.528Z</time></trkpt><trkpt lat="53.5842535" lon="-2.0064472"><ele>258.0</ele><time>2026-04-11T09:18:56.53Z</time></trkpt><trkpt lat="53.5842318" lon="-2.0065884"><ele>258.0</ele><time>2026-04-11T09:18:57.528Z</time></trkpt><trkpt lat="53.5842092" lon="-2.0067252"><ele>256.8</ele><time>2026-04-11T09:18:58.528Z</time></trkpt><trkpt lat="53.5841863" lon="-2.006851"><ele>255.60000000000002</ele><time>2026-04-11T09:18:59.527Z</time></trkpt><trkpt lat="53.5841621" lon="-2.0069644"><ele>254.39999999999998</ele><time>2026-04-11T09:19:00.529Z</time></trkpt><trkpt lat="53.5841361" lon="-2.0070714"><ele>253.2</ele><time>2026-04-11T09:19:01.532Z</time></trkpt><trkpt lat="53.5840828" lon="-2.00726"><ele>252.0</ele><time>2026-04-11T09:19:03.529Z</time></trkpt><trkpt lat="53.5840367" lon="-2.0074425"><ele>249.8</ele><time>2026-04-11T09:19:05.528Z</time></trkpt><trkpt lat="53.5839991" lon="-2.0076322"><ele>247.6</ele><time>2026-04-11T09:19:07.529Z</time></trkpt><trkpt lat="53.5839616" lon="-2.0078317"><ele>245.40000000000003</ele><time>2026-04-11T09:19:09.53Z</time></trkpt><trkpt lat="53.5839478" lon="-2.0079355"><ele>243.20000000000002</ele><time>2026-04-11T09:19:10.534Z</time></trkpt><trkpt lat="53.583936" lon="-2.0080411"><ele>241.0</ele><time>2026-04-11T09:19:11.528Z</time></trkpt><trkpt lat="53.5838927" lon="-2.0082195"><ele>240.99999999999997</ele><time>2026-04-11T09:19:13.527Z</time></trkpt><trkpt lat="53.5838162" lon="-2.0082951"><ele>241.0</ele><time>2026-04-11T09:19:15.527Z</time></trkpt><trkpt lat="53.583753" lon="-2.0082912"><ele>241.0</ele><time>2026-04-11T09:19:16.526Z</time></trkpt><trkpt lat="53.5836742" lon="-2.0082711"><ele>241.0</ele><time>2026-04-11T09:19:17.531Z</time></trkpt><trkpt lat="53.583584" lon="-2.0082545"><ele>240.99999999999997</ele><time>2026-04-11T09:19:18.528Z</time></trkpt><trkpt lat="53.5834773" lon="-2.0082551"><ele>241.0</ele><time>2026-04-11T09:19:19.527Z</time></trkpt><trkpt lat="53.5833678" lon="-2.008259"><ele>241.5</ele><time>2026-04-11T09:19:20.527Z</time></trkpt><trkpt lat="53.5832556" lon="-2.0082789"><ele>242.0</ele><time>2026-04-11T09:19:21.528Z</time></trkpt><trkpt lat="53.58314" lon="-2.0083046"><ele>242.5</ele><time>2026-04-11T09:19:22.523Z</time></trkpt><trkpt lat="53.5830125" lon="-2.0083338"><ele>243.0</ele><time>2026-04-11T09:19:23.523Z</time></trkpt><trkpt lat="53.5828787" lon="-2.0083611"><ele>243.2</ele><time>2026-04-11T09:19:24.521Z</time></trkpt><trkpt lat="53.5827509" lon="-2.0083731"><ele>243.4</ele><time>2026-04-11T09:19:25.519Z</time></trkpt><trkpt lat="53.5826357" lon="-2.0083662"><ele>243.59999999999997</ele><time>2026-04-11T09:19:26.527Z</time></trkpt><trkpt lat="53.5825464" lon="-2.0083376"><ele>243.79999999999998</ele><time>2026-04-11T09:19:27.517Z</time></trkpt><trkpt lat="53.582469" lon="-2.008276"><ele>244.0</ele><time>2026-04-11T09:19:28.529Z</time></trkpt><trkpt lat="53.582389" lon="-2.0081824"><ele>244.0</ele><time>2026-04-11T09:19:29.53Z</time></trkpt><trkpt lat="53.5823076" lon="-2.0080664"><ele>243.99999999999997</ele><time>2026-04-11T09:19:30.527Z</time></trkpt><trkpt lat="53.5822268" lon="-2.0079466"><ele>243.99999999999997</ele><time>2026-04-11T09:19:31.529Z</time></trkpt><trkpt lat="53.5821462" lon="-2.0078326"><ele>244.0</ele><time>2026-04-11T09:19:32.532Z</time></trkpt><trkpt lat="53.5820608" lon="-2.0077144"><ele>244.0</ele><time>2026-04-11T09:19:33.531Z</time></trkpt><trkpt lat="53.5819767" lon="-2.0076116"><ele>244.33333333333331</ele><time>2026-04-11T09:19:34.527Z</time></trkpt><trkpt lat="53.5819003" lon="-2.0075308"><ele>244.66666666666666</ele><time>2026-04-11T09:19:35.527Z</time></trkpt><trkpt lat="53.5818294" lon="-2.0074577"><ele>245.0</ele><time>2026-04-11T09:19:36.528Z</time></trkpt><trkpt lat="53.5817683" lon="-2.0074062"><ele>245.33333333333331</ele><time>2026-04-11T09:19:37.528Z</time></trkpt><trkpt lat="53.5817095" lon="-2.0073634"><ele>245.66666666666666</ele><time>2026-04-11T09:19:38.527Z</time></trkpt><trkpt lat="53.5816476" lon="-2.0073168"><ele>246.0</ele><time>2026-04-11T09:19:39.526Z</time></trkpt><trkpt lat="53.5815766" lon="-2.0072545"><ele>246.0</ele><time>2026-04-11T09:19:40.529Z</time></trkpt><trkpt lat="53.5815003" lon="-2.0071935"><ele>246.0</ele><time>2026-04-11T09:19:41.522Z</time></trkpt><trkpt lat="53.5814238" lon="-2.0071322"><ele>246.0</ele><time>2026-04-11T09:19:42.523Z</time></trkpt><trkpt lat="53.5813507" lon="-2.0070661"><ele>246.0</ele><time>2026-04-11T09:19:43.527Z</time></trkpt><trkpt lat="53.5812829" lon="-2.0069892"><ele>246.0</ele><time>2026-04-11T09:19:44.525Z</time></trkpt><trkpt lat="53.5812213" lon="-2.0068932"><ele>246.0</ele><time>2026-04-11T09:19:45.522Z</time></trkpt><trkpt lat="53.581157" lon="-2.0067747"><ele>244.83333333333334</ele><time>2026-04-11T09:19:46.524Z</time></trkpt><trkpt lat="53.5810977" lon="-2.0066442"><ele>243.66666666666669</ele><time>2026-04-11T09:19:47.524Z</time></trkpt><trkpt lat="53.5810398" lon="-2.0065105"><ele>242.5</ele><time>2026-04-11T09:19:48.526Z</time></trkpt><trkpt lat="53.5809849" lon="-2.0063986"><ele>241.33333333333334</ele><time>2026-04-11T09:19:49.519Z</time></trkpt><trkpt lat="53.5809311" lon="-2.006307"><ele>240.16666666666669</ele><time>2026-04-11T09:19:50.523Z</time></trkpt><trkpt lat="53.5808831" lon="-2.0062355"><ele>239.0</ele><time>2026-04-11T09:19:51.525Z</time></trkpt><trkpt lat="53.580801" lon="-2.0060959"><ele>239.0</ele><time>2026-04-11T09:19:53.526Z</time></trkpt><trkpt lat="53.5807492" lon="-2.0060317"><ele>238.99999999999997</ele><time>2026-04-11T09:19:54.523Z</time></trkpt><trkpt lat="53.5806761" lon="-2.0059648"><ele>238.99999999999997</ele><time>2026-04-11T09:19:55.526Z</time></trkpt><trkpt lat="53.5805819" lon="-2.0059004"><ele>239.0</ele><time>2026-04-11T09:19:56.523Z</time></trkpt><trkpt lat="53.5804744" lon="-2.0058454"><ele>239.0</ele><time>2026-04-11T09:19:57.525Z</time></trkpt><trkpt lat="53.5803593" lon="-2.0058"><ele>239.33333333333334</ele><time>2026-04-11T09:19:58.524Z</time></trkpt><trkpt lat="53.5802548" lon="-2.0057743"><ele>239.66666666666669</ele><time>2026-04-11T09:19:59.533Z</time></trkpt><trkpt lat="53.5801683" lon="-2.0057594"><ele>240.0</ele><time>2026-04-11T09:20:00.529Z</time></trkpt><trkpt lat="53.5800982" lon="-2.0057462"><ele>240.33333333333331</ele><time>2026-04-11T09:20:01.523Z</time></trkpt><trkpt lat="53.5800319" lon="-2.0057248"><ele>240.66666666666666</ele><time>2026-04-11T09:20:02.527Z</time></trkpt><trkpt lat="53.5799617" lon="-2.0056993"><ele>241.0</ele><time>2026-04-11T09:20:03.529Z</time></trkpt><trkpt lat="53.5798952" lon="-2.005658"><ele>240.99999999999997</ele><time>2026-04-11T09:20:04.528Z</time></trkpt><trkpt lat="53.5798182" lon="-2.0054928"><ele>241.0</ele><time>2026-04-11T09:20:06.529Z</time></trkpt><trkpt lat="53.5797944" lon="-2.005391"><ele>241.0</ele><time>2026-04-11T09:20:07.529Z</time></trkpt><trkpt lat="53.5797621" lon="-2.0052811"><ele>241.0</ele><time>2026-04-11T09:20:08.528Z</time></trkpt><trkpt lat="53.5797216" lon="-2.005169"><ele>240.99999999999997</ele><time>2026-04-11T09:20:09.53Z</time></trkpt><trkpt lat="53.5796778" lon="-2.0050627"><ele>241.0</ele><time>2026-04-11T09:20:10.529Z</time></trkpt><trkpt lat="53.5796277" lon="-2.0049658"><ele>242.33333333333331</ele><time>2026-04-11T09:20:11.522Z</time></trkpt><trkpt lat="53.5795756" lon="-2.0048718"><ele>243.66666666666666</ele><time>2026-04-11T09:20:12.525Z</time></trkpt><trkpt lat="53.5795238" lon="-2.0047824"><ele>245.0</ele><time>2026-04-11T09:20:13.528Z</time></trkpt><trkpt lat="53.5794723" lon="-2.0046949"><ele>246.33333333333331</ele><time>2026-04-11T09:20:14.528Z</time></trkpt><trkpt lat="53.5794263" lon="-2.0046123"><ele>247.66666666666666</ele><time>2026-04-11T09:20:15.524Z</time></trkpt><trkpt lat="53.5793821" lon="-2.0045331"><ele>249.0</ele><time>2026-04-11T09:20:16.526Z</time></trkpt><trkpt lat="53.5792846" lon="-2.0043973"><ele>250.0</ele><time>2026-04-11T09:20:18.526Z</time></trkpt><trkpt lat="53.5792422" lon="-2.0043162"><ele>250.99999999999997</ele><time>2026-04-11T09:20:19.524Z</time></trkpt><trkpt lat="53.5791993" lon="-2.0042276"><ele>252.0</ele><time>2026-04-11T09:20:20.528Z</time></trkpt><trkpt lat="53.5791591" lon="-2.0041449"><ele>253.0</ele><time>2026-04-11T09:20:21.525Z</time></trkpt><trkpt lat="53.5791123" lon="-2.0040695"><ele>253.99999999999997</ele><time>2026-04-11T09:20:22.525Z</time></trkpt><trkpt lat="53.5790569" lon="-2.0039967"><ele>255.0</ele><time>2026-04-11T09:20:23.526Z</time></trkpt><trkpt lat="53.5789994" lon="-2.0039185"><ele>256.0</ele><time>2026-04-11T09:20:24.527Z</time></trkpt><trkpt lat="53.5789471" lon="-2.0038344"><ele>257.8</ele><time>2026-04-11T09:20:25.523Z</time></trkpt><trkpt lat="53.5788589" lon="-2.0036887"><ele>259.6</ele><time>2026-04-11T09:20:27.522Z</time></trkpt><trkpt lat="53.5787788" lon="-2.0036032"><ele>261.4</ele><time>2026-04-11T09:20:29.514Z</time></trkpt><trkpt lat="53.5787166" lon="-2.0035267"><ele>263.2</ele><time>2026-04-11T09:20:31.523Z</time></trkpt><trkpt lat="53.5786792" lon="-2.0034076"><ele>265.0</ele><time>2026-04-11T09:20:41.523Z</time></trkpt><trkpt lat="53.5786348" lon="-2.0032843"><ele>268.4</ele><time>2026-04-11T09:20:43.523Z</time></trkpt><trkpt lat="53.5785713" lon="-2.003162"><ele>271.8</ele><time>2026-04-11T09:20:45.518Z</time></trkpt><trkpt lat="53.578499" lon="-2.0030402"><ele>275.2</ele><time>2026-04-11T09:20:47.523Z</time></trkpt><trkpt lat="53.5784147" lon="-2.0029512"><ele>278.6</ele><time>2026-04-11T09:20:49.519Z</time></trkpt><trkpt lat="53.5783198" lon="-2.0028775"><ele>282.0</ele><time>2026-04-11T09:20:51.523Z</time></trkpt><trkpt lat="53.5782303" lon="-2.0028344"><ele>282.0</ele><time>2026-04-11T09:20:53.524Z</time></trkpt><trkpt lat="53.5781543" lon="-2.0028808"><ele>282.0</ele><time>2026-04-11T09:20:56.52Z</time></trkpt><trkpt lat="53.5780911" lon="-2.0029155"><ele>282.0</ele><time>2026-04-11T09:20:58.515Z</time></trkpt><trkpt lat="53.5779984" lon="-2.0030101"><ele>282.0</ele><time>2026-04-11T09:21:00.524Z</time></trkpt><trkpt lat="53.5779417" lon="-2.0030655"><ele>282.0</ele><time>2026-04-11T09:21:01.526Z</time></trkpt><trkpt lat="53.5778753" lon="-2.0031251"><ele>282.0</ele><time>2026-04-11T09:21:02.527Z</time></trkpt><trkpt lat="53.5778084" lon="-2.0032018"><ele>282.8333333333333</ele><time>2026-04-11T09:21:03.526Z</time></trkpt><trkpt lat="53.57775" lon="-2.0032995"><ele>283.6666666666667</ele><time>2026-04-11T09:21:04.528Z</time></trkpt><trkpt lat="53.5776992" lon="-2.0033918"><ele>284.5</ele><time>2026-04-11T09:21:05.526Z</time></trkpt><trkpt lat="53.5776307" lon="-2.003432"><ele>285.33333333333337</ele><time>2026-04-11T09:21:07.531Z</time></trkpt><trkpt lat="53.5776304" lon="-2.0032758"><ele>286.1666666666667</ele><time>2026-04-11T09:21:10.53Z</time></trkpt><trkpt lat="53.5776037" lon="-2.0030941"><ele>287.0</ele><time>2026-04-11T09:21:12.524Z</time></trkpt><trkpt lat="53.577552" lon="-2.0030147"><ele>288.0</ele><time>2026-04-11T09:21:13.527Z</time></trkpt><trkpt lat="53.577495" lon="-2.002952"><ele>289.0</ele><time>2026-04-11T09:21:14.526Z</time></trkpt><trkpt lat="53.5774317" lon="-2.0028832"><ele>290.0</ele><time>2026-04-11T09:21:15.525Z</time></trkpt><trkpt lat="53.5773671" lon="-2.0028067"><ele>291.0</ele><time>2026-04-11T09:21:16.522Z</time></trkpt><trkpt lat="53.5773112" lon="-2.002742"><ele>292.0</ele><time>2026-04-11T09:21:17.524Z</time></trkpt><trkpt lat="53.5772528" lon="-2.0026701"><ele>293.0</ele><time>2026-04-11T09:21:18.526Z</time></trkpt><trkpt lat="53.5771533" lon="-2.0025246"><ele>293.83333333333337</ele><time>2026-04-11T09:21:20.526Z</time></trkpt><trkpt lat="53.5770853" lon="-2.0024358"><ele>294.6666666666667</ele><time>2026-04-11T09:21:21.527Z</time></trkpt><trkpt lat="53.5770146" lon="-2.0023435"><ele>295.5</ele><time>2026-04-11T09:21:22.525Z</time></trkpt><trkpt lat="53.57694" lon="-2.0022469"><ele>296.3333333333333</ele><time>2026-04-11T09:21:23.526Z</time></trkpt><trkpt lat="53.5768671" lon="-2.0021453"><ele>297.16666666666663</ele><time>2026-04-11T09:21:24.527Z</time></trkpt><trkpt lat="53.5768026" lon="-2.0020585"><ele>298.0</ele><time>2026-04-11T09:21:25.525Z</time></trkpt><trkpt lat="53.5767422" lon="-2.0019824"><ele>299.5</ele><time>2026-04-11T09:21:26.524Z</time></trkpt><trkpt lat="53.5766865" lon="-2.0019067"><ele>301.0</ele><time>2026-04-11T09:21:27.523Z</time></trkpt><trkpt lat="53.5766286" lon="-2.0018187"><ele>302.5</ele><time>2026-04-11T09:21:28.523Z</time></trkpt><trkpt lat="53.5765698" lon="-2.0017229"><ele>304.0</ele><time>2026-04-11T09:21:29.523Z</time></trkpt><trkpt lat="53.5765056" lon="-2.0016307"><ele>305.5</ele><time>2026-04-11T09:21:30.525Z</time></trkpt><trkpt lat="53.576437" lon="-2.0015409"><ele>307.0</ele><time>2026-04-11T09:21:31.527Z</time></trkpt><trkpt lat="53.5763649" lon="-2.0014637"><ele>307.8333333333333</ele><time>2026-04-11T09:21:32.526Z</time></trkpt><trkpt lat="53.5763071" lon="-2.0013949"><ele>308.66666666666663</ele><time>2026-04-11T09:21:33.528Z</time></trkpt><trkpt lat="53.5762353" lon="-2.0012842"><ele>309.5</ele><time>2026-04-11T09:21:35.525Z</time></trkpt><trkpt lat="53.5761822" lon="-2.0012248"><ele>310.3333333333333</ele><time>2026-04-11T09:21:41.522Z</time></trkpt><trkpt lat="53.5762509" lon="-2.0010925"><ele>311.1666666666667</ele><time>2026-04-11T09:23:02.534Z</time></trkpt><trkpt lat="53.5763368" lon="-2.0010209"><ele>312.0</ele><time>2026-04-11T09:23:03.524Z</time></trkpt><trkpt lat="53.5764598" lon="-2.0009085"><ele>312.0</ele><time>2026-04-11T09:23:05.529Z</time></trkpt><trkpt lat="53.5765298" lon="-2.0008341"><ele>312.0</ele><time>2026-04-11T09:23:06.52Z</time></trkpt><trkpt lat="53.5766124" lon="-2.0007547"><ele>312.0</ele><time>2026-04-11T09:23:07.529Z</time></trkpt><trkpt lat="53.5767048" lon="-2.0006683"><ele>312.0</ele><time>2026-04-11T09:23:08.528Z</time></trkpt><trkpt lat="53.5768018" lon="-2.0005713"><ele>312.0</ele><time>2026-04-11T09:23:09.527Z</time></trkpt><trkpt lat="53.5769075" lon="-2.0004679"><ele>312.5</ele><time>2026-04-11T09:23:10.523Z</time></trkpt><trkpt lat="53.5770236" lon="-2.000355"><ele>313.0</ele><time>2026-04-11T09:23:11.523Z</time></trkpt><trkpt lat="53.5771515" lon="-2.0002304"><ele>313.5</ele><time>2026-04-11T09:23:12.523Z</time></trkpt><trkpt lat="53.5772809" lon="-2.0001069"><ele>314.0</ele><time>2026-04-11T09:23:13.524Z</time></trkpt><trkpt lat="53.5774049" lon="-1.9999848"><ele>314.0</ele><time>2026-04-11T09:23:14.526Z</time></trkpt><trkpt lat="53.5775251" lon="-1.9998699"><ele>314.0</ele><time>2026-04-11T09:23:15.525Z</time></trkpt><trkpt lat="53.5776364" lon="-1.9997536"><ele>314.0</ele><time>2026-04-11T09:23:16.524Z</time></trkpt><trkpt lat="53.5777428" lon="-1.9996403"><ele>314.0</ele><time>2026-04-11T09:23:17.523Z</time></trkpt><trkpt lat="53.5778462" lon="-1.9995228"><ele>313.25</ele><time>2026-04-11T09:23:18.523Z</time></trkpt><trkpt lat="53.5779447" lon="-1.9993962"><ele>312.5</ele><time>2026-04-11T09:23:19.523Z</time></trkpt><trkpt lat="53.5780413" lon="-1.9992698"><ele>311.75</ele><time>2026-04-11T09:23:20.525Z</time></trkpt><trkpt lat="53.578129" lon="-1.9991377"><ele>311.0</ele><time>2026-04-11T09:23:21.524Z</time></trkpt><trkpt lat="53.5781949" lon="-1.998999"><ele>311.0</ele><time>2026-04-11T09:23:22.524Z</time></trkpt><trkpt lat="53.5782425" lon="-1.9988545"><ele>311.0</ele><time>2026-04-11T09:23:23.524Z</time></trkpt><trkpt lat="53.5782862" lon="-1.9987056"><ele>311.0</ele><time>2026-04-11T09:23:24.52Z</time></trkpt><trkpt lat="53.5783308" lon="-1.9985596"><ele>311.0</ele><time>2026-04-11T09:23:25.518Z</time></trkpt><trkpt lat="53.578366" lon="-1.9984049"><ele>311.0</ele><time>2026-04-11T09:23:26.519Z</time></trkpt><trkpt lat="53.5784011" lon="-1.998245"><ele>311.0</ele><time>2026-04-11T09:23:27.517Z</time></trkpt><trkpt lat="53.5784429" lon="-1.9980863"><ele>311.0</ele><time>2026-04-11T09:23:28.521Z</time></trkpt><trkpt lat="53.5784883" lon="-1.9979286"><ele>311.0</ele><time>2026-04-11T09:23:29.517Z</time></trkpt><trkpt lat="53.5785364" lon="-1.9977689"><ele>311.0</ele><time>2026-04-11T09:23:30.524Z</time></trkpt><trkpt lat="53.5785826" lon="-1.9976049"><ele>311.0</ele><time>2026-04-11T09:23:31.529Z</time></trkpt><trkpt lat="53.5786306" lon="-1.9974588"><ele>309.0</ele><time>2026-04-11T09:23:32.523Z</time></trkpt><trkpt lat="53.578688" lon="-1.9973286"><ele>307.0</ele><time>2026-04-11T09:23:33.519Z</time></trkpt><trkpt lat="53.5787504" lon="-1.9972096"><ele>305.0</ele><time>2026-04-11T09:23:34.529Z</time></trkpt><trkpt lat="53.5788176" lon="-1.9971012"><ele>303.0</ele><time>2026-04-11T09:23:35.528Z</time></trkpt><trkpt lat="53.5788736" lon="-1.9970069"><ele>301.0</ele><time>2026-04-11T09:23:36.531Z</time></trkpt><trkpt lat="53.5789199" lon="-1.9969315"><ele>299.0</ele><time>2026-04-11T09:23:37.524Z</time></trkpt><trkpt lat="53.5789827" lon="-1.9968248"><ele>299.0</ele><time>2026-04-11T09:23:39.531Z</time></trkpt><trkpt lat="53.579051" lon="-1.996679"><ele>299.0</ele><time>2026-04-11T09:23:41.524Z</time></trkpt><trkpt lat="53.5790974" lon="-1.9965521"><ele>299.0</ele><time>2026-04-11T09:23:42.527Z</time></trkpt><trkpt lat="53.5791537" lon="-1.9963872"><ele>299.0</ele><time>2026-04-11T09:23:43.529Z</time></trkpt><trkpt lat="53.5792148" lon="-1.9961903"><ele>299.0</ele><time>2026-04-11T09:23:44.527Z</time></trkpt><trkpt lat="53.5792846" lon="-1.9959989"><ele>298.5</ele><time>2026-04-11T09:23:45.518Z</time></trkpt><trkpt lat="53.579366" lon="-1.9958285"><ele>298.0</ele><time>2026-04-11T09:23:46.526Z</time></trkpt><trkpt lat="53.5794595" lon="-1.9956781"><ele>297.5</ele><time>2026-04-11T09:23:47.525Z</time></trkpt><trkpt lat="53.5795578" lon="-1.995534"><ele>297.0</ele><time>2026-04-11T09:23:48.528Z</time></trkpt><trkpt lat="53.5796601" lon="-1.9953845"><ele>297.0</ele><time>2026-04-11T09:23:49.524Z</time></trkpt><trkpt lat="53.5797645" lon="-1.9952308"><ele>297.0</ele><time>2026-04-11T09:23:50.526Z</time></trkpt><trkpt lat="53.5798612" lon="-1.9950725"><ele>297.0</ele><time>2026-04-11T09:23:51.522Z</time></trkpt><trkpt lat="53.5799393" lon="-1.9949214"><ele>297.0</ele><time>2026-04-11T09:23:52.527Z</time></trkpt><trkpt lat="53.5800035" lon="-1.9947783"><ele>297.5</ele><time>2026-04-11T09:23:53.528Z</time></trkpt><trkpt lat="53.5800637" lon="-1.9946677"><ele>298.0</ele><time>2026-04-11T09:23:54.528Z</time></trkpt><trkpt lat="53.5801299" lon="-1.9946004"><ele>298.5</ele><time>2026-04-11T09:23:55.528Z</time></trkpt><trkpt lat="53.5802126" lon="-1.9945507"><ele>299.0</ele><time>2026-04-11T09:23:56.522Z</time></trkpt><trkpt lat="53.5802962" lon="-1.9944821"><ele>299.5</ele><time>2026-04-11T09:23:57.527Z</time></trkpt><trkpt lat="53.5803852" lon="-1.9943977"><ele>300.0</ele><time>2026-04-11T09:23:58.525Z</time></trkpt><trkpt lat="53.5804731" lon="-1.9943"><ele>300.0</ele><time>2026-04-11T09:23:59.524Z</time></trkpt><trkpt lat="53.580561" lon="-1.9941954"><ele>300.0</ele><time>2026-04-11T09:24:00.524Z</time></trkpt><trkpt lat="53.5806488" lon="-1.9940863"><ele>300.0</ele><time>2026-04-11T09:24:01.531Z</time></trkpt><trkpt lat="53.5807296" lon="-1.9939729"><ele>300.0</ele><time>2026-04-11T09:24:02.531Z</time></trkpt><trkpt lat="53.5808097" lon="-1.9938518"><ele>300.0</ele><time>2026-04-11T09:24:03.529Z</time></trkpt><trkpt lat="53.5808981" lon="-1.9937421"><ele>301.0</ele><time>2026-04-11T09:24:04.528Z</time></trkpt><trkpt lat="53.5809914" lon="-1.9936393"><ele>302.0</ele><time>2026-04-11T09:24:05.528Z</time></trkpt><trkpt lat="53.581086" lon="-1.9935382"><ele>303.0</ele><time>2026-04-11T09:24:06.53Z</time></trkpt><trkpt lat="53.5811733" lon="-1.9934236"><ele>304.0</ele><time>2026-04-11T09:24:07.529Z</time></trkpt><trkpt lat="53.5812513" lon="-1.9932947"><ele>305.0</ele><time>2026-04-11T09:24:08.523Z</time></trkpt><trkpt lat="53.5813161" lon="-1.9931523"><ele>307.4</ele><time>2026-04-11T09:24:09.528Z</time></trkpt><trkpt lat="53.5813768" lon="-1.9929966"><ele>309.8</ele><time>2026-04-11T09:24:10.529Z</time></trkpt><trkpt lat="53.5814318" lon="-1.9928351"><ele>312.2</ele><time>2026-04-11T09:24:11.522Z</time></trkpt><trkpt lat="53.581484" lon="-1.9926679"><ele>314.6</ele><time>2026-04-11T09:24:12.522Z</time></trkpt><trkpt lat="53.5815321" lon="-1.9925092"><ele>317.0</ele><time>2026-04-11T09:24:13.527Z</time></trkpt><trkpt lat="53.5815765" lon="-1.9923428"><ele>317.2</ele><time>2026-04-11T09:24:14.527Z</time></trkpt><trkpt lat="53.581621" lon="-1.9921831"><ele>317.4</ele><time>2026-04-11T09:24:15.525Z</time></trkpt><trkpt lat="53.5816721" lon="-1.9920213"><ele>317.6</ele><time>2026-04-11T09:24:16.522Z</time></trkpt><trkpt lat="53.5817217" lon="-1.9918643"><ele>317.8</ele><time>2026-04-11T09:24:17.528Z</time></trkpt><trkpt lat="53.581768" lon="-1.9917178"><ele>318.0</ele><time>2026-04-11T09:24:18.527Z</time></trkpt><trkpt lat="53.5818263" lon="-1.9915759"><ele>318.0</ele><time>2026-04-11T09:24:19.526Z</time></trkpt><trkpt lat="53.5818757" lon="-1.9914298"><ele>318.0</ele><time>2026-04-11T09:24:20.526Z</time></trkpt><trkpt lat="53.5819179" lon="-1.9912735"><ele>318.0</ele><time>2026-04-11T09:24:21.528Z</time></trkpt><trkpt lat="53.5819665" lon="-1.9911051"><ele>318.0</ele><time>2026-04-11T09:24:22.527Z</time></trkpt><trkpt lat="53.5820243" lon="-1.9909302"><ele>318.0</ele><time>2026-04-11T09:24:23.529Z</time></trkpt><trkpt lat="53.5820986" lon="-1.9907682"><ele>320.75</ele><time>2026-04-11T09:24:24.528Z</time></trkpt><trkpt lat="53.5821752" lon="-1.9905949"><ele>323.5</ele><time>2026-04-11T09:24:25.526Z</time></trkpt><trkpt lat="53.5822444" lon="-1.9903996"><ele>326.25</ele><time>2026-04-11T09:24:26.527Z</time></trkpt><trkpt lat="53.5823113" lon="-1.9901925"><ele>329.0</ele><time>2026-04-11T09:24:27.526Z</time></trkpt><trkpt lat="53.5823742" lon="-1.9899916"><ele>329.0</ele><time>2026-04-11T09:24:28.522Z</time></trkpt><trkpt lat="53.5824431" lon="-1.9898089"><ele>329.0</ele><time>2026-04-11T09:24:29.523Z</time></trkpt><trkpt lat="53.5825162" lon="-1.98964"><ele>329.0</ele><time>2026-04-11T09:24:30.52Z</time></trkpt><trkpt lat="53.5825952" lon="-1.9894823"><ele>329.0</ele><time>2026-04-11T09:24:31.52Z</time></trkpt><trkpt lat="53.5826897" lon="-1.9893365"><ele>329.0</ele><time>2026-04-11T09:24:32.519Z</time></trkpt><trkpt lat="53.5827965" lon="-1.9892088"><ele>329.0</ele><time>2026-04-11T09:24:33.529Z</time></trkpt><trkpt lat="53.582909" lon="-1.9891044"><ele>329.0</ele><time>2026-04-11T09:24:34.526Z</time></trkpt><trkpt lat="53.5830288" lon="-1.9889996"><ele>329.0</ele><time>2026-04-11T09:24:35.527Z</time></trkpt><trkpt lat="53.5831479" lon="-1.9888951"><ele>331.75</ele><time>2026-04-11T09:24:36.531Z</time></trkpt><trkpt lat="53.583265" lon="-1.9887999"><ele>334.5</ele><time>2026-04-11T09:24:37.53Z</time></trkpt><trkpt lat="53.5833759" lon="-1.9886864"><ele>337.25</ele><time>2026-04-11T09:24:38.531Z</time></trkpt><trkpt lat="53.583472" lon="-1.9885558"><ele>340.0</ele><time>2026-04-11T09:24:39.529Z</time></trkpt><trkpt lat="53.5835796" lon="-1.9884269"><ele>342.25</ele><time>2026-04-11T09:24:40.529Z</time></trkpt><trkpt lat="53.5836861" lon="-1.9882935"><ele>344.5</ele><time>2026-04-11T09:24:41.527Z</time></trkpt><trkpt lat="53.5837943" lon="-1.9881539"><ele>346.75</ele><time>2026-04-11T09:24:42.528Z</time></trkpt><trkpt lat="53.5839029" lon="-1.9880327"><ele>349.0</ele><time>2026-04-11T09:24:43.53Z</time></trkpt><trkpt lat="53.5840124" lon="-1.9879195"><ele>349.0</ele><time>2026-04-11T09:24:44.528Z</time></trkpt><trkpt lat="53.5841213" lon="-1.987815"><ele>349.0</ele><time>2026-04-11T09:24:45.523Z</time></trkpt><trkpt lat="53.5842294" lon="-1.9877097"><ele>349.0</ele><time>2026-04-11T09:24:46.528Z</time></trkpt><trkpt lat="53.5843387" lon="-1.9876054"><ele>349.0</ele><time>2026-04-11T09:24:47.527Z</time></trkpt><trkpt lat="53.5844489" lon="-1.9874991"><ele>350.5</ele><time>2026-04-11T09:24:48.528Z</time></trkpt><trkpt lat="53.5845617" lon="-1.9873977"><ele>352.0</ele><time>2026-04-11T09:24:49.527Z</time></trkpt><trkpt lat="53.5846806" lon="-1.987302"><ele>353.5</ele><time>2026-04-11T09:24:50.526Z</time></trkpt><trkpt lat="53.5848006" lon="-1.9872173"><ele>355.0</ele><time>2026-04-11T09:24:51.528Z</time></trkpt><trkpt lat="53.584924" lon="-1.9871384"><ele>355.0</ele><time>2026-04-11T09:24:52.528Z</time></trkpt><trkpt lat="53.5850507" lon="-1.9870673"><ele>355.0</ele><time>2026-04-11T09:24:53.528Z</time></trkpt><trkpt lat="53.5851776" lon="-1.9869911"><ele>355.0</ele><time>2026-04-11T09:24:54.527Z</time></trkpt><trkpt lat="53.5853022" lon="-1.9869093"><ele>355.0</ele><time>2026-04-11T09:24:55.529Z</time></trkpt><trkpt lat="53.5854166" lon="-1.9868147"><ele>356.0</ele><time>2026-04-11T09:24:56.528Z</time></trkpt><trkpt lat="53.5855224" lon="-1.9867117"><ele>357.0</ele><time>2026-04-11T09:24:57.528Z</time></trkpt><trkpt lat="53.5856192" lon="-1.9865945"><ele>358.0</ele><time>2026-04-11T09:24:58.527Z</time></trkpt><trkpt lat="53.5857031" lon="-1.9864815"><ele>359.0</ele><time>2026-04-11T09:24:59.527Z</time></trkpt><trkpt lat="53.5857838" lon="-1.9863691"><ele>359.0</ele><time>2026-04-11T09:25:00.528Z</time></trkpt><trkpt lat="53.5858652" lon="-1.986255"><ele>359.0</ele><time>2026-04-11T09:25:01.523Z</time></trkpt><trkpt lat="53.5859468" lon="-1.9861372"><ele>359.0</ele><time>2026-04-11T09:25:02.529Z</time></trkpt><trkpt lat="53.5860263" lon="-1.986007"><ele>359.0</ele><time>2026-04-11T09:25:03.527Z</time></trkpt><trkpt lat="53.5861004" lon="-1.9858604"><ele>359.0</ele><time>2026-04-11T09:25:04.528Z</time></trkpt><trkpt lat="53.5861711" lon="-1.9856985"><ele>361.0</ele><time>2026-04-11T09:25:05.524Z</time></trkpt><trkpt lat="53.5862391" lon="-1.9855249"><ele>363.0</ele><time>2026-04-11T09:25:06.526Z</time></trkpt><trkpt lat="53.5863002" lon="-1.9853391"><ele>365.0</ele><time>2026-04-11T09:25:07.527Z</time></trkpt><trkpt lat="53.5863572" lon="-1.9851562"><ele>367.0</ele><time>2026-04-11T09:25:08.527Z</time></trkpt><trkpt lat="53.5863954" lon="-1.984976"><ele>367.40000000000003</ele><time>2026-04-11T09:25:09.528Z</time></trkpt><trkpt lat="53.586411" lon="-1.9848062"><ele>367.8</ele><time>2026-04-11T09:25:10.527Z</time></trkpt><trkpt lat="53.5864024" lon="-1.9846369"><ele>368.2</ele><time>2026-04-11T09:25:11.525Z</time></trkpt><trkpt lat="53.5863624" lon="-1.9844542"><ele>368.6</ele><time>2026-04-11T09:25:12.527Z</time></trkpt><trkpt lat="53.586309" lon="-1.9842721"><ele>369.0</ele><time>2026-04-11T09:25:13.529Z</time></trkpt><trkpt lat="53.5862512" lon="-1.9840924"><ele>370.5</ele><time>2026-04-11T09:25:14.529Z</time></trkpt><trkpt lat="53.5861874" lon="-1.9839202"><ele>372.0</ele><time>2026-04-11T09:25:15.528Z</time></trkpt><trkpt lat="53.5861207" lon="-1.9837508"><ele>373.5</ele><time>2026-04-11T09:25:16.528Z</time></trkpt><trkpt lat="53.586054" lon="-1.9835869"><ele>375.0</ele><time>2026-04-11T09:25:17.527Z</time></trkpt><trkpt lat="53.585994" lon="-1.9834318"><ele>373.5</ele><time>2026-04-11T09:25:18.528Z</time></trkpt><trkpt lat="53.5859412" lon="-1.9832813"><ele>372.0</ele><time>2026-04-11T09:25:19.529Z</time></trkpt><trkpt lat="53.5858786" lon="-1.9831316"><ele>370.5</ele><time>2026-04-11T09:25:20.528Z</time></trkpt><trkpt lat="53.5858044" lon="-1.9829744"><ele>369.0</ele><time>2026-04-11T09:25:21.527Z</time></trkpt><trkpt lat="53.5857236" lon="-1.982816"><ele>369.0</ele><time>2026-04-11T09:25:22.528Z</time></trkpt><trkpt lat="53.5856454" lon="-1.9826699"><ele>369.0</ele><time>2026-04-11T09:25:23.528Z</time></trkpt><trkpt lat="53.5855763" lon="-1.9825286"><ele>369.0</ele><time>2026-04-11T09:25:24.527Z</time></trkpt><trkpt lat="53.5855097" lon="-1.9823879"><ele>369.0</ele><time>2026-04-11T09:25:25.527Z</time></trkpt><trkpt lat="53.5854451" lon="-1.9822504"><ele>369.0</ele><time>2026-04-11T09:25:26.524Z</time></trkpt><trkpt lat="53.5853775" lon="-1.9821129"><ele>368.25</ele><time>2026-04-11T09:25:27.526Z</time></trkpt><trkpt lat="53.585307" lon="-1.9819738"><ele>367.5</ele><time>2026-04-11T09:25:28.527Z</time></trkpt><trkpt lat="53.5852337" lon="-1.981831"><ele>366.75</ele><time>2026-04-11T09:25:29.525Z</time></trkpt><trkpt lat="53.585154" lon="-1.9816874"><ele>366.0</ele><time>2026-04-11T09:25:30.529Z</time></trkpt><trkpt lat="53.5850643" lon="-1.9815478"><ele>368.75</ele><time>2026-04-11T09:25:31.528Z</time></trkpt><trkpt lat="53.5849644" lon="-1.9814164"><ele>371.5</ele><time>2026-04-11T09:25:32.528Z</time></trkpt><trkpt lat="53.5848606" lon="-1.9812922"><ele>374.25</ele><time>2026-04-11T09:25:33.526Z</time></trkpt><trkpt lat="53.5847589" lon="-1.9811695"><ele>377.0</ele><time>2026-04-11T09:25:34.527Z</time></trkpt><trkpt lat="53.5846623" lon="-1.9810537"><ele>377.0</ele><time>2026-04-11T09:25:35.528Z</time></trkpt><trkpt lat="53.584573" lon="-1.9809495"><ele>377.0</ele><time>2026-04-11T09:25:36.528Z</time></trkpt><trkpt lat="53.584491" lon="-1.9808408"><ele>377.0</ele><time>2026-04-11T09:25:37.529Z</time></trkpt><trkpt lat="53.5844115" lon="-1.980723"><ele>377.0</ele><time>2026-04-11T09:25:38.529Z</time></trkpt><trkpt lat="53.5843342" lon="-1.9806112"><ele>377.0</ele><time>2026-04-11T09:25:39.53Z</time></trkpt><trkpt lat="53.5842573" lon="-1.9804991"><ele>377.6</ele><time>2026-04-11T09:25:40.529Z</time></trkpt><trkpt lat="53.5841823" lon="-1.9803904"><ele>378.20000000000005</ele><time>2026-04-11T09:25:41.528Z</time></trkpt><trkpt lat="53.5841064" lon="-1.9802812"><ele>378.8</ele><time>2026-04-11T09:25:42.524Z</time></trkpt><trkpt lat="53.584029" lon="-1.9801666"><ele>379.4</ele><time>2026-04-11T09:25:43.531Z</time></trkpt><trkpt lat="53.5839441" lon="-1.9800564"><ele>380.0</ele><time>2026-04-11T09:25:44.529Z</time></trkpt><trkpt lat="53.5838499" lon="-1.9799512"><ele>381.25</ele><time>2026-04-11T09:25:45.527Z</time></trkpt><trkpt lat="53.5837564" lon="-1.9798355"><ele>382.5</ele><time>2026-04-11T09:25:46.528Z</time></trkpt><trkpt lat="53.58367" lon="-1.9797036"><ele>383.75</ele><time>2026-04-11T09:25:47.529Z</time></trkpt><trkpt lat="53.5835935" lon="-1.9795612"><ele>385.0</ele><time>2026-04-11T09:25:48.528Z</time></trkpt><trkpt lat="53.5835178" lon="-1.9794052"><ele>385.0</ele><time>2026-04-11T09:25:49.527Z</time></trkpt><trkpt lat="53.5834388" lon="-1.9792374"><ele>385.0</ele><time>2026-04-11T09:25:50.529Z</time></trkpt><trkpt lat="53.5833616" lon="-1.9790577"><ele>385.0</ele><time>2026-04-11T09:25:51.528Z</time></trkpt><trkpt lat="53.5832924" lon="-1.978874"><ele>385.0</ele><time>2026-04-11T09:25:52.528Z</time></trkpt><trkpt lat="53.5832335" lon="-1.9786907"><ele>386.8</ele><time>2026-04-11T09:25:53.528Z</time></trkpt><trkpt lat="53.5831931" lon="-1.9785066"><ele>388.6</ele><time>2026-04-11T09:25:54.528Z</time></trkpt><trkpt lat="53.5831674" lon="-1.9783225"><ele>390.4</ele><time>2026-04-11T09:25:55.528Z</time></trkpt><trkpt lat="53.583146" lon="-1.9781446"><ele>392.2</ele><time>2026-04-11T09:25:56.524Z</time></trkpt><trkpt lat="53.5831219" lon="-1.9779656"><ele>394.0</ele><time>2026-04-11T09:25:57.528Z</time></trkpt><trkpt lat="53.5830976" lon="-1.977778"><ele>395.0</ele><time>2026-04-11T09:25:58.528Z</time></trkpt><trkpt lat="53.5830845" lon="-1.9775762"><ele>396.0</ele><time>2026-04-11T09:25:59.526Z</time></trkpt><trkpt lat="53.5830849" lon="-1.9773678"><ele>397.0</ele><time>2026-04-11T09:26:00.528Z</time></trkpt><trkpt lat="53.5830989" lon="-1.9771555"><ele>398.0</ele><time>2026-04-11T09:26:01.528Z</time></trkpt><trkpt lat="53.5831205" lon="-1.9769397"><ele>398.0</ele><time>2026-04-11T09:26:02.528Z</time></trkpt><trkpt lat="53.583143" lon="-1.9767165"><ele>398.0</ele><time>2026-04-11T09:26:03.523Z</time></trkpt><trkpt lat="53.583161" lon="-1.9764922"><ele>398.0</ele><time>2026-04-11T09:26:04.525Z</time></trkpt><trkpt lat="53.5831769" lon="-1.9762742"><ele>398.0</ele><time>2026-04-11T09:26:05.526Z</time></trkpt><trkpt lat="53.5831798" lon="-1.9760669"><ele>397.25</ele><time>2026-04-11T09:26:06.529Z</time></trkpt><trkpt lat="53.5831717" lon="-1.9758572"><ele>396.5</ele><time>2026-04-11T09:26:07.53Z</time></trkpt><trkpt lat="53.5831586" lon="-1.9756464"><ele>395.75</ele><time>2026-04-11T09:26:08.531Z</time></trkpt><trkpt lat="53.5831457" lon="-1.975451"><ele>395.0</ele><time>2026-04-11T09:26:09.528Z</time></trkpt><trkpt lat="53.5831385" lon="-1.9752863"><ele>394.85714285714283</ele><time>2026-04-11T09:26:10.528Z</time></trkpt><trkpt lat="53.5831342" lon="-1.9751536"><ele>394.7142857142857</ele><time>2026-04-11T09:26:11.528Z</time></trkpt><trkpt lat="53.5831344" lon="-1.9750414"><ele>394.57142857142856</ele><time>2026-04-11T09:26:12.527Z</time></trkpt><trkpt lat="53.5831444" lon="-1.9749354"><ele>394.42857142857144</ele><time>2026-04-11T09:26:13.529Z</time></trkpt><trkpt lat="53.5831593" lon="-1.9748244"><ele>394.28571428571433</ele><time>2026-04-11T09:26:14.53Z</time></trkpt><trkpt lat="53.5831636" lon="-1.9747029"><ele>394.14285714285717</ele><time>2026-04-11T09:26:15.529Z</time></trkpt><trkpt lat="53.5831584" lon="-1.9745669"><ele>394.0</ele><time>2026-04-11T09:26:16.527Z</time></trkpt><trkpt lat="53.583147" lon="-1.9744337"><ele>394.0</ele><time>2026-04-11T09:26:17.529Z</time></trkpt><trkpt lat="53.5831368" lon="-1.9743073"><ele>394.0</ele><time>2026-04-11T09:26:18.529Z</time></trkpt><trkpt lat="53.5831416" lon="-1.9741929"><ele>394.0</ele><time>2026-04-11T09:26:19.53Z</time></trkpt><trkpt lat="53.5832282" lon="-1.9740321"><ele>394.0</ele><time>2026-04-11T09:26:21.53Z</time></trkpt><trkpt lat="53.5833108" lon="-1.9739939"><ele>394.0</ele><time>2026-04-11T09:26:22.528Z</time></trkpt><trkpt lat="53.5834142" lon="-1.9739847"><ele>394.00000000000006</ele><time>2026-04-11T09:26:23.528Z</time></trkpt><trkpt lat="53.5835207" lon="-1.9739785"><ele>394.0</ele><time>2026-04-11T09:26:24.531Z</time></trkpt><trkpt lat="53.5836157" lon="-1.973968"><ele>394.0</ele><time>2026-04-11T09:26:25.529Z</time></trkpt><trkpt lat="53.5837021" lon="-1.9739509"><ele>394.0</ele><time>2026-04-11T09:26:26.529Z</time></trkpt><trkpt lat="53.5837808" lon="-1.9739457"><ele>394.00000000000006</ele><time>2026-04-11T09:26:27.522Z</time></trkpt><trkpt lat="53.5838568" lon="-1.9739534"><ele>394.0</ele><time>2026-04-11T09:26:28.529Z</time></trkpt><trkpt lat="53.5839263" lon="-1.9739589"><ele>395.00000000000006</ele><time>2026-04-11T09:26:29.528Z</time></trkpt><trkpt lat="53.5839962" lon="-1.9739641"><ele>396.0</ele><time>2026-04-11T09:26:30.53Z</time></trkpt><trkpt lat="53.5840653" lon="-1.9739632"><ele>397.0</ele><time>2026-04-11T09:26:31.529Z</time></trkpt><trkpt lat="53.5841295" lon="-1.9739583"><ele>398.0</ele><time>2026-04-11T09:26:32.529Z</time></trkpt><trkpt lat="53.5841933" lon="-1.9739627"><ele>399.00000000000006</ele><time>2026-04-11T09:26:33.536Z</time></trkpt><trkpt lat="53.5842559" lon="-1.9739852"><ele>400.0</ele><time>2026-04-11T09:26:34.531Z</time></trkpt><trkpt lat="53.5843565" lon="-1.9740996"><ele>400.00000000000006</ele><time>2026-04-11T09:26:36.531Z</time></trkpt><trkpt lat="53.5844029" lon="-1.974191"><ele>400.0</ele><time>2026-04-11T09:26:37.531Z</time></trkpt><trkpt lat="53.5844525" lon="-1.9742872"><ele>400.0</ele><time>2026-04-11T09:26:38.531Z</time></trkpt><trkpt lat="53.5845105" lon="-1.9743668"><ele>400.0</ele><time>2026-04-11T09:26:39.532Z</time></trkpt><trkpt lat="53.5845785" lon="-1.9744268"><ele>400.00000000000006</ele><time>2026-04-11T09:26:40.528Z</time></trkpt><trkpt lat="53.5846525" lon="-1.9744765"><ele>400.0</ele><time>2026-04-11T09:26:41.527Z</time></trkpt><trkpt lat="53.584725" lon="-1.9745318"><ele>400.6666666666667</ele><time>2026-04-11T09:26:42.522Z</time></trkpt><trkpt lat="53.5847949" lon="-1.9746041"><ele>401.33333333333337</ele><time>2026-04-11T09:26:43.528Z</time></trkpt><trkpt lat="53.584854" lon="-1.9746963"><ele>402.0</ele><time>2026-04-11T09:26:44.528Z</time></trkpt><trkpt lat="53.5849047" lon="-1.9748071"><ele>402.66666666666663</ele><time>2026-04-11T09:26:45.528Z</time></trkpt><trkpt lat="53.58495" lon="-1.9749322"><ele>403.3333333333333</ele><time>2026-04-11T09:26:46.529Z</time></trkpt><trkpt lat="53.5849806" lon="-1.9750628"><ele>404.0</ele><time>2026-04-11T09:26:47.53Z</time></trkpt><trkpt lat="53.5850019" lon="-1.9751968"><ele>404.49999999999994</ele><time>2026-04-11T09:26:48.527Z</time></trkpt><trkpt lat="53.5850232" lon="-1.9753266"><ele>405.0</ele><time>2026-04-11T09:26:49.529Z</time></trkpt><trkpt lat="53.5850466" lon="-1.9754521"><ele>405.5</ele><time>2026-04-11T09:26:50.529Z</time></trkpt><trkpt lat="53.5850733" lon="-1.975582"><ele>406.0</ele><time>2026-04-11T09:26:51.526Z</time></trkpt><trkpt lat="53.5850973" lon="-1.9757135"><ele>406.49999999999994</ele><time>2026-04-11T09:26:52.528Z</time></trkpt><trkpt lat="53.5851213" lon="-1.9758376"><ele>407.0</ele><time>2026-04-11T09:26:53.531Z</time></trkpt><trkpt lat="53.585155" lon="-1.9759544"><ele>406.99999999999994</ele><time>2026-04-11T09:26:54.529Z</time></trkpt><trkpt lat="53.5852047" lon="-1.9760572"><ele>407.0</ele><time>2026-04-11T09:26:55.527Z</time></trkpt><trkpt lat="53.5852588" lon="-1.9761421"><ele>407.0</ele><time>2026-04-11T09:26:56.529Z</time></trkpt><trkpt lat="53.5853096" lon="-1.9762208"><ele>407.0</ele><time>2026-04-11T09:26:57.528Z</time></trkpt><trkpt lat="53.5853567" lon="-1.9762948"><ele>406.99999999999994</ele><time>2026-04-11T09:26:58.527Z</time></trkpt><trkpt lat="53.5854417" lon="-1.9764204"><ele>407.0</ele><time>2026-04-11T09:27:00.528Z</time></trkpt><trkpt lat="53.5854786" lon="-1.9765615"><ele>409.0</ele><time>2026-04-11T09:27:02.527Z</time></trkpt><trkpt lat="53.5854983" lon="-1.9767281"><ele>411.0</ele><time>2026-04-11T09:27:04.53Z</time></trkpt><trkpt lat="53.5855268" lon="-1.9769377"><ele>413.0</ele><time>2026-04-11T09:27:06.528Z</time></trkpt><trkpt lat="53.5855487" lon="-1.9770607"><ele>415.0</ele><time>2026-04-11T09:27:07.532Z</time></trkpt><trkpt lat="53.5855767" lon="-1.9771805"><ele>417.0</ele><time>2026-04-11T09:27:08.529Z</time></trkpt><trkpt lat="53.5855982" lon="-1.9772969"><ele>417.0</ele><time>2026-04-11T09:27:09.53Z</time></trkpt><trkpt lat="53.5856133" lon="-1.9774973"><ele>417.0</ele><time>2026-04-11T09:27:11.526Z</time></trkpt><trkpt lat="53.5856217" lon="-1.9776933"><ele>417.0</ele><time>2026-04-11T09:27:13.517Z</time></trkpt><trkpt lat="53.5856292" lon="-1.9778571"><ele>417.0</ele><time>2026-04-11T09:27:15.523Z</time></trkpt><trkpt lat="53.585674" lon="-1.978005"><ele>417.0</ele><time>2026-04-11T09:27:17.526Z</time></trkpt><trkpt lat="53.5857637" lon="-1.9780119"><ele>417.0</ele><time>2026-04-11T09:27:19.528Z</time></trkpt><trkpt lat="53.5858756" lon="-1.9779269"><ele>417.0</ele><time>2026-04-11T09:27:21.523Z</time></trkpt><trkpt lat="53.5859365" lon="-1.9778819"><ele>417.0</ele><time>2026-04-11T09:27:22.529Z</time></trkpt><trkpt lat="53.5859972" lon="-1.9778525"><ele>417.0</ele><time>2026-04-11T09:27:23.533Z</time></trkpt><trkpt lat="53.5860677" lon="-1.9778223"><ele>417.0</ele><time>2026-04-11T09:27:24.527Z</time></trkpt><trkpt lat="53.5861603" lon="-1.9778195"><ele>417.0</ele><time>2026-04-11T09:27:26.529Z</time></trkpt><trkpt lat="53.5861918" lon="-1.9777078"><ele>417.6666666666667</ele><time>2026-04-11T09:27:29.53Z</time></trkpt><trkpt lat="53.5862111" lon="-1.9775804"><ele>418.33333333333337</ele><time>2026-04-11T09:27:31.53Z</time></trkpt><trkpt lat="53.5862652" lon="-1.9774324"><ele>419.0</ele><time>2026-04-11T09:27:33.533Z</time></trkpt><trkpt lat="53.5863225" lon="-1.9772994"><ele>419.6666666666667</ele><time>2026-04-11T09:27:35.529Z</time></trkpt><trkpt lat="53.5863301" lon="-1.977141"><ele>420.33333333333337</ele><time>2026-04-11T09:27:37.533Z</time></trkpt><trkpt lat="53.5863153" lon="-1.9770163"><ele>421.0</ele><time>2026-04-11T09:27:40.533Z</time></trkpt><trkpt lat="53.5864048" lon="-1.9770528"><ele>421.0</ele><time>2026-04-11T09:27:43.529Z</time></trkpt><trkpt lat="53.5864598" lon="-1.9771604"><ele>421.0</ele><time>2026-04-11T09:27:45.527Z</time></trkpt><trkpt lat="53.5864785" lon="-1.9773415"><ele>421.0</ele><time>2026-04-11T09:27:47.53Z</time></trkpt><trkpt lat="53.5864518" lon="-1.9775153"><ele>421.0</ele><time>2026-04-11T09:27:49.527Z</time></trkpt><trkpt lat="53.5863792" lon="-1.9776315"><ele>421.0</ele><time>2026-04-11T09:27:51.521Z</time></trkpt><trkpt lat="53.5862878" lon="-1.9777516"><ele>421.4</ele><time>2026-04-11T09:27:53.528Z</time></trkpt><trkpt lat="53.5862306" lon="-1.9777994"><ele>421.8</ele><time>2026-04-11T09:27:54.533Z</time></trkpt><trkpt lat="53.5861259" lon="-1.9778129"><ele>422.2</ele><time>2026-04-11T09:27:56.531Z</time></trkpt><trkpt lat="53.5860359" lon="-1.9777391"><ele>422.59999999999997</ele><time>2026-04-11T09:27:58.53Z</time></trkpt><trkpt lat="53.5859386" lon="-1.9777269"><ele>423.0</ele><time>2026-04-11T09:28:00.527Z</time></trkpt><trkpt lat="53.5858455" lon="-1.9777484"><ele>421.79999999999995</ele><time>2026-04-11T09:28:02.532Z</time></trkpt><trkpt lat="53.5857443" lon="-1.9778173"><ele>420.6</ele><time>2026-04-11T09:28:04.524Z</time></trkpt><trkpt lat="53.5856517" lon="-1.9778538"><ele>419.4</ele><time>2026-04-11T09:28:06.522Z</time></trkpt><trkpt lat="53.5856023" lon="-1.977749"><ele>418.20000000000005</ele><time>2026-04-11T09:28:08.532Z</time></trkpt><trkpt lat="53.5856717" lon="-1.9775448"><ele>417.0</ele><time>2026-04-11T09:28:10.533Z</time></trkpt><trkpt lat="53.5857136" lon="-1.9774338"><ele>417.0</ele><time>2026-04-11T09:28:11.532Z</time></trkpt><trkpt lat="53.5857462" lon="-1.9773276"><ele>417.0</ele><time>2026-04-11T09:28:12.531Z</time></trkpt><trkpt lat="53.585775" lon="-1.9772155"><ele>417.0</ele><time>2026-04-11T09:28:13.529Z</time></trkpt><trkpt lat="53.5858036" lon="-1.9770674"><ele>417.0</ele><time>2026-04-11T09:28:15.527Z</time></trkpt><trkpt lat="53.5858273" lon="-1.97696"><ele>417.0</ele><time>2026-04-11T09:28:25.529Z</time></trkpt><trkpt lat="53.5858782" lon="-1.97686"><ele>417.0</ele><time>2026-04-11T09:28:28.529Z</time></trkpt><trkpt lat="53.5859663" lon="-1.9768758"><ele>417.0</ele><time>2026-04-11T09:28:32.533Z</time></trkpt><trkpt lat="53.5860234" lon="-1.9769564"><ele>417.0</ele><time>2026-04-11T09:28:34.534Z</time></trkpt><trkpt lat="53.5860832" lon="-1.977004"><ele>417.0</ele><time>2026-04-11T09:28:36.532Z</time></trkpt><trkpt lat="53.5861612" lon="-1.9770309"><ele>417.0</ele><time>2026-04-11T09:28:38.529Z</time></trkpt><trkpt lat="53.5862241" lon="-1.9770572"><ele>417.0</ele><time>2026-04-11T09:28:40.529Z</time></trkpt><trkpt lat="53.5862952" lon="-1.977106"><ele>417.0</ele><time>2026-04-11T09:28:43.532Z</time></trkpt><trkpt lat="53.5863278" lon="-1.9772724"><ele>417.0</ele><time>2026-04-11T09:28:48.526Z</time></trkpt><trkpt lat="53.5863281" lon="-1.9774314"><ele>417.0</ele><time>2026-04-11T09:28:50.529Z</time></trkpt><trkpt lat="53.5863487" lon="-1.9775508"><ele>417.0</ele><time>2026-04-11T09:28:54.525Z</time></trkpt><trkpt lat="53.5863584" lon="-1.977686"><ele>417.0</ele><time>2026-04-11T09:28:59.534Z</time></trkpt><trkpt lat="53.5863066" lon="-1.9777595"><ele>417.0</ele><time>2026-04-11T09:29:01.535Z</time></trkpt><trkpt lat="53.5862348" lon="-1.9777952"><ele>417.0</ele><time>2026-04-11T09:29:03.531Z</time></trkpt><trkpt lat="53.5861481" lon="-1.977806"><ele>417.0</ele><time>2026-04-11T09:29:05.531Z</time></trkpt><trkpt lat="53.5860715" lon="-1.9777411"><ele>417.0</ele><time>2026-04-11T09:29:07.529Z</time></trkpt><trkpt lat="53.5859888" lon="-1.9776978"><ele>417.0</ele><time>2026-04-11T09:29:09.527Z</time></trkpt><trkpt lat="53.5858653" lon="-1.9777298"><ele>417.0</ele><time>2026-04-11T09:29:11.526Z</time></trkpt><trkpt lat="53.585798" lon="-1.9777735"><ele>417.0</ele><time>2026-04-11T09:29:12.524Z</time></trkpt><trkpt lat="53.5856943" lon="-1.9778664"><ele>417.0</ele><time>2026-04-11T09:29:14.531Z</time></trkpt><trkpt lat="53.5856196" lon="-1.9778481"><ele>417.0</ele><time>2026-04-11T09:29:16.53Z</time></trkpt><trkpt lat="53.5855905" lon="-1.9777218"><ele>417.0</ele><time>2026-04-11T09:29:18.529Z</time></trkpt><trkpt lat="53.5856022" lon="-1.9775557"><ele>417.0</ele><time>2026-04-11T09:29:20.527Z</time></trkpt><trkpt lat="53.58561" lon="-1.9773911"><ele>417.0</ele><time>2026-04-11T09:29:22.531Z</time></trkpt><trkpt lat="53.5856047" lon="-1.9772551"><ele>417.0</ele><time>2026-04-11T09:29:24.53Z</time></trkpt><trkpt lat="53.58559" lon="-1.9771401"><ele>417.0</ele><time>2026-04-11T09:29:26.531Z</time></trkpt><trkpt lat="53.5855612" lon="-1.9770182"><ele>417.0</ele><time>2026-04-11T09:29:28.529Z</time></trkpt><trkpt lat="53.585521" lon="-1.9768622"><ele>417.0</ele><time>2026-04-11T09:29:30.531Z</time></trkpt><trkpt lat="53.5854898" lon="-1.9767319"><ele>417.0</ele><time>2026-04-11T09:29:32.534Z</time></trkpt><trkpt lat="53.585471" lon="-1.9766205"><ele>417.0</ele><time>2026-04-11T09:29:34.531Z</time></trkpt><trkpt lat="53.5854485" lon="-1.9764941"><ele>417.0</ele><time>2026-04-11T09:29:36.533Z</time></trkpt><trkpt lat="53.5854206" lon="-1.9763629"><ele>416.5</ele><time>2026-04-11T09:29:38.531Z</time></trkpt><trkpt lat="53.5853752" lon="-1.9762566"><ele>416.0</ele><time>2026-04-11T09:29:40.531Z</time></trkpt><trkpt lat="53.5853146" lon="-1.9761648"><ele>415.5</ele><time>2026-04-11T09:29:42.529Z</time></trkpt><trkpt lat="53.5852518" lon="-1.9760474"><ele>415.0</ele><time>2026-04-11T09:29:44.53Z</time></trkpt><trkpt lat="53.5851971" lon="-1.9759512"><ele>414.5</ele><time>2026-04-11T09:29:46.529Z</time></trkpt><trkpt lat="53.5851508" lon="-1.975865"><ele>414.0</ele><time>2026-04-11T09:29:48.527Z</time></trkpt><trkpt lat="53.5851117" lon="-1.9757695"><ele>412.6</ele><time>2026-04-11T09:29:50.525Z</time></trkpt><trkpt lat="53.5850753" lon="-1.9756561"><ele>411.2</ele><time>2026-04-11T09:29:52.527Z</time></trkpt><trkpt lat="53.5850549" lon="-1.9755228"><ele>409.8</ele><time>2026-04-11T09:29:54.53Z</time></trkpt><trkpt lat="53.5850245" lon="-1.9753876"><ele>408.40000000000003</ele><time>2026-04-11T09:29:56.529Z</time></trkpt><trkpt lat="53.5849725" lon="-1.9752489"><ele>407.0</ele><time>2026-04-11T09:29:58.527Z</time></trkpt><trkpt lat="53.5849382" lon="-1.975068"><ele>406.5714285714286</ele><time>2026-04-11T09:30:00.529Z</time></trkpt><trkpt lat="53.5849203" lon="-1.9749633"><ele>406.14285714285717</ele><time>2026-04-11T09:30:01.525Z</time></trkpt><trkpt lat="53.5848939" lon="-1.9748474"><ele>405.7142857142857</ele><time>2026-04-11T09:30:02.525Z</time></trkpt><trkpt lat="53.5848599" lon="-1.974737"><ele>405.28571428571433</ele><time>2026-04-11T09:30:03.527Z</time></trkpt><trkpt lat="53.5848172" lon="-1.9746312"><ele>404.85714285714283</ele><time>2026-04-11T09:30:04.529Z</time></trkpt><trkpt lat="53.584766" lon="-1.9745378"><ele>404.42857142857144</ele><time>2026-04-11T09:30:05.523Z</time></trkpt><trkpt lat="53.584708" lon="-1.9744566"><ele>404.0</ele><time>2026-04-11T09:30:06.527Z</time></trkpt><trkpt lat="53.5846424" lon="-1.9743982"><ele>403.99999999999994</ele><time>2026-04-11T09:30:07.525Z</time></trkpt><trkpt lat="53.5845791" lon="-1.9743578"><ele>404.0</ele><time>2026-04-11T09:30:08.524Z</time></trkpt><trkpt lat="53.5845186" lon="-1.9743203"><ele>404.0</ele><time>2026-04-11T09:30:09.527Z</time></trkpt><trkpt lat="53.584459" lon="-1.9742789"><ele>404.0</ele><time>2026-04-11T09:30:10.526Z</time></trkpt><trkpt lat="53.5843997" lon="-1.9742326"><ele>403.99999999999994</ele><time>2026-04-11T09:30:11.526Z</time></trkpt><trkpt lat="53.5843023" lon="-1.974138"><ele>404.0</ele><time>2026-04-11T09:30:13.532Z</time></trkpt><trkpt lat="53.5842102" lon="-1.9740979"><ele>403.2</ele><time>2026-04-11T09:30:15.527Z</time></trkpt><trkpt lat="53.5840897" lon="-1.9741275"><ele>402.4</ele><time>2026-04-11T09:30:17.528Z</time></trkpt><trkpt lat="53.5839774" lon="-1.9741501"><ele>401.6</ele><time>2026-04-11T09:30:19.527Z</time></trkpt><trkpt lat="53.5838564" lon="-1.9741711"><ele>400.8</ele><time>2026-04-11T09:30:21.528Z</time></trkpt><trkpt lat="53.5837913" lon="-1.9741825"><ele>400.0</ele><time>2026-04-11T09:30:22.529Z</time></trkpt><trkpt lat="53.5837261" lon="-1.9741916"><ele>399.00000000000006</ele><time>2026-04-11T09:30:23.53Z</time></trkpt><trkpt lat="53.5836615" lon="-1.9741999"><ele>398.0</ele><time>2026-04-11T09:30:24.528Z</time></trkpt><trkpt lat="53.5835979" lon="-1.974213"><ele>397.0</ele><time>2026-04-11T09:30:25.527Z</time></trkpt><trkpt lat="53.5835367" lon="-1.9742402"><ele>396.0</ele><time>2026-04-11T09:30:26.526Z</time></trkpt><trkpt lat="53.5834318" lon="-1.9743097"><ele>395.00000000000006</ele><time>2026-04-11T09:30:28.527Z</time></trkpt><trkpt lat="53.5833455" lon="-1.9742578"><ele>394.0</ele><time>2026-04-11T09:30:30.528Z</time></trkpt><trkpt lat="53.5832888" lon="-1.9740929"><ele>394.00000000000006</ele><time>2026-04-11T09:30:32.53Z</time></trkpt><trkpt lat="53.5832044" lon="-1.9740795"><ele>394.0</ele><time>2026-04-11T09:30:34.526Z</time></trkpt><trkpt lat="53.5831479" lon="-1.9741381"><ele>394.0</ele><time>2026-04-11T09:30:35.53Z</time></trkpt><trkpt lat="53.5831071" lon="-1.9742486"><ele>394.0</ele><time>2026-04-11T09:30:36.528Z</time></trkpt><trkpt lat="53.5830939" lon="-1.9743901"><ele>394.00000000000006</ele><time>2026-04-11T09:30:37.524Z</time></trkpt><trkpt lat="53.5831052" lon="-1.9745334"><ele>394.0</ele><time>2026-04-11T09:30:38.528Z</time></trkpt><trkpt lat="53.5831132" lon="-1.9746476"><ele>394.00000000000006</ele><time>2026-04-11T09:30:39.527Z</time></trkpt><trkpt lat="53.5830993" lon="-1.9747882"><ele>394.0</ele><time>2026-04-11T09:30:41.527Z</time></trkpt><trkpt lat="53.5830441" lon="-1.9748656"><ele>394.0</ele><time>2026-04-11T09:30:44.53Z</time></trkpt><trkpt lat="53.5829874" lon="-1.9747994"><ele>394.0</ele><time>2026-04-11T09:31:01.521Z</time></trkpt><trkpt lat="53.5829327" lon="-1.9747403"><ele>394.00000000000006</ele><time>2026-04-11T09:31:52.53Z</time></trkpt><trkpt lat="53.5828446" lon="-1.9746432"><ele>394.0</ele><time>2026-04-11T09:31:54.53Z</time></trkpt><trkpt lat="53.5827374" lon="-1.9745204"><ele>392.2</ele><time>2026-04-11T09:31:56.532Z</time></trkpt><trkpt lat="53.5826785" lon="-1.9744506"><ele>390.4</ele><time>2026-04-11T09:31:57.529Z</time></trkpt><trkpt lat="53.5826071" lon="-1.9743692"><ele>388.6</ele><time>2026-04-11T09:31:58.53Z</time></trkpt><trkpt lat="53.5825225" lon="-1.9742756"><ele>386.8</ele><time>2026-04-11T09:31:59.527Z</time></trkpt><trkpt lat="53.5824244" lon="-1.9741764"><ele>385.0</ele><time>2026-04-11T09:32:00.53Z</time></trkpt><trkpt lat="53.582342" lon="-1.9740853"><ele>385.00000000000006</ele><time>2026-04-11T09:32:01.533Z</time></trkpt><trkpt lat="53.5822712" lon="-1.9740091"><ele>385.0</ele><time>2026-04-11T09:32:02.532Z</time></trkpt><trkpt lat="53.5822169" lon="-1.9739508"><ele>385.0</ele><time>2026-04-11T09:32:03.526Z</time></trkpt><trkpt lat="53.5821372" lon="-1.973877"><ele>385.0</ele><time>2026-04-11T09:32:05.534Z</time></trkpt><trkpt lat="53.5820749" lon="-1.9737703"><ele>385.00000000000006</ele><time>2026-04-11T09:32:08.532Z</time></trkpt><trkpt lat="53.5820567" lon="-1.9736408"><ele>385.0</ele><time>2026-04-11T09:32:10.533Z</time></trkpt><trkpt lat="53.5820232" lon="-1.9735223"><ele>385.6</ele><time>2026-04-11T09:32:12.531Z</time></trkpt><trkpt lat="53.5820007" lon="-1.973411"><ele>386.2</ele><time>2026-04-11T09:32:14.533Z</time></trkpt><trkpt lat="53.5820563" lon="-1.9732776"><ele>386.79999999999995</ele><time>2026-04-11T09:32:16.528Z</time></trkpt><trkpt lat="53.5821208" lon="-1.9731145"><ele>387.4</ele><time>2026-04-11T09:32:18.53Z</time></trkpt><trkpt lat="53.5821618" lon="-1.9729461"><ele>388.0</ele><time>2026-04-11T09:32:20.527Z</time></trkpt><trkpt lat="53.5822061" lon="-1.9727728"><ele>388.0</ele><time>2026-04-11T09:32:22.529Z</time></trkpt><trkpt lat="53.5822406" lon="-1.9725993"><ele>388.0</ele><time>2026-04-11T09:32:24.526Z</time></trkpt><trkpt lat="53.5822751" lon="-1.9724375"><ele>388.0</ele><time>2026-04-11T09:32:26.527Z</time></trkpt><trkpt lat="53.5823235" lon="-1.9722557"><ele>388.0</ele><time>2026-04-11T09:32:28.531Z</time></trkpt><trkpt lat="53.5823535" lon="-1.9721435"><ele>388.0</ele><time>2026-04-11T09:32:29.529Z</time></trkpt><trkpt lat="53.5823876" lon="-1.9720166"><ele>388.59999999999997</ele><time>2026-04-11T09:32:30.528Z</time></trkpt><trkpt lat="53.5824228" lon="-1.9718767"><ele>389.2</ele><time>2026-04-11T09:32:31.529Z</time></trkpt><trkpt lat="53.5824618" lon="-1.9717311"><ele>389.8</ele><time>2026-04-11T09:32:32.522Z</time></trkpt><trkpt lat="53.5825033" lon="-1.9715806"><ele>390.4</ele><time>2026-04-11T09:32:33.525Z</time></trkpt><trkpt lat="53.5825436" lon="-1.9714264"><ele>391.0</ele><time>2026-04-11T09:32:34.525Z</time></trkpt><trkpt lat="53.5825803" lon="-1.9712785"><ele>391.50000000000006</ele><time>2026-04-11T09:32:35.523Z</time></trkpt><trkpt lat="53.5826146" lon="-1.9711402"><ele>392.0</ele><time>2026-04-11T09:32:36.527Z</time></trkpt><trkpt lat="53.5826519" lon="-1.9710115"><ele>392.5</ele><time>2026-04-11T09:32:37.526Z</time></trkpt><trkpt lat="53.5826914" lon="-1.9708874"><ele>393.0</ele><time>2026-04-11T09:32:38.534Z</time></trkpt><trkpt lat="53.5827278" lon="-1.9707611"><ele>393.50000000000006</ele><time>2026-04-11T09:32:39.529Z</time></trkpt><trkpt lat="53.5827623" lon="-1.9706293"><ele>394.0</ele><time>2026-04-11T09:32:40.526Z</time></trkpt><trkpt lat="53.5827988" lon="-1.9704871"><ele>394.33333333333337</ele><time>2026-04-11T09:32:41.514Z</time></trkpt><trkpt lat="53.5828347" lon="-1.9703453"><ele>394.6666666666667</ele><time>2026-04-11T09:32:42.524Z</time></trkpt><trkpt lat="53.582867" lon="-1.9702087"><ele>395.0</ele><time>2026-04-11T09:32:43.519Z</time></trkpt><trkpt lat="53.5828968" lon="-1.9700728"><ele>395.33333333333337</ele><time>2026-04-11T09:32:44.532Z</time></trkpt><trkpt lat="53.582923" lon="-1.9699359"><ele>395.6666666666667</ele><time>2026-04-11T09:32:45.523Z</time></trkpt><trkpt lat="53.5829439" lon="-1.9698016"><ele>396.0</ele><time>2026-04-11T09:32:46.529Z</time></trkpt><trkpt lat="53.5829606" lon="-1.969673"><ele>396.0</ele><time>2026-04-11T09:32:47.527Z</time></trkpt><trkpt lat="53.5829753" lon="-1.9695478"><ele>396.0</ele><time>2026-04-11T09:32:48.529Z</time></trkpt><trkpt lat="53.5829872" lon="-1.9694297"><ele>396.0</ele><time>2026-04-11T09:32:49.527Z</time></trkpt><trkpt lat="53.5829923" lon="-1.9692289"><ele>396.0</ele><time>2026-04-11T09:32:51.529Z</time></trkpt><trkpt lat="53.5829651" lon="-1.9690751"><ele>396.0</ele><time>2026-04-11T09:32:53.529Z</time></trkpt><trkpt lat="53.5829634" lon="-1.9689532"><ele>396.0</ele><time>2026-04-11T09:33:13.529Z</time></trkpt><trkpt lat="53.5829574" lon="-1.9687793"><ele>396.0</ele><time>2026-04-11T09:33:37.531Z</time></trkpt><trkpt lat="53.5829488" lon="-1.9686675"><ele>396.0</ele><time>2026-04-11T09:33:38.533Z</time></trkpt><trkpt lat="53.5829414" lon="-1.9685533"><ele>396.0</ele><time>2026-04-11T09:33:39.529Z</time></trkpt><trkpt lat="53.5829334" lon="-1.9684441"><ele>396.0</ele><time>2026-04-11T09:33:40.53Z</time></trkpt><trkpt lat="53.5829187" lon="-1.9683292"><ele>396.0</ele><time>2026-04-11T09:33:41.529Z</time></trkpt><trkpt lat="53.5828957" lon="-1.9682045"><ele>396.0</ele><time>2026-04-11T09:33:42.529Z</time></trkpt><trkpt lat="53.5828717" lon="-1.9680746"><ele>396.0</ele><time>2026-04-11T09:33:43.527Z</time></trkpt><trkpt lat="53.5828538" lon="-1.9679497"><ele>396.42857142857144</ele><time>2026-04-11T09:33:44.53Z</time></trkpt><trkpt lat="53.5828367" lon="-1.967834"><ele>396.85714285714283</ele><time>2026-04-11T09:33:45.527Z</time></trkpt><trkpt lat="53.5828203" lon="-1.9677251"><ele>397.2857142857143</ele><time>2026-04-11T09:33:46.53Z</time></trkpt><trkpt lat="53.5828011" lon="-1.9676154"><ele>397.7142857142857</ele><time>2026-04-11T09:33:47.529Z</time></trkpt><trkpt lat="53.5827781" lon="-1.9674968"><ele>398.1428571428571</ele><time>2026-04-11T09:33:48.528Z</time></trkpt><trkpt lat="53.5827547" lon="-1.9673688"><ele>398.57142857142856</ele><time>2026-04-11T09:33:49.529Z</time></trkpt><trkpt lat="53.5827354" lon="-1.96724"><ele>399.0</ele><time>2026-04-11T09:33:50.529Z</time></trkpt><trkpt lat="53.5827198" lon="-1.9671099"><ele>399.0</ele><time>2026-04-11T09:33:51.528Z</time></trkpt><trkpt lat="53.5827024" lon="-1.9669723"><ele>399.0</ele><time>2026-04-11T09:33:52.529Z</time></trkpt><trkpt lat="53.5826796" lon="-1.9668179"><ele>399.0</ele><time>2026-04-11T09:33:53.532Z</time></trkpt><trkpt lat="53.5826561" lon="-1.9666563"><ele>399.0</ele><time>2026-04-11T09:33:54.528Z</time></trkpt><trkpt lat="53.5826358" lon="-1.9664805"><ele>399.0</ele><time>2026-04-11T09:33:55.528Z</time></trkpt><trkpt lat="53.5826099" lon="-1.9662959"><ele>398.5</ele><time>2026-04-11T09:33:56.527Z</time></trkpt><trkpt lat="53.5825817" lon="-1.9661018"><ele>398.0</ele><time>2026-04-11T09:33:57.533Z</time></trkpt><trkpt lat="53.5825539" lon="-1.965905"><ele>397.5</ele><time>2026-04-11T09:33:58.527Z</time></trkpt><trkpt lat="53.5825288" lon="-1.9657049"><ele>397.0</ele><time>2026-04-11T09:33:59.529Z</time></trkpt><trkpt lat="53.5825" lon="-1.965507"><ele>396.6</ele><time>2026-04-11T09:34:00.531Z</time></trkpt><trkpt lat="53.5824705" lon="-1.9653216"><ele>396.20000000000005</ele><time>2026-04-11T09:34:01.531Z</time></trkpt><trkpt lat="53.5824378" lon="-1.9651531"><ele>395.8</ele><time>2026-04-11T09:34:02.529Z</time></trkpt><trkpt lat="53.5824027" lon="-1.9649999"><ele>395.4</ele><time>2026-04-11T09:34:03.537Z</time></trkpt><trkpt lat="53.582365" lon="-1.9648513"><ele>395.0</ele><time>2026-04-11T09:34:04.53Z</time></trkpt><trkpt lat="53.582324" lon="-1.9646982"><ele>394.2</ele><time>2026-04-11T09:34:05.529Z</time></trkpt><trkpt lat="53.5822764" lon="-1.9645394"><ele>393.4</ele><time>2026-04-11T09:34:06.531Z</time></trkpt><trkpt lat="53.5822225" lon="-1.9643767"><ele>392.6</ele><time>2026-04-11T09:34:07.531Z</time></trkpt><trkpt lat="53.582162" lon="-1.96421"><ele>391.8</ele><time>2026-04-11T09:34:08.529Z</time></trkpt><trkpt lat="53.582107" lon="-1.9640438"><ele>391.0</ele><time>2026-04-11T09:34:09.53Z</time></trkpt><trkpt lat="53.5820528" lon="-1.9638813"><ele>389.75</ele><time>2026-04-11T09:34:10.529Z</time></trkpt><trkpt lat="53.5819998" lon="-1.9637124"><ele>388.5</ele><time>2026-04-11T09:34:11.526Z</time></trkpt><trkpt lat="53.5819496" lon="-1.9635298"><ele>387.25</ele><time>2026-04-11T09:34:12.531Z</time></trkpt><trkpt lat="53.5818979" lon="-1.9633341"><ele>386.0</ele><time>2026-04-11T09:34:13.531Z</time></trkpt><trkpt lat="53.5818405" lon="-1.9631333"><ele>384.5</ele><time>2026-04-11T09:34:14.529Z</time></trkpt><trkpt lat="53.581778" lon="-1.9629263"><ele>383.0</ele><time>2026-04-11T09:34:15.523Z</time></trkpt><trkpt lat="53.5817223" lon="-1.962719"><ele>381.5</ele><time>2026-04-11T09:34:16.531Z</time></trkpt><trkpt lat="53.5816822" lon="-1.9625106"><ele>380.0</ele><time>2026-04-11T09:34:17.527Z</time></trkpt><trkpt lat="53.5816539" lon="-1.9623016"><ele>379.0</ele><time>2026-04-11T09:34:18.528Z</time></trkpt><trkpt lat="53.5816325" lon="-1.9620853"><ele>378.0</ele><time>2026-04-11T09:34:19.529Z</time></trkpt><trkpt lat="53.5816149" lon="-1.9618685"><ele>377.0</ele><time>2026-04-11T09:34:20.528Z</time></trkpt><trkpt lat="53.5815996" lon="-1.9616658"><ele>376.0</ele><time>2026-04-11T09:34:21.527Z</time></trkpt><trkpt lat="53.5815889" lon="-1.961486"><ele>375.8333333333333</ele><time>2026-04-11T09:34:22.521Z</time></trkpt><trkpt lat="53.5815824" lon="-1.961332"><ele>375.66666666666663</ele><time>2026-04-11T09:34:23.529Z</time></trkpt><trkpt lat="53.5815797" lon="-1.9612053"><ele>375.5</ele><time>2026-04-11T09:34:24.53Z</time></trkpt><trkpt lat="53.5815936" lon="-1.9610381"><ele>375.3333333333333</ele><time>2026-04-11T09:34:26.531Z</time></trkpt><trkpt lat="53.5816541" lon="-1.9609821"><ele>375.1666666666667</ele><time>2026-04-11T09:34:28.53Z</time></trkpt><trkpt lat="53.5817116" lon="-1.9609238"><ele>375.0</ele><time>2026-04-11T09:34:30.526Z</time></trkpt><trkpt lat="53.5817472" lon="-1.9608165"><ele>374.6</ele><time>2026-04-11T09:34:33.528Z</time></trkpt><trkpt lat="53.5817531" lon="-1.9606972"><ele>374.2</ele><time>2026-04-11T09:34:36.53Z</time></trkpt><trkpt lat="53.5817229" lon="-1.9605691"><ele>373.79999999999995</ele><time>2026-04-11T09:34:39.527Z</time></trkpt><trkpt lat="53.5817235" lon="-1.9603802"><ele>373.4</ele><time>2026-04-11T09:34:41.528Z</time></trkpt><trkpt lat="53.5817172" lon="-1.9602195"><ele>373.0</ele><time>2026-04-11T09:34:43.526Z</time></trkpt><trkpt lat="53.5816676" lon="-1.9600524"><ele>372.8333333333333</ele><time>2026-04-11T09:34:45.528Z</time></trkpt><trkpt lat="53.5816512" lon="-1.9599397"><ele>372.66666666666663</ele><time>2026-04-11T09:34:46.528Z</time></trkpt><trkpt lat="53.5816535" lon="-1.9598118"><ele>372.5</ele><time>2026-04-11T09:34:47.527Z</time></trkpt><trkpt lat="53.5816725" lon="-1.9596611"><ele>372.3333333333333</ele><time>2026-04-11T09:34:48.529Z</time></trkpt><trkpt lat="53.5816974" lon="-1.9595064"><ele>372.1666666666667</ele><time>2026-04-11T09:34:49.528Z</time></trkpt><trkpt lat="53.5817158" lon="-1.9593431"><ele>372.0</ele><time>2026-04-11T09:34:50.528Z</time></trkpt><trkpt lat="53.5817284" lon="-1.9591698"><ele>372.40000000000003</ele><time>2026-04-11T09:34:51.528Z</time></trkpt><trkpt lat="53.5817456" lon="-1.9589952"><ele>372.8</ele><time>2026-04-11T09:34:52.529Z</time></trkpt><trkpt lat="53.5817724" lon="-1.9588202"><ele>373.2</ele><time>2026-04-11T09:34:53.532Z</time></trkpt><trkpt lat="53.5818077" lon="-1.9586479"><ele>373.6</ele><time>2026-04-11T09:34:54.533Z</time></trkpt><trkpt lat="53.5818463" lon="-1.9584808"><ele>374.0</ele><time>2026-04-11T09:34:55.526Z</time></trkpt><trkpt lat="53.5818881" lon="-1.9583125"><ele>374.25</ele><time>2026-04-11T09:34:56.529Z</time></trkpt><trkpt lat="53.5819278" lon="-1.9581341"><ele>374.5</ele><time>2026-04-11T09:34:57.523Z</time></trkpt><trkpt lat="53.5819657" lon="-1.9579459"><ele>374.75</ele><time>2026-04-11T09:34:58.533Z</time></trkpt><trkpt lat="53.5820079" lon="-1.9577688"><ele>375.0</ele><time>2026-04-11T09:34:59.521Z</time></trkpt><trkpt lat="53.5820549" lon="-1.9575957"><ele>374.5</ele><time>2026-04-11T09:35:00.528Z</time></trkpt><trkpt lat="53.582105" lon="-1.9574167"><ele>374.0</ele><time>2026-04-11T09:35:01.528Z</time></trkpt><trkpt lat="53.5821505" lon="-1.9572387"><ele>373.5</ele><time>2026-04-11T09:35:02.53Z</time></trkpt><trkpt lat="53.5821959" lon="-1.9570615"><ele>373.0</ele><time>2026-04-11T09:35:03.531Z</time></trkpt><trkpt lat="53.5822444" lon="-1.9568861"><ele>373.0</ele><time>2026-04-11T09:35:04.53Z</time></trkpt><trkpt lat="53.5822943" lon="-1.9567131"><ele>373.0</ele><time>2026-04-11T09:35:05.528Z</time></trkpt><trkpt lat="53.5823453" lon="-1.9565328"><ele>373.0</ele><time>2026-04-11T09:35:06.532Z</time></trkpt><trkpt lat="53.5824006" lon="-1.9563503"><ele>373.0</ele><time>2026-04-11T09:35:07.527Z</time></trkpt><trkpt lat="53.5824533" lon="-1.9561742"><ele>373.59999999999997</ele><time>2026-04-11T09:35:08.526Z</time></trkpt><trkpt lat="53.5825005" lon="-1.9560066"><ele>374.2</ele><time>2026-04-11T09:35:09.529Z</time></trkpt><trkpt lat="53.5825457" lon="-1.9558555"><ele>374.8</ele><time>2026-04-11T09:35:10.531Z</time></trkpt><trkpt lat="53.5825843" lon="-1.9557074"><ele>375.4</ele><time>2026-04-11T09:35:11.531Z</time></trkpt><trkpt lat="53.5826238" lon="-1.9555583"><ele>376.0</ele><time>2026-04-11T09:35:12.528Z</time></trkpt><trkpt lat="53.5826676" lon="-1.9554033"><ele>376.5</ele><time>2026-04-11T09:35:13.525Z</time></trkpt><trkpt lat="53.5827164" lon="-1.9552393"><ele>377.0</ele><time>2026-04-11T09:35:14.529Z</time></trkpt><trkpt lat="53.5827699" lon="-1.9550725"><ele>377.5</ele><time>2026-04-11T09:35:15.53Z</time></trkpt><trkpt lat="53.5828261" lon="-1.9548971"><ele>378.0</ele><time>2026-04-11T09:35:16.536Z</time></trkpt><trkpt lat="53.5828802" lon="-1.95473"><ele>378.0</ele><time>2026-04-11T09:35:17.53Z</time></trkpt><trkpt lat="53.5829317" lon="-1.9545762"><ele>378.0</ele><time>2026-04-11T09:35:18.529Z</time></trkpt><trkpt lat="53.5829799" lon="-1.9544287"><ele>378.0</ele><time>2026-04-11T09:35:19.528Z</time></trkpt><trkpt lat="53.5830335" lon="-1.9542797"><ele>378.0</ele><time>2026-04-11T09:35:20.531Z</time></trkpt><trkpt lat="53.5830867" lon="-1.9541243"><ele>378.0</ele><time>2026-04-11T09:35:21.528Z</time></trkpt><trkpt lat="53.5831397" lon="-1.9539642"><ele>378.2</ele><time>2026-04-11T09:35:22.53Z</time></trkpt><trkpt lat="53.5831949" lon="-1.9537989"><ele>378.4</ele><time>2026-04-11T09:35:23.529Z</time></trkpt><trkpt lat="53.5832525" lon="-1.9536303"><ele>378.59999999999997</ele><time>2026-04-11T09:35:24.529Z</time></trkpt><trkpt lat="53.5833076" lon="-1.9534684"><ele>378.79999999999995</ele><time>2026-04-11T09:35:25.529Z</time></trkpt><trkpt lat="53.5833626" lon="-1.9533122"><ele>379.0</ele><time>2026-04-11T09:35:26.532Z</time></trkpt><trkpt lat="53.5834229" lon="-1.953164"><ele>378.6</ele><time>2026-04-11T09:35:27.532Z</time></trkpt><trkpt lat="53.5834872" lon="-1.9530327"><ele>378.2</ele><time>2026-04-11T09:35:28.532Z</time></trkpt><trkpt lat="53.5835583" lon="-1.9529118"><ele>377.8</ele><time>2026-04-11T09:35:29.528Z</time></trkpt><trkpt lat="53.5836335" lon="-1.9527941"><ele>377.40000000000003</ele><time>2026-04-11T09:35:30.531Z</time></trkpt><trkpt lat="53.5837079" lon="-1.9526808"><ele>377.0</ele><time>2026-04-11T09:35:31.529Z</time></trkpt><trkpt lat="53.5837839" lon="-1.9525649"><ele>375.8</ele><time>2026-04-11T09:35:32.527Z</time></trkpt><trkpt lat="53.5838612" lon="-1.9524504"><ele>374.6</ele><time>2026-04-11T09:35:33.534Z</time></trkpt><trkpt lat="53.5839363" lon="-1.9523353"><ele>373.40000000000003</ele><time>2026-04-11T09:35:34.529Z</time></trkpt><trkpt lat="53.5840063" lon="-1.9522224"><ele>372.20000000000005</ele><time>2026-04-11T09:35:35.529Z</time></trkpt><trkpt lat="53.5840727" lon="-1.9521171"><ele>371.0</ele><time>2026-04-11T09:35:36.527Z</time></trkpt><trkpt lat="53.5841313" lon="-1.9520226"><ele>371.0</ele><time>2026-04-11T09:35:37.528Z</time></trkpt><trkpt lat="53.5841852" lon="-1.9519334"><ele>371.0</ele><time>2026-04-11T09:35:38.53Z</time></trkpt><trkpt lat="53.5842366" lon="-1.9518411"><ele>371.0</ele><time>2026-04-11T09:35:39.528Z</time></trkpt><trkpt lat="53.5842939" lon="-1.9517409"><ele>371.0</ele><time>2026-04-11T09:35:40.534Z</time></trkpt><trkpt lat="53.5843615" lon="-1.9516304"><ele>371.0</ele><time>2026-04-11T09:35:41.527Z</time></trkpt><trkpt lat="53.5844332" lon="-1.9515143"><ele>371.0</ele><time>2026-04-11T09:35:42.527Z</time></trkpt><trkpt lat="53.5844965" lon="-1.9514069"><ele>369.83333333333337</ele><time>2026-04-11T09:35:43.532Z</time></trkpt><trkpt lat="53.5845574" lon="-1.9513077"><ele>368.6666666666667</ele><time>2026-04-11T09:35:44.53Z</time></trkpt><trkpt lat="53.5846161" lon="-1.9512145"><ele>367.5</ele><time>2026-04-11T09:35:45.524Z</time></trkpt><trkpt lat="53.5846707" lon="-1.9511178"><ele>366.3333333333333</ele><time>2026-04-11T09:35:46.53Z</time></trkpt><trkpt lat="53.584727" lon="-1.9510156"><ele>365.16666666666663</ele><time>2026-04-11T09:35:47.528Z</time></trkpt><trkpt lat="53.5847873" lon="-1.9509119"><ele>364.0</ele><time>2026-04-11T09:35:48.529Z</time></trkpt><trkpt lat="53.5848513" lon="-1.9508107"><ele>363.4</ele><time>2026-04-11T09:35:49.528Z</time></trkpt><trkpt lat="53.5849165" lon="-1.9507017"><ele>362.79999999999995</ele><time>2026-04-11T09:35:50.529Z</time></trkpt><trkpt lat="53.5849836" lon="-1.9505862"><ele>362.20000000000005</ele><time>2026-04-11T09:35:51.527Z</time></trkpt><trkpt lat="53.5850527" lon="-1.9504701"><ele>361.6</ele><time>2026-04-11T09:35:52.527Z</time></trkpt><trkpt lat="53.5851196" lon="-1.9503565"><ele>361.0</ele><time>2026-04-11T09:35:53.53Z</time></trkpt><trkpt lat="53.5851887" lon="-1.9502462"><ele>361.0</ele><time>2026-04-11T09:35:54.538Z</time></trkpt><trkpt lat="53.5852556" lon="-1.950141"><ele>361.0</ele><time>2026-04-11T09:35:55.528Z</time></trkpt><trkpt lat="53.5853214" lon="-1.9500375"><ele>361.0</ele><time>2026-04-11T09:35:56.527Z</time></trkpt><trkpt lat="53.5853889" lon="-1.9499305"><ele>361.0</ele><time>2026-04-11T09:35:57.53Z</time></trkpt><trkpt lat="53.5854504" lon="-1.9498259"><ele>361.0</ele><time>2026-04-11T09:35:58.528Z</time></trkpt><trkpt lat="53.5855115" lon="-1.9497299"><ele>361.0</ele><time>2026-04-11T09:35:59.528Z</time></trkpt><trkpt lat="53.5855711" lon="-1.9496366"><ele>359.6</ele><time>2026-04-11T09:36:00.528Z</time></trkpt><trkpt lat="53.5856288" lon="-1.9495366"><ele>358.20000000000005</ele><time>2026-04-11T09:36:01.527Z</time></trkpt><trkpt lat="53.5856877" lon="-1.9494247"><ele>356.79999999999995</ele><time>2026-04-11T09:36:02.522Z</time></trkpt><trkpt lat="53.5857502" lon="-1.9493078"><ele>355.4</ele><time>2026-04-11T09:36:03.529Z</time></trkpt><trkpt lat="53.5858195" lon="-1.94919"><ele>354.0</ele><time>2026-04-11T09:36:04.53Z</time></trkpt><trkpt lat="53.5858937" lon="-1.949074"><ele>354.0</ele><time>2026-04-11T09:36:05.526Z</time></trkpt><trkpt lat="53.5859664" lon="-1.9489605"><ele>354.0</ele><time>2026-04-11T09:36:06.529Z</time></trkpt><trkpt lat="53.5860346" lon="-1.9488564"><ele>354.0</ele><time>2026-04-11T09:36:07.53Z</time></trkpt><trkpt lat="53.5861032" lon="-1.9487629"><ele>354.0</ele><time>2026-04-11T09:36:08.53Z</time></trkpt><trkpt lat="53.5861672" lon="-1.9486746"><ele>354.0</ele><time>2026-04-11T09:36:09.529Z</time></trkpt><trkpt lat="53.5862276" lon="-1.9485877"><ele>354.0</ele><time>2026-04-11T09:36:10.53Z</time></trkpt><trkpt lat="53.5862854" lon="-1.948501"><ele>353.42857142857144</ele><time>2026-04-11T09:36:11.526Z</time></trkpt><trkpt lat="53.5863349" lon="-1.9484175"><ele>352.85714285714283</ele><time>2026-04-11T09:36:12.529Z</time></trkpt><trkpt lat="53.5863815" lon="-1.9483306"><ele>352.2857142857143</ele><time>2026-04-11T09:36:13.533Z</time></trkpt><trkpt lat="53.5864233" lon="-1.9482299"><ele>351.7142857142857</ele><time>2026-04-11T09:36:14.531Z</time></trkpt><trkpt lat="53.5864589" lon="-1.9481158"><ele>351.1428571428571</ele><time>2026-04-11T09:36:15.528Z</time></trkpt><trkpt lat="53.58649" lon="-1.9480082"><ele>350.57142857142856</ele><time>2026-04-11T09:36:16.528Z</time></trkpt><trkpt lat="53.5865213" lon="-1.9479044"><ele>350.0</ele><time>2026-04-11T09:36:17.529Z</time></trkpt><trkpt lat="53.5865567" lon="-1.9478028"><ele>349.5</ele><time>2026-04-11T09:36:18.53Z</time></trkpt><trkpt lat="53.5865921" lon="-1.9477132"><ele>349.0</ele><time>2026-04-11T09:36:19.529Z</time></trkpt><trkpt lat="53.5866409" lon="-1.9475804"><ele>348.5</ele><time>2026-04-11T09:36:21.522Z</time></trkpt><trkpt lat="53.5867098" lon="-1.9475329"><ele>348.0</ele><time>2026-04-11T09:36:25.529Z</time></trkpt><trkpt lat="53.58674" lon="-1.9476509"><ele>347.5</ele><time>2026-04-11T09:36:27.525Z</time></trkpt><trkpt lat="53.5867312" lon="-1.9478336"><ele>347.0</ele><time>2026-04-11T09:36:29.527Z</time></trkpt><trkpt lat="53.5867397" lon="-1.9479969"><ele>347.0</ele><time>2026-04-11T09:36:31.527Z</time></trkpt><trkpt lat="53.586772" lon="-1.9481328"><ele>347.0</ele><time>2026-04-11T09:36:33.529Z</time></trkpt><trkpt lat="53.586824" lon="-1.9482256"><ele>347.0</ele><time>2026-04-11T09:36:35.529Z</time></trkpt><trkpt lat="53.5868946" lon="-1.9482022"><ele>347.0</ele><time>2026-04-11T09:36:37.53Z</time></trkpt><trkpt lat="53.5869645" lon="-1.9480249"><ele>347.0</ele><time>2026-04-11T09:36:39.519Z</time></trkpt><trkpt lat="53.5869943" lon="-1.9479056"><ele>347.0</ele><time>2026-04-11T09:36:40.523Z</time></trkpt><trkpt lat="53.587033" lon="-1.9478029"><ele>347.0</ele><time>2026-04-11T09:36:41.518Z</time></trkpt><trkpt lat="53.5870876" lon="-1.9477257"><ele>347.0</ele><time>2026-04-11T09:36:42.517Z</time></trkpt><trkpt lat="53.5871554" lon="-1.9476782"><ele>347.0</ele><time>2026-04-11T09:36:43.522Z</time></trkpt><trkpt lat="53.5872319" lon="-1.9476522"><ele>347.0</ele><time>2026-04-11T09:36:44.521Z</time></trkpt><trkpt lat="53.5873015" lon="-1.9476172"><ele>347.0</ele><time>2026-04-11T09:36:45.532Z</time></trkpt><trkpt lat="53.5873576" lon="-1.9475526"><ele>347.0</ele><time>2026-04-11T09:36:46.527Z</time></trkpt><trkpt lat="53.5873884" lon="-1.9474397"><ele>347.0</ele><time>2026-04-11T09:36:47.527Z</time></trkpt><trkpt lat="53.5874008" lon="-1.9473006"><ele>346.20000000000005</ele><time>2026-04-11T09:36:48.528Z</time></trkpt><trkpt lat="53.5874091" lon="-1.947157"><ele>345.4</ele><time>2026-04-11T09:36:49.529Z</time></trkpt><trkpt lat="53.5874118" lon="-1.9470354"><ele>344.6</ele><time>2026-04-11T09:36:50.529Z</time></trkpt><trkpt lat="53.5874204" lon="-1.9468639"><ele>343.79999999999995</ele><time>2026-04-11T09:36:52.528Z</time></trkpt><trkpt lat="53.5874967" lon="-1.9467621"><ele>343.0</ele><time>2026-04-11T09:36:55.53Z</time></trkpt><trkpt lat="53.5875328" lon="-1.9465294"><ele>342.59999999999997</ele><time>2026-04-11T09:36:57.529Z</time></trkpt><trkpt lat="53.5875434" lon="-1.9463553"><ele>342.2</ele><time>2026-04-11T09:36:58.526Z</time></trkpt><trkpt lat="53.5875404" lon="-1.9461791"><ele>341.8</ele><time>2026-04-11T09:36:59.528Z</time></trkpt><trkpt lat="53.5875406" lon="-1.9460081"><ele>341.4</ele><time>2026-04-11T09:37:00.53Z</time></trkpt><trkpt lat="53.5875475" lon="-1.9458435"><ele>341.0</ele><time>2026-04-11T09:37:01.531Z</time></trkpt><trkpt lat="53.5875533" lon="-1.9456747"><ele>340.20000000000005</ele><time>2026-04-11T09:37:02.528Z</time></trkpt><trkpt lat="53.5875608" lon="-1.9455082"><ele>339.40000000000003</ele><time>2026-04-11T09:37:03.533Z</time></trkpt><trkpt lat="53.5875708" lon="-1.9453432"><ele>338.6</ele><time>2026-04-11T09:37:04.529Z</time></trkpt><trkpt lat="53.5875904" lon="-1.9451903"><ele>337.8</ele><time>2026-04-11T09:37:05.529Z</time></trkpt><trkpt lat="53.5876178" lon="-1.9450557"><ele>337.0</ele><time>2026-04-11T09:37:06.528Z</time></trkpt><trkpt lat="53.5876493" lon="-1.9449394"><ele>336.0</ele><time>2026-04-11T09:37:07.526Z</time></trkpt><trkpt lat="53.5876897" lon="-1.9448351"><ele>335.0</ele><time>2026-04-11T09:37:08.527Z</time></trkpt><trkpt lat="53.5877526" lon="-1.9447436"><ele>334.0</ele><time>2026-04-11T09:37:09.528Z</time></trkpt><trkpt lat="53.5878359" lon="-1.9446774"><ele>333.0</ele><time>2026-04-11T09:37:10.527Z</time></trkpt><trkpt lat="53.58793" lon="-1.9446234"><ele>332.0</ele><time>2026-04-11T09:37:11.522Z</time></trkpt><trkpt lat="53.5880069" lon="-1.9445687"><ele>331.0</ele><time>2026-04-11T09:37:12.526Z</time></trkpt><trkpt lat="53.5880722" lon="-1.9445313"><ele>335.0</ele><time>2026-04-11T09:37:13.528Z</time></trkpt><trkpt lat="53.5881513" lon="-1.9444701"><ele>339.0</ele><time>2026-04-11T09:37:15.523Z</time></trkpt><trkpt lat="53.5881649" lon="-1.9443311"><ele>343.0</ele><time>2026-04-11T09:37:18.527Z</time></trkpt><trkpt lat="53.5881269" lon="-1.9444647"><ele>347.0</ele><time>2026-04-11T09:37:27.523Z</time></trkpt><trkpt lat="53.588079" lon="-1.9446159"><ele>351.0</ele><time>2026-04-11T09:37:29.524Z</time></trkpt><trkpt lat="53.588056" lon="-1.9447978"><ele>351.0</ele><time>2026-04-11T09:37:31.526Z</time></trkpt><trkpt lat="53.5880487" lon="-1.9450086"><ele>351.0</ele><time>2026-04-11T09:37:33.528Z</time></trkpt><trkpt lat="53.5880555" lon="-1.9451241"><ele>351.0</ele><time>2026-04-11T09:37:34.526Z</time></trkpt><trkpt lat="53.5880662" lon="-1.9452362"><ele>351.0</ele><time>2026-04-11T09:37:35.526Z</time></trkpt><trkpt lat="53.5880971" lon="-1.9454269"><ele>351.0</ele><time>2026-04-11T09:37:37.525Z</time></trkpt><trkpt lat="53.5881218" lon="-1.9456041"><ele>352.0</ele><time>2026-04-11T09:37:39.528Z</time></trkpt><trkpt lat="53.5881542" lon="-1.9457721"><ele>353.0</ele><time>2026-04-11T09:37:41.526Z</time></trkpt><trkpt lat="53.5882149" lon="-1.9459314"><ele>354.0</ele><time>2026-04-11T09:37:43.525Z</time></trkpt><trkpt lat="53.5883106" lon="-1.9460622"><ele>355.0</ele><time>2026-04-11T09:37:45.519Z</time></trkpt><trkpt lat="53.5883709" lon="-1.9461305"><ele>356.0</ele><time>2026-04-11T09:37:46.522Z</time></trkpt><trkpt lat="53.5884262" lon="-1.9462199"><ele>356.0</ele><time>2026-04-11T09:37:47.523Z</time></trkpt><trkpt lat="53.5884645" lon="-1.9463174"><ele>356.0</ele><time>2026-04-11T09:37:48.526Z</time></trkpt><trkpt lat="53.5885223" lon="-1.9464683"><ele>356.0</ele><time>2026-04-11T09:37:50.528Z</time></trkpt><trkpt lat="53.5886236" lon="-1.9465214"><ele>356.0</ele><time>2026-04-11T09:37:52.528Z</time></trkpt><trkpt lat="53.5887167" lon="-1.9464551"><ele>356.0</ele><time>2026-04-11T09:37:54.527Z</time></trkpt><trkpt lat="53.5887772" lon="-1.9462937"><ele>358.6666666666667</ele><time>2026-04-11T09:37:56.528Z</time></trkpt><trkpt lat="53.5888481" lon="-1.9462202"><ele>361.33333333333337</ele><time>2026-04-11T09:37:58.528Z</time></trkpt><trkpt lat="53.5889425" lon="-1.9462834"><ele>364.0</ele><time>2026-04-11T09:38:00.53Z</time></trkpt><trkpt lat="53.5889965" lon="-1.9463424"><ele>366.6666666666667</ele><time>2026-04-11T09:38:01.527Z</time></trkpt><trkpt lat="53.5890864" lon="-1.946408"><ele>369.3333333333333</ele><time>2026-04-11T09:38:03.522Z</time></trkpt><trkpt lat="53.5891749" lon="-1.9464712"><ele>372.0</ele><time>2026-04-11T09:38:05.53Z</time></trkpt><trkpt lat="53.5892638" lon="-1.946583"><ele>371.6</ele><time>2026-04-11T09:38:07.526Z</time></trkpt><trkpt lat="53.5893485" lon="-1.9467118"><ele>371.20000000000005</ele><time>2026-04-11T09:38:09.528Z</time></trkpt><trkpt lat="53.589427" lon="-1.9468271"><ele>370.8</ele><time>2026-04-11T09:38:11.526Z</time></trkpt><trkpt lat="53.5895342" lon="-1.9469421"><ele>370.4</ele><time>2026-04-11T09:38:13.531Z</time></trkpt><trkpt lat="53.5895926" lon="-1.9470115"><ele>370.0</ele><time>2026-04-11T09:38:14.529Z</time></trkpt><trkpt lat="53.5896481" lon="-1.9470822"><ele>372.16666666666663</ele><time>2026-04-11T09:38:15.529Z</time></trkpt><trkpt lat="53.5896957" lon="-1.9471582"><ele>374.3333333333333</ele><time>2026-04-11T09:38:16.53Z</time></trkpt><trkpt lat="53.5897627" lon="-1.9473382"><ele>376.5</ele><time>2026-04-11T09:38:18.527Z</time></trkpt><trkpt lat="53.5898013" lon="-1.9474421"><ele>378.6666666666667</ele><time>2026-04-11T09:38:19.527Z</time></trkpt><trkpt lat="53.5898466" lon="-1.9475627"><ele>380.83333333333337</ele><time>2026-04-11T09:38:20.531Z</time></trkpt><trkpt lat="53.5898948" lon="-1.9476961"><ele>383.0</ele><time>2026-04-11T09:38:21.527Z</time></trkpt><trkpt lat="53.58994" lon="-1.9478331"><ele>383.1666666666667</ele><time>2026-04-11T09:38:22.529Z</time></trkpt><trkpt lat="53.5899784" lon="-1.9479662"><ele>383.33333333333337</ele><time>2026-04-11T09:38:23.529Z</time></trkpt><trkpt lat="53.5900099" lon="-1.9480916"><ele>383.5</ele><time>2026-04-11T09:38:24.527Z</time></trkpt><trkpt lat="53.5900373" lon="-1.9482025"><ele>383.6666666666667</ele><time>2026-04-11T09:38:25.528Z</time></trkpt><trkpt lat="53.5900594" lon="-1.9483064"><ele>383.8333333333333</ele><time>2026-04-11T09:38:26.526Z</time></trkpt><trkpt lat="53.5900814" lon="-1.9484065"><ele>384.0</ele><time>2026-04-11T09:38:27.529Z</time></trkpt><trkpt lat="53.590144" lon="-1.9485526"><ele>385.0</ele><time>2026-04-11T09:38:29.526Z</time></trkpt><trkpt lat="53.5901785" lon="-1.9487024"><ele>386.0</ele><time>2026-04-11T09:38:31.527Z</time></trkpt><trkpt lat="53.590198" lon="-1.9488525"><ele>387.0</ele><time>2026-04-11T09:38:33.528Z</time></trkpt><trkpt lat="53.590218" lon="-1.9490293"><ele>388.0</ele><time>2026-04-11T09:38:35.528Z</time></trkpt><trkpt lat="53.5902431" lon="-1.9492427"><ele>389.0</ele><time>2026-04-11T09:38:37.53Z</time></trkpt><trkpt lat="53.590274" lon="-1.9493664"><ele>390.16666666666663</ele><time>2026-04-11T09:38:38.528Z</time></trkpt><trkpt lat="53.5903087" lon="-1.9494816"><ele>391.3333333333333</ele><time>2026-04-11T09:38:39.528Z</time></trkpt><trkpt lat="53.5903457" lon="-1.9495908"><ele>392.5</ele><time>2026-04-11T09:38:40.53Z</time></trkpt><trkpt lat="53.5903796" lon="-1.9496925"><ele>393.66666666666663</ele><time>2026-04-11T09:38:41.526Z</time></trkpt><trkpt lat="53.5904103" lon="-1.9497886"><ele>394.8333333333333</ele><time>2026-04-11T09:38:42.527Z</time></trkpt><trkpt lat="53.5904448" lon="-1.9498805"><ele>396.0</ele><time>2026-04-11T09:38:43.53Z</time></trkpt><trkpt lat="53.5905115" lon="-1.9500506"><ele>401.75</ele><time>2026-04-11T09:38:45.528Z</time></trkpt><trkpt lat="53.5905841" lon="-1.9502239"><ele>407.5</ele><time>2026-04-11T09:38:47.526Z</time></trkpt><trkpt lat="53.5906577" lon="-1.9503872"><ele>413.25</ele><time>2026-04-11T09:38:49.524Z</time></trkpt><trkpt lat="53.590739" lon="-1.9505326"><ele>419.0</ele><time>2026-04-11T09:38:51.526Z</time></trkpt><trkpt lat="53.5908118" lon="-1.9506718"><ele>418.99999999999994</ele><time>2026-04-11T09:38:53.526Z</time></trkpt><trkpt lat="53.590864" lon="-1.9507503"><ele>419.0</ele><time>2026-04-11T09:38:55.527Z</time></trkpt><trkpt lat="53.5909275" lon="-1.9508172"><ele>419.0</ele><time>2026-04-11T09:38:57.527Z</time></trkpt><trkpt lat="53.5909534" lon="-1.950917"><ele>419.0</ele><time>2026-04-11T09:38:59.529Z</time></trkpt><trkpt lat="53.5909383" lon="-1.9510563"><ele>418.99999999999994</ele><time>2026-04-11T09:39:01.528Z</time></trkpt><trkpt lat="53.5909027" lon="-1.9512253"><ele>419.0</ele><time>2026-04-11T09:39:03.53Z</time></trkpt><trkpt lat="53.5908349" lon="-1.9513644"><ele>420.79999999999995</ele><time>2026-04-11T09:39:05.53Z</time></trkpt><trkpt lat="53.5907429" lon="-1.9515236"><ele>422.59999999999997</ele><time>2026-04-11T09:39:07.527Z</time></trkpt><trkpt lat="53.5906915" lon="-1.9516283"><ele>424.4</ele><time>2026-04-11T09:39:08.527Z</time></trkpt><trkpt lat="53.5906505" lon="-1.9517486"><ele>426.2</ele><time>2026-04-11T09:39:09.528Z</time></trkpt><trkpt lat="53.5906226" lon="-1.9518762"><ele>428.0</ele><time>2026-04-11T09:39:10.53Z</time></trkpt><trkpt lat="53.590592" lon="-1.9520077"><ele>428.59999999999997</ele><time>2026-04-11T09:39:11.529Z</time></trkpt><trkpt lat="53.5905413" lon="-1.952136"><ele>429.19999999999993</ele><time>2026-04-11T09:39:12.522Z</time></trkpt><trkpt lat="53.5904768" lon="-1.9522641"><ele>429.8</ele><time>2026-04-11T09:39:13.524Z</time></trkpt><trkpt lat="53.5904129" lon="-1.9523855"><ele>430.4</ele><time>2026-04-11T09:39:14.528Z</time></trkpt><trkpt lat="53.5903498" lon="-1.9524961"><ele>431.0</ele><time>2026-04-11T09:39:15.529Z</time></trkpt><trkpt lat="53.590285" lon="-1.9525888"><ele>428.49999999999994</ele><time>2026-04-11T09:39:16.526Z</time></trkpt><trkpt lat="53.5902291" lon="-1.9526673"><ele>426.0</ele><time>2026-04-11T09:39:17.527Z</time></trkpt><trkpt lat="53.5901444" lon="-1.9528085"><ele>423.5</ele><time>2026-04-11T09:39:19.523Z</time></trkpt><trkpt lat="53.5900947" lon="-1.9528841"><ele>421.0</ele><time>2026-04-11T09:39:21.527Z</time></trkpt><trkpt lat="53.5900859" lon="-1.9527747"><ele>418.49999999999994</ele><time>2026-04-11T09:40:11.529Z</time></trkpt><trkpt lat="53.5901585" lon="-1.9527036"><ele>416.0</ele><time>2026-04-11T09:40:13.531Z</time></trkpt><trkpt lat="53.5902173" lon="-1.9526406"><ele>416.0</ele><time>2026-04-11T09:40:14.53Z</time></trkpt><trkpt lat="53.5902703" lon="-1.9525674"><ele>416.0</ele><time>2026-04-11T09:40:15.529Z</time></trkpt><trkpt lat="53.5903431" lon="-1.9524236"><ele>416.0</ele><time>2026-04-11T09:40:17.526Z</time></trkpt><trkpt lat="53.5903954" lon="-1.9523067"><ele>416.0</ele><time>2026-04-11T09:40:19.524Z</time></trkpt><trkpt lat="53.5904621" lon="-1.952188"><ele>416.0</ele><time>2026-04-11T09:40:21.529Z</time></trkpt><trkpt lat="53.5905373" lon="-1.9520435"><ele>418.4</ele><time>2026-04-11T09:40:23.53Z</time></trkpt><trkpt lat="53.5906171" lon="-1.9518942"><ele>420.8</ele><time>2026-04-11T09:40:25.532Z</time></trkpt><trkpt lat="53.5906728" lon="-1.9517075"><ele>423.19999999999993</ele><time>2026-04-11T09:40:27.53Z</time></trkpt><trkpt lat="53.5906919" lon="-1.9515958"><ele>425.59999999999997</ele><time>2026-04-11T09:40:28.527Z</time></trkpt><trkpt lat="53.5907405" lon="-1.9514231"><ele>428.0</ele><time>2026-04-11T09:40:30.537Z</time></trkpt><trkpt lat="53.5908179" lon="-1.9513027"><ele>427.99999999999994</ele><time>2026-04-11T09:40:32.53Z</time></trkpt><trkpt lat="53.5908953" lon="-1.9512061"><ele>428.0</ele><time>2026-04-11T09:40:34.529Z</time></trkpt><trkpt lat="53.5909505" lon="-1.9511075"><ele>428.0</ele><time>2026-04-11T09:40:36.528Z</time></trkpt><trkpt lat="53.5909504" lon="-1.9509767"><ele>428.0</ele><time>2026-04-11T09:40:38.526Z</time></trkpt><trkpt lat="53.5909138" lon="-1.9508816"><ele>427.99999999999994</ele><time>2026-04-11T09:40:40.523Z</time></trkpt><trkpt lat="53.590852" lon="-1.9507955"><ele>428.0</ele><time>2026-04-11T09:40:43.534Z</time></trkpt><trkpt lat="53.5907788" lon="-1.9506985"><ele>426.2</ele><time>2026-04-11T09:40:46.531Z</time></trkpt><trkpt lat="53.59072" lon="-1.9505747"><ele>424.4</ele><time>2026-04-11T09:40:48.524Z</time></trkpt><trkpt lat="53.5906567" lon="-1.9504256"><ele>422.59999999999997</ele><time>2026-04-11T09:40:50.523Z</time></trkpt><trkpt lat="53.5905904" lon="-1.9502812"><ele>420.79999999999995</ele><time>2026-04-11T09:40:52.518Z</time></trkpt><trkpt lat="53.5905297" lon="-1.9501418"><ele>419.0</ele><time>2026-04-11T09:40:54.518Z</time></trkpt><trkpt lat="53.590461" lon="-1.9499864"><ele>416.79999999999995</ele><time>2026-04-11T09:40:56.519Z</time></trkpt><trkpt lat="53.5904001" lon="-1.9498387"><ele>414.59999999999997</ele><time>2026-04-11T09:40:58.522Z</time></trkpt><trkpt lat="53.5903541" lon="-1.9496709"><ele>412.4</ele><time>2026-04-11T09:41:00.521Z</time></trkpt><trkpt lat="53.5903237" lon="-1.9494992"><ele>410.2</ele><time>2026-04-11T09:41:02.523Z</time></trkpt><trkpt lat="53.5902823" lon="-1.94933"><ele>408.0</ele><time>2026-04-11T09:41:04.521Z</time></trkpt><trkpt lat="53.5902365" lon="-1.9491488"><ele>404.8333333333333</ele><time>2026-04-11T09:41:06.522Z</time></trkpt><trkpt lat="53.5901919" lon="-1.9489728"><ele>401.66666666666663</ele><time>2026-04-11T09:41:08.52Z</time></trkpt><trkpt lat="53.5901794" lon="-1.9488124"><ele>398.5</ele><time>2026-04-11T09:41:10.521Z</time></trkpt><trkpt lat="53.5901595" lon="-1.9486805"><ele>395.3333333333333</ele><time>2026-04-11T09:41:12.52Z</time></trkpt><trkpt lat="53.5901307" lon="-1.9485674"><ele>392.16666666666663</ele><time>2026-04-11T09:41:14.52Z</time></trkpt><trkpt lat="53.5901014" lon="-1.9484345"><ele>389.0</ele><time>2026-04-11T09:41:16.523Z</time></trkpt><trkpt lat="53.5900623" lon="-1.9482542"><ele>388.0</ele><time>2026-04-11T09:41:18.526Z</time></trkpt><trkpt lat="53.5900193" lon="-1.9480601"><ele>387.0</ele><time>2026-04-11T09:41:20.522Z</time></trkpt><trkpt lat="53.5899745" lon="-1.947876"><ele>386.0</ele><time>2026-04-11T09:41:22.527Z</time></trkpt><trkpt lat="53.5899441" lon="-1.9477816"><ele>385.0</ele><time>2026-04-11T09:41:23.529Z</time></trkpt><trkpt lat="53.5899118" lon="-1.9476844"><ele>384.0</ele><time>2026-04-11T09:41:24.528Z</time></trkpt><trkpt lat="53.5898381" lon="-1.947492"><ele>383.8333333333333</ele><time>2026-04-11T09:41:26.527Z</time></trkpt><trkpt lat="53.5897967" lon="-1.947392"><ele>383.6666666666667</ele><time>2026-04-11T09:41:27.526Z</time></trkpt><trkpt lat="53.5897554" lon="-1.947302"><ele>383.5</ele><time>2026-04-11T09:41:28.529Z</time></trkpt><trkpt lat="53.589695" lon="-1.9471528"><ele>383.33333333333337</ele><time>2026-04-11T09:41:30.529Z</time></trkpt><trkpt lat="53.5896353" lon="-1.947024"><ele>383.1666666666667</ele><time>2026-04-11T09:41:32.531Z</time></trkpt><trkpt lat="53.5895858" lon="-1.9469568"><ele>383.0</ele><time>2026-04-11T09:41:33.53Z</time></trkpt><trkpt lat="53.5895205" lon="-1.9468902"><ele>380.79999999999995</ele><time>2026-04-11T09:41:34.531Z</time></trkpt><trkpt lat="53.5894522" lon="-1.9468241"><ele>378.6</ele><time>2026-04-11T09:41:35.531Z</time></trkpt><trkpt lat="53.5893897" lon="-1.9467558"><ele>376.4</ele><time>2026-04-11T09:41:36.53Z</time></trkpt><trkpt lat="53.5892842" lon="-1.9466945"><ele>374.20000000000005</ele><time>2026-04-11T09:41:38.529Z</time></trkpt><trkpt lat="53.5891816" lon="-1.9467023"><ele>372.0</ele><time>2026-04-11T09:41:40.531Z</time></trkpt><trkpt lat="53.5890742" lon="-1.9466747"><ele>372.0</ele><time>2026-04-11T09:41:42.529Z</time></trkpt><trkpt lat="53.5889643" lon="-1.946626"><ele>372.0</ele><time>2026-04-11T09:41:44.529Z</time></trkpt><trkpt lat="53.5889007" lon="-1.9465984"><ele>372.0</ele><time>2026-04-11T09:41:45.528Z</time></trkpt><trkpt lat="53.5888351" lon="-1.9465723"><ele>372.0</ele><time>2026-04-11T09:41:46.531Z</time></trkpt><trkpt lat="53.588772" lon="-1.9465484"><ele>372.0</ele><time>2026-04-11T09:41:47.528Z</time></trkpt><trkpt lat="53.5886659" lon="-1.9464946"><ele>372.0</ele><time>2026-04-11T09:41:49.528Z</time></trkpt><trkpt lat="53.588565" lon="-1.9464787"><ele>368.8</ele><time>2026-04-11T09:41:51.528Z</time></trkpt><trkpt lat="53.5884555" lon="-1.9464281"><ele>365.6</ele><time>2026-04-11T09:41:53.526Z</time></trkpt><trkpt lat="53.5884021" lon="-1.9462735"><ele>362.40000000000003</ele><time>2026-04-11T09:41:55.526Z</time></trkpt><trkpt lat="53.5883802" lon="-1.9461731"><ele>359.20000000000005</ele><time>2026-04-11T09:41:56.528Z</time></trkpt><trkpt lat="53.5883099" lon="-1.946"><ele>356.0</ele><time>2026-04-11T09:41:58.527Z</time></trkpt><trkpt lat="53.5882159" lon="-1.9459287"><ele>356.0</ele><time>2026-04-11T09:42:00.523Z</time></trkpt><trkpt lat="53.5881624" lon="-1.9458493"><ele>356.0</ele><time>2026-04-11T09:42:02.53Z</time></trkpt><trkpt lat="53.588132" lon="-1.9457184"><ele>356.0</ele><time>2026-04-11T09:42:04.531Z</time></trkpt><trkpt lat="53.5881051" lon="-1.9455796"><ele>356.0</ele><time>2026-04-11T09:42:06.529Z</time></trkpt><trkpt lat="53.5880928" lon="-1.9454507"><ele>356.0</ele><time>2026-04-11T09:42:08.53Z</time></trkpt><trkpt lat="53.5880852" lon="-1.9453313"><ele>356.0</ele><time>2026-04-11T09:42:10.529Z</time></trkpt><trkpt lat="53.5880834" lon="-1.9452141"><ele>356.0</ele><time>2026-04-11T09:42:12.529Z</time></trkpt><trkpt lat="53.5880725" lon="-1.9450783"><ele>356.0</ele><time>2026-04-11T09:42:14.528Z</time></trkpt><trkpt lat="53.5880625" lon="-1.9449317"><ele>356.0</ele><time>2026-04-11T09:42:16.527Z</time></trkpt><trkpt lat="53.5880725" lon="-1.9447756"><ele>356.0</ele><time>2026-04-11T09:42:18.53Z</time></trkpt><trkpt lat="53.5880877" lon="-1.9446201"><ele>356.0</ele><time>2026-04-11T09:42:20.527Z</time></trkpt><trkpt lat="53.5881056" lon="-1.9444412"><ele>355.1666666666667</ele><time>2026-04-11T09:42:22.526Z</time></trkpt><trkpt lat="53.5881547" lon="-1.9443177"><ele>354.33333333333337</ele><time>2026-04-11T09:42:24.519Z</time></trkpt><trkpt lat="53.5882227" lon="-1.9442358"><ele>353.5</ele><time>2026-04-11T09:42:26.519Z</time></trkpt><trkpt lat="53.5882863" lon="-1.9441556"><ele>352.6666666666667</ele><time>2026-04-11T09:42:28.524Z</time></trkpt><trkpt lat="53.5883221" lon="-1.9440672"><ele>351.8333333333333</ele><time>2026-04-11T09:42:30.531Z</time></trkpt><trkpt lat="53.5883825" lon="-1.9439759"><ele>351.0</ele><time>2026-04-11T09:42:33.526Z</time></trkpt><trkpt lat="53.5884319" lon="-1.9439015"><ele>351.5</ele><time>2026-04-11T09:42:35.527Z</time></trkpt><trkpt lat="53.5884835" lon="-1.9438138"><ele>352.0</ele><time>2026-04-11T09:42:37.527Z</time></trkpt><trkpt lat="53.5885385" lon="-1.94371"><ele>352.5</ele><time>2026-04-11T09:42:39.527Z</time></trkpt><trkpt lat="53.5886111" lon="-1.9435782"><ele>353.0</ele><time>2026-04-11T09:42:41.522Z</time></trkpt><trkpt lat="53.5886533" lon="-1.9434912"><ele>353.5</ele><time>2026-04-11T09:42:42.522Z</time></trkpt><trkpt lat="53.5886971" lon="-1.943401"><ele>354.0</ele><time>2026-04-11T09:42:43.528Z</time></trkpt><trkpt lat="53.5887468" lon="-1.9433184"><ele>351.3333333333333</ele><time>2026-04-11T09:42:44.527Z</time></trkpt><trkpt lat="53.5888005" lon="-1.9432259"><ele>348.6666666666667</ele><time>2026-04-11T09:42:45.525Z</time></trkpt><trkpt lat="53.5888537" lon="-1.9431254"><ele>346.0</ele><time>2026-04-11T09:42:46.523Z</time></trkpt><trkpt lat="53.5889092" lon="-1.9430189"><ele>343.33333333333337</ele><time>2026-04-11T09:42:47.522Z</time></trkpt><trkpt lat="53.5889644" lon="-1.9429181"><ele>340.6666666666667</ele><time>2026-04-11T09:42:48.524Z</time></trkpt><trkpt lat="53.5890237" lon="-1.942815"><ele>338.0</ele><time>2026-04-11T09:42:49.525Z</time></trkpt><trkpt lat="53.589081" lon="-1.9427215"><ele>338.0</ele><time>2026-04-11T09:42:50.525Z</time></trkpt><trkpt lat="53.5891353" lon="-1.9426291"><ele>338.0</ele><time>2026-04-11T09:42:51.522Z</time></trkpt><trkpt lat="53.5891875" lon="-1.9425338"><ele>338.0</ele><time>2026-04-11T09:42:52.522Z</time></trkpt><trkpt lat="53.5892436" lon="-1.9424509"><ele>338.0</ele><time>2026-04-11T09:42:53.522Z</time></trkpt><trkpt lat="53.5892997" lon="-1.9423733"><ele>338.0</ele><time>2026-04-11T09:42:54.525Z</time></trkpt><trkpt lat="53.5893519" lon="-1.9423009"><ele>338.0</ele><time>2026-04-11T09:42:55.525Z</time></trkpt><trkpt lat="53.5894009" lon="-1.9422237"><ele>338.0</ele><time>2026-04-11T09:42:56.528Z</time></trkpt><trkpt lat="53.5894812" lon="-1.9420718"><ele>337.6666666666667</ele><time>2026-04-11T09:42:58.523Z</time></trkpt><trkpt lat="53.5895653" lon="-1.941932"><ele>337.33333333333337</ele><time>2026-04-11T09:43:00.524Z</time></trkpt><trkpt lat="53.5896117" lon="-1.9418583"><ele>337.0</ele><time>2026-04-11T09:43:01.528Z</time></trkpt><trkpt lat="53.5896643" lon="-1.9417698"><ele>336.6666666666667</ele><time>2026-04-11T09:43:02.524Z</time></trkpt><trkpt lat="53.5897191" lon="-1.9416675"><ele>336.3333333333333</ele><time>2026-04-11T09:43:03.527Z</time></trkpt><trkpt lat="53.5897728" lon="-1.9415645"><ele>336.0</ele><time>2026-04-11T09:43:04.524Z</time></trkpt><trkpt lat="53.5898292" lon="-1.9414667"><ele>334.0</ele><time>2026-04-11T09:43:05.527Z</time></trkpt><trkpt lat="53.5898841" lon="-1.9413719"><ele>332.0</ele><time>2026-04-11T09:43:06.526Z</time></trkpt><trkpt lat="53.5899363" lon="-1.9412789"><ele>330.0</ele><time>2026-04-11T09:43:07.527Z</time></trkpt><trkpt lat="53.5899841" lon="-1.9411935"><ele>328.0</ele><time>2026-04-11T09:43:08.523Z</time></trkpt><trkpt lat="53.5900311" lon="-1.9411068"><ele>326.0</ele><time>2026-04-11T09:43:09.522Z</time></trkpt><trkpt lat="53.590076" lon="-1.9410294"><ele>324.0</ele><time>2026-04-11T09:43:10.526Z</time></trkpt><trkpt lat="53.5901591" lon="-1.9408804"><ele>323.5</ele><time>2026-04-11T09:43:12.527Z</time></trkpt><trkpt lat="53.5902394" lon="-1.9407193"><ele>323.0</ele><time>2026-04-11T09:43:14.525Z</time></trkpt><trkpt lat="53.5903195" lon="-1.9405785"><ele>322.5</ele><time>2026-04-11T09:43:16.523Z</time></trkpt><trkpt lat="53.5904006" lon="-1.9404508"><ele>322.0</ele><time>2026-04-11T09:43:18.523Z</time></trkpt><trkpt lat="53.5904761" lon="-1.940317"><ele>322.0</ele><time>2026-04-11T09:43:20.522Z</time></trkpt><trkpt lat="53.5905155" lon="-1.9402336"><ele>322.0</ele><time>2026-04-11T09:43:21.523Z</time></trkpt><trkpt lat="53.590594" lon="-1.9400551"><ele>322.0</ele><time>2026-04-11T09:43:23.525Z</time></trkpt><trkpt lat="53.5906393" lon="-1.9399661"><ele>322.0</ele><time>2026-04-11T09:43:24.521Z</time></trkpt><trkpt lat="53.5906892" lon="-1.9398738"><ele>322.0</ele><time>2026-04-11T09:43:25.522Z</time></trkpt><trkpt lat="53.5907386" lon="-1.9397897"><ele>322.0</ele><time>2026-04-11T09:43:26.523Z</time></trkpt><trkpt lat="53.5907895" lon="-1.9397108"><ele>319.40000000000003</ele><time>2026-04-11T09:43:27.525Z</time></trkpt><trkpt lat="53.5908374" lon="-1.9396339"><ele>316.8</ele><time>2026-04-11T09:43:28.518Z</time></trkpt><trkpt lat="53.5908823" lon="-1.9395586"><ele>314.2</ele><time>2026-04-11T09:43:29.518Z</time></trkpt><trkpt lat="53.5909623" lon="-1.9394188"><ele>311.6</ele><time>2026-04-11T09:43:31.52Z</time></trkpt><trkpt lat="53.5910468" lon="-1.9393005"><ele>309.0</ele><time>2026-04-11T09:43:33.526Z</time></trkpt><trkpt lat="53.5911366" lon="-1.9392042"><ele>308.0</ele><time>2026-04-11T09:43:35.525Z</time></trkpt><trkpt lat="53.5912479" lon="-1.9391089"><ele>307.0</ele><time>2026-04-11T09:43:37.526Z</time></trkpt><trkpt lat="53.5913041" lon="-1.939055"><ele>306.0</ele><time>2026-04-11T09:43:38.526Z</time></trkpt><trkpt lat="53.5914066" lon="-1.9389487"><ele>305.0</ele><time>2026-04-11T09:43:40.525Z</time></trkpt><trkpt lat="53.5915002" lon="-1.9388542"><ele>304.0</ele><time>2026-04-11T09:43:42.526Z</time></trkpt><trkpt lat="53.5916077" lon="-1.9387784"><ele>304.0</ele><time>2026-04-11T09:43:44.525Z</time></trkpt><trkpt lat="53.5916802" lon="-1.938741"><ele>304.0</ele><time>2026-04-11T09:43:45.524Z</time></trkpt><trkpt lat="53.5917584" lon="-1.9386791"><ele>304.0</ele><time>2026-04-11T09:43:46.523Z</time></trkpt><trkpt lat="53.5918514" lon="-1.93859"><ele>304.0</ele><time>2026-04-11T09:43:47.522Z</time></trkpt><trkpt lat="53.591937" lon="-1.9385073"><ele>304.0</ele><time>2026-04-11T09:43:48.519Z</time></trkpt><trkpt lat="53.5920281" lon="-1.9384179"><ele>302.5</ele><time>2026-04-11T09:43:49.523Z</time></trkpt><trkpt lat="53.5921325" lon="-1.9383253"><ele>301.0</ele><time>2026-04-11T09:43:50.522Z</time></trkpt><trkpt lat="53.592243" lon="-1.9382147"><ele>299.5</ele><time>2026-04-11T09:43:51.523Z</time></trkpt><trkpt lat="53.5923574" lon="-1.9380974"><ele>298.0</ele><time>2026-04-11T09:43:52.522Z</time></trkpt><trkpt lat="53.5924678" lon="-1.9379893"><ele>298.0</ele><time>2026-04-11T09:43:53.523Z</time></trkpt><trkpt lat="53.5925686" lon="-1.9378776"><ele>298.0</ele><time>2026-04-11T09:43:54.523Z</time></trkpt><trkpt lat="53.5926611" lon="-1.9377771"><ele>298.0</ele><time>2026-04-11T09:43:55.519Z</time></trkpt><trkpt lat="53.59276" lon="-1.9376746"><ele>298.0</ele><time>2026-04-11T09:43:56.527Z</time></trkpt><trkpt lat="53.5928557" lon="-1.9375725"><ele>295.25</ele><time>2026-04-11T09:43:57.524Z</time></trkpt><trkpt lat="53.5929588" lon="-1.9374796"><ele>292.5</ele><time>2026-04-11T09:43:58.53Z</time></trkpt><trkpt lat="53.5930631" lon="-1.9373822"><ele>289.75</ele><time>2026-04-11T09:43:59.519Z</time></trkpt><trkpt lat="53.593165" lon="-1.937289"><ele>287.0</ele><time>2026-04-11T09:44:00.522Z</time></trkpt><trkpt lat="53.5932595" lon="-1.9372018"><ele>287.0</ele><time>2026-04-11T09:44:01.523Z</time></trkpt><trkpt lat="53.5933555" lon="-1.9371087"><ele>287.0</ele><time>2026-04-11T09:44:02.52Z</time></trkpt><trkpt lat="53.593448" lon="-1.9370196"><ele>287.0</ele><time>2026-04-11T09:44:03.526Z</time></trkpt><trkpt lat="53.5935461" lon="-1.9369455"><ele>287.0</ele><time>2026-04-11T09:44:04.526Z</time></trkpt><trkpt lat="53.5936399" lon="-1.9368778"><ele>287.0</ele><time>2026-04-11T09:44:05.524Z</time></trkpt><trkpt lat="53.5937229" lon="-1.9367932"><ele>286.0</ele><time>2026-04-11T09:44:06.524Z</time></trkpt><trkpt lat="53.5937958" lon="-1.9366817"><ele>285.0</ele><time>2026-04-11T09:44:07.524Z</time></trkpt><trkpt lat="53.5938751" lon="-1.9365394"><ele>284.0</ele><time>2026-04-11T09:44:08.523Z</time></trkpt><trkpt lat="53.593957" lon="-1.93639"><ele>283.0</ele><time>2026-04-11T09:44:09.527Z</time></trkpt><trkpt lat="53.594036" lon="-1.9362342"><ele>283.0</ele><time>2026-04-11T09:44:10.526Z</time></trkpt><trkpt lat="53.5941149" lon="-1.9360854"><ele>283.0</ele><time>2026-04-11T09:44:11.519Z</time></trkpt><trkpt lat="53.5941907" lon="-1.9359419"><ele>283.0</ele><time>2026-04-11T09:44:12.523Z</time></trkpt><trkpt lat="53.5942737" lon="-1.9358113"><ele>283.0</ele><time>2026-04-11T09:44:13.524Z</time></trkpt><trkpt lat="53.5943494" lon="-1.9356632"><ele>282.0</ele><time>2026-04-11T09:44:14.529Z</time></trkpt><trkpt lat="53.5944278" lon="-1.9355563"><ele>281.0</ele><time>2026-04-11T09:44:15.528Z</time></trkpt><trkpt lat="53.5944926" lon="-1.9354401"><ele>280.0</ele><time>2026-04-11T09:44:16.523Z</time></trkpt><trkpt lat="53.5945566" lon="-1.9353283"><ele>279.0</ele><time>2026-04-11T09:44:17.524Z</time></trkpt><trkpt lat="53.5946202" lon="-1.9352295"><ele>278.0</ele><time>2026-04-11T09:44:18.524Z</time></trkpt><trkpt lat="53.5946829" lon="-1.9351436"><ele>278.0</ele><time>2026-04-11T09:44:19.519Z</time></trkpt><trkpt lat="53.5947563" lon="-1.9350736"><ele>278.0</ele><time>2026-04-11T09:44:20.52Z</time></trkpt><trkpt lat="53.5948483" lon="-1.9350248"><ele>278.0</ele><time>2026-04-11T09:44:21.52Z</time></trkpt><trkpt lat="53.5949571" lon="-1.9349759"><ele>278.0</ele><time>2026-04-11T09:44:22.52Z</time></trkpt><trkpt lat="53.5950607" lon="-1.9349145"><ele>278.0</ele><time>2026-04-11T09:44:23.522Z</time></trkpt><trkpt lat="53.5951667" lon="-1.9348459"><ele>276.0</ele><time>2026-04-11T09:44:24.522Z</time></trkpt><trkpt lat="53.5952736" lon="-1.9347707"><ele>274.0</ele><time>2026-04-11T09:44:25.523Z</time></trkpt><trkpt lat="53.5953881" lon="-1.9346981"><ele>272.0</ele><time>2026-04-11T09:44:26.522Z</time></trkpt><trkpt lat="53.5955042" lon="-1.9346277"><ele>270.0</ele><time>2026-04-11T09:44:27.522Z</time></trkpt><trkpt lat="53.595626" lon="-1.9345584"><ele>270.0</ele><time>2026-04-11T09:44:28.526Z</time></trkpt><trkpt lat="53.5957556" lon="-1.9344785"><ele>270.0</ele><time>2026-04-11T09:44:29.526Z</time></trkpt><trkpt lat="53.5958871" lon="-1.934399"><ele>270.0</ele><time>2026-04-11T09:44:30.52Z</time></trkpt><trkpt lat="53.5960111" lon="-1.9343202"><ele>270.0</ele><time>2026-04-11T09:44:31.525Z</time></trkpt><trkpt lat="53.5961259" lon="-1.9342482"><ele>267.8</ele><time>2026-04-11T09:44:32.527Z</time></trkpt><trkpt lat="53.5962348" lon="-1.9341812"><ele>265.6</ele><time>2026-04-11T09:44:33.529Z</time></trkpt><trkpt lat="53.5963383" lon="-1.9341149"><ele>263.4</ele><time>2026-04-11T09:44:34.526Z</time></trkpt><trkpt lat="53.5964355" lon="-1.9340423"><ele>261.2</ele><time>2026-04-11T09:44:35.528Z</time></trkpt><trkpt lat="53.5965406" lon="-1.9339674"><ele>259.0</ele><time>2026-04-11T09:44:36.527Z</time></trkpt><trkpt lat="53.5966592" lon="-1.9338914"><ele>259.0</ele><time>2026-04-11T09:44:37.526Z</time></trkpt><trkpt lat="53.5967816" lon="-1.9338084"><ele>259.0</ele><time>2026-04-11T09:44:38.529Z</time></trkpt><trkpt lat="53.5968902" lon="-1.9337054"><ele>259.0</ele><time>2026-04-11T09:44:39.524Z</time></trkpt><trkpt lat="53.5969921" lon="-1.9336029"><ele>259.0</ele><time>2026-04-11T09:44:40.524Z</time></trkpt><trkpt lat="53.5970892" lon="-1.9335078"><ele>259.4</ele><time>2026-04-11T09:44:41.515Z</time></trkpt><trkpt lat="53.5971827" lon="-1.9334122"><ele>259.79999999999995</ele><time>2026-04-11T09:44:42.522Z</time></trkpt><trkpt lat="53.597276" lon="-1.9333198"><ele>260.20000000000005</ele><time>2026-04-11T09:44:43.528Z</time></trkpt><trkpt lat="53.5973648" lon="-1.933231"><ele>260.6</ele><time>2026-04-11T09:44:44.525Z</time></trkpt><trkpt lat="53.5974533" lon="-1.9331563"><ele>261.0</ele><time>2026-04-11T09:44:45.523Z</time></trkpt><trkpt lat="53.5975429" lon="-1.9330966"><ele>257.8</ele><time>2026-04-11T09:44:46.522Z</time></trkpt><trkpt lat="53.5976296" lon="-1.9330442"><ele>254.60000000000002</ele><time>2026-04-11T09:44:47.525Z</time></trkpt><trkpt lat="53.5977133" lon="-1.9329908"><ele>251.4</ele><time>2026-04-11T09:44:48.527Z</time></trkpt><trkpt lat="53.5977974" lon="-1.9329383"><ele>248.2</ele><time>2026-04-11T09:44:49.523Z</time></trkpt><trkpt lat="53.5978822" lon="-1.9328907"><ele>245.0</ele><time>2026-04-11T09:44:50.52Z</time></trkpt><trkpt lat="53.5979676" lon="-1.9328377"><ele>245.0</ele><time>2026-04-11T09:44:51.517Z</time></trkpt><trkpt lat="53.5980548" lon="-1.9327692"><ele>245.0</ele><time>2026-04-11T09:44:52.522Z</time></trkpt><trkpt lat="53.5981454" lon="-1.9326967"><ele>245.0</ele><time>2026-04-11T09:44:53.522Z</time></trkpt><trkpt lat="53.5982377" lon="-1.9326212"><ele>245.0</ele><time>2026-04-11T09:44:54.524Z</time></trkpt><trkpt lat="53.5983286" lon="-1.9325351"><ele>245.0</ele><time>2026-04-11T09:44:55.522Z</time></trkpt><trkpt lat="53.5984184" lon="-1.9324328"><ele>241.5</ele><time>2026-04-11T09:44:56.522Z</time></trkpt><trkpt lat="53.5985161" lon="-1.9323084"><ele>238.0</ele><time>2026-04-11T09:44:57.523Z</time></trkpt><trkpt lat="53.5986292" lon="-1.9321669"><ele>234.5</ele><time>2026-04-11T09:44:58.522Z</time></trkpt><trkpt lat="53.598734" lon="-1.9320346"><ele>231.0</ele><time>2026-04-11T09:44:59.523Z</time></trkpt><trkpt lat="53.5988314" lon="-1.9319035"><ele>231.0</ele><time>2026-04-11T09:45:00.524Z</time></trkpt><trkpt lat="53.5989217" lon="-1.9317746"><ele>231.00000000000003</ele><time>2026-04-11T09:45:01.527Z</time></trkpt><trkpt lat="53.5990034" lon="-1.9316546"><ele>231.00000000000003</ele><time>2026-04-11T09:45:02.525Z</time></trkpt><trkpt lat="53.5990807" lon="-1.9315411"><ele>231.0</ele><time>2026-04-11T09:45:03.517Z</time></trkpt><trkpt lat="53.5991568" lon="-1.9314424"><ele>231.0</ele><time>2026-04-11T09:45:04.524Z</time></trkpt><trkpt lat="53.5992282" lon="-1.931349"><ele>229.33333333333334</ele><time>2026-04-11T09:45:05.524Z</time></trkpt><trkpt lat="53.5992973" lon="-1.9312554"><ele>227.66666666666669</ele><time>2026-04-11T09:45:06.526Z</time></trkpt><trkpt lat="53.5993663" lon="-1.9311726"><ele>226.0</ele><time>2026-04-11T09:45:07.522Z</time></trkpt><trkpt lat="53.5994338" lon="-1.9310941"><ele>224.33333333333334</ele><time>2026-04-11T09:45:08.522Z</time></trkpt><trkpt lat="53.5994992" lon="-1.9310104"><ele>222.66666666666669</ele><time>2026-04-11T09:45:09.522Z</time></trkpt><trkpt lat="53.5995674" lon="-1.9309254"><ele>221.0</ele><time>2026-04-11T09:45:10.523Z</time></trkpt><trkpt lat="53.599642" lon="-1.9308482"><ele>218.16666666666669</ele><time>2026-04-11T09:45:11.52Z</time></trkpt><trkpt lat="53.5997202" lon="-1.9307753"><ele>215.33333333333334</ele><time>2026-04-11T09:45:12.521Z</time></trkpt><trkpt lat="53.5998003" lon="-1.9307092"><ele>212.5</ele><time>2026-04-11T09:45:13.521Z</time></trkpt><trkpt lat="53.5998756" lon="-1.9306388"><ele>209.66666666666669</ele><time>2026-04-11T09:45:14.522Z</time></trkpt><trkpt lat="53.5999416" lon="-1.9305762"><ele>206.83333333333334</ele><time>2026-04-11T09:45:15.52Z</time></trkpt><trkpt lat="53.6000033" lon="-1.9305285"><ele>204.0</ele><time>2026-04-11T09:45:16.52Z</time></trkpt><trkpt lat="53.6000616" lon="-1.9304837"><ele>204.0</ele><time>2026-04-11T09:45:17.523Z</time></trkpt><trkpt lat="53.6001486" lon="-1.9304199"><ele>204.0</ele><time>2026-04-11T09:45:19.523Z</time></trkpt><trkpt lat="53.6002215" lon="-1.9303466"><ele>204.0</ele><time>2026-04-11T09:45:21.523Z</time></trkpt><trkpt lat="53.6002863" lon="-1.9303218"><ele>204.0</ele><time>2026-04-11T09:45:24.523Z</time></trkpt><trkpt lat="53.6003592" lon="-1.9302229"><ele>204.0</ele><time>2026-04-11T09:45:43.525Z</time></trkpt><trkpt lat="53.6004369" lon="-1.9301341"><ele>204.0</ele><time>2026-04-11T09:45:47.525Z</time></trkpt><trkpt lat="53.600473" lon="-1.930038"><ele>202.16666666666666</ele><time>2026-04-11T09:45:48.524Z</time></trkpt><trkpt lat="53.6005131" lon="-1.9298962"><ele>200.33333333333331</ele><time>2026-04-11T09:45:49.526Z</time></trkpt><trkpt lat="53.6005528" lon="-1.9297333"><ele>198.5</ele><time>2026-04-11T09:45:50.523Z</time></trkpt><trkpt lat="53.6005922" lon="-1.9295886"><ele>196.66666666666666</ele><time>2026-04-11T09:45:51.526Z</time></trkpt><trkpt lat="53.6006326" lon="-1.9294645"><ele>194.83333333333331</ele><time>2026-04-11T09:45:52.525Z</time></trkpt><trkpt lat="53.6006778" lon="-1.9293718"><ele>193.0</ele><time>2026-04-11T09:45:53.524Z</time></trkpt><trkpt lat="53.6007223" lon="-1.9292963"><ele>193.0</ele><time>2026-04-11T09:45:54.524Z</time></trkpt><trkpt lat="53.6008018" lon="-1.9292523"><ele>193.0</ele><time>2026-04-11T09:45:56.526Z</time></trkpt><trkpt lat="53.6009151" lon="-1.9293066"><ele>193.0</ele><time>2026-04-11T09:45:58.519Z</time></trkpt><trkpt lat="53.6010155" lon="-1.9293563"><ele>193.0</ele><time>2026-04-11T09:45:59.527Z</time></trkpt><trkpt lat="53.6011411" lon="-1.9293814"><ele>193.0</ele><time>2026-04-11T09:46:00.526Z</time></trkpt><trkpt lat="53.6012695" lon="-1.9293557"><ele>192.2</ele><time>2026-04-11T09:46:01.526Z</time></trkpt><trkpt lat="53.6013798" lon="-1.9292992"><ele>191.4</ele><time>2026-04-11T09:46:02.527Z</time></trkpt><trkpt lat="53.601479" lon="-1.9292531"><ele>190.6</ele><time>2026-04-11T09:46:03.527Z</time></trkpt><trkpt lat="53.6015672" lon="-1.9292049"><ele>189.79999999999998</ele><time>2026-04-11T09:46:04.529Z</time></trkpt><trkpt lat="53.6016473" lon="-1.9291612"><ele>189.0</ele><time>2026-04-11T09:46:05.529Z</time></trkpt><trkpt lat="53.6017117" lon="-1.9291075"><ele>188.5</ele><time>2026-04-11T09:46:06.533Z</time></trkpt><trkpt lat="53.6017917" lon="-1.9289792"><ele>188.0</ele><time>2026-04-11T09:46:08.525Z</time></trkpt><trkpt lat="53.601763" lon="-1.9287715"><ele>187.5</ele><time>2026-04-11T09:46:10.526Z</time></trkpt><trkpt lat="53.6016961" lon="-1.928639"><ele>187.0</ele><time>2026-04-11T09:46:11.525Z</time></trkpt><trkpt lat="53.6016313" lon="-1.928475"><ele>186.6</ele><time>2026-04-11T09:46:12.527Z</time></trkpt><trkpt lat="53.6015852" lon="-1.9282986"><ele>186.2</ele><time>2026-04-11T09:46:13.529Z</time></trkpt><trkpt lat="53.6015571" lon="-1.9281331"><ele>185.8</ele><time>2026-04-11T09:46:14.528Z</time></trkpt><trkpt lat="53.6015533" lon="-1.9279743"><ele>185.4</ele><time>2026-04-11T09:46:15.527Z</time></trkpt><trkpt lat="53.6015832" lon="-1.9278219"><ele>185.0</ele><time>2026-04-11T09:46:16.527Z</time></trkpt><trkpt lat="53.6016418" lon="-1.9276741"><ele>184.75</ele><time>2026-04-11T09:46:17.523Z</time></trkpt><trkpt lat="53.6017047" lon="-1.9275178"><ele>184.5</ele><time>2026-04-11T09:46:18.518Z</time></trkpt><trkpt lat="53.6017464" lon="-1.9273322"><ele>184.25</ele><time>2026-04-11T09:46:19.522Z</time></trkpt><trkpt lat="53.6017939" lon="-1.9271469"><ele>184.0</ele><time>2026-04-11T09:46:20.524Z</time></trkpt><trkpt lat="53.6018371" lon="-1.9269602"><ele>184.0</ele><time>2026-04-11T09:46:21.525Z</time></trkpt><trkpt lat="53.6018819" lon="-1.9267905"><ele>184.0</ele><time>2026-04-11T09:46:22.523Z</time></trkpt><trkpt lat="53.6019251" lon="-1.9266431"><ele>184.0</ele><time>2026-04-11T09:46:23.52Z</time></trkpt><trkpt lat="53.6019709" lon="-1.9265117"><ele>184.0</ele><time>2026-04-11T09:46:24.522Z</time></trkpt><trkpt lat="53.6020137" lon="-1.9263786"><ele>184.0</ele><time>2026-04-11T09:46:25.516Z</time></trkpt><trkpt lat="53.6020551" lon="-1.9262485"><ele>185.25</ele><time>2026-04-11T09:46:26.517Z</time></trkpt><trkpt lat="53.6020998" lon="-1.926102"><ele>186.5</ele><time>2026-04-11T09:46:27.516Z</time></trkpt><trkpt lat="53.6021507" lon="-1.9259489"><ele>187.75</ele><time>2026-04-11T09:46:28.517Z</time></trkpt><trkpt lat="53.6022071" lon="-1.9257758"><ele>189.0</ele><time>2026-04-11T09:46:29.522Z</time></trkpt><trkpt lat="53.6022664" lon="-1.9255726"><ele>189.0</ele><time>2026-04-11T09:46:30.518Z</time></trkpt><trkpt lat="53.6023329" lon="-1.9253414"><ele>189.0</ele><time>2026-04-11T09:46:31.524Z</time></trkpt><trkpt lat="53.6024086" lon="-1.925096"><ele>189.0</ele><time>2026-04-11T09:46:32.521Z</time></trkpt><trkpt lat="53.6024792" lon="-1.9248381"><ele>188.75</ele><time>2026-04-11T09:46:33.517Z</time></trkpt><trkpt lat="53.6025458" lon="-1.9245952"><ele>188.5</ele><time>2026-04-11T09:46:34.524Z</time></trkpt><trkpt lat="53.6026079" lon="-1.9243951"><ele>188.25</ele><time>2026-04-11T09:46:35.524Z</time></trkpt><trkpt lat="53.6026781" lon="-1.9242371"><ele>188.0</ele><time>2026-04-11T09:46:36.522Z</time></trkpt><trkpt lat="53.6027532" lon="-1.9240984"><ele>187.60000000000002</ele><time>2026-04-11T09:46:37.524Z</time></trkpt><trkpt lat="53.6028257" lon="-1.9239567"><ele>187.20000000000002</ele><time>2026-04-11T09:46:38.523Z</time></trkpt><trkpt lat="53.602894" lon="-1.9238203"><ele>186.8</ele><time>2026-04-11T09:46:39.522Z</time></trkpt><trkpt lat="53.6029538" lon="-1.9236972"><ele>186.4</ele><time>2026-04-11T09:46:40.523Z</time></trkpt><trkpt lat="53.6030107" lon="-1.9235968"><ele>186.0</ele><time>2026-04-11T09:46:41.521Z</time></trkpt><trkpt lat="53.6030736" lon="-1.923527"><ele>186.75</ele><time>2026-04-11T09:46:42.523Z</time></trkpt><trkpt lat="53.6031579" lon="-1.9234819"><ele>187.5</ele><time>2026-04-11T09:46:43.522Z</time></trkpt><trkpt lat="53.6032739" lon="-1.9234477"><ele>188.25</ele><time>2026-04-11T09:46:44.522Z</time></trkpt><trkpt lat="53.6034069" lon="-1.9233988"><ele>189.0</ele><time>2026-04-11T09:46:45.526Z</time></trkpt><trkpt lat="53.6035448" lon="-1.9233192"><ele>190.0</ele><time>2026-04-11T09:46:46.526Z</time></trkpt><trkpt lat="53.6036776" lon="-1.9232191"><ele>191.0</ele><time>2026-04-11T09:46:47.524Z</time></trkpt><trkpt lat="53.603805" lon="-1.9231121"><ele>192.0</ele><time>2026-04-11T09:46:48.527Z</time></trkpt><trkpt lat="53.6039248" lon="-1.9229891"><ele>193.0</ele><time>2026-04-11T09:46:49.522Z</time></trkpt><trkpt lat="53.6040488" lon="-1.9228778"><ele>193.0</ele><time>2026-04-11T09:46:50.52Z</time></trkpt><trkpt lat="53.6041819" lon="-1.9227805"><ele>193.0</ele><time>2026-04-11T09:46:51.522Z</time></trkpt><trkpt lat="53.6043166" lon="-1.9226973"><ele>193.0</ele><time>2026-04-11T09:46:52.523Z</time></trkpt><trkpt lat="53.6044496" lon="-1.9226283"><ele>193.0</ele><time>2026-04-11T09:46:53.524Z</time></trkpt><trkpt lat="53.6045793" lon="-1.922572"><ele>192.25</ele><time>2026-04-11T09:46:54.523Z</time></trkpt><trkpt lat="53.6047122" lon="-1.9225291"><ele>191.5</ele><time>2026-04-11T09:46:55.522Z</time></trkpt><trkpt lat="53.6048469" lon="-1.9224947"><ele>190.75</ele><time>2026-04-11T09:46:56.523Z</time></trkpt><trkpt lat="53.6049796" lon="-1.9224563"><ele>190.0</ele><time>2026-04-11T09:46:57.523Z</time></trkpt><trkpt lat="53.6051096" lon="-1.9224168"><ele>190.0</ele><time>2026-04-11T09:46:58.527Z</time></trkpt><trkpt lat="53.605244" lon="-1.9223778"><ele>190.0</ele><time>2026-04-11T09:46:59.526Z</time></trkpt><trkpt lat="53.6053817" lon="-1.9223317"><ele>190.0</ele><time>2026-04-11T09:47:00.524Z</time></trkpt><trkpt lat="53.605528" lon="-1.9222708"><ele>190.0</ele><time>2026-04-11T09:47:01.525Z</time></trkpt><trkpt lat="53.6056747" lon="-1.9221974"><ele>189.5</ele><time>2026-04-11T09:47:02.526Z</time></trkpt><trkpt lat="53.6058146" lon="-1.9221112"><ele>189.0</ele><time>2026-04-11T09:47:03.52Z</time></trkpt><trkpt lat="53.6059407" lon="-1.922005"><ele>188.5</ele><time>2026-04-11T09:47:04.526Z</time></trkpt><trkpt lat="53.6060483" lon="-1.9218697"><ele>188.0</ele><time>2026-04-11T09:47:05.527Z</time></trkpt><trkpt lat="53.6061559" lon="-1.9217301"><ele>189.75</ele><time>2026-04-11T09:47:06.525Z</time></trkpt><trkpt lat="53.6062735" lon="-1.9216032"><ele>191.5</ele><time>2026-04-11T09:47:07.525Z</time></trkpt><trkpt lat="53.6064019" lon="-1.921495"><ele>193.25</ele><time>2026-04-11T09:47:08.522Z</time></trkpt><trkpt lat="53.6065295" lon="-1.9213986"><ele>195.0</ele><time>2026-04-11T09:47:09.525Z</time></trkpt><trkpt lat="53.6066477" lon="-1.9213105"><ele>195.0</ele><time>2026-04-11T09:47:10.522Z</time></trkpt><trkpt lat="53.6067448" lon="-1.9212101"><ele>195.0</ele><time>2026-04-11T09:47:11.522Z</time></trkpt><trkpt lat="53.6068279" lon="-1.9210774"><ele>195.0</ele><time>2026-04-11T09:47:12.522Z</time></trkpt><trkpt lat="53.6069101" lon="-1.9209203"><ele>195.0</ele><time>2026-04-11T09:47:13.522Z</time></trkpt><trkpt lat="53.6069957" lon="-1.9207609"><ele>195.0</ele><time>2026-04-11T09:47:14.527Z</time></trkpt><trkpt lat="53.6070848" lon="-1.920604"><ele>195.0</ele><time>2026-04-11T09:47:15.523Z</time></trkpt><trkpt lat="53.6071786" lon="-1.9204624"><ele>195.0</ele><time>2026-04-11T09:47:16.524Z</time></trkpt><trkpt lat="53.6072809" lon="-1.9203241"><ele>195.0</ele><time>2026-04-11T09:47:17.524Z</time></trkpt><trkpt lat="53.6074009" lon="-1.9201977"><ele>195.0</ele><time>2026-04-11T09:47:18.525Z</time></trkpt><trkpt lat="53.6075309" lon="-1.920084"><ele>195.0</ele><time>2026-04-11T09:47:19.523Z</time></trkpt><trkpt lat="53.6076658" lon="-1.9199802"><ele>195.0</ele><time>2026-04-11T09:47:20.523Z</time></trkpt><trkpt lat="53.6077967" lon="-1.919891"><ele>195.0</ele><time>2026-04-11T09:47:21.519Z</time></trkpt><trkpt lat="53.6079155" lon="-1.9198028"><ele>193.4</ele><time>2026-04-11T09:47:22.523Z</time></trkpt><trkpt lat="53.6080272" lon="-1.9197183"><ele>191.8</ele><time>2026-04-11T09:47:23.529Z</time></trkpt><trkpt lat="53.6081292" lon="-1.9196353"><ele>190.2</ele><time>2026-04-11T09:47:24.524Z</time></trkpt><trkpt lat="53.6082219" lon="-1.9195525"><ele>188.6</ele><time>2026-04-11T09:47:25.524Z</time></trkpt><trkpt lat="53.6083066" lon="-1.9194584"><ele>187.0</ele><time>2026-04-11T09:47:26.522Z</time></trkpt><trkpt lat="53.6083814" lon="-1.9193568"><ele>187.0</ele><time>2026-04-11T09:47:27.522Z</time></trkpt><trkpt lat="53.6084497" lon="-1.9192534"><ele>187.0</ele><time>2026-04-11T09:47:28.523Z</time></trkpt><trkpt lat="53.6085206" lon="-1.9191516"><ele>187.0</ele><time>2026-04-11T09:47:29.522Z</time></trkpt><trkpt lat="53.6086033" lon="-1.9190569"><ele>187.0</ele><time>2026-04-11T09:47:30.518Z</time></trkpt><trkpt lat="53.6087008" lon="-1.9189815"><ele>187.0</ele><time>2026-04-11T09:47:31.517Z</time></trkpt><trkpt lat="53.6088168" lon="-1.9189272"><ele>186.25</ele><time>2026-04-11T09:47:32.516Z</time></trkpt><trkpt lat="53.608941" lon="-1.9188802"><ele>185.5</ele><time>2026-04-11T09:47:33.518Z</time></trkpt><trkpt lat="53.6090653" lon="-1.918857"><ele>184.75</ele><time>2026-04-11T09:47:34.523Z</time></trkpt><trkpt lat="53.609177" lon="-1.9188389"><ele>184.0</ele><time>2026-04-11T09:47:35.524Z</time></trkpt><trkpt lat="53.6092691" lon="-1.9187871"><ele>184.0</ele><time>2026-04-11T09:47:36.527Z</time></trkpt><trkpt lat="53.6093486" lon="-1.9187245"><ele>184.0</ele><time>2026-04-11T09:47:37.522Z</time></trkpt><trkpt lat="53.6094176" lon="-1.91864"><ele>184.0</ele><time>2026-04-11T09:47:38.522Z</time></trkpt><trkpt lat="53.6094831" lon="-1.9185572"><ele>184.0</ele><time>2026-04-11T09:47:39.523Z</time></trkpt><trkpt lat="53.6095538" lon="-1.9184939"><ele>184.0</ele><time>2026-04-11T09:47:40.521Z</time></trkpt><trkpt lat="53.6096293" lon="-1.9184527"><ele>184.0</ele><time>2026-04-11T09:47:41.52Z</time></trkpt><trkpt lat="53.6097072" lon="-1.9184098"><ele>184.0</ele><time>2026-04-11T09:47:42.522Z</time></trkpt><trkpt lat="53.6097944" lon="-1.9183681"><ele>184.0</ele><time>2026-04-11T09:47:43.522Z</time></trkpt><trkpt lat="53.6098845" lon="-1.9183197"><ele>184.0</ele><time>2026-04-11T09:47:44.522Z</time></trkpt><trkpt lat="53.6099747" lon="-1.918266"><ele>184.0</ele><time>2026-04-11T09:47:45.523Z</time></trkpt><trkpt lat="53.6100561" lon="-1.9181879"><ele>184.0</ele><time>2026-04-11T09:47:46.522Z</time></trkpt><trkpt lat="53.6101408" lon="-1.9180805"><ele>184.0</ele><time>2026-04-11T09:47:47.522Z</time></trkpt><trkpt lat="53.610241" lon="-1.9179332"><ele>184.0</ele><time>2026-04-11T09:47:48.528Z</time></trkpt><trkpt lat="53.6103526" lon="-1.9177402"><ele>184.0</ele><time>2026-04-11T09:47:49.522Z</time></trkpt><trkpt lat="53.6104699" lon="-1.9175312"><ele>184.0</ele><time>2026-04-11T09:47:50.522Z</time></trkpt><trkpt lat="53.6105826" lon="-1.917324"><ele>184.0</ele><time>2026-04-11T09:47:51.526Z</time></trkpt><trkpt lat="53.6106879" lon="-1.9171189"><ele>184.0</ele><time>2026-04-11T09:47:52.523Z</time></trkpt><trkpt lat="53.6107956" lon="-1.9169148"><ele>183.0</ele><time>2026-04-11T09:47:53.522Z</time></trkpt><trkpt lat="53.6108867" lon="-1.9166935"><ele>182.0</ele><time>2026-04-11T09:47:54.522Z</time></trkpt><trkpt lat="53.6109667" lon="-1.9164919"><ele>181.0</ele><time>2026-04-11T09:47:55.523Z</time></trkpt><trkpt lat="53.6110415" lon="-1.9162949"><ele>180.0</ele><time>2026-04-11T09:47:56.522Z</time></trkpt><trkpt lat="53.6111196" lon="-1.9160991"><ele>181.75</ele><time>2026-04-11T09:47:57.522Z</time></trkpt><trkpt lat="53.6112004" lon="-1.9159043"><ele>183.5</ele><time>2026-04-11T09:47:58.524Z</time></trkpt><trkpt lat="53.6112816" lon="-1.9157045"><ele>185.25</ele><time>2026-04-11T09:47:59.523Z</time></trkpt><trkpt lat="53.611362" lon="-1.9155039"><ele>187.0</ele><time>2026-04-11T09:48:00.524Z</time></trkpt><trkpt lat="53.6114399" lon="-1.9153048"><ele>187.0</ele><time>2026-04-11T09:48:01.524Z</time></trkpt><trkpt lat="53.6115145" lon="-1.9151128"><ele>187.0</ele><time>2026-04-11T09:48:02.522Z</time></trkpt><trkpt lat="53.6115873" lon="-1.914933"><ele>187.0</ele><time>2026-04-11T09:48:03.527Z</time></trkpt><trkpt lat="53.6116541" lon="-1.9147668"><ele>187.0</ele><time>2026-04-11T09:48:04.528Z</time></trkpt><trkpt lat="53.611715" lon="-1.9146166"><ele>186.39999999999998</ele><time>2026-04-11T09:48:05.524Z</time></trkpt><trkpt lat="53.6117701" lon="-1.9144781"><ele>185.79999999999998</ele><time>2026-04-11T09:48:06.524Z</time></trkpt><trkpt lat="53.6118245" lon="-1.914345"><ele>185.2</ele><time>2026-04-11T09:48:07.526Z</time></trkpt><trkpt lat="53.6118775" lon="-1.914202"><ele>184.6</ele><time>2026-04-11T09:48:08.523Z</time></trkpt><trkpt lat="53.6119325" lon="-1.914056"><ele>184.0</ele><time>2026-04-11T09:48:09.524Z</time></trkpt><trkpt lat="53.6119925" lon="-1.9139015"><ele>184.0</ele><time>2026-04-11T09:48:10.526Z</time></trkpt><trkpt lat="53.6120593" lon="-1.913738"><ele>184.0</ele><time>2026-04-11T09:48:11.522Z</time></trkpt><trkpt lat="53.612124" lon="-1.9135707"><ele>184.0</ele><time>2026-04-11T09:48:12.525Z</time></trkpt><trkpt lat="53.6121851" lon="-1.9134135"><ele>184.0</ele><time>2026-04-11T09:48:13.525Z</time></trkpt><trkpt lat="53.6122389" lon="-1.9132723"><ele>184.0</ele><time>2026-04-11T09:48:14.524Z</time></trkpt><trkpt lat="53.612284" lon="-1.9131509"><ele>183.33333333333334</ele><time>2026-04-11T09:48:15.523Z</time></trkpt><trkpt lat="53.6123238" lon="-1.9130478"><ele>182.66666666666669</ele><time>2026-04-11T09:48:16.524Z</time></trkpt><trkpt lat="53.6123891" lon="-1.9129342"><ele>182.0</ele><time>2026-04-11T09:48:18.526Z</time></trkpt><trkpt lat="53.6124767" lon="-1.9129826"><ele>181.33333333333334</ele><time>2026-04-11T09:48:20.523Z</time></trkpt><trkpt lat="53.6125267" lon="-1.9130555"><ele>180.66666666666666</ele><time>2026-04-11T09:48:21.523Z</time></trkpt><trkpt lat="53.612575" lon="-1.9131371"><ele>180.0</ele><time>2026-04-11T09:48:22.523Z</time></trkpt><trkpt lat="53.6126311" lon="-1.913233"><ele>180.0</ele><time>2026-04-11T09:48:23.524Z</time></trkpt><trkpt lat="53.6126897" lon="-1.9133213"><ele>180.0</ele><time>2026-04-11T09:48:24.525Z</time></trkpt><trkpt lat="53.6127487" lon="-1.9134035"><ele>180.0</ele><time>2026-04-11T09:48:25.52Z</time></trkpt><trkpt lat="53.6128097" lon="-1.913492"><ele>180.0</ele><time>2026-04-11T09:48:26.52Z</time></trkpt><trkpt lat="53.6128742" lon="-1.9135611"><ele>180.0</ele><time>2026-04-11T09:48:27.523Z</time></trkpt><trkpt lat="53.6129508" lon="-1.9136057"><ele>180.0</ele><time>2026-04-11T09:48:28.517Z</time></trkpt><trkpt lat="53.6130158" lon="-1.9135865"><ele>181.75</ele><time>2026-04-11T09:48:29.523Z</time></trkpt><trkpt lat="53.6130892" lon="-1.9134511"><ele>183.5</ele><time>2026-04-11T09:48:30.522Z</time></trkpt><trkpt lat="53.6131465" lon="-1.9132977"><ele>185.25</ele><time>2026-04-11T09:48:31.524Z</time></trkpt><trkpt lat="53.6132106" lon="-1.9130996"><ele>187.0</ele><time>2026-04-11T09:48:32.525Z</time></trkpt><trkpt lat="53.6132606" lon="-1.9129019"><ele>187.0</ele><time>2026-04-11T09:48:33.524Z</time></trkpt><trkpt lat="53.6133125" lon="-1.9127013"><ele>187.0</ele><time>2026-04-11T09:48:34.526Z</time></trkpt><trkpt lat="53.6133657" lon="-1.9124999"><ele>187.0</ele><time>2026-04-11T09:48:35.53Z</time></trkpt><trkpt lat="53.6134219" lon="-1.9123004"><ele>187.0</ele><time>2026-04-11T09:48:36.527Z</time></trkpt><trkpt lat="53.6134874" lon="-1.9121081"><ele>186.0</ele><time>2026-04-11T09:48:37.527Z</time></trkpt><trkpt lat="53.6135534" lon="-1.9119128"><ele>185.0</ele><time>2026-04-11T09:48:38.53Z</time></trkpt><trkpt lat="53.6136195" lon="-1.9117195"><ele>184.0</ele><time>2026-04-11T09:48:39.529Z</time></trkpt><trkpt lat="53.6136968" lon="-1.9115596"><ele>183.0</ele><time>2026-04-11T09:48:40.525Z</time></trkpt><trkpt lat="53.6137889" lon="-1.9114282"><ele>186.0</ele><time>2026-04-11T09:48:41.521Z</time></trkpt><trkpt lat="53.6138904" lon="-1.9113191"><ele>189.0</ele><time>2026-04-11T09:48:42.524Z</time></trkpt><trkpt lat="53.6139971" lon="-1.9112052"><ele>192.0</ele><time>2026-04-11T09:48:43.526Z</time></trkpt><trkpt lat="53.6140906" lon="-1.9110981"><ele>195.0</ele><time>2026-04-11T09:48:44.526Z</time></trkpt><trkpt lat="53.6141747" lon="-1.9109925"><ele>194.16666666666666</ele><time>2026-04-11T09:48:45.524Z</time></trkpt><trkpt lat="53.6142447" lon="-1.9108843"><ele>193.33333333333334</ele><time>2026-04-11T09:48:46.524Z</time></trkpt><trkpt lat="53.6143119" lon="-1.9107807"><ele>192.5</ele><time>2026-04-11T09:48:47.526Z</time></trkpt><trkpt lat="53.6143683" lon="-1.9106841"><ele>191.66666666666669</ele><time>2026-04-11T09:48:48.525Z</time></trkpt><trkpt lat="53.614405" lon="-1.9105842"><ele>190.83333333333334</ele><time>2026-04-11T09:48:49.524Z</time></trkpt><trkpt lat="53.6144316" lon="-1.9104737"><ele>190.0</ele><time>2026-04-11T09:48:50.524Z</time></trkpt><trkpt lat="53.6144572" lon="-1.9103389"><ele>190.0</ele><time>2026-04-11T09:48:51.522Z</time></trkpt><trkpt lat="53.6144825" lon="-1.9101806"><ele>190.0</ele><time>2026-04-11T09:48:52.523Z</time></trkpt><trkpt lat="53.6145084" lon="-1.9100144"><ele>190.0</ele><time>2026-04-11T09:48:53.522Z</time></trkpt><trkpt lat="53.614539" lon="-1.909844"><ele>190.0</ele><time>2026-04-11T09:48:54.524Z</time></trkpt><trkpt lat="53.614567" lon="-1.9096744"><ele>190.0</ele><time>2026-04-11T09:48:55.526Z</time></trkpt><trkpt lat="53.614592" lon="-1.9094973"><ele>190.0</ele><time>2026-04-11T09:48:56.526Z</time></trkpt><trkpt lat="53.6146142" lon="-1.9093131"><ele>190.0</ele><time>2026-04-11T09:48:57.524Z</time></trkpt><trkpt lat="53.6146373" lon="-1.9091294"><ele>190.0</ele><time>2026-04-11T09:48:58.525Z</time></trkpt><trkpt lat="53.6146576" lon="-1.9089554"><ele>190.0</ele><time>2026-04-11T09:48:59.511Z</time></trkpt><trkpt lat="53.6146802" lon="-1.9087933"><ele>190.0</ele><time>2026-04-11T09:49:00.518Z</time></trkpt><trkpt lat="53.6147073" lon="-1.9086362"><ele>190.0</ele><time>2026-04-11T09:49:01.523Z</time></trkpt><trkpt lat="53.6147472" lon="-1.9084918"><ele>190.0</ele><time>2026-04-11T09:49:02.523Z</time></trkpt><trkpt lat="53.614794" lon="-1.9083571"><ele>190.0</ele><time>2026-04-11T09:49:03.527Z</time></trkpt><trkpt lat="53.614848" lon="-1.9082434"><ele>190.0</ele><time>2026-04-11T09:49:04.526Z</time></trkpt><trkpt lat="53.6148963" lon="-1.9081313"><ele>190.0</ele><time>2026-04-11T09:49:05.524Z</time></trkpt><trkpt lat="53.6149397" lon="-1.90803"><ele>190.0</ele><time>2026-04-11T09:49:06.525Z</time></trkpt><trkpt lat="53.6149721" lon="-1.9079283"><ele>188.83333333333334</ele><time>2026-04-11T09:49:07.524Z</time></trkpt><trkpt lat="53.6149827" lon="-1.9078094"><ele>187.66666666666669</ele><time>2026-04-11T09:49:08.526Z</time></trkpt><trkpt lat="53.6149747" lon="-1.9076779"><ele>186.5</ele><time>2026-04-11T09:49:09.523Z</time></trkpt><trkpt lat="53.6149592" lon="-1.907541"><ele>185.33333333333334</ele><time>2026-04-11T09:49:10.522Z</time></trkpt><trkpt lat="53.61494" lon="-1.9073944"><ele>184.16666666666666</ele><time>2026-04-11T09:49:11.519Z</time></trkpt><trkpt lat="53.6149336" lon="-1.9072584"><ele>183.0</ele><time>2026-04-11T09:49:12.523Z</time></trkpt><trkpt lat="53.6149174" lon="-1.9070938"><ele>182.16666666666666</ele><time>2026-04-11T09:49:13.522Z</time></trkpt><trkpt lat="53.6148991" lon="-1.9069275"><ele>181.33333333333334</ele><time>2026-04-11T09:49:14.519Z</time></trkpt><trkpt lat="53.6148824" lon="-1.9067743"><ele>180.5</ele><time>2026-04-11T09:49:15.526Z</time></trkpt><trkpt lat="53.6148791" lon="-1.9066455"><ele>179.66666666666669</ele><time>2026-04-11T09:49:16.525Z</time></trkpt><trkpt lat="53.614884" lon="-1.9065235"><ele>178.83333333333334</ele><time>2026-04-11T09:49:17.526Z</time></trkpt><trkpt lat="53.6148883" lon="-1.9063979"><ele>178.0</ele><time>2026-04-11T09:49:18.523Z</time></trkpt><trkpt lat="53.6149283" lon="-1.9062323"><ele>178.0</ele><time>2026-04-11T09:49:20.521Z</time></trkpt><trkpt lat="53.6150034" lon="-1.9062505"><ele>178.0</ele><time>2026-04-11T09:49:22.523Z</time></trkpt><trkpt lat="53.6150549" lon="-1.9063313"><ele>178.0</ele><time>2026-04-11T09:49:23.525Z</time></trkpt><trkpt lat="53.615098" lon="-1.9064308"><ele>178.0</ele><time>2026-04-11T09:49:24.524Z</time></trkpt><trkpt lat="53.6151559" lon="-1.9066089"><ele>178.0</ele><time>2026-04-11T09:49:26.521Z</time></trkpt><trkpt lat="53.6151944" lon="-1.9067059"><ele>178.0</ele><time>2026-04-11T09:49:27.518Z</time></trkpt><trkpt lat="53.6152507" lon="-1.9067581"><ele>180.8</ele><time>2026-04-11T09:49:28.519Z</time></trkpt><trkpt lat="53.6153232" lon="-1.9068085"><ele>183.60000000000002</ele><time>2026-04-11T09:49:29.52Z</time></trkpt><trkpt lat="53.6154083" lon="-1.9068665"><ele>186.39999999999998</ele><time>2026-04-11T09:49:30.522Z</time></trkpt><trkpt lat="53.6154951" lon="-1.9068988"><ele>189.2</ele><time>2026-04-11T09:49:31.526Z</time></trkpt><trkpt lat="53.615582" lon="-1.9069375"><ele>192.0</ele><time>2026-04-11T09:49:32.525Z</time></trkpt><trkpt lat="53.6156788" lon="-1.9069888"><ele>192.0</ele><time>2026-04-11T09:49:33.524Z</time></trkpt><trkpt lat="53.6157787" lon="-1.9070336"><ele>192.0</ele><time>2026-04-11T09:49:34.523Z</time></trkpt><trkpt lat="53.6158772" lon="-1.9071018"><ele>192.0</ele><time>2026-04-11T09:49:35.524Z</time></trkpt><trkpt lat="53.6159622" lon="-1.9071754"><ele>192.0</ele><time>2026-04-11T09:49:36.526Z</time></trkpt><trkpt lat="53.6160463" lon="-1.9072507"><ele>192.0</ele><time>2026-04-11T09:49:37.526Z</time></trkpt><trkpt lat="53.6161309" lon="-1.9073304"><ele>195.0</ele><time>2026-04-11T09:49:38.528Z</time></trkpt><trkpt lat="53.6161987" lon="-1.9074178"><ele>198.0</ele><time>2026-04-11T09:49:39.528Z</time></trkpt><trkpt lat="53.6162689" lon="-1.9074953"><ele>201.0</ele><time>2026-04-11T09:49:40.525Z</time></trkpt><trkpt lat="53.6163462" lon="-1.9075603"><ele>204.0</ele><time>2026-04-11T09:49:41.522Z</time></trkpt><trkpt lat="53.6164397" lon="-1.9075981"><ele>207.0</ele><time>2026-04-11T09:49:42.525Z</time></trkpt><trkpt lat="53.6165091" lon="-1.9076356"><ele>210.0</ele><time>2026-04-11T09:49:43.524Z</time></trkpt><trkpt lat="53.6165754" lon="-1.9076607"><ele>210.0</ele><time>2026-04-11T09:49:44.524Z</time></trkpt><trkpt lat="53.6166408" lon="-1.9076578"><ele>210.0</ele><time>2026-04-11T09:49:45.523Z</time></trkpt><trkpt lat="53.6167096" lon="-1.9076299"><ele>210.0</ele><time>2026-04-11T09:49:46.523Z</time></trkpt><trkpt lat="53.6167805" lon="-1.9075752"><ele>210.0</ele><time>2026-04-11T09:49:47.523Z</time></trkpt><trkpt lat="53.6168536" lon="-1.90748"><ele>210.0</ele><time>2026-04-11T09:49:48.525Z</time></trkpt><trkpt lat="53.6169236" lon="-1.9073318"><ele>210.0</ele><time>2026-04-11T09:49:49.523Z</time></trkpt><trkpt lat="53.6169903" lon="-1.9071443"><ele>214.25</ele><time>2026-04-11T09:49:50.523Z</time></trkpt><trkpt lat="53.6170564" lon="-1.9069326"><ele>218.5</ele><time>2026-04-11T09:49:51.522Z</time></trkpt><trkpt lat="53.6171185" lon="-1.9067245"><ele>222.75</ele><time>2026-04-11T09:49:52.524Z</time></trkpt><trkpt lat="53.6171945" lon="-1.9065119"><ele>227.0</ele><time>2026-04-11T09:49:53.527Z</time></trkpt><trkpt lat="53.6172699" lon="-1.9063202"><ele>227.0</ele><time>2026-04-11T09:49:54.524Z</time></trkpt><trkpt lat="53.61734" lon="-1.906152"><ele>227.0</ele><time>2026-04-11T09:49:55.522Z</time></trkpt><trkpt lat="53.6173958" lon="-1.9059952"><ele>227.0</ele><time>2026-04-11T09:49:56.523Z</time></trkpt><trkpt lat="53.6174402" lon="-1.9058623"><ele>227.0</ele><time>2026-04-11T09:49:57.523Z</time></trkpt><trkpt lat="53.617497" lon="-1.9057082"><ele>227.0</ele><time>2026-04-11T09:49:58.523Z</time></trkpt><trkpt lat="53.6175506" lon="-1.905512"><ele>226.39999999999998</ele><time>2026-04-11T09:49:59.526Z</time></trkpt><trkpt lat="53.6175951" lon="-1.9053281"><ele>225.79999999999998</ele><time>2026-04-11T09:50:00.525Z</time></trkpt><trkpt lat="53.6176375" lon="-1.9051596"><ele>225.2</ele><time>2026-04-11T09:50:01.525Z</time></trkpt><trkpt lat="53.6176914" lon="-1.9050106"><ele>224.6</ele><time>2026-04-11T09:50:02.527Z</time></trkpt><trkpt lat="53.6177446" lon="-1.9049119"><ele>224.0</ele><time>2026-04-11T09:50:03.528Z</time></trkpt><trkpt lat="53.6178109" lon="-1.9048493"><ele>229.2</ele><time>2026-04-11T09:50:04.529Z</time></trkpt><trkpt lat="53.6179047" lon="-1.9048206"><ele>234.39999999999998</ele><time>2026-04-11T09:50:05.525Z</time></trkpt><trkpt lat="53.6180103" lon="-1.9048207"><ele>239.6</ele><time>2026-04-11T09:50:06.528Z</time></trkpt><trkpt lat="53.618109" lon="-1.9048296"><ele>244.8</ele><time>2026-04-11T09:50:07.528Z</time></trkpt><trkpt lat="53.6182011" lon="-1.9048451"><ele>250.0</ele><time>2026-04-11T09:50:08.526Z</time></trkpt><trkpt lat="53.6182828" lon="-1.9048573"><ele>250.0</ele><time>2026-04-11T09:50:09.529Z</time></trkpt><trkpt lat="53.6183518" lon="-1.9048501"><ele>250.0</ele><time>2026-04-11T09:50:10.529Z</time></trkpt><trkpt lat="53.6184522" lon="-1.9046989"><ele>250.0</ele><time>2026-04-11T09:50:12.524Z</time></trkpt><trkpt lat="53.618498" lon="-1.9045581"><ele>250.0</ele><time>2026-04-11T09:50:13.527Z</time></trkpt><trkpt lat="53.6185457" lon="-1.9043779"><ele>250.0</ele><time>2026-04-11T09:50:14.524Z</time></trkpt><trkpt lat="53.6185997" lon="-1.9042369"><ele>251.99999999999997</ele><time>2026-04-11T09:50:15.526Z</time></trkpt><trkpt lat="53.6186654" lon="-1.9041597"><ele>254.0</ele><time>2026-04-11T09:50:16.526Z</time></trkpt><trkpt lat="53.6187466" lon="-1.9041721"><ele>256.0</ele><time>2026-04-11T09:50:17.526Z</time></trkpt><trkpt lat="53.6188288" lon="-1.9042249"><ele>258.0</ele><time>2026-04-11T09:50:18.526Z</time></trkpt><trkpt lat="53.6188815" lon="-1.9043115"><ele>260.0</ele><time>2026-04-11T09:50:19.523Z</time></trkpt><trkpt lat="53.6189011" lon="-1.9044283"><ele>262.0</ele><time>2026-04-11T09:50:20.525Z</time></trkpt><trkpt lat="53.6188922" lon="-1.9045619"><ele>263.0</ele><time>2026-04-11T09:50:21.525Z</time></trkpt><trkpt lat="53.6188559" lon="-1.9047181"><ele>264.0</ele><time>2026-04-11T09:50:22.527Z</time></trkpt><trkpt lat="53.6188086" lon="-1.9048831"><ele>265.0</ele><time>2026-04-11T09:50:23.523Z</time></trkpt><trkpt lat="53.6187611" lon="-1.9050587"><ele>266.0</ele><time>2026-04-11T09:50:24.527Z</time></trkpt><trkpt lat="53.6187266" lon="-1.9052241"><ele>267.0</ele><time>2026-04-11T09:50:25.526Z</time></trkpt><trkpt lat="53.6187044" lon="-1.9053758"><ele>267.5</ele><time>2026-04-11T09:50:26.526Z</time></trkpt><trkpt lat="53.6187067" lon="-1.905507"><ele>268.0</ele><time>2026-04-11T09:50:27.528Z</time></trkpt><trkpt lat="53.6187451" lon="-1.9056083"><ele>268.5</ele><time>2026-04-11T09:50:28.528Z</time></trkpt><trkpt lat="53.6188203" lon="-1.9056663"><ele>269.0</ele><time>2026-04-11T09:50:29.53Z</time></trkpt><trkpt lat="53.6189125" lon="-1.9056701"><ele>269.5</ele><time>2026-04-11T09:50:30.53Z</time></trkpt><trkpt lat="53.6190249" lon="-1.9056393"><ele>270.0</ele><time>2026-04-11T09:50:31.532Z</time></trkpt><trkpt lat="53.619142" lon="-1.90561"><ele>270.0</ele><time>2026-04-11T09:50:32.534Z</time></trkpt><trkpt lat="53.6192555" lon="-1.905596"><ele>270.0</ele><time>2026-04-11T09:50:33.534Z</time></trkpt><trkpt lat="53.6193815" lon="-1.9055901"><ele>270.0</ele><time>2026-04-11T09:50:34.537Z</time></trkpt><trkpt lat="53.6195075" lon="-1.9056042"><ele>270.0</ele><time>2026-04-11T09:50:35.536Z</time></trkpt><trkpt lat="53.6196292" lon="-1.9056373"><ele>271.6</ele><time>2026-04-11T09:50:36.531Z</time></trkpt><trkpt lat="53.6197473" lon="-1.9056748"><ele>273.2</ele><time>2026-04-11T09:50:37.529Z</time></trkpt><trkpt lat="53.6198631" lon="-1.9057122"><ele>274.8</ele><time>2026-04-11T09:50:38.533Z</time></trkpt><trkpt lat="53.6199702" lon="-1.905752"><ele>276.4</ele><time>2026-04-11T09:50:39.532Z</time></trkpt><trkpt lat="53.620062" lon="-1.905807"><ele>278.0</ele><time>2026-04-11T09:50:40.532Z</time></trkpt><trkpt lat="53.6201369" lon="-1.9058998"><ele>278.4</ele><time>2026-04-11T09:50:41.529Z</time></trkpt><trkpt lat="53.6202041" lon="-1.9060277"><ele>278.8</ele><time>2026-04-11T09:50:42.53Z</time></trkpt><trkpt lat="53.6202718" lon="-1.9061681"><ele>279.2</ele><time>2026-04-11T09:50:43.532Z</time></trkpt><trkpt lat="53.6203457" lon="-1.9063038"><ele>279.6</ele><time>2026-04-11T09:50:44.529Z</time></trkpt><trkpt lat="53.6204312" lon="-1.9064391"><ele>280.0</ele><time>2026-04-11T09:50:45.527Z</time></trkpt><trkpt lat="53.6205233" lon="-1.9065706"><ele>280.4</ele><time>2026-04-11T09:50:46.53Z</time></trkpt><trkpt lat="53.6206127" lon="-1.9066907"><ele>280.8</ele><time>2026-04-11T09:50:47.533Z</time></trkpt><trkpt lat="53.6206927" lon="-1.9067924"><ele>281.2</ele><time>2026-04-11T09:50:48.526Z</time></trkpt><trkpt lat="53.6207581" lon="-1.9068729"><ele>281.6</ele><time>2026-04-11T09:50:49.528Z</time></trkpt><trkpt lat="53.6208597" lon="-1.9069833"><ele>282.0</ele><time>2026-04-11T09:50:51.531Z</time></trkpt><trkpt lat="53.6209471" lon="-1.9070795"><ele>282.2</ele><time>2026-04-11T09:50:53.531Z</time></trkpt><trkpt lat="53.6210151" lon="-1.9071459"><ele>282.4</ele><time>2026-04-11T09:50:55.531Z</time></trkpt><trkpt lat="53.6210686" lon="-1.9072907"><ele>282.6</ele><time>2026-04-11T09:50:57.531Z</time></trkpt><trkpt lat="53.6210619" lon="-1.9074217"><ele>282.8</ele><time>2026-04-11T09:50:58.529Z</time></trkpt><trkpt lat="53.6210548" lon="-1.9075789"><ele>283.0</ele><time>2026-04-11T09:50:59.53Z</time></trkpt><trkpt lat="53.6210444" lon="-1.9077469"><ele>283.25</ele><time>2026-04-11T09:51:00.531Z</time></trkpt><trkpt lat="53.6210449" lon="-1.9079266"><ele>283.5</ele><time>2026-04-11T09:51:01.533Z</time></trkpt><trkpt lat="53.6210577" lon="-1.9081085"><ele>283.75</ele><time>2026-04-11T09:51:02.533Z</time></trkpt><trkpt lat="53.6210835" lon="-1.9082955"><ele>284.0</ele><time>2026-04-11T09:51:03.536Z</time></trkpt><trkpt lat="53.6211172" lon="-1.9084917"><ele>284.25</ele><time>2026-04-11T09:51:04.537Z</time></trkpt><trkpt lat="53.6211566" lon="-1.9086873"><ele>284.5</ele><time>2026-04-11T09:51:05.536Z</time></trkpt><trkpt lat="53.6211995" lon="-1.9088863"><ele>284.75</ele><time>2026-04-11T09:51:06.527Z</time></trkpt><trkpt lat="53.6212375" lon="-1.9090809"><ele>285.0</ele><time>2026-04-11T09:51:07.533Z</time></trkpt><trkpt lat="53.6212699" lon="-1.9092619"><ele>286.25</ele><time>2026-04-11T09:51:08.531Z</time></trkpt><trkpt lat="53.621312" lon="-1.9094302"><ele>287.5</ele><time>2026-04-11T09:51:09.536Z</time></trkpt><trkpt lat="53.6213823" lon="-1.9095785"><ele>288.75</ele><time>2026-04-11T09:51:10.532Z</time></trkpt><trkpt lat="53.6214803" lon="-1.9097044"><ele>290.0</ele><time>2026-04-11T09:51:11.53Z</time></trkpt><trkpt lat="53.6215894" lon="-1.9098292"><ele>290.0</ele><time>2026-04-11T09:51:12.531Z</time></trkpt><trkpt lat="53.6216899" lon="-1.9099531"><ele>290.0</ele><time>2026-04-11T09:51:13.531Z</time></trkpt><trkpt lat="53.6217695" lon="-1.9100749"><ele>290.0</ele><time>2026-04-11T09:51:14.53Z</time></trkpt><trkpt lat="53.6218294" lon="-1.9102093"><ele>290.0</ele><time>2026-04-11T09:51:15.532Z</time></trkpt><trkpt lat="53.6218715" lon="-1.9103747"><ele>290.0</ele><time>2026-04-11T09:51:16.53Z</time></trkpt><trkpt lat="53.6218927" lon="-1.9105432"><ele>291.2</ele><time>2026-04-11T09:51:17.529Z</time></trkpt><trkpt lat="53.6218919" lon="-1.9107212"><ele>292.4</ele><time>2026-04-11T09:51:18.53Z</time></trkpt><trkpt lat="53.6218819" lon="-1.9108769"><ele>293.6</ele><time>2026-04-11T09:51:19.529Z</time></trkpt><trkpt lat="53.621861" lon="-1.9109951"><ele>294.8</ele><time>2026-04-11T09:51:20.529Z</time></trkpt><trkpt lat="53.6218288" lon="-1.9110881"><ele>296.0</ele><time>2026-04-11T09:51:21.529Z</time></trkpt><trkpt lat="53.6217041" lon="-1.9111023"><ele>296.0</ele><time>2026-04-11T09:51:23.528Z</time></trkpt><trkpt lat="53.6216286" lon="-1.9110273"><ele>296.0</ele><time>2026-04-11T09:51:24.532Z</time></trkpt><trkpt lat="53.6215442" lon="-1.9109336"><ele>296.0</ele><time>2026-04-11T09:51:25.53Z</time></trkpt><trkpt lat="53.6214515" lon="-1.9108507"><ele>296.0</ele><time>2026-04-11T09:51:26.53Z</time></trkpt><trkpt lat="53.6213501" lon="-1.9107889"><ele>296.0</ele><time>2026-04-11T09:51:27.528Z</time></trkpt><trkpt lat="53.6212346" lon="-1.9107454"><ele>297.0</ele><time>2026-04-11T09:51:28.529Z</time></trkpt><trkpt lat="53.6211173" lon="-1.9107211"><ele>298.0</ele><time>2026-04-11T09:51:29.532Z</time></trkpt><trkpt lat="53.6210061" lon="-1.9107087"><ele>299.0</ele><time>2026-04-11T09:51:30.529Z</time></trkpt><trkpt lat="53.620914" lon="-1.9107127"><ele>300.0</ele><time>2026-04-11T09:51:31.532Z</time></trkpt><trkpt lat="53.6208322" lon="-1.9107355"><ele>301.0</ele><time>2026-04-11T09:51:32.531Z</time></trkpt><trkpt lat="53.6207515" lon="-1.9107604"><ele>301.0</ele><time>2026-04-11T09:51:33.525Z</time></trkpt><trkpt lat="53.6206653" lon="-1.9107803"><ele>301.0</ele><time>2026-04-11T09:51:34.532Z</time></trkpt><trkpt lat="53.6205777" lon="-1.9108033"><ele>301.0</ele><time>2026-04-11T09:51:35.533Z</time></trkpt><trkpt lat="53.6204934" lon="-1.9108351"><ele>301.0</ele><time>2026-04-11T09:51:36.531Z</time></trkpt><trkpt lat="53.6204258" lon="-1.9108693"><ele>301.0</ele><time>2026-04-11T09:51:37.53Z</time></trkpt><trkpt lat="53.6203494" lon="-1.9109351"><ele>301.0</ele><time>2026-04-11T09:51:39.53Z</time></trkpt><trkpt lat="53.6202808" lon="-1.9110098"><ele>301.16666666666663</ele><time>2026-04-11T09:51:42.53Z</time></trkpt><trkpt lat="53.6202039" lon="-1.9110855"><ele>301.3333333333333</ele><time>2026-04-11T09:51:44.529Z</time></trkpt><trkpt lat="53.6201247" lon="-1.9111806"><ele>301.5</ele><time>2026-04-11T09:51:46.53Z</time></trkpt><trkpt lat="53.620071" lon="-1.9113403"><ele>301.6666666666667</ele><time>2026-04-11T09:51:48.531Z</time></trkpt><trkpt lat="53.6200574" lon="-1.9114471"><ele>301.83333333333337</ele><time>2026-04-11T09:51:49.526Z</time></trkpt><trkpt lat="53.6200521" lon="-1.911564"><ele>302.0</ele><time>2026-04-11T09:51:50.529Z</time></trkpt><trkpt lat="53.6200499" lon="-1.9116766"><ele>302.83333333333337</ele><time>2026-04-11T09:51:51.526Z</time></trkpt><trkpt lat="53.6200393" lon="-1.9118419"><ele>303.6666666666667</ele><time>2026-04-11T09:51:53.526Z</time></trkpt><trkpt lat="53.6200219" lon="-1.9119548"><ele>304.5</ele><time>2026-04-11T09:51:56.528Z</time></trkpt><trkpt lat="53.6200077" lon="-1.9120617"><ele>305.3333333333333</ele><time>2026-04-11T09:52:04.53Z</time></trkpt><trkpt lat="53.6200005" lon="-1.912229"><ele>306.16666666666663</ele><time>2026-04-11T09:52:06.527Z</time></trkpt><trkpt lat="53.619992" lon="-1.9124249"><ele>307.0</ele><time>2026-04-11T09:52:08.53Z</time></trkpt><trkpt lat="53.6199829" lon="-1.9125939"><ele>307.66666666666663</ele><time>2026-04-11T09:52:10.534Z</time></trkpt><trkpt lat="53.6199983" lon="-1.9128011"><ele>308.3333333333333</ele><time>2026-04-11T09:52:12.53Z</time></trkpt><trkpt lat="53.6200126" lon="-1.912923"><ele>309.0</ele><time>2026-04-11T09:52:13.536Z</time></trkpt><trkpt lat="53.62003" lon="-1.9130453"><ele>309.6666666666667</ele><time>2026-04-11T09:52:14.533Z</time></trkpt><trkpt lat="53.6200465" lon="-1.9131484"><ele>310.33333333333337</ele><time>2026-04-11T09:52:15.53Z</time></trkpt><trkpt lat="53.6200571" lon="-1.9130362"><ele>311.0</ele><time>2026-04-11T09:52:29.531Z</time></trkpt><trkpt lat="53.6200368" lon="-1.9129323"><ele>311.0</ele><time>2026-04-11T09:52:34.528Z</time></trkpt><trkpt lat="53.6200095" lon="-1.9127595"><ele>311.0</ele><time>2026-04-11T09:52:53.53Z</time></trkpt><trkpt lat="53.6200032" lon="-1.9125721"><ele>311.0</ele><time>2026-04-11T09:52:55.532Z</time></trkpt><trkpt lat="53.6200039" lon="-1.91239"><ele>311.0</ele><time>2026-04-11T09:52:57.529Z</time></trkpt><trkpt lat="53.620013" lon="-1.9122406"><ele>311.0</ele><time>2026-04-11T09:52:59.528Z</time></trkpt><trkpt lat="53.6200276" lon="-1.9120955"><ele>310.33333333333337</ele><time>2026-04-11T09:53:01.535Z</time></trkpt><trkpt lat="53.6200427" lon="-1.9119613"><ele>309.6666666666667</ele><time>2026-04-11T09:53:03.535Z</time></trkpt><trkpt lat="53.6200528" lon="-1.9118549"><ele>309.0</ele><time>2026-04-11T09:53:05.534Z</time></trkpt><trkpt lat="53.6200797" lon="-1.9116971"><ele>308.3333333333333</ele><time>2026-04-11T09:53:08.53Z</time></trkpt><trkpt lat="53.6200934" lon="-1.9115394"><ele>307.66666666666663</ele><time>2026-04-11T09:53:10.529Z</time></trkpt><trkpt lat="53.6201129" lon="-1.9113715"><ele>307.0</ele><time>2026-04-11T09:53:12.522Z</time></trkpt><trkpt lat="53.6201591" lon="-1.9112208"><ele>307.8</ele><time>2026-04-11T09:53:14.527Z</time></trkpt><trkpt lat="53.6202461" lon="-1.9110826"><ele>308.6</ele><time>2026-04-11T09:53:16.527Z</time></trkpt><trkpt lat="53.6203175" lon="-1.9110141"><ele>309.40000000000003</ele><time>2026-04-11T09:53:17.524Z</time></trkpt><trkpt lat="53.6203928" lon="-1.9109549"><ele>310.2</ele><time>2026-04-11T09:53:18.529Z</time></trkpt><trkpt lat="53.6204752" lon="-1.9109005"><ele>311.0</ele><time>2026-04-11T09:53:19.538Z</time></trkpt><trkpt lat="53.6205607" lon="-1.9108613"><ele>309.33333333333337</ele><time>2026-04-11T09:53:20.526Z</time></trkpt><trkpt lat="53.6206464" lon="-1.910832"><ele>307.6666666666667</ele><time>2026-04-11T09:53:21.53Z</time></trkpt><trkpt lat="53.620729" lon="-1.9108095"><ele>306.0</ele><time>2026-04-11T09:53:22.527Z</time></trkpt><trkpt lat="53.6208106" lon="-1.9107902"><ele>304.3333333333333</ele><time>2026-04-11T09:53:23.529Z</time></trkpt><trkpt lat="53.6208918" lon="-1.9107765"><ele>302.66666666666663</ele><time>2026-04-11T09:53:24.531Z</time></trkpt><trkpt lat="53.6209669" lon="-1.9107688"><ele>301.0</ele><time>2026-04-11T09:53:25.528Z</time></trkpt><trkpt lat="53.6210398" lon="-1.9107674"><ele>301.0</ele><time>2026-04-11T09:53:26.528Z</time></trkpt><trkpt lat="53.6211083" lon="-1.9107751"><ele>301.0</ele><time>2026-04-11T09:53:27.528Z</time></trkpt><trkpt lat="53.6212231" lon="-1.9108078"><ele>301.0</ele><time>2026-04-11T09:53:29.531Z</time></trkpt><trkpt lat="53.6213511" lon="-1.9108592"><ele>301.0</ele><time>2026-04-11T09:53:31.533Z</time></trkpt><trkpt lat="53.6214302" lon="-1.9108886"><ele>301.0</ele><time>2026-04-11T09:53:32.534Z</time></trkpt><trkpt lat="53.6215116" lon="-1.910919"><ele>301.3333333333333</ele><time>2026-04-11T09:53:33.536Z</time></trkpt><trkpt lat="53.6215891" lon="-1.9109565"><ele>301.66666666666663</ele><time>2026-04-11T09:53:34.534Z</time></trkpt><trkpt lat="53.6216589" lon="-1.9109976"><ele>302.0</ele><time>2026-04-11T09:53:35.535Z</time></trkpt><trkpt lat="53.6217214" lon="-1.911038"><ele>302.3333333333333</ele><time>2026-04-11T09:53:36.527Z</time></trkpt><trkpt lat="53.621817" lon="-1.9110946"><ele>302.6666666666667</ele><time>2026-04-11T09:53:38.529Z</time></trkpt><trkpt lat="53.621898" lon="-1.911135"><ele>303.0</ele><time>2026-04-11T09:53:40.527Z</time></trkpt><trkpt lat="53.6219608" lon="-1.9111611"><ele>300.2</ele><time>2026-04-11T09:53:41.529Z</time></trkpt><trkpt lat="53.6220438" lon="-1.9111963"><ele>297.4</ele><time>2026-04-11T09:53:42.53Z</time></trkpt><trkpt lat="53.6221391" lon="-1.9112394"><ele>294.59999999999997</ele><time>2026-04-11T09:53:43.533Z</time></trkpt><trkpt lat="53.6222327" lon="-1.9112837"><ele>291.8</ele><time>2026-04-11T09:53:44.532Z</time></trkpt><trkpt lat="53.6223203" lon="-1.9113312"><ele>289.0</ele><time>2026-04-11T09:53:45.532Z</time></trkpt><trkpt lat="53.6223981" lon="-1.9113914"><ele>289.0</ele><time>2026-04-11T09:53:46.532Z</time></trkpt><trkpt lat="53.6224654" lon="-1.9114702"><ele>289.0</ele><time>2026-04-11T09:53:47.532Z</time></trkpt><trkpt lat="53.6225292" lon="-1.911551"><ele>289.0</ele><time>2026-04-11T09:53:48.532Z</time></trkpt><trkpt lat="53.6225964" lon="-1.9116239"><ele>289.0</ele><time>2026-04-11T09:53:49.53Z</time></trkpt><trkpt lat="53.6226656" lon="-1.911692"><ele>289.0</ele><time>2026-04-11T09:53:50.53Z</time></trkpt><trkpt lat="53.6227385" lon="-1.9117548"><ele>289.0</ele><time>2026-04-11T09:53:51.529Z</time></trkpt><trkpt lat="53.6228128" lon="-1.9118092"><ele>287.66666666666663</ele><time>2026-04-11T09:53:52.531Z</time></trkpt><trkpt lat="53.6228846" lon="-1.9118518"><ele>286.3333333333333</ele><time>2026-04-11T09:53:53.533Z</time></trkpt><trkpt lat="53.6229542" lon="-1.9118853"><ele>285.0</ele><time>2026-04-11T09:53:54.533Z</time></trkpt><trkpt lat="53.6230201" lon="-1.9119145"><ele>283.6666666666667</ele><time>2026-04-11T09:53:55.532Z</time></trkpt><trkpt lat="53.6230836" lon="-1.9119435"><ele>282.33333333333337</ele><time>2026-04-11T09:53:56.532Z</time></trkpt><trkpt lat="53.6231477" lon="-1.9119721"><ele>281.0</ele><time>2026-04-11T09:53:57.532Z</time></trkpt><trkpt lat="53.6232577" lon="-1.9120255"><ele>281.0</ele><time>2026-04-11T09:53:59.529Z</time></trkpt><trkpt lat="53.6233401" lon="-1.9120549"><ele>281.0</ele><time>2026-04-11T09:54:01.531Z</time></trkpt><trkpt lat="53.6234258" lon="-1.9120553"><ele>281.0</ele><time>2026-04-11T09:54:04.537Z</time></trkpt><trkpt lat="53.6234907" lon="-1.9120414"><ele>281.0</ele><time>2026-04-11T09:54:07.534Z</time></trkpt><trkpt lat="53.6235678" lon="-1.9119949"><ele>281.0</ele><time>2026-04-11T09:54:10.534Z</time></trkpt><trkpt lat="53.6236192" lon="-1.9118868"><ele>281.0</ele><time>2026-04-11T09:54:13.53Z</time></trkpt><trkpt lat="53.6236751" lon="-1.911793"><ele>278.1666666666667</ele><time>2026-04-11T09:54:16.532Z</time></trkpt><trkpt lat="53.6237308" lon="-1.9117281"><ele>275.33333333333337</ele><time>2026-04-11T09:54:19.522Z</time></trkpt><trkpt lat="53.623798" lon="-1.9116555"><ele>272.5</ele><time>2026-04-11T09:54:23.53Z</time></trkpt><trkpt lat="53.6238443" lon="-1.9117507"><ele>269.6666666666667</ele><time>2026-04-11T09:54:29.528Z</time></trkpt><trkpt lat="53.6238822" lon="-1.9118776"><ele>266.8333333333333</ele><time>2026-04-11T09:54:31.528Z</time></trkpt><trkpt lat="53.6239444" lon="-1.9119389"><ele>264.0</ele><time>2026-04-11T09:54:33.534Z</time></trkpt><trkpt lat="53.6239963" lon="-1.9118046"><ele>264.0</ele><time>2026-04-11T09:54:35.529Z</time></trkpt><trkpt lat="53.6240028" lon="-1.9116962"><ele>264.0</ele><time>2026-04-11T09:54:36.536Z</time></trkpt><trkpt lat="53.624019" lon="-1.9115821"><ele>264.0</ele><time>2026-04-11T09:54:37.531Z</time></trkpt><trkpt lat="53.6240503" lon="-1.911459"><ele>264.0</ele><time>2026-04-11T09:54:39.528Z</time></trkpt><trkpt lat="53.6241146" lon="-1.9114615"><ele>264.0</ele><time>2026-04-11T09:54:41.526Z</time></trkpt><trkpt lat="53.6241755" lon="-1.9115519"><ele>264.0</ele><time>2026-04-11T09:54:44.526Z</time></trkpt><trkpt lat="53.6242157" lon="-1.9116622"><ele>264.0</ele><time>2026-04-11T09:54:47.531Z</time></trkpt><trkpt lat="53.6242379" lon="-1.9117877"><ele>264.0</ele><time>2026-04-11T09:54:50.528Z</time></trkpt><trkpt lat="53.6242984" lon="-1.9118835"><ele>264.0</ele><time>2026-04-11T09:54:54.528Z</time></trkpt><trkpt lat="53.624331" lon="-1.9119759"><ele>264.0</ele><time>2026-04-11T09:54:57.529Z</time></trkpt><trkpt lat="53.6243786" lon="-1.9121019"><ele>264.0</ele><time>2026-04-11T09:55:00.527Z</time></trkpt><trkpt lat="53.624423" lon="-1.9122015"><ele>264.0</ele><time>2026-04-11T09:55:03.532Z</time></trkpt><trkpt lat="53.6244639" lon="-1.9123257"><ele>264.0</ele><time>2026-04-11T09:55:07.537Z</time></trkpt><trkpt lat="53.6245035" lon="-1.9124516"><ele>259.3333333333333</ele><time>2026-04-11T09:55:10.531Z</time></trkpt><trkpt lat="53.624547" lon="-1.9125624"><ele>254.66666666666669</ele><time>2026-04-11T09:55:13.527Z</time></trkpt><trkpt lat="53.6245803" lon="-1.9126758"><ele>250.0</ele><time>2026-04-11T09:55:16.528Z</time></trkpt><trkpt lat="53.6246219" lon="-1.9127614"><ele>245.33333333333334</ele><time>2026-04-11T09:55:18.528Z</time></trkpt><trkpt lat="53.6246852" lon="-1.9128525"><ele>240.66666666666669</ele><time>2026-04-11T09:55:20.53Z</time></trkpt><trkpt lat="53.6247488" lon="-1.9129406"><ele>236.0</ele><time>2026-04-11T09:55:22.528Z</time></trkpt><trkpt lat="53.6248116" lon="-1.9130457"><ele>236.00000000000003</ele><time>2026-04-11T09:55:24.527Z</time></trkpt><trkpt lat="53.6248506" lon="-1.9131553"><ele>236.0</ele><time>2026-04-11T09:55:26.527Z</time></trkpt><trkpt lat="53.6248994" lon="-1.9132559"><ele>236.0</ele><time>2026-04-11T09:55:28.528Z</time></trkpt><trkpt lat="53.6249678" lon="-1.9133088"><ele>236.0</ele><time>2026-04-11T09:55:30.527Z</time></trkpt><trkpt lat="53.6250584" lon="-1.9132971"><ele>236.00000000000003</ele><time>2026-04-11T09:55:32.531Z</time></trkpt><trkpt lat="53.6251412" lon="-1.9132659"><ele>236.0</ele><time>2026-04-11T09:55:34.531Z</time></trkpt><trkpt lat="53.6252399" lon="-1.913261"><ele>237.20000000000002</ele><time>2026-04-11T09:55:36.531Z</time></trkpt><trkpt lat="53.625323" lon="-1.9132947"><ele>238.40000000000003</ele><time>2026-04-11T09:55:38.528Z</time></trkpt><trkpt lat="53.6254211" lon="-1.9132663"><ele>239.6</ele><time>2026-04-11T09:55:40.527Z</time></trkpt><trkpt lat="53.6254857" lon="-1.9131731"><ele>240.8</ele><time>2026-04-11T09:55:42.524Z</time></trkpt><trkpt lat="53.6255944" lon="-1.9132101"><ele>242.0</ele><time>2026-04-11T09:55:44.526Z</time></trkpt><trkpt lat="53.6256596" lon="-1.9132837"><ele>242.0</ele><time>2026-04-11T09:55:45.528Z</time></trkpt><trkpt lat="53.6257201" lon="-1.9133906"><ele>242.0</ele><time>2026-04-11T09:55:46.526Z</time></trkpt><trkpt lat="53.6257896" lon="-1.9134969"><ele>242.0</ele><time>2026-04-11T09:55:47.526Z</time></trkpt><trkpt lat="53.6258721" lon="-1.9135928"><ele>242.0</ele><time>2026-04-11T09:55:48.525Z</time></trkpt><trkpt lat="53.6259736" lon="-1.9136779"><ele>242.0</ele><time>2026-04-11T09:55:49.525Z</time></trkpt><trkpt lat="53.6260797" lon="-1.9137648"><ele>247.25</ele><time>2026-04-11T09:55:50.526Z</time></trkpt><trkpt lat="53.6261961" lon="-1.9138466"><ele>252.5</ele><time>2026-04-11T09:55:51.526Z</time></trkpt><trkpt lat="53.6263051" lon="-1.91389"><ele>257.75</ele><time>2026-04-11T09:55:52.524Z</time></trkpt><trkpt lat="53.6264262" lon="-1.9139084"><ele>263.0</ele><time>2026-04-11T09:55:53.526Z</time></trkpt><trkpt lat="53.6265655" lon="-1.913895"><ele>263.0</ele><time>2026-04-11T09:55:54.524Z</time></trkpt><trkpt lat="53.6266868" lon="-1.9138735"><ele>263.0</ele><time>2026-04-11T09:55:55.524Z</time></trkpt><trkpt lat="53.6268024" lon="-1.9138603"><ele>263.0</ele><time>2026-04-11T09:55:56.525Z</time></trkpt><trkpt lat="53.6269186" lon="-1.9138603"><ele>263.0</ele><time>2026-04-11T09:55:57.529Z</time></trkpt><trkpt lat="53.6270305" lon="-1.9138304"><ele>266.0</ele><time>2026-04-11T09:55:58.526Z</time></trkpt><trkpt lat="53.627128" lon="-1.9137543"><ele>269.0</ele><time>2026-04-11T09:55:59.525Z</time></trkpt><trkpt lat="53.6272024" lon="-1.9136314"><ele>272.0</ele><time>2026-04-11T09:56:00.526Z</time></trkpt><trkpt lat="53.6272871" lon="-1.9134969"><ele>275.0</ele><time>2026-04-11T09:56:01.531Z</time></trkpt><trkpt lat="53.6273751" lon="-1.9133442"><ele>275.0</ele><time>2026-04-11T09:56:02.531Z</time></trkpt><trkpt lat="53.6274843" lon="-1.91318"><ele>275.0</ele><time>2026-04-11T09:56:03.534Z</time></trkpt><trkpt lat="53.6275915" lon="-1.912996"><ele>275.0</ele><time>2026-04-11T09:56:04.53Z</time></trkpt><trkpt lat="53.6276883" lon="-1.9128179"><ele>275.0</ele><time>2026-04-11T09:56:05.527Z</time></trkpt><trkpt lat="53.6278079" lon="-1.9126413"><ele>278.0</ele><time>2026-04-11T09:56:06.532Z</time></trkpt><trkpt lat="53.6279381" lon="-1.9124836"><ele>281.0</ele><time>2026-04-11T09:56:07.531Z</time></trkpt><trkpt lat="53.6280839" lon="-1.9123475"><ele>284.0</ele><time>2026-04-11T09:56:08.528Z</time></trkpt><trkpt lat="53.6282364" lon="-1.9122131"><ele>284.0</ele><time>2026-04-11T09:56:09.529Z</time></trkpt><trkpt lat="53.628381" lon="-1.9120718"><ele>284.0</ele><time>2026-04-11T09:56:10.531Z</time></trkpt><trkpt lat="53.6285182" lon="-1.9119353"><ele>284.0</ele><time>2026-04-11T09:56:11.527Z</time></trkpt><trkpt lat="53.6286373" lon="-1.9118161"><ele>286.0</ele><time>2026-04-11T09:56:12.528Z</time></trkpt><trkpt lat="53.6287371" lon="-1.9117086"><ele>288.0</ele><time>2026-04-11T09:56:13.53Z</time></trkpt><trkpt lat="53.6288243" lon="-1.9116083"><ele>290.0</ele><time>2026-04-11T09:56:14.533Z</time></trkpt><trkpt lat="53.6289026" lon="-1.9115257"><ele>292.0</ele><time>2026-04-11T09:56:15.533Z</time></trkpt><trkpt lat="53.628978" lon="-1.9114647"><ele>294.0</ele><time>2026-04-11T09:56:16.534Z</time></trkpt><trkpt lat="53.6290575" lon="-1.9113888"><ele>294.0</ele><time>2026-04-11T09:56:17.532Z</time></trkpt><trkpt lat="53.6291481" lon="-1.9112968"><ele>294.0</ele><time>2026-04-11T09:56:18.532Z</time></trkpt><trkpt lat="53.6292467" lon="-1.9112092"><ele>294.0</ele><time>2026-04-11T09:56:19.532Z</time></trkpt><trkpt lat="53.6293543" lon="-1.911116"><ele>294.0</ele><time>2026-04-11T09:56:20.534Z</time></trkpt><trkpt lat="53.629462" lon="-1.9109966"><ele>295.75</ele><time>2026-04-11T09:56:21.532Z</time></trkpt><trkpt lat="53.6295594" lon="-1.910834"><ele>297.5</ele><time>2026-04-11T09:56:22.532Z</time></trkpt><trkpt lat="53.6296415" lon="-1.9106481"><ele>299.25</ele><time>2026-04-11T09:56:23.535Z</time></trkpt><trkpt lat="53.6297289" lon="-1.9104785"><ele>301.0</ele><time>2026-04-11T09:56:24.533Z</time></trkpt><trkpt lat="53.629826" lon="-1.9103264"><ele>301.0</ele><time>2026-04-11T09:56:25.532Z</time></trkpt><trkpt lat="53.6299277" lon="-1.9101977"><ele>301.0</ele><time>2026-04-11T09:56:26.531Z</time></trkpt><trkpt lat="53.6300371" lon="-1.9100848"><ele>301.0</ele><time>2026-04-11T09:56:27.529Z</time></trkpt><trkpt lat="53.6301588" lon="-1.9099816"><ele>301.0</ele><time>2026-04-11T09:56:28.529Z</time></trkpt><trkpt lat="53.6302826" lon="-1.9098859"><ele>302.16666666666663</ele><time>2026-04-11T09:56:29.53Z</time></trkpt><trkpt lat="53.6303887" lon="-1.9098068"><ele>303.3333333333333</ele><time>2026-04-11T09:56:30.535Z</time></trkpt><trkpt lat="53.6304659" lon="-1.9097399"><ele>304.5</ele><time>2026-04-11T09:56:31.534Z</time></trkpt><trkpt lat="53.6305167" lon="-1.9096678"><ele>305.6666666666667</ele><time>2026-04-11T09:56:32.536Z</time></trkpt><trkpt lat="53.6305649" lon="-1.9095793"><ele>306.83333333333337</ele><time>2026-04-11T09:56:33.534Z</time></trkpt><trkpt lat="53.6306155" lon="-1.9094751"><ele>308.0</ele><time>2026-04-11T09:56:34.534Z</time></trkpt><trkpt lat="53.6306691" lon="-1.9093467"><ele>307.5</ele><time>2026-04-11T09:56:35.534Z</time></trkpt><trkpt lat="53.6307238" lon="-1.9091885"><ele>307.0</ele><time>2026-04-11T09:56:36.529Z</time></trkpt><trkpt lat="53.6307862" lon="-1.9090047"><ele>306.5</ele><time>2026-04-11T09:56:37.535Z</time></trkpt><trkpt lat="53.6308392" lon="-1.9088053"><ele>306.0</ele><time>2026-04-11T09:56:38.538Z</time></trkpt><trkpt lat="53.6308911" lon="-1.9086026"><ele>304.5</ele><time>2026-04-11T09:56:39.54Z</time></trkpt><trkpt lat="53.6309425" lon="-1.9083915"><ele>303.0</ele><time>2026-04-11T09:56:40.538Z</time></trkpt><trkpt lat="53.6309945" lon="-1.9081875"><ele>301.5</ele><time>2026-04-11T09:56:41.527Z</time></trkpt><trkpt lat="53.6310486" lon="-1.9080079"><ele>300.0</ele><time>2026-04-11T09:56:42.528Z</time></trkpt><trkpt lat="53.6311064" lon="-1.9078575"><ele>302.0</ele><time>2026-04-11T09:56:43.533Z</time></trkpt><trkpt lat="53.6311784" lon="-1.9077451"><ele>304.0</ele><time>2026-04-11T09:56:44.536Z</time></trkpt><trkpt lat="53.6312718" lon="-1.9076808"><ele>306.0</ele><time>2026-04-11T09:56:45.532Z</time></trkpt><trkpt lat="53.6313846" lon="-1.9076967"><ele>308.0</ele><time>2026-04-11T09:56:46.532Z</time></trkpt><trkpt lat="53.6315024" lon="-1.9077443"><ele>310.0</ele><time>2026-04-11T09:56:47.528Z</time></trkpt><trkpt lat="53.6316148" lon="-1.9077859"><ele>310.0</ele><time>2026-04-11T09:56:48.533Z</time></trkpt><trkpt lat="53.6317302" lon="-1.9078052"><ele>310.0</ele><time>2026-04-11T09:56:49.53Z</time></trkpt><trkpt lat="53.6318504" lon="-1.9078037"><ele>310.0</ele><time>2026-04-11T09:56:50.535Z</time></trkpt><trkpt lat="53.6319743" lon="-1.9077696"><ele>310.0</ele><time>2026-04-11T09:56:51.533Z</time></trkpt><trkpt lat="53.6320993" lon="-1.9077073"><ele>311.25</ele><time>2026-04-11T09:56:52.531Z</time></trkpt><trkpt lat="53.6322174" lon="-1.9076167"><ele>312.5</ele><time>2026-04-11T09:56:53.533Z</time></trkpt><trkpt lat="53.6323316" lon="-1.90749"><ele>313.75</ele><time>2026-04-11T09:56:54.534Z</time></trkpt><trkpt lat="53.6324432" lon="-1.9073234"><ele>315.0</ele><time>2026-04-11T09:56:55.527Z</time></trkpt><trkpt lat="53.6325435" lon="-1.9071272"><ele>315.0</ele><time>2026-04-11T09:56:56.535Z</time></trkpt><trkpt lat="53.6326395" lon="-1.9069329"><ele>315.0</ele><time>2026-04-11T09:56:57.535Z</time></trkpt><trkpt lat="53.6327331" lon="-1.9067358"><ele>315.0</ele><time>2026-04-11T09:56:58.533Z</time></trkpt><trkpt lat="53.6328238" lon="-1.9065254"><ele>317.0</ele><time>2026-04-11T09:56:59.525Z</time></trkpt><trkpt lat="53.6329076" lon="-1.9063162"><ele>319.0</ele><time>2026-04-11T09:57:00.531Z</time></trkpt><trkpt lat="53.632985" lon="-1.9061034"><ele>321.0</ele><time>2026-04-11T09:57:01.536Z</time></trkpt><trkpt lat="53.6330556" lon="-1.9058914"><ele>323.0</ele><time>2026-04-11T09:57:02.536Z</time></trkpt><trkpt lat="53.6331289" lon="-1.9056996"><ele>323.0</ele><time>2026-04-11T09:57:03.537Z</time></trkpt><trkpt lat="53.6332099" lon="-1.9055262"><ele>323.0</ele><time>2026-04-11T09:57:04.53Z</time></trkpt><trkpt lat="53.6332981" lon="-1.9053686"><ele>323.0</ele><time>2026-04-11T09:57:05.528Z</time></trkpt><trkpt lat="53.6333866" lon="-1.9052183"><ele>323.0</ele><time>2026-04-11T09:57:06.536Z</time></trkpt><trkpt lat="53.6334715" lon="-1.9050699"><ele>323.0</ele><time>2026-04-11T09:57:07.536Z</time></trkpt><trkpt lat="53.633546" lon="-1.9049062"><ele>323.0</ele><time>2026-04-11T09:57:08.537Z</time></trkpt><trkpt lat="53.633615" lon="-1.9047287"><ele>323.0</ele><time>2026-04-11T09:57:09.533Z</time></trkpt><trkpt lat="53.6336847" lon="-1.904541"><ele>323.0</ele><time>2026-04-11T09:57:10.53Z</time></trkpt><trkpt lat="53.6337538" lon="-1.904345"><ele>324.75</ele><time>2026-04-11T09:57:11.53Z</time></trkpt><trkpt lat="53.6338221" lon="-1.9041472"><ele>326.5</ele><time>2026-04-11T09:57:12.532Z</time></trkpt><trkpt lat="53.6338958" lon="-1.9039502"><ele>328.25</ele><time>2026-04-11T09:57:13.527Z</time></trkpt><trkpt lat="53.6339702" lon="-1.9037538"><ele>330.0</ele><time>2026-04-11T09:57:14.533Z</time></trkpt><trkpt lat="53.6340406" lon="-1.9035627"><ele>330.0</ele><time>2026-04-11T09:57:15.532Z</time></trkpt><trkpt lat="53.6341092" lon="-1.9033777"><ele>330.0</ele><time>2026-04-11T09:57:16.533Z</time></trkpt><trkpt lat="53.6341773" lon="-1.9032009"><ele>330.0</ele><time>2026-04-11T09:57:17.534Z</time></trkpt><trkpt lat="53.6342461" lon="-1.9030369"><ele>330.0</ele><time>2026-04-11T09:57:18.537Z</time></trkpt><trkpt lat="53.6343152" lon="-1.9028817"><ele>330.0</ele><time>2026-04-11T09:57:19.531Z</time></trkpt><trkpt lat="53.6343874" lon="-1.9027311"><ele>330.0</ele><time>2026-04-11T09:57:20.532Z</time></trkpt><trkpt lat="53.6344658" lon="-1.902595"><ele>330.0</ele><time>2026-04-11T09:57:21.532Z</time></trkpt><trkpt lat="53.6345573" lon="-1.9024862"><ele>330.0</ele><time>2026-04-11T09:57:22.534Z</time></trkpt><trkpt lat="53.6346484" lon="-1.9024087"><ele>330.0</ele><time>2026-04-11T09:57:23.537Z</time></trkpt><trkpt lat="53.634722" lon="-1.9023544"><ele>331.0</ele><time>2026-04-11T09:57:24.529Z</time></trkpt><trkpt lat="53.6348061" lon="-1.9022878"><ele>332.0</ele><time>2026-04-11T09:57:26.531Z</time></trkpt><trkpt lat="53.6348717" lon="-1.9023641"><ele>333.0</ele><time>2026-04-11T09:57:29.532Z</time></trkpt><trkpt lat="53.6349193" lon="-1.9025815"><ele>334.0</ele><time>2026-04-11T09:57:31.536Z</time></trkpt><trkpt lat="53.6349482" lon="-1.9027144"><ele>335.0</ele><time>2026-04-11T09:57:32.536Z</time></trkpt><trkpt lat="53.6349846" lon="-1.9028483"><ele>335.0</ele><time>2026-04-11T09:57:33.535Z</time></trkpt><trkpt lat="53.6350243" lon="-1.9029874"><ele>335.0</ele><time>2026-04-11T09:57:34.534Z</time></trkpt><trkpt lat="53.635063" lon="-1.9031242"><ele>335.0</ele><time>2026-04-11T09:57:35.534Z</time></trkpt><trkpt lat="53.6351026" lon="-1.9032614"><ele>335.0</ele><time>2026-04-11T09:57:36.533Z</time></trkpt><trkpt lat="53.6351428" lon="-1.903394"><ele>335.0</ele><time>2026-04-11T09:57:37.528Z</time></trkpt><trkpt lat="53.6351826" lon="-1.9035339"><ele>335.0</ele><time>2026-04-11T09:57:38.532Z</time></trkpt><trkpt lat="53.6352223" lon="-1.9036754"><ele>335.0</ele><time>2026-04-11T09:57:39.535Z</time></trkpt><trkpt lat="53.6352623" lon="-1.9038173"><ele>335.0</ele><time>2026-04-11T09:57:40.535Z</time></trkpt><trkpt lat="53.6353013" lon="-1.9039556"><ele>335.0</ele><time>2026-04-11T09:57:41.532Z</time></trkpt><trkpt lat="53.6353384" lon="-1.9040929"><ele>335.0</ele><time>2026-04-11T09:57:42.531Z</time></trkpt><trkpt lat="53.6353762" lon="-1.9042344"><ele>337.4</ele><time>2026-04-11T09:57:43.536Z</time></trkpt><trkpt lat="53.6354181" lon="-1.9043809"><ele>339.8</ele><time>2026-04-11T09:57:44.531Z</time></trkpt><trkpt lat="53.6354594" lon="-1.9045332"><ele>342.20000000000005</ele><time>2026-04-11T09:57:45.532Z</time></trkpt><trkpt lat="53.6354997" lon="-1.9046855"><ele>344.6</ele><time>2026-04-11T09:57:46.532Z</time></trkpt><trkpt lat="53.6355408" lon="-1.904838"><ele>347.0</ele><time>2026-04-11T09:57:47.531Z</time></trkpt><trkpt lat="53.6355833" lon="-1.9049881"><ele>347.8</ele><time>2026-04-11T09:57:48.53Z</time></trkpt><trkpt lat="53.6356241" lon="-1.9051391"><ele>348.6</ele><time>2026-04-11T09:57:49.527Z</time></trkpt><trkpt lat="53.6356618" lon="-1.9052938"><ele>349.40000000000003</ele><time>2026-04-11T09:57:50.525Z</time></trkpt><trkpt lat="53.635696" lon="-1.9054512"><ele>350.20000000000005</ele><time>2026-04-11T09:57:51.523Z</time></trkpt><trkpt lat="53.6357298" lon="-1.905604"><ele>351.0</ele><time>2026-04-11T09:57:52.526Z</time></trkpt><trkpt lat="53.6357636" lon="-1.9057493"><ele>351.0</ele><time>2026-04-11T09:57:53.525Z</time></trkpt><trkpt lat="53.635799" lon="-1.9058953"><ele>351.0</ele><time>2026-04-11T09:57:54.533Z</time></trkpt><trkpt lat="53.6358373" lon="-1.9060432"><ele>351.0</ele><time>2026-04-11T09:57:55.531Z</time></trkpt><trkpt lat="53.6358801" lon="-1.9061918"><ele>351.0</ele><time>2026-04-11T09:57:56.53Z</time></trkpt><trkpt lat="53.6359226" lon="-1.90634"><ele>351.0</ele><time>2026-04-11T09:57:57.526Z</time></trkpt><trkpt lat="53.6359608" lon="-1.9064837"><ele>351.8</ele><time>2026-04-11T09:57:58.525Z</time></trkpt><trkpt lat="53.635998" lon="-1.9066236"><ele>352.6</ele><time>2026-04-11T09:57:59.528Z</time></trkpt><trkpt lat="53.6360328" lon="-1.9067659"><ele>353.4</ele><time>2026-04-11T09:58:00.531Z</time></trkpt><trkpt lat="53.6360657" lon="-1.9069166"><ele>354.2</ele><time>2026-04-11T09:58:01.527Z</time></trkpt><trkpt lat="53.6360861" lon="-1.9070657"><ele>355.0</ele><time>2026-04-11T09:58:02.53Z</time></trkpt><trkpt lat="53.6361032" lon="-1.9072167"><ele>355.4</ele><time>2026-04-11T09:58:03.531Z</time></trkpt><trkpt lat="53.6361173" lon="-1.9073764"><ele>355.8</ele><time>2026-04-11T09:58:04.529Z</time></trkpt><trkpt lat="53.6361304" lon="-1.9075229"><ele>356.20000000000005</ele><time>2026-04-11T09:58:05.53Z</time></trkpt><trkpt lat="53.6361406" lon="-1.9076401"><ele>356.6</ele><time>2026-04-11T09:58:06.524Z</time></trkpt><trkpt lat="53.6361847" lon="-1.9078111"><ele>357.0</ele><time>2026-04-11T09:58:08.531Z</time></trkpt><trkpt lat="53.6362172" lon="-1.908013"><ele>360.5</ele><time>2026-04-11T09:58:10.529Z</time></trkpt><trkpt lat="53.6362237" lon="-1.9081303"><ele>364.0</ele><time>2026-04-11T09:58:11.527Z</time></trkpt><trkpt lat="53.6362242" lon="-1.9082395"><ele>367.5</ele><time>2026-04-11T09:58:12.528Z</time></trkpt><trkpt lat="53.6362152" lon="-1.9084519"><ele>371.0</ele><time>2026-04-11T09:58:14.528Z</time></trkpt><trkpt lat="53.6362079" lon="-1.9085675"><ele>374.5</ele><time>2026-04-11T09:58:15.524Z</time></trkpt><trkpt lat="53.6362025" lon="-1.9086895"><ele>378.0</ele><time>2026-04-11T09:58:16.528Z</time></trkpt><trkpt lat="53.636201" lon="-1.9088138"><ele>378.14285714285717</ele><time>2026-04-11T09:58:17.526Z</time></trkpt><trkpt lat="53.636202" lon="-1.908934"><ele>378.2857142857143</ele><time>2026-04-11T09:58:18.527Z</time></trkpt><trkpt lat="53.6362046" lon="-1.9090434"><ele>378.42857142857144</ele><time>2026-04-11T09:58:19.525Z</time></trkpt><trkpt lat="53.6362102" lon="-1.9091542"><ele>378.57142857142856</ele><time>2026-04-11T09:58:20.527Z</time></trkpt><trkpt lat="53.6362187" lon="-1.9092666"><ele>378.7142857142857</ele><time>2026-04-11T09:58:21.528Z</time></trkpt><trkpt lat="53.6362379" lon="-1.9093721"><ele>378.8571428571429</ele><time>2026-04-11T09:58:22.529Z</time></trkpt><trkpt lat="53.6362765" lon="-1.9094684"><ele>379.0</ele><time>2026-04-11T09:58:23.531Z</time></trkpt><trkpt lat="53.636328" lon="-1.909558"><ele>379.4</ele><time>2026-04-11T09:58:24.526Z</time></trkpt><trkpt lat="53.636384" lon="-1.9096346"><ele>379.79999999999995</ele><time>2026-04-11T09:58:25.528Z</time></trkpt><trkpt lat="53.6364781" lon="-1.909748"><ele>380.20000000000005</ele><time>2026-04-11T09:58:27.529Z</time></trkpt><trkpt lat="53.6365659" lon="-1.909868"><ele>380.6</ele><time>2026-04-11T09:58:29.53Z</time></trkpt><trkpt lat="53.6366549" lon="-1.9100011"><ele>381.0</ele><time>2026-04-11T09:58:31.532Z</time></trkpt><trkpt lat="53.6367117" lon="-1.910168"><ele>381.5</ele><time>2026-04-11T09:58:33.536Z</time></trkpt><trkpt lat="53.6367389" lon="-1.9102752"><ele>382.0</ele><time>2026-04-11T09:58:34.533Z</time></trkpt><trkpt lat="53.6367718" lon="-1.9104007"><ele>382.5</ele><time>2026-04-11T09:58:35.535Z</time></trkpt><trkpt lat="53.6368086" lon="-1.9105384"><ele>383.0</ele><time>2026-04-11T09:58:36.531Z</time></trkpt><trkpt lat="53.6368522" lon="-1.9106793"><ele>383.5</ele><time>2026-04-11T09:58:37.534Z</time></trkpt><trkpt lat="53.6369052" lon="-1.9108284"><ele>384.0</ele><time>2026-04-11T09:58:38.535Z</time></trkpt><trkpt lat="53.6369688" lon="-1.9109714"><ele>381.6</ele><time>2026-04-11T09:58:39.535Z</time></trkpt><trkpt lat="53.6370379" lon="-1.9110997"><ele>379.2</ele><time>2026-04-11T09:58:40.537Z</time></trkpt><trkpt lat="53.6371011" lon="-1.911215"><ele>376.8</ele><time>2026-04-11T09:58:41.531Z</time></trkpt><trkpt lat="53.6371563" lon="-1.9113284"><ele>374.40000000000003</ele><time>2026-04-11T09:58:42.533Z</time></trkpt><trkpt lat="53.637204" lon="-1.9114499"><ele>372.0</ele><time>2026-04-11T09:58:43.534Z</time></trkpt><trkpt lat="53.6372406" lon="-1.9115792"><ele>372.0</ele><time>2026-04-11T09:58:44.531Z</time></trkpt><trkpt lat="53.6372637" lon="-1.9117146"><ele>372.0</ele><time>2026-04-11T09:58:45.529Z</time></trkpt><trkpt lat="53.637274" lon="-1.9118656"><ele>372.0</ele><time>2026-04-11T09:58:46.529Z</time></trkpt><trkpt lat="53.6372715" lon="-1.9120223"><ele>372.0</ele><time>2026-04-11T09:58:47.531Z</time></trkpt><trkpt lat="53.6372653" lon="-1.9121799"><ele>372.0</ele><time>2026-04-11T09:58:48.532Z</time></trkpt><trkpt lat="53.637251" lon="-1.9123279"><ele>372.0</ele><time>2026-04-11T09:58:49.529Z</time></trkpt><trkpt lat="53.637236" lon="-1.9124658"><ele>370.8</ele><time>2026-04-11T09:58:50.533Z</time></trkpt><trkpt lat="53.6372234" lon="-1.9126082"><ele>369.6</ele><time>2026-04-11T09:58:51.535Z</time></trkpt><trkpt lat="53.6372089" lon="-1.9127566"><ele>368.40000000000003</ele><time>2026-04-11T09:58:52.531Z</time></trkpt><trkpt lat="53.6371951" lon="-1.9129206"><ele>367.20000000000005</ele><time>2026-04-11T09:58:53.528Z</time></trkpt><trkpt lat="53.6371855" lon="-1.9130988"><ele>366.0</ele><time>2026-04-11T09:58:54.528Z</time></trkpt><trkpt lat="53.6371848" lon="-1.9132898"><ele>365.5</ele><time>2026-04-11T09:58:55.527Z</time></trkpt><trkpt lat="53.6371888" lon="-1.9134799"><ele>365.0</ele><time>2026-04-11T09:58:56.526Z</time></trkpt><trkpt lat="53.6371942" lon="-1.9136734"><ele>364.5</ele><time>2026-04-11T09:58:57.53Z</time></trkpt><trkpt lat="53.6372028" lon="-1.9138753"><ele>364.0</ele><time>2026-04-11T09:58:58.529Z</time></trkpt><trkpt lat="53.6372124" lon="-1.9140752"><ele>363.66666666666663</ele><time>2026-04-11T09:58:59.532Z</time></trkpt><trkpt lat="53.6372218" lon="-1.9142567"><ele>363.3333333333333</ele><time>2026-04-11T09:59:00.532Z</time></trkpt><trkpt lat="53.637232" lon="-1.9144117"><ele>363.0</ele><time>2026-04-11T09:59:01.535Z</time></trkpt><trkpt lat="53.6372366" lon="-1.9145454"><ele>362.6666666666667</ele><time>2026-04-11T09:59:02.533Z</time></trkpt><trkpt lat="53.6372446" lon="-1.914713"><ele>362.33333333333337</ele><time>2026-04-11T09:59:04.535Z</time></trkpt><trkpt lat="53.6373137" lon="-1.9147085"><ele>362.0</ele><time>2026-04-11T09:59:07.534Z</time></trkpt><trkpt lat="53.6373614" lon="-1.9146233"><ele>362.0</ele><time>2026-04-11T09:59:08.534Z</time></trkpt><trkpt lat="53.637405" lon="-1.9145282"><ele>362.0</ele><time>2026-04-11T09:59:09.532Z</time></trkpt><trkpt lat="53.6374536" lon="-1.9143994"><ele>362.0</ele><time>2026-04-11T09:59:10.532Z</time></trkpt><trkpt lat="53.6375102" lon="-1.9142395"><ele>362.0</ele><time>2026-04-11T09:59:11.531Z</time></trkpt><trkpt lat="53.6375737" lon="-1.9140547"><ele>362.0</ele><time>2026-04-11T09:59:12.532Z</time></trkpt><trkpt lat="53.637648" lon="-1.9138499"><ele>362.6666666666667</ele><time>2026-04-11T09:59:13.532Z</time></trkpt><trkpt lat="53.637723" lon="-1.9136281"><ele>363.3333333333333</ele><time>2026-04-11T09:59:14.537Z</time></trkpt><trkpt lat="53.6377972" lon="-1.913398"><ele>364.0</ele><time>2026-04-11T09:59:15.534Z</time></trkpt><trkpt lat="53.6378709" lon="-1.9131591"><ele>361.0</ele><time>2026-04-11T09:59:16.528Z</time></trkpt><trkpt lat="53.6379322" lon="-1.9129095"><ele>358.0</ele><time>2026-04-11T09:59:17.532Z</time></trkpt><trkpt lat="53.6379808" lon="-1.9126597"><ele>355.0</ele><time>2026-04-11T09:59:18.534Z</time></trkpt><trkpt lat="53.6380205" lon="-1.9124095"><ele>355.0</ele><time>2026-04-11T09:59:19.531Z</time></trkpt><trkpt lat="53.6380509" lon="-1.9121507"><ele>355.0</ele><time>2026-04-11T09:59:20.533Z</time></trkpt><trkpt lat="53.6380704" lon="-1.9118934"><ele>355.0</ele><time>2026-04-11T09:59:21.526Z</time></trkpt><trkpt lat="53.6380717" lon="-1.9116324"><ele>354.5</ele><time>2026-04-11T09:59:22.531Z</time></trkpt><trkpt lat="53.6380546" lon="-1.9113818"><ele>354.0</ele><time>2026-04-11T09:59:23.534Z</time></trkpt><trkpt lat="53.638028" lon="-1.9111416"><ele>353.5</ele><time>2026-04-11T09:59:24.532Z</time></trkpt><trkpt lat="53.6380001" lon="-1.9109033"><ele>353.0</ele><time>2026-04-11T09:59:25.528Z</time></trkpt><trkpt lat="53.6379708" lon="-1.9106641"><ele>352.0</ele><time>2026-04-11T09:59:26.533Z</time></trkpt><trkpt lat="53.6379441" lon="-1.9104225"><ele>351.0</ele><time>2026-04-11T09:59:27.533Z</time></trkpt><trkpt lat="53.6379225" lon="-1.9101796"><ele>350.0</ele><time>2026-04-11T09:59:28.532Z</time></trkpt><trkpt lat="53.6379112" lon="-1.9099398"><ele>349.0</ele><time>2026-04-11T09:59:29.533Z</time></trkpt><trkpt lat="53.6379145" lon="-1.9096971"><ele>348.75</ele><time>2026-04-11T09:59:30.527Z</time></trkpt><trkpt lat="53.637935" lon="-1.9094536"><ele>348.5</ele><time>2026-04-11T09:59:31.528Z</time></trkpt><trkpt lat="53.6379702" lon="-1.9092179"><ele>348.25</ele><time>2026-04-11T09:59:32.536Z</time></trkpt><trkpt lat="53.6380077" lon="-1.9089816"><ele>348.0</ele><time>2026-04-11T09:59:33.534Z</time></trkpt><trkpt lat="53.6380439" lon="-1.9087454"><ele>348.0</ele><time>2026-04-11T09:59:34.531Z</time></trkpt><trkpt lat="53.6380842" lon="-1.9085121"><ele>348.0</ele><time>2026-04-11T09:59:35.537Z</time></trkpt><trkpt lat="53.6381318" lon="-1.9082757"><ele>348.0</ele><time>2026-04-11T09:59:36.536Z</time></trkpt><trkpt lat="53.6381851" lon="-1.9080421"><ele>348.0</ele><time>2026-04-11T09:59:37.528Z</time></trkpt><trkpt lat="53.6382398" lon="-1.9078087"><ele>349.5</ele><time>2026-04-11T09:59:38.53Z</time></trkpt><trkpt lat="53.6382973" lon="-1.907579"><ele>351.0</ele><time>2026-04-11T09:59:39.536Z</time></trkpt><trkpt lat="53.6383539" lon="-1.907347"><ele>352.5</ele><time>2026-04-11T09:59:40.536Z</time></trkpt><trkpt lat="53.6384113" lon="-1.9071131"><ele>354.0</ele><time>2026-04-11T09:59:41.529Z</time></trkpt><trkpt lat="53.6384664" lon="-1.9068778"><ele>355.25</ele><time>2026-04-11T09:59:42.533Z</time></trkpt><trkpt lat="53.6385195" lon="-1.9066388"><ele>356.5</ele><time>2026-04-11T09:59:43.531Z</time></trkpt><trkpt lat="53.6385728" lon="-1.9064035"><ele>357.75</ele><time>2026-04-11T09:59:44.533Z</time></trkpt><trkpt lat="53.638626" lon="-1.9061707"><ele>359.0</ele><time>2026-04-11T09:59:45.532Z</time></trkpt><trkpt lat="53.638681" lon="-1.9059396"><ele>355.25</ele><time>2026-04-11T09:59:46.53Z</time></trkpt><trkpt lat="53.6387347" lon="-1.9057105"><ele>351.5</ele><time>2026-04-11T09:59:47.529Z</time></trkpt><trkpt lat="53.6387842" lon="-1.9054816"><ele>347.75</ele><time>2026-04-11T09:59:48.529Z</time></trkpt><trkpt lat="53.6388302" lon="-1.9052505"><ele>344.0</ele><time>2026-04-11T09:59:49.53Z</time></trkpt><trkpt lat="53.6388765" lon="-1.9050177"><ele>344.0</ele><time>2026-04-11T09:59:50.531Z</time></trkpt><trkpt lat="53.6389254" lon="-1.9047825"><ele>344.0</ele><time>2026-04-11T09:59:51.529Z</time></trkpt><trkpt lat="53.6389781" lon="-1.9045436"><ele>344.0</ele><time>2026-04-11T09:59:52.529Z</time></trkpt><trkpt lat="53.6390293" lon="-1.9043037"><ele>344.75</ele><time>2026-04-11T09:59:53.534Z</time></trkpt><trkpt lat="53.6390802" lon="-1.9040597"><ele>345.5</ele><time>2026-04-11T09:59:54.532Z</time></trkpt><trkpt lat="53.6391289" lon="-1.9038221"><ele>346.25</ele><time>2026-04-11T09:59:55.528Z</time></trkpt><trkpt lat="53.6391713" lon="-1.90359"><ele>347.0</ele><time>2026-04-11T09:59:56.527Z</time></trkpt><trkpt lat="53.639208" lon="-1.903364"><ele>347.0</ele><time>2026-04-11T09:59:57.529Z</time></trkpt><trkpt lat="53.639238" lon="-1.9031507"><ele>347.0</ele><time>2026-04-11T09:59:58.531Z</time></trkpt><trkpt lat="53.6392605" lon="-1.90296"><ele>347.0</ele><time>2026-04-11T09:59:59.533Z</time></trkpt><trkpt lat="53.6392791" lon="-1.9027988"><ele>347.0</ele><time>2026-04-11T10:00:00.524Z</time></trkpt><trkpt lat="53.6393037" lon="-1.9026389"><ele>347.0</ele><time>2026-04-11T10:00:01.539Z</time></trkpt><trkpt lat="53.6393315" lon="-1.9024623"><ele>347.5</ele><time>2026-04-11T10:00:02.524Z</time></trkpt><trkpt lat="53.6393597" lon="-1.9022722"><ele>348.0</ele><time>2026-04-11T10:00:03.53Z</time></trkpt><trkpt lat="53.6393947" lon="-1.9020729"><ele>348.5</ele><time>2026-04-11T10:00:04.524Z</time></trkpt><trkpt lat="53.6394418" lon="-1.9018708"><ele>349.0</ele><time>2026-04-11T10:00:05.525Z</time></trkpt><trkpt lat="53.6394931" lon="-1.9016655"><ele>346.5</ele><time>2026-04-11T10:00:06.523Z</time></trkpt><trkpt lat="53.6395522" lon="-1.9014659"><ele>344.0</ele><time>2026-04-11T10:00:07.533Z</time></trkpt><trkpt lat="53.6396169" lon="-1.9012677"><ele>341.5</ele><time>2026-04-11T10:00:08.529Z</time></trkpt><trkpt lat="53.6396849" lon="-1.9010736"><ele>339.0</ele><time>2026-04-11T10:00:09.529Z</time></trkpt><trkpt lat="53.6397531" lon="-1.9008767"><ele>339.0</ele><time>2026-04-11T10:00:10.53Z</time></trkpt><trkpt lat="53.6398294" lon="-1.9006842"><ele>339.0</ele><time>2026-04-11T10:00:11.531Z</time></trkpt><trkpt lat="53.6399111" lon="-1.9004968"><ele>339.0</ele><time>2026-04-11T10:00:12.532Z</time></trkpt><trkpt lat="53.6399951" lon="-1.9003089"><ele>339.0</ele><time>2026-04-11T10:00:13.532Z</time></trkpt><trkpt lat="53.6400798" lon="-1.9001233"><ele>339.5</ele><time>2026-04-11T10:00:14.532Z</time></trkpt><trkpt lat="53.6401676" lon="-1.8999401"><ele>340.0</ele><time>2026-04-11T10:00:15.531Z</time></trkpt><trkpt lat="53.6402549" lon="-1.8997601"><ele>340.5</ele><time>2026-04-11T10:00:16.534Z</time></trkpt><trkpt lat="53.6403408" lon="-1.899591"><ele>341.0</ele><time>2026-04-11T10:00:17.532Z</time></trkpt><trkpt lat="53.6404325" lon="-1.8994324"><ele>339.75</ele><time>2026-04-11T10:00:18.532Z</time></trkpt><trkpt lat="53.6405339" lon="-1.8992745"><ele>338.5</ele><time>2026-04-11T10:00:19.536Z</time></trkpt><trkpt lat="53.6406441" lon="-1.8991141"><ele>337.25</ele><time>2026-04-11T10:00:20.532Z</time></trkpt><trkpt lat="53.6407579" lon="-1.898954"><ele>336.0</ele><time>2026-04-11T10:00:21.533Z</time></trkpt><trkpt lat="53.640876" lon="-1.8987967"><ele>336.0</ele><time>2026-04-11T10:00:22.53Z</time></trkpt><trkpt lat="53.6409983" lon="-1.8986456"><ele>336.0</ele><time>2026-04-11T10:00:23.531Z</time></trkpt><trkpt lat="53.6411219" lon="-1.8985016"><ele>336.0</ele><time>2026-04-11T10:00:24.532Z</time></trkpt><trkpt lat="53.6412495" lon="-1.8983596"><ele>334.6666666666667</ele><time>2026-04-11T10:00:25.53Z</time></trkpt><trkpt lat="53.6413791" lon="-1.8982093"><ele>333.33333333333337</ele><time>2026-04-11T10:00:26.531Z</time></trkpt><trkpt lat="53.6415099" lon="-1.8980468"><ele>332.0</ele><time>2026-04-11T10:00:27.53Z</time></trkpt><trkpt lat="53.6416436" lon="-1.8978787"><ele>332.0</ele><time>2026-04-11T10:00:28.53Z</time></trkpt><trkpt lat="53.6417854" lon="-1.897707"><ele>332.0</ele><time>2026-04-11T10:00:29.532Z</time></trkpt><trkpt lat="53.6419393" lon="-1.8975249"><ele>332.0</ele><time>2026-04-11T10:00:30.527Z</time></trkpt><trkpt lat="53.642112" lon="-1.8973209"><ele>331.0</ele><time>2026-04-11T10:00:31.532Z</time></trkpt><trkpt lat="53.642291" lon="-1.8971081"><ele>330.0</ele><time>2026-04-11T10:00:32.528Z</time></trkpt><trkpt lat="53.6424558" lon="-1.8969075"><ele>329.0</ele><time>2026-04-11T10:00:33.542Z</time></trkpt><trkpt lat="53.6425978" lon="-1.8967266"><ele>328.75</ele><time>2026-04-11T10:00:34.526Z</time></trkpt><trkpt lat="53.6427218" lon="-1.8965689"><ele>328.5</ele><time>2026-04-11T10:00:35.534Z</time></trkpt><trkpt lat="53.6428355" lon="-1.8964268"><ele>328.25</ele><time>2026-04-11T10:00:36.533Z</time></trkpt><trkpt lat="53.6429463" lon="-1.8963097"><ele>328.0</ele><time>2026-04-11T10:00:37.528Z</time></trkpt><trkpt lat="53.6430646" lon="-1.8961936"><ele>326.75</ele><time>2026-04-11T10:00:38.528Z</time></trkpt><trkpt lat="53.643181" lon="-1.8960743"><ele>325.5</ele><time>2026-04-11T10:00:39.531Z</time></trkpt><trkpt lat="53.6432883" lon="-1.8959535"><ele>324.25</ele><time>2026-04-11T10:00:40.527Z</time></trkpt><trkpt lat="53.643385" lon="-1.8958361"><ele>323.0</ele><time>2026-04-11T10:00:41.533Z</time></trkpt><trkpt lat="53.6434732" lon="-1.8957215"><ele>323.0</ele><time>2026-04-11T10:00:42.532Z</time></trkpt><trkpt lat="53.6435457" lon="-1.8956227"><ele>323.0</ele><time>2026-04-11T10:00:43.536Z</time></trkpt><trkpt lat="53.6436046" lon="-1.8955421"><ele>323.0</ele><time>2026-04-11T10:00:44.533Z</time></trkpt><trkpt lat="53.6436729" lon="-1.895392"><ele>323.0</ele><time>2026-04-11T10:00:46.535Z</time></trkpt><trkpt lat="53.6436704" lon="-1.8952807"><ele>323.0</ele><time>2026-04-11T10:00:47.533Z</time></trkpt><trkpt lat="53.6436307" lon="-1.8951478"><ele>323.0</ele><time>2026-04-11T10:00:48.531Z</time></trkpt><trkpt lat="53.6435637" lon="-1.895003"><ele>323.0</ele><time>2026-04-11T10:00:49.532Z</time></trkpt><trkpt lat="53.6434806" lon="-1.8948519"><ele>323.0</ele><time>2026-04-11T10:00:50.528Z</time></trkpt><trkpt lat="53.6433955" lon="-1.894689"><ele>323.0</ele><time>2026-04-11T10:00:51.533Z</time></trkpt><trkpt lat="53.643315" lon="-1.8945175"><ele>323.0</ele><time>2026-04-11T10:00:52.536Z</time></trkpt><trkpt lat="53.6432357" lon="-1.894344"><ele>323.5</ele><time>2026-04-11T10:00:53.537Z</time></trkpt><trkpt lat="53.6431561" lon="-1.8941673"><ele>324.0</ele><time>2026-04-11T10:00:54.536Z</time></trkpt><trkpt lat="53.6430724" lon="-1.8939806"><ele>324.5</ele><time>2026-04-11T10:00:55.534Z</time></trkpt><trkpt lat="53.6429843" lon="-1.8937815"><ele>325.0</ele><time>2026-04-11T10:00:56.532Z</time></trkpt><trkpt lat="53.6428934" lon="-1.893581"><ele>325.25</ele><time>2026-04-11T10:00:57.527Z</time></trkpt><trkpt lat="53.6427989" lon="-1.893384"><ele>325.5</ele><time>2026-04-11T10:00:58.535Z</time></trkpt><trkpt lat="53.6427047" lon="-1.8931931"><ele>325.75</ele><time>2026-04-11T10:00:59.534Z</time></trkpt><trkpt lat="53.6426126" lon="-1.8930044"><ele>326.0</ele><time>2026-04-11T10:01:00.533Z</time></trkpt><trkpt lat="53.6425209" lon="-1.8928192"><ele>326.0</ele><time>2026-04-11T10:01:01.535Z</time></trkpt><trkpt lat="53.6424289" lon="-1.8926393"><ele>326.0</ele><time>2026-04-11T10:01:02.535Z</time></trkpt><trkpt lat="53.6423327" lon="-1.8924707"><ele>326.0</ele><time>2026-04-11T10:01:03.538Z</time></trkpt><trkpt lat="53.6422332" lon="-1.8923139"><ele>326.0</ele><time>2026-04-11T10:01:04.539Z</time></trkpt><trkpt lat="53.6421307" lon="-1.8921673"><ele>326.5</ele><time>2026-04-11T10:01:05.537Z</time></trkpt><trkpt lat="53.6420268" lon="-1.8920256"><ele>327.0</ele><time>2026-04-11T10:01:06.535Z</time></trkpt><trkpt lat="53.6419196" lon="-1.8918841"><ele>327.5</ele><time>2026-04-11T10:01:07.536Z</time></trkpt><trkpt lat="53.6418079" lon="-1.8917459"><ele>328.0</ele><time>2026-04-11T10:01:08.535Z</time></trkpt><trkpt lat="53.6416942" lon="-1.8916041"><ele>329.25</ele><time>2026-04-11T10:01:09.536Z</time></trkpt><trkpt lat="53.641584" lon="-1.8914544"><ele>330.5</ele><time>2026-04-11T10:01:10.534Z</time></trkpt><trkpt lat="53.6414757" lon="-1.891291"><ele>331.75</ele><time>2026-04-11T10:01:11.532Z</time></trkpt><trkpt lat="53.6413652" lon="-1.8911062"><ele>333.0</ele><time>2026-04-11T10:01:12.532Z</time></trkpt><trkpt lat="53.6412584" lon="-1.8909188"><ele>333.25</ele><time>2026-04-11T10:01:13.535Z</time></trkpt><trkpt lat="53.6411594" lon="-1.8907304"><ele>333.5</ele><time>2026-04-11T10:01:14.534Z</time></trkpt><trkpt lat="53.6410653" lon="-1.8905407"><ele>333.75</ele><time>2026-04-11T10:01:15.535Z</time></trkpt><trkpt lat="53.6409761" lon="-1.8903473"><ele>334.0</ele><time>2026-04-11T10:01:16.536Z</time></trkpt><trkpt lat="53.6408937" lon="-1.8901464"><ele>336.0</ele><time>2026-04-11T10:01:17.536Z</time></trkpt><trkpt lat="53.6408142" lon="-1.8899335"><ele>338.0</ele><time>2026-04-11T10:01:18.528Z</time></trkpt><trkpt lat="53.6407349" lon="-1.8897095"><ele>340.0</ele><time>2026-04-11T10:01:19.533Z</time></trkpt><trkpt lat="53.6406579" lon="-1.8894775"><ele>342.0</ele><time>2026-04-11T10:01:20.531Z</time></trkpt><trkpt lat="53.6405824" lon="-1.8892386"><ele>344.0</ele><time>2026-04-11T10:01:21.534Z</time></trkpt><trkpt lat="53.6405091" lon="-1.8889987"><ele>346.0</ele><time>2026-04-11T10:01:22.528Z</time></trkpt><trkpt lat="53.6404412" lon="-1.8887531"><ele>346.0</ele><time>2026-04-11T10:01:23.535Z</time></trkpt><trkpt lat="53.6403788" lon="-1.8884982"><ele>346.0</ele><time>2026-04-11T10:01:24.536Z</time></trkpt><trkpt lat="53.6403201" lon="-1.8882359"><ele>346.0</ele><time>2026-04-11T10:01:25.535Z</time></trkpt><trkpt lat="53.6402688" lon="-1.8879745"><ele>344.3333333333333</ele><time>2026-04-11T10:01:26.534Z</time></trkpt><trkpt lat="53.6402279" lon="-1.8877198"><ele>342.6666666666667</ele><time>2026-04-11T10:01:27.532Z</time></trkpt><trkpt lat="53.6401983" lon="-1.8874697"><ele>341.0</ele><time>2026-04-11T10:01:28.532Z</time></trkpt><trkpt lat="53.6401782" lon="-1.8872175"><ele>341.0</ele><time>2026-04-11T10:01:29.534Z</time></trkpt><trkpt lat="53.6401672" lon="-1.8869609"><ele>341.0</ele><time>2026-04-11T10:01:30.532Z</time></trkpt><trkpt lat="53.6401691" lon="-1.8867"><ele>341.0</ele><time>2026-04-11T10:01:31.535Z</time></trkpt><trkpt lat="53.6401851" lon="-1.8864298"><ele>341.0</ele><time>2026-04-11T10:01:32.536Z</time></trkpt><trkpt lat="53.6402084" lon="-1.886155"><ele>341.0</ele><time>2026-04-11T10:01:33.537Z</time></trkpt><trkpt lat="53.6402355" lon="-1.885879"><ele>341.0</ele><time>2026-04-11T10:01:34.539Z</time></trkpt><trkpt lat="53.6402697" lon="-1.8856027"><ele>345.33333333333337</ele><time>2026-04-11T10:01:35.536Z</time></trkpt><trkpt lat="53.6403068" lon="-1.8853327"><ele>349.6666666666667</ele><time>2026-04-11T10:01:36.537Z</time></trkpt><trkpt lat="53.6403476" lon="-1.8850645"><ele>354.0</ele><time>2026-04-11T10:01:37.537Z</time></trkpt><trkpt lat="53.6403908" lon="-1.884801"><ele>354.0</ele><time>2026-04-11T10:01:38.535Z</time></trkpt><trkpt lat="53.6404332" lon="-1.8845401"><ele>354.0</ele><time>2026-04-11T10:01:39.532Z</time></trkpt><trkpt lat="53.6404815" lon="-1.8842874"><ele>354.0</ele><time>2026-04-11T10:01:40.536Z</time></trkpt><trkpt lat="53.6405379" lon="-1.8840412"><ele>352.3333333333333</ele><time>2026-04-11T10:01:41.531Z</time></trkpt><trkpt lat="53.6406038" lon="-1.8838032"><ele>350.66666666666663</ele><time>2026-04-11T10:01:42.529Z</time></trkpt><trkpt lat="53.6406749" lon="-1.8835614"><ele>349.0</ele><time>2026-04-11T10:01:43.529Z</time></trkpt><trkpt lat="53.6407602" lon="-1.883325"><ele>346.66666666666663</ele><time>2026-04-11T10:01:44.525Z</time></trkpt><trkpt lat="53.6408594" lon="-1.8830994"><ele>344.3333333333333</ele><time>2026-04-11T10:01:45.53Z</time></trkpt><trkpt lat="53.6409717" lon="-1.8828887"><ele>342.0</ele><time>2026-04-11T10:01:46.532Z</time></trkpt><trkpt lat="53.6410987" lon="-1.8826858"><ele>344.0</ele><time>2026-04-11T10:01:47.533Z</time></trkpt><trkpt lat="53.6412378" lon="-1.8824968"><ele>346.0</ele><time>2026-04-11T10:01:48.531Z</time></trkpt><trkpt lat="53.6413808" lon="-1.8823072"><ele>348.0</ele><time>2026-04-11T10:01:49.528Z</time></trkpt><trkpt lat="53.6415183" lon="-1.8821236"><ele>348.0</ele><time>2026-04-11T10:01:50.531Z</time></trkpt><trkpt lat="53.6416531" lon="-1.8819387"><ele>348.0</ele><time>2026-04-11T10:01:51.531Z</time></trkpt><trkpt lat="53.6417803" lon="-1.8817478"><ele>348.0</ele><time>2026-04-11T10:01:52.527Z</time></trkpt><trkpt lat="53.6418982" lon="-1.8815507"><ele>349.0</ele><time>2026-04-11T10:01:53.537Z</time></trkpt><trkpt lat="53.6420144" lon="-1.8813616"><ele>350.0</ele><time>2026-04-11T10:01:54.53Z</time></trkpt><trkpt lat="53.6421205" lon="-1.8811686"><ele>351.0</ele><time>2026-04-11T10:01:55.532Z</time></trkpt><trkpt lat="53.6422143" lon="-1.8809594"><ele>348.3333333333333</ele><time>2026-04-11T10:01:56.533Z</time></trkpt><trkpt lat="53.6422929" lon="-1.8807247"><ele>345.66666666666663</ele><time>2026-04-11T10:01:57.53Z</time></trkpt><trkpt lat="53.6423613" lon="-1.8804779"><ele>343.0</ele><time>2026-04-11T10:01:58.532Z</time></trkpt><trkpt lat="53.6424092" lon="-1.8802063"><ele>341.66666666666663</ele><time>2026-04-11T10:01:59.532Z</time></trkpt><trkpt lat="53.6424355" lon="-1.8799275"><ele>340.3333333333333</ele><time>2026-04-11T10:02:00.527Z</time></trkpt><trkpt lat="53.6424449" lon="-1.8796365"><ele>339.0</ele><time>2026-04-11T10:02:01.525Z</time></trkpt><trkpt lat="53.6424409" lon="-1.8793425"><ele>338.3333333333333</ele><time>2026-04-11T10:02:02.527Z</time></trkpt><trkpt lat="53.6424249" lon="-1.8790493"><ele>337.66666666666663</ele><time>2026-04-11T10:02:03.532Z</time></trkpt><trkpt lat="53.6423932" lon="-1.8787608"><ele>337.0</ele><time>2026-04-11T10:02:04.527Z</time></trkpt><trkpt lat="53.6423425" lon="-1.8784775"><ele>338.0</ele><time>2026-04-11T10:02:05.528Z</time></trkpt><trkpt lat="53.6422821" lon="-1.8781979"><ele>339.0</ele><time>2026-04-11T10:02:06.527Z</time></trkpt><trkpt lat="53.6422099" lon="-1.877933"><ele>340.0</ele><time>2026-04-11T10:02:07.533Z</time></trkpt><trkpt lat="53.6421352" lon="-1.8776764"><ele>340.66666666666663</ele><time>2026-04-11T10:02:08.534Z</time></trkpt><trkpt lat="53.642051" lon="-1.8774309"><ele>341.3333333333333</ele><time>2026-04-11T10:02:09.533Z</time></trkpt><trkpt lat="53.6419549" lon="-1.8771875"><ele>342.0</ele><time>2026-04-11T10:02:10.534Z</time></trkpt><trkpt lat="53.6418489" lon="-1.8769576"><ele>336.6666666666667</ele><time>2026-04-11T10:02:11.53Z</time></trkpt><trkpt lat="53.641745" lon="-1.8767472"><ele>331.33333333333337</ele><time>2026-04-11T10:02:12.533Z</time></trkpt><trkpt lat="53.6416353" lon="-1.876575"><ele>326.0</ele><time>2026-04-11T10:02:13.532Z</time></trkpt><trkpt lat="53.6415185" lon="-1.8764106"><ele>326.0</ele><time>2026-04-11T10:02:14.536Z</time></trkpt><trkpt lat="53.6413909" lon="-1.8762568"><ele>326.0</ele><time>2026-04-11T10:02:15.527Z</time></trkpt><trkpt lat="53.6412594" lon="-1.8761244"><ele>326.0</ele><time>2026-04-11T10:02:16.538Z</time></trkpt><trkpt lat="53.6411355" lon="-1.8760105"><ele>324.2</ele><time>2026-04-11T10:02:17.535Z</time></trkpt><trkpt lat="53.6410264" lon="-1.8758959"><ele>322.40000000000003</ele><time>2026-04-11T10:02:18.534Z</time></trkpt><trkpt lat="53.6409277" lon="-1.8757822"><ele>320.6</ele><time>2026-04-11T10:02:19.531Z</time></trkpt><trkpt lat="53.6408501" lon="-1.875667"><ele>318.8</ele><time>2026-04-11T10:02:20.533Z</time></trkpt><trkpt lat="53.6407988" lon="-1.8755684"><ele>317.0</ele><time>2026-04-11T10:02:21.536Z</time></trkpt><trkpt lat="53.6407474" lon="-1.8754299"><ele>317.0</ele><time>2026-04-11T10:02:23.532Z</time></trkpt><trkpt lat="53.6407471" lon="-1.8753048"><ele>317.0</ele><time>2026-04-11T10:02:27.533Z</time></trkpt><trkpt lat="53.6407075" lon="-1.8751192"><ele>317.0</ele><time>2026-04-11T10:02:29.532Z</time></trkpt><trkpt lat="53.6406864" lon="-1.8749842"><ele>317.0</ele><time>2026-04-11T10:02:30.533Z</time></trkpt><trkpt lat="53.640674" lon="-1.8748167"><ele>317.0</ele><time>2026-04-11T10:02:31.534Z</time></trkpt><trkpt lat="53.6406776" lon="-1.8746513"><ele>317.25</ele><time>2026-04-11T10:02:32.536Z</time></trkpt><trkpt lat="53.6406913" lon="-1.8744625"><ele>317.5</ele><time>2026-04-11T10:02:33.538Z</time></trkpt><trkpt lat="53.6407118" lon="-1.8742611"><ele>317.75</ele><time>2026-04-11T10:02:34.538Z</time></trkpt><trkpt lat="53.6407332" lon="-1.8740636"><ele>318.0</ele><time>2026-04-11T10:02:35.535Z</time></trkpt><trkpt lat="53.640759" lon="-1.8738602"><ele>317.5</ele><time>2026-04-11T10:02:36.536Z</time></trkpt><trkpt lat="53.6407901" lon="-1.8736598"><ele>317.0</ele><time>2026-04-11T10:02:37.535Z</time></trkpt><trkpt lat="53.6408377" lon="-1.8734641"><ele>316.5</ele><time>2026-04-11T10:02:38.534Z</time></trkpt><trkpt lat="53.6408934" lon="-1.8732661"><ele>316.0</ele><time>2026-04-11T10:02:39.531Z</time></trkpt><trkpt lat="53.6409597" lon="-1.8730692"><ele>316.5</ele><time>2026-04-11T10:02:40.533Z</time></trkpt><trkpt lat="53.641043" lon="-1.8728778"><ele>317.0</ele><time>2026-04-11T10:02:41.527Z</time></trkpt><trkpt lat="53.6411133" lon="-1.8726809"><ele>317.5</ele><time>2026-04-11T10:02:42.529Z</time></trkpt><trkpt lat="53.641184" lon="-1.8724881"><ele>318.0</ele><time>2026-04-11T10:02:43.528Z</time></trkpt><trkpt lat="53.641251" lon="-1.8722924"><ele>318.0</ele><time>2026-04-11T10:02:44.531Z</time></trkpt><trkpt lat="53.6413187" lon="-1.8720892"><ele>318.0</ele><time>2026-04-11T10:02:45.53Z</time></trkpt><trkpt lat="53.6413881" lon="-1.8718874"><ele>318.0</ele><time>2026-04-11T10:02:46.525Z</time></trkpt><trkpt lat="53.6414596" lon="-1.8716778"><ele>318.0</ele><time>2026-04-11T10:02:47.528Z</time></trkpt><trkpt lat="53.6415329" lon="-1.8714649"><ele>315.5</ele><time>2026-04-11T10:02:48.528Z</time></trkpt><trkpt lat="53.6416056" lon="-1.8712514"><ele>313.0</ele><time>2026-04-11T10:02:49.529Z</time></trkpt><trkpt lat="53.6416772" lon="-1.8710386"><ele>310.5</ele><time>2026-04-11T10:02:50.527Z</time></trkpt><trkpt lat="53.6417467" lon="-1.8708285"><ele>308.0</ele><time>2026-04-11T10:02:51.526Z</time></trkpt><trkpt lat="53.641811" lon="-1.8706195"><ele>309.5</ele><time>2026-04-11T10:02:52.527Z</time></trkpt><trkpt lat="53.6418697" lon="-1.8704065"><ele>311.0</ele><time>2026-04-11T10:02:53.529Z</time></trkpt><trkpt lat="53.6419196" lon="-1.8701885"><ele>312.5</ele><time>2026-04-11T10:02:54.526Z</time></trkpt><trkpt lat="53.6419577" lon="-1.8699612"><ele>314.0</ele><time>2026-04-11T10:02:55.526Z</time></trkpt><trkpt lat="53.6419849" lon="-1.8697238"><ele>314.0</ele><time>2026-04-11T10:02:56.529Z</time></trkpt><trkpt lat="53.6420031" lon="-1.8694808"><ele>314.0</ele><time>2026-04-11T10:02:57.527Z</time></trkpt><trkpt lat="53.6420197" lon="-1.869239"><ele>314.0</ele><time>2026-04-11T10:02:58.528Z</time></trkpt><trkpt lat="53.642034" lon="-1.8690023"><ele>314.0</ele><time>2026-04-11T10:02:59.526Z</time></trkpt><trkpt lat="53.6420446" lon="-1.86877"><ele>312.25</ele><time>2026-04-11T10:03:00.527Z</time></trkpt><trkpt lat="53.6420533" lon="-1.8685393"><ele>310.5</ele><time>2026-04-11T10:03:01.529Z</time></trkpt><trkpt lat="53.6420645" lon="-1.8683081"><ele>308.75</ele><time>2026-04-11T10:03:02.529Z</time></trkpt><trkpt lat="53.6420756" lon="-1.8680791"><ele>307.0</ele><time>2026-04-11T10:03:03.532Z</time></trkpt><trkpt lat="53.6420898" lon="-1.867847"><ele>305.25</ele><time>2026-04-11T10:03:04.53Z</time></trkpt><trkpt lat="53.6421046" lon="-1.8676112"><ele>303.5</ele><time>2026-04-11T10:03:05.533Z</time></trkpt><trkpt lat="53.6421321" lon="-1.8673808"><ele>301.75</ele><time>2026-04-11T10:03:06.525Z</time></trkpt><trkpt lat="53.6421636" lon="-1.8671606"><ele>300.0</ele><time>2026-04-11T10:03:07.525Z</time></trkpt><trkpt lat="53.6421976" lon="-1.8669581"><ele>298.4</ele><time>2026-04-11T10:03:08.524Z</time></trkpt><trkpt lat="53.6422397" lon="-1.8667789"><ele>296.8</ele><time>2026-04-11T10:03:09.524Z</time></trkpt><trkpt lat="53.6422826" lon="-1.8666175"><ele>295.2</ele><time>2026-04-11T10:03:10.532Z</time></trkpt><trkpt lat="53.6422998" lon="-1.8664506"><ele>293.6</ele><time>2026-04-11T10:03:11.527Z</time></trkpt><trkpt lat="53.6422745" lon="-1.8662804"><ele>292.0</ele><time>2026-04-11T10:03:12.527Z</time></trkpt><trkpt lat="53.6422146" lon="-1.8661122"><ele>290.25</ele><time>2026-04-11T10:03:13.528Z</time></trkpt><trkpt lat="53.6421234" lon="-1.8659625"><ele>288.5</ele><time>2026-04-11T10:03:14.528Z</time></trkpt><trkpt lat="53.6420084" lon="-1.8658389"><ele>286.75</ele><time>2026-04-11T10:03:15.528Z</time></trkpt><trkpt lat="53.6418904" lon="-1.8657228"><ele>285.0</ele><time>2026-04-11T10:03:16.533Z</time></trkpt><trkpt lat="53.6417811" lon="-1.8656209"><ele>281.0</ele><time>2026-04-11T10:03:17.531Z</time></trkpt><trkpt lat="53.6416813" lon="-1.8655185"><ele>277.0</ele><time>2026-04-11T10:03:18.531Z</time></trkpt><trkpt lat="53.6415886" lon="-1.8654167"><ele>273.0</ele><time>2026-04-11T10:03:19.53Z</time></trkpt><trkpt lat="53.641496" lon="-1.8653096"><ele>269.0</ele><time>2026-04-11T10:03:20.527Z</time></trkpt><trkpt lat="53.6414082" lon="-1.8652019"><ele>265.0</ele><time>2026-04-11T10:03:21.528Z</time></trkpt><trkpt lat="53.6413263" lon="-1.8650865"><ele>264.5</ele><time>2026-04-11T10:03:22.53Z</time></trkpt><trkpt lat="53.6412513" lon="-1.8649597"><ele>264.0</ele><time>2026-04-11T10:03:23.537Z</time></trkpt><trkpt lat="53.64119" lon="-1.8648087"><ele>263.5</ele><time>2026-04-11T10:03:24.53Z</time></trkpt><trkpt lat="53.641148" lon="-1.8646133"><ele>263.0</ele><time>2026-04-11T10:03:25.529Z</time></trkpt><trkpt lat="53.6411269" lon="-1.8643867"><ele>258.6666666666667</ele><time>2026-04-11T10:03:26.526Z</time></trkpt><trkpt lat="53.6411145" lon="-1.8641335"><ele>254.33333333333331</ele><time>2026-04-11T10:03:27.53Z</time></trkpt><trkpt lat="53.641102" lon="-1.8638688"><ele>250.0</ele><time>2026-04-11T10:03:28.536Z</time></trkpt><trkpt lat="53.6410861" lon="-1.8636022"><ele>249.25</ele><time>2026-04-11T10:03:29.534Z</time></trkpt><trkpt lat="53.6410696" lon="-1.863348"><ele>248.5</ele><time>2026-04-11T10:03:30.538Z</time></trkpt><trkpt lat="53.6410527" lon="-1.8631136"><ele>247.75</ele><time>2026-04-11T10:03:31.535Z</time></trkpt><trkpt lat="53.6410377" lon="-1.8628973"><ele>247.0</ele><time>2026-04-11T10:03:32.533Z</time></trkpt><trkpt lat="53.6410235" lon="-1.8626826"><ele>246.25</ele><time>2026-04-11T10:03:33.537Z</time></trkpt><trkpt lat="53.6410058" lon="-1.8624577"><ele>245.5</ele><time>2026-04-11T10:03:34.536Z</time></trkpt><trkpt lat="53.6409876" lon="-1.8622297"><ele>244.75</ele><time>2026-04-11T10:03:35.542Z</time></trkpt><trkpt lat="53.6409713" lon="-1.8619962"><ele>244.0</ele><time>2026-04-11T10:03:36.536Z</time></trkpt><trkpt lat="53.6409568" lon="-1.8617651"><ele>242.33333333333331</ele><time>2026-04-11T10:03:37.537Z</time></trkpt><trkpt lat="53.6409519" lon="-1.8615175"><ele>240.66666666666669</ele><time>2026-04-11T10:03:38.534Z</time></trkpt><trkpt lat="53.6409559" lon="-1.8612634"><ele>239.0</ele><time>2026-04-11T10:03:39.529Z</time></trkpt><trkpt lat="53.6409645" lon="-1.8610048"><ele>237.66666666666669</ele><time>2026-04-11T10:03:40.53Z</time></trkpt><trkpt lat="53.6409713" lon="-1.8607382"><ele>236.33333333333331</ele><time>2026-04-11T10:03:41.528Z</time></trkpt><trkpt lat="53.6409727" lon="-1.8604717"><ele>235.0</ele><time>2026-04-11T10:03:42.528Z</time></trkpt><trkpt lat="53.6409702" lon="-1.8602114"><ele>233.75</ele><time>2026-04-11T10:03:43.53Z</time></trkpt><trkpt lat="53.6409627" lon="-1.8599524"><ele>232.5</ele><time>2026-04-11T10:03:44.532Z</time></trkpt><trkpt lat="53.6409508" lon="-1.8597002"><ele>231.25</ele><time>2026-04-11T10:03:45.531Z</time></trkpt><trkpt lat="53.6409385" lon="-1.8594624"><ele>230.0</ele><time>2026-04-11T10:03:46.531Z</time></trkpt><trkpt lat="53.6409279" lon="-1.8592367"><ele>229.0</ele><time>2026-04-11T10:03:47.531Z</time></trkpt><trkpt lat="53.6409128" lon="-1.8590024"><ele>228.0</ele><time>2026-04-11T10:03:48.531Z</time></trkpt><trkpt lat="53.640895" lon="-1.85876"><ele>227.0</ele><time>2026-04-11T10:03:49.529Z</time></trkpt><trkpt lat="53.6408779" lon="-1.8585127"><ele>226.0</ele><time>2026-04-11T10:03:50.533Z</time></trkpt><trkpt lat="53.6408602" lon="-1.8582671"><ele>225.0</ele><time>2026-04-11T10:03:51.532Z</time></trkpt><trkpt lat="53.6408402" lon="-1.8580345"><ele>224.0</ele><time>2026-04-11T10:03:52.531Z</time></trkpt><trkpt lat="53.6408167" lon="-1.8578181"><ele>223.0</ele><time>2026-04-11T10:03:53.531Z</time></trkpt><trkpt lat="53.6407899" lon="-1.8576243"><ele>222.0</ele><time>2026-04-11T10:03:54.527Z</time></trkpt><trkpt lat="53.6407585" lon="-1.8574536"><ele>221.66666666666666</ele><time>2026-04-11T10:03:55.532Z</time></trkpt><trkpt lat="53.640728" lon="-1.8573136"><ele>221.33333333333331</ele><time>2026-04-11T10:03:56.531Z</time></trkpt><trkpt lat="53.640701" lon="-1.8572057"><ele>221.0</ele><time>2026-04-11T10:03:57.531Z</time></trkpt><trkpt lat="53.6406962" lon="-1.8570497"><ele>220.66666666666666</ele><time>2026-04-11T10:03:59.533Z</time></trkpt><trkpt lat="53.6408076" lon="-1.8569609"><ele>220.33333333333331</ele><time>2026-04-11T10:04:01.535Z</time></trkpt><trkpt lat="53.6408754" lon="-1.856905"><ele>220.0</ele><time>2026-04-11T10:04:02.533Z</time></trkpt><trkpt lat="53.6409444" lon="-1.8568354"><ele>219.83333333333331</ele><time>2026-04-11T10:04:03.536Z</time></trkpt><trkpt lat="53.6410094" lon="-1.8567421"><ele>219.66666666666666</ele><time>2026-04-11T10:04:04.535Z</time></trkpt><trkpt lat="53.6410708" lon="-1.856631"><ele>219.5</ele><time>2026-04-11T10:04:05.533Z</time></trkpt><trkpt lat="53.6411342" lon="-1.8565129"><ele>219.33333333333331</ele><time>2026-04-11T10:04:06.535Z</time></trkpt><trkpt lat="53.6411949" lon="-1.856401"><ele>219.16666666666666</ele><time>2026-04-11T10:04:07.532Z</time></trkpt><trkpt lat="53.6412513" lon="-1.8562888"><ele>219.0</ele><time>2026-04-11T10:04:08.533Z</time></trkpt><trkpt lat="53.6413064" lon="-1.856169"><ele>219.0</ele><time>2026-04-11T10:04:09.531Z</time></trkpt><trkpt lat="53.6413615" lon="-1.8560428"><ele>218.99999999999997</ele><time>2026-04-11T10:04:10.534Z</time></trkpt><trkpt lat="53.6414125" lon="-1.855917"><ele>218.99999999999997</ele><time>2026-04-11T10:04:11.531Z</time></trkpt><trkpt lat="53.6414646" lon="-1.8557948"><ele>219.0</ele><time>2026-04-11T10:04:12.53Z</time></trkpt><trkpt lat="53.6415203" lon="-1.8556735"><ele>219.0</ele><time>2026-04-11T10:04:13.532Z</time></trkpt><trkpt lat="53.6415818" lon="-1.8555491"><ele>218.2</ele><time>2026-04-11T10:04:14.532Z</time></trkpt><trkpt lat="53.6416458" lon="-1.855422"><ele>217.39999999999998</ele><time>2026-04-11T10:04:15.532Z</time></trkpt><trkpt lat="53.6417111" lon="-1.8552864"><ele>216.6</ele><time>2026-04-11T10:04:16.533Z</time></trkpt><trkpt lat="53.6417754" lon="-1.8551477"><ele>215.8</ele><time>2026-04-11T10:04:17.526Z</time></trkpt><trkpt lat="53.6418389" lon="-1.8550109"><ele>215.0</ele><time>2026-04-11T10:04:18.533Z</time></trkpt><trkpt lat="53.641903" lon="-1.8548821"><ele>214.2</ele><time>2026-04-11T10:04:19.529Z</time></trkpt><trkpt lat="53.6419652" lon="-1.8547568"><ele>213.4</ele><time>2026-04-11T10:04:20.532Z</time></trkpt><trkpt lat="53.6420236" lon="-1.8546328"><ele>212.60000000000002</ele><time>2026-04-11T10:04:21.527Z</time></trkpt><trkpt lat="53.6420814" lon="-1.854512"><ele>211.8</ele><time>2026-04-11T10:04:22.532Z</time></trkpt><trkpt lat="53.6421372" lon="-1.8543931"><ele>211.0</ele><time>2026-04-11T10:04:23.535Z</time></trkpt><trkpt lat="53.6421878" lon="-1.8542696"><ele>210.83333333333331</ele><time>2026-04-11T10:04:24.535Z</time></trkpt><trkpt lat="53.6422402" lon="-1.8541474"><ele>210.66666666666666</ele><time>2026-04-11T10:04:25.531Z</time></trkpt><trkpt lat="53.6422975" lon="-1.8540334"><ele>210.5</ele><time>2026-04-11T10:04:26.531Z</time></trkpt><trkpt lat="53.6423626" lon="-1.8539356"><ele>210.33333333333331</ele><time>2026-04-11T10:04:27.531Z</time></trkpt><trkpt lat="53.6424359" lon="-1.8538556"><ele>210.16666666666666</ele><time>2026-04-11T10:04:28.533Z</time></trkpt><trkpt lat="53.6425204" lon="-1.853808"><ele>210.0</ele><time>2026-04-11T10:04:29.533Z</time></trkpt><trkpt lat="53.6426159" lon="-1.8538136"><ele>210.0</ele><time>2026-04-11T10:04:30.526Z</time></trkpt><trkpt lat="53.6427193" lon="-1.8538427"><ele>210.0</ele><time>2026-04-11T10:04:31.538Z</time></trkpt><trkpt lat="53.6428197" lon="-1.8538723"><ele>210.0</ele><time>2026-04-11T10:04:32.535Z</time></trkpt><trkpt lat="53.6429175" lon="-1.8539022"><ele>210.0</ele><time>2026-04-11T10:04:33.537Z</time></trkpt><trkpt lat="53.6430114" lon="-1.8539171"><ele>210.0</ele><time>2026-04-11T10:04:34.537Z</time></trkpt><trkpt lat="53.6431055" lon="-1.8539323"><ele>209.8</ele><time>2026-04-11T10:04:35.535Z</time></trkpt><trkpt lat="53.6431983" lon="-1.8539701"><ele>209.6</ele><time>2026-04-11T10:04:36.534Z</time></trkpt><trkpt lat="53.6432882" lon="-1.8540369"><ele>209.39999999999998</ele><time>2026-04-11T10:04:37.535Z</time></trkpt><trkpt lat="53.6433749" lon="-1.8541217"><ele>209.2</ele><time>2026-04-11T10:04:38.528Z</time></trkpt><trkpt lat="53.6434554" lon="-1.8542044"><ele>209.0</ele><time>2026-04-11T10:04:39.534Z</time></trkpt><trkpt lat="53.6435267" lon="-1.8542771"><ele>208.83333333333334</ele><time>2026-04-11T10:04:40.536Z</time></trkpt><trkpt lat="53.6435851" lon="-1.8543435"><ele>208.66666666666669</ele><time>2026-04-11T10:04:41.531Z</time></trkpt><trkpt lat="53.643661" lon="-1.8544233"><ele>208.5</ele><time>2026-04-11T10:04:43.531Z</time></trkpt><trkpt lat="53.6437231" lon="-1.854364"><ele>208.33333333333331</ele><time>2026-04-11T10:04:45.532Z</time></trkpt><trkpt lat="53.6437487" lon="-1.8542604"><ele>208.16666666666666</ele><time>2026-04-11T10:04:46.529Z</time></trkpt><trkpt lat="53.6437806" lon="-1.8541399"><ele>208.0</ele><time>2026-04-11T10:04:47.533Z</time></trkpt><trkpt lat="53.6438123" lon="-1.8540112"><ele>208.0</ele><time>2026-04-11T10:04:48.532Z</time></trkpt><trkpt lat="53.6438335" lon="-1.8538623"><ele>208.0</ele><time>2026-04-11T10:04:49.53Z</time></trkpt><trkpt lat="53.643845" lon="-1.8537191"><ele>208.0</ele><time>2026-04-11T10:04:50.531Z</time></trkpt><trkpt lat="53.6438574" lon="-1.8535951"><ele>208.0</ele><time>2026-04-11T10:04:51.53Z</time></trkpt><trkpt lat="53.6438784" lon="-1.8534061"><ele>208.0</ele><time>2026-04-11T10:04:53.532Z</time></trkpt><trkpt lat="53.6437965" lon="-1.8532634"><ele>207.99999999999997</ele><time>2026-04-11T10:04:55.526Z</time></trkpt><trkpt lat="53.6437266" lon="-1.853215"><ele>208.0</ele><time>2026-04-11T10:04:56.53Z</time></trkpt><trkpt lat="53.6436539" lon="-1.8531569"><ele>208.0</ele><time>2026-04-11T10:04:57.529Z</time></trkpt><trkpt lat="53.6435821" lon="-1.8530797"><ele>208.0</ele><time>2026-04-11T10:04:58.53Z</time></trkpt><trkpt lat="53.6435141" lon="-1.8529974"><ele>207.99999999999997</ele><time>2026-04-11T10:04:59.53Z</time></trkpt><trkpt lat="53.6434604" lon="-1.8528951"><ele>208.0</ele><time>2026-04-11T10:05:00.533Z</time></trkpt><trkpt lat="53.6434262" lon="-1.8527823"><ele>207.99999999999997</ele><time>2026-04-11T10:05:01.529Z</time></trkpt><trkpt lat="53.6434146" lon="-1.8526719"><ele>208.0</ele><time>2026-04-11T10:05:02.528Z</time></trkpt><trkpt lat="53.6434283" lon="-1.8525088"><ele>208.0</ele><time>2026-04-11T10:05:04.531Z</time></trkpt><trkpt lat="53.6434878" lon="-1.8523727"><ele>208.0</ele><time>2026-04-11T10:05:06.534Z</time></trkpt><trkpt lat="53.6435384" lon="-1.8522901"><ele>207.99999999999997</ele><time>2026-04-11T10:05:07.534Z</time></trkpt><trkpt lat="53.6435867" lon="-1.8521596"><ele>208.0</ele><time>2026-04-11T10:05:08.529Z</time></trkpt><trkpt lat="53.643626" lon="-1.8519955"><ele>207.33333333333331</ele><time>2026-04-11T10:05:09.536Z</time></trkpt><trkpt lat="53.6436631" lon="-1.8518397"><ele>206.66666666666666</ele><time>2026-04-11T10:05:10.53Z</time></trkpt><trkpt lat="53.6437092" lon="-1.8517091"><ele>206.0</ele><time>2026-04-11T10:05:11.531Z</time></trkpt><trkpt lat="53.6437412" lon="-1.851583"><ele>205.33333333333331</ele><time>2026-04-11T10:05:12.532Z</time></trkpt><trkpt lat="53.6437772" lon="-1.851472"><ele>204.66666666666666</ele><time>2026-04-11T10:05:13.531Z</time></trkpt><trkpt lat="53.6438166" lon="-1.851356"><ele>204.0</ele><time>2026-04-11T10:05:14.532Z</time></trkpt><trkpt lat="53.6438589" lon="-1.8512169"><ele>203.5</ele><time>2026-04-11T10:05:15.531Z</time></trkpt><trkpt lat="53.6439038" lon="-1.851074"><ele>203.0</ele><time>2026-04-11T10:05:16.534Z</time></trkpt><trkpt lat="53.643949" lon="-1.8509443"><ele>202.5</ele><time>2026-04-11T10:05:17.53Z</time></trkpt><trkpt lat="53.6439963" lon="-1.8508284"><ele>202.0</ele><time>2026-04-11T10:05:18.529Z</time></trkpt><trkpt lat="53.6440449" lon="-1.850715"><ele>201.5</ele><time>2026-04-11T10:05:19.533Z</time></trkpt><trkpt lat="53.6440956" lon="-1.8505958"><ele>201.0</ele><time>2026-04-11T10:05:20.529Z</time></trkpt><trkpt lat="53.6441481" lon="-1.850469"><ele>200.66666666666666</ele><time>2026-04-11T10:05:21.53Z</time></trkpt><trkpt lat="53.6441968" lon="-1.8503437"><ele>200.33333333333331</ele><time>2026-04-11T10:05:22.531Z</time></trkpt><trkpt lat="53.6442349" lon="-1.850222"><ele>200.0</ele><time>2026-04-11T10:05:23.531Z</time></trkpt><trkpt lat="53.644262" lon="-1.8501023"><ele>199.66666666666666</ele><time>2026-04-11T10:05:24.53Z</time></trkpt><trkpt lat="53.6442852" lon="-1.8499843"><ele>199.33333333333331</ele><time>2026-04-11T10:05:25.531Z</time></trkpt><trkpt lat="53.6443071" lon="-1.8498489"><ele>199.0</ele><time>2026-04-11T10:05:26.531Z</time></trkpt><trkpt lat="53.6443304" lon="-1.8497081"><ele>198.83333333333331</ele><time>2026-04-11T10:05:27.525Z</time></trkpt><trkpt lat="53.6443542" lon="-1.8495798"><ele>198.66666666666666</ele><time>2026-04-11T10:05:28.531Z</time></trkpt><trkpt lat="53.6443779" lon="-1.8494539"><ele>198.5</ele><time>2026-04-11T10:05:29.531Z</time></trkpt><trkpt lat="53.6443991" lon="-1.8493231"><ele>198.33333333333331</ele><time>2026-04-11T10:05:30.532Z</time></trkpt><trkpt lat="53.6444213" lon="-1.8492017"><ele>198.16666666666666</ele><time>2026-04-11T10:05:31.535Z</time></trkpt><trkpt lat="53.6444442" lon="-1.8490832"><ele>198.0</ele><time>2026-04-11T10:05:32.533Z</time></trkpt><trkpt lat="53.644473" lon="-1.8489605"><ele>197.0</ele><time>2026-04-11T10:05:33.533Z</time></trkpt><trkpt lat="53.6445082" lon="-1.8488374"><ele>196.0</ele><time>2026-04-11T10:05:34.534Z</time></trkpt><trkpt lat="53.6445378" lon="-1.8487174"><ele>195.0</ele><time>2026-04-11T10:05:35.536Z</time></trkpt><trkpt lat="53.6445675" lon="-1.8485971"><ele>194.0</ele><time>2026-04-11T10:05:36.535Z</time></trkpt><trkpt lat="53.6445947" lon="-1.8484939"><ele>193.0</ele><time>2026-04-11T10:05:37.537Z</time></trkpt><trkpt lat="53.6446317" lon="-1.8483085"><ele>192.0</ele><time>2026-04-11T10:05:39.529Z</time></trkpt><trkpt lat="53.6445984" lon="-1.8481341"><ele>191.83333333333334</ele><time>2026-04-11T10:05:41.532Z</time></trkpt><trkpt lat="53.6445348" lon="-1.8480566"><ele>191.66666666666666</ele><time>2026-04-11T10:05:42.53Z</time></trkpt><trkpt lat="53.6444539" lon="-1.8479996"><ele>191.5</ele><time>2026-04-11T10:05:43.53Z</time></trkpt><trkpt lat="53.6443672" lon="-1.8479636"><ele>191.33333333333331</ele><time>2026-04-11T10:05:44.532Z</time></trkpt><trkpt lat="53.6442839" lon="-1.8479359"><ele>191.16666666666666</ele><time>2026-04-11T10:05:45.53Z</time></trkpt><trkpt lat="53.6442041" lon="-1.8479177"><ele>191.0</ele><time>2026-04-11T10:05:46.533Z</time></trkpt><trkpt lat="53.6441231" lon="-1.8479058"><ele>191.0</ele><time>2026-04-11T10:05:47.534Z</time></trkpt><trkpt lat="53.6440514" lon="-1.8478904"><ele>191.0</ele><time>2026-04-11T10:05:48.533Z</time></trkpt><trkpt lat="53.6439637" lon="-1.8478576"><ele>191.0</ele><time>2026-04-11T10:05:50.532Z</time></trkpt><trkpt lat="53.6439459" lon="-1.8477222"><ele>191.0</ele><time>2026-04-11T10:05:54.529Z</time></trkpt><trkpt lat="53.6439552" lon="-1.8475984"><ele>191.0</ele><time>2026-04-11T10:05:56.527Z</time></trkpt><trkpt lat="53.6439643" lon="-1.8474812"><ele>191.0</ele><time>2026-04-11T10:05:58.533Z</time></trkpt><trkpt lat="53.6439838" lon="-1.8473682"><ele>190.16666666666666</ele><time>2026-04-11T10:06:01.53Z</time></trkpt><trkpt lat="53.6440226" lon="-1.847254"><ele>189.33333333333331</ele><time>2026-04-11T10:06:12.531Z</time></trkpt><trkpt lat="53.644066" lon="-1.8471291"><ele>188.5</ele><time>2026-04-11T10:06:15.533Z</time></trkpt><trkpt lat="53.6441034" lon="-1.847023"><ele>187.66666666666666</ele><time>2026-04-11T10:06:17.532Z</time></trkpt><trkpt lat="53.6441406" lon="-1.8469107"><ele>186.83333333333334</ele><time>2026-04-11T10:06:19.533Z</time></trkpt><trkpt lat="53.6441707" lon="-1.8467759"><ele>186.0</ele><time>2026-04-11T10:06:21.531Z</time></trkpt><trkpt lat="53.6442041" lon="-1.8466316"><ele>183.0</ele><time>2026-04-11T10:06:23.536Z</time></trkpt><trkpt lat="53.6442463" lon="-1.8464924"><ele>183.0</ele><time>2026-04-11T10:06:25.536Z</time></trkpt><trkpt lat="53.6442897" lon="-1.8463331"><ele>183.0</ele><time>2026-04-11T10:06:27.531Z</time></trkpt><trkpt lat="53.644325" lon="-1.8461892"><ele>183.0</ele><time>2026-04-11T10:06:29.531Z</time></trkpt><trkpt lat="53.644392" lon="-1.8461463"><ele>183.0</ele><time>2026-04-11T10:06:32.534Z</time></trkpt><trkpt lat="53.6444108" lon="-1.8462484"><ele>183.0</ele><time>2026-04-11T10:08:06.53Z</time></trkpt></trkseg></trk></gpx>